<?xml version="1.0" encoding="UTF-8" standalone="no" ?>
<gpx xmlns="http://www.topografix.com/GPX/1/1" xmlns:xsi="http://www.w3.org/2001/XMLSchema-instance" xsi:schemaLocation="http://www.topografix.com/GPX/1/1 http://www.topografix.com/GPX/1/1/gpx.xsd" version="1.1" creator="VisuGPX - https://www.visugpx.com">
  <metadata>
    <name>Pornichet 07/03/2021</name>
    <desc><![CDATA[Sortie VTT du jeudi 07 mars 2021]]></desc>
  </metadata>
  <trk>
    <name><![CDATA[Pornichet Cyclisme]]></name>
    <trkseg>
      <trkpt lat="47.26407" lon="-2.31582">
        <ele>9.7</ele>
        <time>2021-03-07T08:21:58.000Z</time>
      </trkpt>
      <trkpt lat="47.26407" lon="-2.31591">
        <ele>9.6</ele>
        <time>2021-03-07T08:22:01.000Z</time>
      </trkpt>
      <trkpt lat="47.26406" lon="-2.31595">
        <ele>0.60000002384186</ele>
        <time>2021-03-07T08:22:02.000Z</time>
      </trkpt>
      <trkpt lat="47.26406" lon="-2.31599">
        <ele>0.60000002384186</ele>
        <time>2021-03-07T08:22:03.000Z</time>
      </trkpt>
      <trkpt lat="47.26406" lon="-2.31636">
        <ele>0.60000002384186</ele>
        <time>2021-03-07T08:22:12.000Z</time>
      </trkpt>
      <trkpt lat="47.26407" lon="-2.3167">
        <ele>0.60000002384186</ele>
        <time>2021-03-07T08:22:19.000Z</time>
      </trkpt>
      <trkpt lat="47.26406" lon="-2.31674">
        <ele>0.60000002384186</ele>
        <time>2021-03-07T08:22:20.000Z</time>
      </trkpt>
      <trkpt lat="47.26398" lon="-2.31679">
        <ele>0.60000002384186</ele>
        <time>2021-03-07T08:22:22.000Z</time>
      </trkpt>
      <trkpt lat="47.26381" lon="-2.31687">
        <ele>0.60000002384186</ele>
        <time>2021-03-07T08:22:26.000Z</time>
      </trkpt>
      <trkpt lat="47.26371" lon="-2.31693">
        <ele>0.60000002384186</ele>
        <time>2021-03-07T08:22:28.000Z</time>
      </trkpt>
      <trkpt lat="47.2634" lon="-2.31711">
        <ele>0.20000000298023</ele>
        <time>2021-03-07T08:22:34.000Z</time>
      </trkpt>
      <trkpt lat="47.26335" lon="-2.31713">
        <ele>-0.40000000596046</ele>
        <time>2021-03-07T08:22:35.000Z</time>
      </trkpt>
      <trkpt lat="47.2633" lon="-2.31716">
        <ele>-0.80000001192093</ele>
        <time>2021-03-07T08:22:36.000Z</time>
      </trkpt>
      <trkpt lat="47.26324" lon="-2.31719">
        <ele>-1.2000000476837</ele>
        <time>2021-03-07T08:22:37.000Z</time>
      </trkpt>
      <trkpt lat="47.26318" lon="-2.31721">
        <ele>-1.6000000238419</ele>
        <time>2021-03-07T08:22:38.000Z</time>
      </trkpt>
      <trkpt lat="47.26308" lon="-2.31725">
        <ele>-1.6000000238419</ele>
        <time>2021-03-07T08:22:40.000Z</time>
      </trkpt>
      <trkpt lat="47.26304" lon="-2.31728">
        <ele>-1.6000000238419</ele>
        <time>2021-03-07T08:22:41.000Z</time>
      </trkpt>
      <trkpt lat="47.26298" lon="-2.31737">
        <ele>-2</ele>
        <time>2021-03-07T08:22:43.000Z</time>
      </trkpt>
      <trkpt lat="47.26298" lon="-2.31743">
        <ele>-2.4000000953674</ele>
        <time>2021-03-07T08:22:44.000Z</time>
      </trkpt>
      <trkpt lat="47.26298" lon="-2.31749">
        <ele>-2.7999999523163</ele>
        <time>2021-03-07T08:22:45.000Z</time>
      </trkpt>
      <trkpt lat="47.26299" lon="-2.31755">
        <ele>-3.2000000476837</ele>
        <time>2021-03-07T08:22:46.000Z</time>
      </trkpt>
      <trkpt lat="47.263" lon="-2.3176">
        <ele>-3.7999999523163</ele>
        <time>2021-03-07T08:22:47.000Z</time>
      </trkpt>
      <trkpt lat="47.26302" lon="-2.31793">
        <ele>-3.7999999523163</ele>
        <time>2021-03-07T08:22:52.000Z</time>
      </trkpt>
      <trkpt lat="47.26301" lon="-2.31837">
        <ele>-3.7999999523163</ele>
        <time>2021-03-07T08:22:59.000Z</time>
      </trkpt>
      <trkpt lat="47.263" lon="-2.31868">
        <ele>-3.7999999523163</ele>
        <time>2021-03-07T08:23:05.000Z</time>
      </trkpt>
      <trkpt lat="47.26299" lon="-2.31891">
        <ele>-3.7999999523163</ele>
        <time>2021-03-07T08:23:11.000Z</time>
      </trkpt>
      <trkpt lat="47.26287" lon="-2.31905">
        <ele>-3.7999999523163</ele>
        <time>2021-03-07T08:23:15.000Z</time>
      </trkpt>
      <trkpt lat="47.26265" lon="-2.31936">
        <ele>-3.7999999523163</ele>
        <time>2021-03-07T08:23:23.000Z</time>
      </trkpt>
      <trkpt lat="47.26263" lon="-2.31938">
        <ele>-3.7999999523163</ele>
        <time>2021-03-07T08:23:24.000Z</time>
      </trkpt>
      <trkpt lat="47.26256" lon="-2.31953">
        <ele>-4.1999998092651</ele>
        <time>2021-03-07T08:23:28.000Z</time>
      </trkpt>
      <trkpt lat="47.26255" lon="-2.31957">
        <ele>-4.5999999046326</ele>
        <time>2021-03-07T08:23:29.000Z</time>
      </trkpt>
      <trkpt lat="47.26253" lon="-2.3196">
        <ele>-5</ele>
        <time>2021-03-07T08:23:30.000Z</time>
      </trkpt>
      <trkpt lat="47.26251" lon="-2.31963">
        <ele>-5.4000000953674</ele>
        <time>2021-03-07T08:23:31.000Z</time>
      </trkpt>
      <trkpt lat="47.26249" lon="-2.31965">
        <ele>-5.8000001907349</ele>
        <time>2021-03-07T08:23:32.000Z</time>
      </trkpt>
      <trkpt lat="47.26244" lon="-2.31968">
        <ele>-5.8000001907349</ele>
        <time>2021-03-07T08:23:33.000Z</time>
      </trkpt>
      <trkpt lat="47.26235" lon="-2.31975">
        <ele>-5.8000001907349</ele>
        <time>2021-03-07T08:23:39.000Z</time>
      </trkpt>
      <trkpt lat="47.26221" lon="-2.3199">
        <ele>-5.8000001907349</ele>
        <time>2021-03-07T08:23:45.000Z</time>
      </trkpt>
      <trkpt lat="47.26217" lon="-2.31995">
        <ele>-5.8000001907349</ele>
        <time>2021-03-07T08:23:47.000Z</time>
      </trkpt>
      <trkpt lat="47.26215" lon="-2.32001">
        <ele>-5.8000001907349</ele>
        <time>2021-03-07T08:23:49.000Z</time>
      </trkpt>
      <trkpt lat="47.26208" lon="-2.32012">
        <ele>-5.8000001907349</ele>
        <time>2021-03-07T08:23:54.000Z</time>
      </trkpt>
      <trkpt lat="47.26198" lon="-2.32014">
        <ele>-5.8000001907349</ele>
        <time>2021-03-07T08:23:58.000Z</time>
      </trkpt>
      <trkpt lat="47.26195" lon="-2.32014">
        <ele>-5.8000001907349</ele>
        <time>2021-03-07T08:23:59.000Z</time>
      </trkpt>
      <trkpt lat="47.26176" lon="-2.3203">
        <ele>-5.8000001907349</ele>
        <time>2021-03-07T08:24:05.000Z</time>
      </trkpt>
      <trkpt lat="47.26166" lon="-2.32052">
        <ele>-5.8000001907349</ele>
        <time>2021-03-07T08:24:09.000Z</time>
      </trkpt>
      <trkpt lat="47.26164" lon="-2.32058">
        <ele>-5.8000001907349</ele>
        <time>2021-03-07T08:24:10.000Z</time>
      </trkpt>
      <trkpt lat="47.26157" lon="-2.32081">
        <ele>-5.8000001907349</ele>
        <time>2021-03-07T08:24:14.000Z</time>
      </trkpt>
      <trkpt lat="47.26153" lon="-2.321">
        <ele>-5.8000001907349</ele>
        <time>2021-03-07T08:24:17.000Z</time>
      </trkpt>
      <trkpt lat="47.26151" lon="-2.32105">
        <ele>-5.8000001907349</ele>
        <time>2021-03-07T08:24:18.000Z</time>
      </trkpt>
      <trkpt lat="47.26141" lon="-2.32133">
        <ele>-5.8000001907349</ele>
        <time>2021-03-07T08:24:23.000Z</time>
      </trkpt>
      <trkpt lat="47.26135" lon="-2.3215">
        <ele>-5.8000001907349</ele>
        <time>2021-03-07T08:24:26.000Z</time>
      </trkpt>
      <trkpt lat="47.26125" lon="-2.32172">
        <ele>-5.8000001907349</ele>
        <time>2021-03-07T08:24:30.000Z</time>
      </trkpt>
      <trkpt lat="47.26122" lon="-2.32178">
        <ele>-5.8000001907349</ele>
        <time>2021-03-07T08:24:31.000Z</time>
      </trkpt>
      <trkpt lat="47.26106" lon="-2.32209">
        <ele>-5.8000001907349</ele>
        <time>2021-03-07T08:24:37.000Z</time>
      </trkpt>
      <trkpt lat="47.26083" lon="-2.32241">
        <ele>-5.8000001907349</ele>
        <time>2021-03-07T08:24:44.000Z</time>
      </trkpt>
      <trkpt lat="47.26072" lon="-2.32255">
        <ele>-5.8000001907349</ele>
        <time>2021-03-07T08:24:47.000Z</time>
      </trkpt>
      <trkpt lat="47.26065" lon="-2.32263">
        <ele>-5.8000001907349</ele>
        <time>2021-03-07T08:24:49.000Z</time>
      </trkpt>
      <trkpt lat="47.26027" lon="-2.32307">
        <ele>-5.8000001907349</ele>
        <time>2021-03-07T08:24:59.000Z</time>
      </trkpt>
      <trkpt lat="47.26005" lon="-2.3234">
        <ele>-5.8000001907349</ele>
        <time>2021-03-07T08:25:06.000Z</time>
      </trkpt>
      <trkpt lat="47.25977" lon="-2.32376">
        <ele>-5.8000001907349</ele>
        <time>2021-03-07T08:25:14.000Z</time>
      </trkpt>
      <trkpt lat="47.25947" lon="-2.32415">
        <ele>-5.8000001907349</ele>
        <time>2021-03-07T08:25:23.000Z</time>
      </trkpt>
      <trkpt lat="47.25916" lon="-2.32455">
        <ele>-5.8000001907349</ele>
        <time>2021-03-07T08:25:32.000Z</time>
      </trkpt>
      <trkpt lat="47.25894" lon="-2.32474">
        <ele>-5.8000001907349</ele>
        <time>2021-03-07T08:25:38.000Z</time>
      </trkpt>
      <trkpt lat="47.25871" lon="-2.32476">
        <ele>-5.8000001907349</ele>
        <time>2021-03-07T08:25:43.000Z</time>
      </trkpt>
      <trkpt lat="47.25861" lon="-2.32476">
        <ele>-5.8000001907349</ele>
        <time>2021-03-07T08:25:45.000Z</time>
      </trkpt>
      <trkpt lat="47.25843" lon="-2.3247">
        <ele>-5.8000001907349</ele>
        <time>2021-03-07T08:25:49.000Z</time>
      </trkpt>
      <trkpt lat="47.25826" lon="-2.32461">
        <ele>-5.8000001907349</ele>
        <time>2021-03-07T08:25:53.000Z</time>
      </trkpt>
      <trkpt lat="47.25814" lon="-2.32456">
        <ele>-5.8000001907349</ele>
        <time>2021-03-07T08:25:56.000Z</time>
      </trkpt>
      <trkpt lat="47.258" lon="-2.32458">
        <ele>-5.4000000953674</ele>
        <time>2021-03-07T08:26:00.000Z</time>
      </trkpt>
      <trkpt lat="47.25796" lon="-2.32458">
        <ele>-5</ele>
        <time>2021-03-07T08:26:01.000Z</time>
      </trkpt>
      <trkpt lat="47.25791" lon="-2.32455">
        <ele>-4.5999999046326</ele>
        <time>2021-03-07T08:26:02.000Z</time>
      </trkpt>
      <trkpt lat="47.25788" lon="-2.32451">
        <ele>-4.1999998092651</ele>
        <time>2021-03-07T08:26:03.000Z</time>
      </trkpt>
      <trkpt lat="47.25784" lon="-2.32446">
        <ele>-3.7999999523163</ele>
        <time>2021-03-07T08:26:04.000Z</time>
      </trkpt>
      <trkpt lat="47.25772" lon="-2.32429">
        <ele>-3.7999999523163</ele>
        <time>2021-03-07T08:26:08.000Z</time>
      </trkpt>
      <trkpt lat="47.25768" lon="-2.32427">
        <ele>-3.7999999523163</ele>
        <time>2021-03-07T08:26:09.000Z</time>
      </trkpt>
      <trkpt lat="47.25758" lon="-2.32426">
        <ele>-3.7999999523163</ele>
        <time>2021-03-07T08:26:11.000Z</time>
      </trkpt>
      <trkpt lat="47.25747" lon="-2.32426">
        <ele>-3.7999999523163</ele>
        <time>2021-03-07T08:26:13.000Z</time>
      </trkpt>
      <trkpt lat="47.25705" lon="-2.32422">
        <ele>-3.7999999523163</ele>
        <time>2021-03-07T08:26:21.000Z</time>
      </trkpt>
      <trkpt lat="47.25669" lon="-2.32422">
        <ele>-3.7999999523163</ele>
        <time>2021-03-07T08:26:29.000Z</time>
      </trkpt>
      <trkpt lat="47.25663" lon="-2.32439">
        <ele>-3.7999999523163</ele>
        <time>2021-03-07T08:26:32.000Z</time>
      </trkpt>
      <trkpt lat="47.25668" lon="-2.32462">
        <ele>-3.7999999523163</ele>
        <time>2021-03-07T08:26:36.000Z</time>
      </trkpt>
      <trkpt lat="47.25681" lon="-2.32499">
        <ele>-3.4000000953674</ele>
        <time>2021-03-07T08:26:43.000Z</time>
      </trkpt>
      <trkpt lat="47.25683" lon="-2.32505">
        <ele>-3</ele>
        <time>2021-03-07T08:26:44.000Z</time>
      </trkpt>
      <trkpt lat="47.25685" lon="-2.3251">
        <ele>-2.5999999046326</ele>
        <time>2021-03-07T08:26:45.000Z</time>
      </trkpt>
      <trkpt lat="47.25687" lon="-2.32516">
        <ele>-2</ele>
        <time>2021-03-07T08:26:46.000Z</time>
      </trkpt>
      <trkpt lat="47.25688" lon="-2.32521">
        <ele>-1.6000000238419</ele>
        <time>2021-03-07T08:26:47.000Z</time>
      </trkpt>
      <trkpt lat="47.25697" lon="-2.32546">
        <ele>-1.6000000238419</ele>
        <time>2021-03-07T08:26:52.000Z</time>
      </trkpt>
      <trkpt lat="47.25707" lon="-2.32581">
        <ele>-1.2000000476837</ele>
        <time>2021-03-07T08:26:59.000Z</time>
      </trkpt>
      <trkpt lat="47.25709" lon="-2.32587">
        <ele>-0.80000001192093</ele>
        <time>2021-03-07T08:27:00.000Z</time>
      </trkpt>
      <trkpt lat="47.2571" lon="-2.32592">
        <ele>-0.40000000596046</ele>
        <time>2021-03-07T08:27:01.000Z</time>
      </trkpt>
      <trkpt lat="47.25711" lon="-2.32597">
        <ele>9.4</ele>
        <time>2021-03-07T08:27:02.000Z</time>
      </trkpt>
      <trkpt lat="47.25712" lon="-2.32602">
        <ele>0.40000000596046</ele>
        <time>2021-03-07T08:27:03.000Z</time>
      </trkpt>
      <trkpt lat="47.25711" lon="-2.32618">
        <ele>0.40000000596046</ele>
        <time>2021-03-07T08:27:07.000Z</time>
      </trkpt>
      <trkpt lat="47.25697" lon="-2.32627">
        <ele>0.40000000596046</ele>
        <time>2021-03-07T08:27:11.000Z</time>
      </trkpt>
      <trkpt lat="47.25667" lon="-2.32642">
        <ele>0.40000000596046</ele>
        <time>2021-03-07T08:27:19.000Z</time>
      </trkpt>
      <trkpt lat="47.25652" lon="-2.32647">
        <ele>0.80000001192093</ele>
        <time>2021-03-07T08:27:23.000Z</time>
      </trkpt>
      <trkpt lat="47.25647" lon="-2.32649">
        <ele>1.2000000476837</ele>
        <time>2021-03-07T08:27:24.000Z</time>
      </trkpt>
      <trkpt lat="47.25643" lon="-2.32651">
        <ele>1.6000000238419</ele>
        <time>2021-03-07T08:27:25.000Z</time>
      </trkpt>
      <trkpt lat="47.2564" lon="-2.32653">
        <ele>2</ele>
        <time>2021-03-07T08:27:26.000Z</time>
      </trkpt>
      <trkpt lat="47.25636" lon="-2.32655">
        <ele>2.4000000953674</ele>
        <time>2021-03-07T08:27:27.000Z</time>
      </trkpt>
      <trkpt lat="47.25632" lon="-2.32656">
        <ele>2.4000000953674</ele>
        <time>2021-03-07T08:27:28.000Z</time>
      </trkpt>
      <trkpt lat="47.25617" lon="-2.32662">
        <ele>2.4000000953674</ele>
        <time>2021-03-07T08:27:32.000Z</time>
      </trkpt>
      <trkpt lat="47.25589" lon="-2.32674">
        <ele>2.4000000953674</ele>
        <time>2021-03-07T08:27:39.000Z</time>
      </trkpt>
      <trkpt lat="47.2556" lon="-2.32684">
        <ele>2.4000000953674</ele>
        <time>2021-03-07T08:27:46.000Z</time>
      </trkpt>
      <trkpt lat="47.25552" lon="-2.32688">
        <ele>2.4000000953674</ele>
        <time>2021-03-07T08:27:48.000Z</time>
      </trkpt>
      <trkpt lat="47.2554" lon="-2.32694">
        <ele>2.4000000953674</ele>
        <time>2021-03-07T08:27:51.000Z</time>
      </trkpt>
      <trkpt lat="47.25533" lon="-2.32698">
        <ele>2.4000000953674</ele>
        <time>2021-03-07T08:27:53.000Z</time>
      </trkpt>
      <trkpt lat="47.25511" lon="-2.32702">
        <ele>2.4000000953674</ele>
        <time>2021-03-07T08:27:58.000Z</time>
      </trkpt>
      <trkpt lat="47.25507" lon="-2.32702">
        <ele>2.4000000953674</ele>
        <time>2021-03-07T08:27:59.000Z</time>
      </trkpt>
      <trkpt lat="47.25485" lon="-2.32706">
        <ele>2.4000000953674</ele>
        <time>2021-03-07T08:28:04.000Z</time>
      </trkpt>
      <trkpt lat="47.25478" lon="-2.32712">
        <ele>2.4000000953674</ele>
        <time>2021-03-07T08:28:06.000Z</time>
      </trkpt>
      <trkpt lat="47.25471" lon="-2.32721">
        <ele>2.4000000953674</ele>
        <time>2021-03-07T08:28:08.000Z</time>
      </trkpt>
      <trkpt lat="47.25461" lon="-2.32735">
        <ele>2.4000000953674</ele>
        <time>2021-03-07T08:28:11.000Z</time>
      </trkpt>
      <trkpt lat="47.25436" lon="-2.3277">
        <ele>2.4000000953674</ele>
        <time>2021-03-07T08:28:18.000Z</time>
      </trkpt>
      <trkpt lat="47.25435" lon="-2.32777">
        <ele>2.4000000953674</ele>
        <time>2021-03-07T08:28:19.000Z</time>
      </trkpt>
      <trkpt lat="47.2543" lon="-2.32789">
        <ele>2.4000000953674</ele>
        <time>2021-03-07T08:28:21.000Z</time>
      </trkpt>
      <trkpt lat="47.25422" lon="-2.32799">
        <ele>2.4000000953674</ele>
        <time>2021-03-07T08:28:23.000Z</time>
      </trkpt>
      <trkpt lat="47.25393" lon="-2.32838">
        <ele>2.4000000953674</ele>
        <time>2021-03-07T08:28:30.000Z</time>
      </trkpt>
      <trkpt lat="47.25357" lon="-2.32877">
        <ele>2.4000000953674</ele>
        <time>2021-03-07T08:28:38.000Z</time>
      </trkpt>
      <trkpt lat="47.25315" lon="-2.32917">
        <ele>2.4000000953674</ele>
        <time>2021-03-07T08:28:47.000Z</time>
      </trkpt>
      <trkpt lat="47.25311" lon="-2.32921">
        <ele>2.4000000953674</ele>
        <time>2021-03-07T08:28:48.000Z</time>
      </trkpt>
      <trkpt lat="47.25307" lon="-2.32937">
        <ele>2.4000000953674</ele>
        <time>2021-03-07T08:28:50.000Z</time>
      </trkpt>
      <trkpt lat="47.25312" lon="-2.32957">
        <ele>2.4000000953674</ele>
        <time>2021-03-07T08:28:53.000Z</time>
      </trkpt>
      <trkpt lat="47.25318" lon="-2.32969">
        <ele>2.4000000953674</ele>
        <time>2021-03-07T08:28:55.000Z</time>
      </trkpt>
      <trkpt lat="47.25328" lon="-2.32997">
        <ele>2.4000000953674</ele>
        <time>2021-03-07T08:28:59.000Z</time>
      </trkpt>
      <trkpt lat="47.2535" lon="-2.33048">
        <ele>2.4000000953674</ele>
        <time>2021-03-07T08:29:07.000Z</time>
      </trkpt>
      <trkpt lat="47.25352" lon="-2.33055">
        <ele>2.4000000953674</ele>
        <time>2021-03-07T08:29:08.000Z</time>
      </trkpt>
      <trkpt lat="47.25358" lon="-2.3307">
        <ele>2</ele>
        <time>2021-03-07T08:29:11.000Z</time>
      </trkpt>
      <trkpt lat="47.2536" lon="-2.33075">
        <ele>1.6000000238419</ele>
        <time>2021-03-07T08:29:12.000Z</time>
      </trkpt>
      <trkpt lat="47.25361" lon="-2.3308">
        <ele>1.2000000476837</ele>
        <time>2021-03-07T08:29:13.000Z</time>
      </trkpt>
      <trkpt lat="47.25363" lon="-2.33084">
        <ele>0.80000001192093</ele>
        <time>2021-03-07T08:29:14.000Z</time>
      </trkpt>
      <trkpt lat="47.25365" lon="-2.33089">
        <ele>0.40000000596046</ele>
        <time>2021-03-07T08:29:15.000Z</time>
      </trkpt>
      <trkpt lat="47.25371" lon="-2.33105">
        <ele>0.40000000596046</ele>
        <time>2021-03-07T08:29:19.000Z</time>
      </trkpt>
      <trkpt lat="47.25371" lon="-2.33112">
        <ele>0.40000000596046</ele>
        <time>2021-03-07T08:29:22.000Z</time>
      </trkpt>
      <trkpt lat="47.25371" lon="-2.33111">
        <ele>0.40000000596046</ele>
        <time>2021-03-07T08:29:23.000Z</time>
      </trkpt>
      <trkpt lat="47.25371" lon="-2.33111">
        <ele>0.40000000596046</ele>
        <time>2021-03-07T08:29:25.000Z</time>
      </trkpt>
      <trkpt lat="47.2537" lon="-2.33107">
        <ele>0.40000000596046</ele>
        <time>2021-03-07T08:43:27.000Z</time>
      </trkpt>
      <trkpt lat="47.25371" lon="-2.33111">
        <ele>0.40000000596046</ele>
        <time>2021-03-07T08:43:29.000Z</time>
      </trkpt>
      <trkpt lat="47.25378" lon="-2.3313">
        <ele>0.40000000596046</ele>
        <time>2021-03-07T08:43:35.000Z</time>
      </trkpt>
      <trkpt lat="47.25376" lon="-2.33154">
        <ele>0.40000000596046</ele>
        <time>2021-03-07T08:43:40.000Z</time>
      </trkpt>
      <trkpt lat="47.25367" lon="-2.33169">
        <ele>0.40000000596046</ele>
        <time>2021-03-07T08:43:44.000Z</time>
      </trkpt>
      <trkpt lat="47.25347" lon="-2.33198">
        <ele>0.40000000596046</ele>
        <time>2021-03-07T08:43:51.000Z</time>
      </trkpt>
      <trkpt lat="47.25323" lon="-2.33228">
        <ele>0.40000000596046</ele>
        <time>2021-03-07T08:43:59.000Z</time>
      </trkpt>
      <trkpt lat="47.25316" lon="-2.33229">
        <ele>0.40000000596046</ele>
        <time>2021-03-07T08:44:01.000Z</time>
      </trkpt>
      <trkpt lat="47.25313" lon="-2.33228">
        <ele>0.40000000596046</ele>
        <time>2021-03-07T08:44:02.000Z</time>
      </trkpt>
      <trkpt lat="47.25306" lon="-2.33215">
        <ele>0.40000000596046</ele>
        <time>2021-03-07T08:44:06.000Z</time>
      </trkpt>
      <trkpt lat="47.25303" lon="-2.33208">
        <ele>0.40000000596046</ele>
        <time>2021-03-07T08:44:08.000Z</time>
      </trkpt>
      <trkpt lat="47.25291" lon="-2.33187">
        <ele>0.40000000596046</ele>
        <time>2021-03-07T08:44:14.000Z</time>
      </trkpt>
      <trkpt lat="47.25285" lon="-2.33178">
        <ele>0.40000000596046</ele>
        <time>2021-03-07T08:44:19.000Z</time>
      </trkpt>
      <trkpt lat="47.25278" lon="-2.33165">
        <ele>0.40000000596046</ele>
        <time>2021-03-07T08:44:26.000Z</time>
      </trkpt>
      <trkpt lat="47.25266" lon="-2.33143">
        <ele>0.40000000596046</ele>
        <time>2021-03-07T08:44:33.000Z</time>
      </trkpt>
      <trkpt lat="47.25254" lon="-2.33122">
        <ele>0.40000000596046</ele>
        <time>2021-03-07T08:44:39.000Z</time>
      </trkpt>
      <trkpt lat="47.2524" lon="-2.33098">
        <ele>0.40000000596046</ele>
        <time>2021-03-07T08:44:46.000Z</time>
      </trkpt>
      <trkpt lat="47.25222" lon="-2.33064">
        <ele>0.40000000596046</ele>
        <time>2021-03-07T08:44:55.000Z</time>
      </trkpt>
      <trkpt lat="47.25209" lon="-2.3304">
        <ele>0.40000000596046</ele>
        <time>2021-03-07T08:45:02.000Z</time>
      </trkpt>
      <trkpt lat="47.25205" lon="-2.33024">
        <ele>0.40000000596046</ele>
        <time>2021-03-07T08:45:07.000Z</time>
      </trkpt>
      <trkpt lat="47.25196" lon="-2.3301">
        <ele>0.40000000596046</ele>
        <time>2021-03-07T08:45:13.000Z</time>
      </trkpt>
      <trkpt lat="47.2519" lon="-2.33">
        <ele>0.40000000596046</ele>
        <time>2021-03-07T08:45:19.000Z</time>
      </trkpt>
      <trkpt lat="47.25188" lon="-2.32992">
        <ele>0.40000000596046</ele>
        <time>2021-03-07T08:45:22.000Z</time>
      </trkpt>
      <trkpt lat="47.25186" lon="-2.32983">
        <ele>0.40000000596046</ele>
        <time>2021-03-07T08:45:25.000Z</time>
      </trkpt>
      <trkpt lat="47.25177" lon="-2.32961">
        <ele>0.40000000596046</ele>
        <time>2021-03-07T08:45:31.000Z</time>
      </trkpt>
      <trkpt lat="47.25173" lon="-2.32949">
        <ele>0.40000000596046</ele>
        <time>2021-03-07T08:45:35.000Z</time>
      </trkpt>
      <trkpt lat="47.25179" lon="-2.32938">
        <ele>0.40000000596046</ele>
        <time>2021-03-07T08:45:39.000Z</time>
      </trkpt>
      <trkpt lat="47.25193" lon="-2.32922">
        <ele>0.40000000596046</ele>
        <time>2021-03-07T08:45:44.000Z</time>
      </trkpt>
      <trkpt lat="47.25211" lon="-2.32901">
        <ele>0.40000000596046</ele>
        <time>2021-03-07T08:45:50.000Z</time>
      </trkpt>
      <trkpt lat="47.25217" lon="-2.32876">
        <ele>0.40000000596046</ele>
        <time>2021-03-07T08:45:55.000Z</time>
      </trkpt>
      <trkpt lat="47.25217" lon="-2.32872">
        <ele>0.40000000596046</ele>
        <time>2021-03-07T08:45:56.000Z</time>
      </trkpt>
      <trkpt lat="47.25212" lon="-2.32868">
        <ele>0.40000000596046</ele>
        <time>2021-03-07T08:45:58.000Z</time>
      </trkpt>
      <trkpt lat="47.25205" lon="-2.32865">
        <ele>0.40000000596046</ele>
        <time>2021-03-07T08:46:00.000Z</time>
      </trkpt>
      <trkpt lat="47.25186" lon="-2.32853">
        <ele>0.40000000596046</ele>
        <time>2021-03-07T08:46:06.000Z</time>
      </trkpt>
      <trkpt lat="47.25166" lon="-2.32844">
        <ele>0.40000000596046</ele>
        <time>2021-03-07T08:46:12.000Z</time>
      </trkpt>
      <trkpt lat="47.25141" lon="-2.32835">
        <ele>0.40000000596046</ele>
        <time>2021-03-07T08:46:19.000Z</time>
      </trkpt>
      <trkpt lat="47.25121" lon="-2.3283">
        <ele>0.40000000596046</ele>
        <time>2021-03-07T08:46:25.000Z</time>
      </trkpt>
      <trkpt lat="47.25108" lon="-2.32825">
        <ele>0.40000000596046</ele>
        <time>2021-03-07T08:46:29.000Z</time>
      </trkpt>
      <trkpt lat="47.25094" lon="-2.3281">
        <ele>0.40000000596046</ele>
        <time>2021-03-07T08:46:34.000Z</time>
      </trkpt>
      <trkpt lat="47.25081" lon="-2.32781">
        <ele>0.40000000596046</ele>
        <time>2021-03-07T08:46:41.000Z</time>
      </trkpt>
      <trkpt lat="47.25066" lon="-2.32748">
        <ele>0.40000000596046</ele>
        <time>2021-03-07T08:46:49.000Z</time>
      </trkpt>
      <trkpt lat="47.25059" lon="-2.32726">
        <ele>0.40000000596046</ele>
        <time>2021-03-07T08:46:54.000Z</time>
      </trkpt>
      <trkpt lat="47.2506" lon="-2.32717">
        <ele>0.40000000596046</ele>
        <time>2021-03-07T08:46:56.000Z</time>
      </trkpt>
      <trkpt lat="47.25065" lon="-2.32711">
        <ele>0.40000000596046</ele>
        <time>2021-03-07T08:46:58.000Z</time>
      </trkpt>
      <trkpt lat="47.25083" lon="-2.32691">
        <ele>0.40000000596046</ele>
        <time>2021-03-07T08:47:05.000Z</time>
      </trkpt>
      <trkpt lat="47.25083" lon="-2.32687">
        <ele>0.40000000596046</ele>
        <time>2021-03-07T08:47:06.000Z</time>
      </trkpt>
      <trkpt lat="47.25082" lon="-2.3268">
        <ele>0.40000000596046</ele>
        <time>2021-03-07T08:47:08.000Z</time>
      </trkpt>
      <trkpt lat="47.25078" lon="-2.32672">
        <ele>0.40000000596046</ele>
        <time>2021-03-07T08:47:10.000Z</time>
      </trkpt>
      <trkpt lat="47.25072" lon="-2.3266">
        <ele>0.40000000596046</ele>
        <time>2021-03-07T08:47:13.000Z</time>
      </trkpt>
      <trkpt lat="47.2507" lon="-2.32656">
        <ele>0.80000001192093</ele>
        <time>2021-03-07T08:47:14.000Z</time>
      </trkpt>
      <trkpt lat="47.25068" lon="-2.32652">
        <ele>1.2000000476837</ele>
        <time>2021-03-07T08:47:15.000Z</time>
      </trkpt>
      <trkpt lat="47.25066" lon="-2.32648">
        <ele>1.6000000238419</ele>
        <time>2021-03-07T08:47:16.000Z</time>
      </trkpt>
      <trkpt lat="47.25064" lon="-2.32644">
        <ele>2</ele>
        <time>2021-03-07T08:47:17.000Z</time>
      </trkpt>
      <trkpt lat="47.25062" lon="-2.32641">
        <ele>2.5999999046326</ele>
        <time>2021-03-07T08:47:18.000Z</time>
      </trkpt>
      <trkpt lat="47.25056" lon="-2.32624">
        <ele>2.5999999046326</ele>
        <time>2021-03-07T08:47:22.000Z</time>
      </trkpt>
      <trkpt lat="47.25036" lon="-2.32584">
        <ele>3</ele>
        <time>2021-03-07T08:47:32.000Z</time>
      </trkpt>
      <trkpt lat="47.25035" lon="-2.3258">
        <ele>3.4000000953674</ele>
        <time>2021-03-07T08:47:33.000Z</time>
      </trkpt>
      <trkpt lat="47.25033" lon="-2.32576">
        <ele>3.7999999523163</ele>
        <time>2021-03-07T08:47:34.000Z</time>
      </trkpt>
      <trkpt lat="47.25032" lon="-2.32571">
        <ele>4.1999998092651</ele>
        <time>2021-03-07T08:47:35.000Z</time>
      </trkpt>
      <trkpt lat="47.2503" lon="-2.32568">
        <ele>4.5999999046326</ele>
        <time>2021-03-07T08:47:36.000Z</time>
      </trkpt>
      <trkpt lat="47.25026" lon="-2.32552">
        <ele>4.5999999046326</ele>
        <time>2021-03-07T08:47:40.000Z</time>
      </trkpt>
      <trkpt lat="47.25028" lon="-2.32537">
        <ele>4.5999999046326</ele>
        <time>2021-03-07T08:47:46.000Z</time>
      </trkpt>
      <trkpt lat="47.25035" lon="-2.32523">
        <ele>4.5999999046326</ele>
        <time>2021-03-07T08:47:51.000Z</time>
      </trkpt>
      <trkpt lat="47.25037" lon="-2.3252">
        <ele>5</ele>
        <time>2021-03-07T08:47:52.000Z</time>
      </trkpt>
      <trkpt lat="47.25039" lon="-2.32516">
        <ele>5.4000000953674</ele>
        <time>2021-03-07T08:47:53.000Z</time>
      </trkpt>
      <trkpt lat="47.25041" lon="-2.32513">
        <ele>5.8000001907349</ele>
        <time>2021-03-07T08:47:54.000Z</time>
      </trkpt>
      <trkpt lat="47.25044" lon="-2.32511">
        <ele>6.1999998092651</ele>
        <time>2021-03-07T08:47:55.000Z</time>
      </trkpt>
      <trkpt lat="47.25046" lon="-2.32508">
        <ele>6.5999999046326</ele>
        <time>2021-03-07T08:47:56.000Z</time>
      </trkpt>
      <trkpt lat="47.25049" lon="-2.32506">
        <ele>6.5999999046326</ele>
        <time>2021-03-07T08:47:57.000Z</time>
      </trkpt>
      <trkpt lat="47.25072" lon="-2.32493">
        <ele>7.1999998092651</ele>
        <time>2021-03-07T08:48:05.000Z</time>
      </trkpt>
      <trkpt lat="47.25076" lon="-2.32491">
        <ele>7.5999999046326</ele>
        <time>2021-03-07T08:48:06.000Z</time>
      </trkpt>
      <trkpt lat="47.25079" lon="-2.32489">
        <ele>8</ele>
        <time>2021-03-07T08:48:07.000Z</time>
      </trkpt>
      <trkpt lat="47.25082" lon="-2.32488">
        <ele>8.3999996185303</ele>
        <time>2021-03-07T08:48:08.000Z</time>
      </trkpt>
      <trkpt lat="47.25086" lon="-2.32485">
        <ele>8.8000001907349</ele>
        <time>2021-03-07T08:48:09.000Z</time>
      </trkpt>
      <trkpt lat="47.25098" lon="-2.32473">
        <ele>8.8000001907349</ele>
        <time>2021-03-07T08:48:13.000Z</time>
      </trkpt>
      <trkpt lat="47.25106" lon="-2.32448">
        <ele>8.8000001907349</ele>
        <time>2021-03-07T08:48:18.000Z</time>
      </trkpt>
      <trkpt lat="47.25106" lon="-2.32418">
        <ele>8.8000001907349</ele>
        <time>2021-03-07T08:48:24.000Z</time>
      </trkpt>
      <trkpt lat="47.25105" lon="-2.32397">
        <ele>9.1999998092651</ele>
        <time>2021-03-07T08:48:28.000Z</time>
      </trkpt>
      <trkpt lat="47.25104" lon="-2.32392">
        <ele>9.6000003814697</ele>
        <time>2021-03-07T08:48:29.000Z</time>
      </trkpt>
      <trkpt lat="47.25104" lon="-2.32386">
        <ele>10</ele>
        <time>2021-03-07T08:48:30.000Z</time>
      </trkpt>
      <trkpt lat="47.25105" lon="-2.32381">
        <ele>10.39999961853</ele>
        <time>2021-03-07T08:48:31.000Z</time>
      </trkpt>
      <trkpt lat="47.25105" lon="-2.32377">
        <ele>10.800000190735</ele>
        <time>2021-03-07T08:48:32.000Z</time>
      </trkpt>
      <trkpt lat="47.25111" lon="-2.32343">
        <ele>10.800000190735</ele>
        <time>2021-03-07T08:48:39.000Z</time>
      </trkpt>
      <trkpt lat="47.25115" lon="-2.32329">
        <ele>11.199999809265</ele>
        <time>2021-03-07T08:48:42.000Z</time>
      </trkpt>
      <trkpt lat="47.25117" lon="-2.32325">
        <ele>11.60000038147</ele>
        <time>2021-03-07T08:48:43.000Z</time>
      </trkpt>
      <trkpt lat="47.25118" lon="-2.32321">
        <ele>12</ele>
        <time>2021-03-07T08:48:44.000Z</time>
      </trkpt>
      <trkpt lat="47.25119" lon="-2.32317">
        <ele>12.39999961853</ele>
        <time>2021-03-07T08:48:45.000Z</time>
      </trkpt>
      <trkpt lat="47.25121" lon="-2.32313">
        <ele>12.800000190735</ele>
        <time>2021-03-07T08:48:46.000Z</time>
      </trkpt>
      <trkpt lat="47.25132" lon="-2.32288">
        <ele>12.800000190735</ele>
        <time>2021-03-07T08:48:53.000Z</time>
      </trkpt>
      <trkpt lat="47.25131" lon="-2.32274">
        <ele>13.199999809265</ele>
        <time>2021-03-07T08:48:56.000Z</time>
      </trkpt>
      <trkpt lat="47.25131" lon="-2.32268">
        <ele>13.60000038147</ele>
        <time>2021-03-07T08:48:57.000Z</time>
      </trkpt>
      <trkpt lat="47.2513" lon="-2.32263">
        <ele>14.199999809265</ele>
        <time>2021-03-07T08:48:58.000Z</time>
      </trkpt>
      <trkpt lat="47.2513" lon="-2.32258">
        <ele>14.60000038147</ele>
        <time>2021-03-07T08:48:59.000Z</time>
      </trkpt>
      <trkpt lat="47.25129" lon="-2.32253">
        <ele>15</ele>
        <time>2021-03-07T08:49:00.000Z</time>
      </trkpt>
      <trkpt lat="47.25127" lon="-2.32216">
        <ele>15</ele>
        <time>2021-03-07T08:49:07.000Z</time>
      </trkpt>
      <trkpt lat="47.25123" lon="-2.3217">
        <ele>15</ele>
        <time>2021-03-07T08:49:15.000Z</time>
      </trkpt>
      <trkpt lat="47.25121" lon="-2.32152">
        <ele>15</ele>
        <time>2021-03-07T08:49:18.000Z</time>
      </trkpt>
      <trkpt lat="47.2512" lon="-2.32135">
        <ele>15</ele>
        <time>2021-03-07T08:49:21.000Z</time>
      </trkpt>
      <trkpt lat="47.25117" lon="-2.32098">
        <ele>15</ele>
        <time>2021-03-07T08:49:27.000Z</time>
      </trkpt>
      <trkpt lat="47.25117" lon="-2.32092">
        <ele>15</ele>
        <time>2021-03-07T08:49:28.000Z</time>
      </trkpt>
      <trkpt lat="47.25113" lon="-2.32047">
        <ele>15</ele>
        <time>2021-03-07T08:49:35.000Z</time>
      </trkpt>
      <trkpt lat="47.25112" lon="-2.32028">
        <ele>15</ele>
        <time>2021-03-07T08:49:38.000Z</time>
      </trkpt>
      <trkpt lat="47.25111" lon="-2.32009">
        <ele>15</ele>
        <time>2021-03-07T08:49:41.000Z</time>
      </trkpt>
      <trkpt lat="47.2511" lon="-2.31989">
        <ele>15</ele>
        <time>2021-03-07T08:49:44.000Z</time>
      </trkpt>
      <trkpt lat="47.25105" lon="-2.31972">
        <ele>15</ele>
        <time>2021-03-07T08:49:47.000Z</time>
      </trkpt>
      <trkpt lat="47.25105" lon="-2.31947">
        <ele>15</ele>
        <time>2021-03-07T08:49:51.000Z</time>
      </trkpt>
      <trkpt lat="47.251" lon="-2.31904">
        <ele>15</ele>
        <time>2021-03-07T08:49:58.000Z</time>
      </trkpt>
      <trkpt lat="47.25091" lon="-2.31846">
        <ele>15.39999961853</ele>
        <time>2021-03-07T08:50:07.000Z</time>
      </trkpt>
      <trkpt lat="47.2509" lon="-2.3184">
        <ele>15.800000190735</ele>
        <time>2021-03-07T08:50:08.000Z</time>
      </trkpt>
      <trkpt lat="47.25088" lon="-2.31833">
        <ele>16.200000762939</ele>
        <time>2021-03-07T08:50:09.000Z</time>
      </trkpt>
      <trkpt lat="47.25087" lon="-2.31827">
        <ele>16.60000038147</ele>
        <time>2021-03-07T08:50:10.000Z</time>
      </trkpt>
      <trkpt lat="47.25086" lon="-2.3182">
        <ele>17</ele>
        <time>2021-03-07T08:50:11.000Z</time>
      </trkpt>
      <trkpt lat="47.25082" lon="-2.31802">
        <ele>17</ele>
        <time>2021-03-07T08:50:14.000Z</time>
      </trkpt>
      <trkpt lat="47.2508" lon="-2.31792">
        <ele>17</ele>
        <time>2021-03-07T08:50:16.000Z</time>
      </trkpt>
      <trkpt lat="47.25074" lon="-2.31757">
        <ele>17</ele>
        <time>2021-03-07T08:50:22.000Z</time>
      </trkpt>
      <trkpt lat="47.25062" lon="-2.31713">
        <ele>17</ele>
        <time>2021-03-07T08:50:29.000Z</time>
      </trkpt>
      <trkpt lat="47.25052" lon="-2.31672">
        <ele>17</ele>
        <time>2021-03-07T08:50:36.000Z</time>
      </trkpt>
      <trkpt lat="47.2505" lon="-2.31666">
        <ele>17</ele>
        <time>2021-03-07T08:50:37.000Z</time>
      </trkpt>
      <trkpt lat="47.25042" lon="-2.31649">
        <ele>17</ele>
        <time>2021-03-07T08:50:41.000Z</time>
      </trkpt>
      <trkpt lat="47.25034" lon="-2.31636">
        <ele>17</ele>
        <time>2021-03-07T08:50:44.000Z</time>
      </trkpt>
      <trkpt lat="47.25031" lon="-2.31632">
        <ele>17</ele>
        <time>2021-03-07T08:50:45.000Z</time>
      </trkpt>
      <trkpt lat="47.25021" lon="-2.31621">
        <ele>17</ele>
        <time>2021-03-07T08:50:48.000Z</time>
      </trkpt>
      <trkpt lat="47.25014" lon="-2.31613">
        <ele>17</ele>
        <time>2021-03-07T08:50:50.000Z</time>
      </trkpt>
      <trkpt lat="47.24999" lon="-2.31596">
        <ele>17.39999961853</ele>
        <time>2021-03-07T08:50:55.000Z</time>
      </trkpt>
      <trkpt lat="47.24995" lon="-2.31593">
        <ele>17.799999237061</ele>
        <time>2021-03-07T08:50:56.000Z</time>
      </trkpt>
      <trkpt lat="47.24992" lon="-2.31589">
        <ele>18.39999961853</ele>
        <time>2021-03-07T08:50:57.000Z</time>
      </trkpt>
      <trkpt lat="47.24989" lon="-2.31586">
        <ele>18.799999237061</ele>
        <time>2021-03-07T08:50:58.000Z</time>
      </trkpt>
      <trkpt lat="47.24985" lon="-2.31582">
        <ele>19.200000762939</ele>
        <time>2021-03-07T08:50:59.000Z</time>
      </trkpt>
      <trkpt lat="47.24976" lon="-2.31571">
        <ele>19.200000762939</ele>
        <time>2021-03-07T08:51:02.000Z</time>
      </trkpt>
      <trkpt lat="47.24971" lon="-2.31559">
        <ele>19.200000762939</ele>
        <time>2021-03-07T08:51:04.000Z</time>
      </trkpt>
      <trkpt lat="47.24965" lon="-2.31531">
        <ele>19.200000762939</ele>
        <time>2021-03-07T08:51:08.000Z</time>
      </trkpt>
      <trkpt lat="47.24964" lon="-2.31525">
        <ele>19.200000762939</ele>
        <time>2021-03-07T08:51:09.000Z</time>
      </trkpt>
      <trkpt lat="47.2496" lon="-2.31495">
        <ele>19.200000762939</ele>
        <time>2021-03-07T08:51:14.000Z</time>
      </trkpt>
      <trkpt lat="47.2496" lon="-2.31482">
        <ele>19.200000762939</ele>
        <time>2021-03-07T08:51:16.000Z</time>
      </trkpt>
      <trkpt lat="47.24956" lon="-2.31434">
        <ele>19.200000762939</ele>
        <time>2021-03-07T08:51:24.000Z</time>
      </trkpt>
      <trkpt lat="47.24948" lon="-2.31391">
        <ele>19.200000762939</ele>
        <time>2021-03-07T08:51:31.000Z</time>
      </trkpt>
      <trkpt lat="47.24935" lon="-2.31351">
        <ele>19.200000762939</ele>
        <time>2021-03-07T08:51:38.000Z</time>
      </trkpt>
      <trkpt lat="47.24923" lon="-2.31309">
        <ele>19.200000762939</ele>
        <time>2021-03-07T08:51:46.000Z</time>
      </trkpt>
      <trkpt lat="47.24918" lon="-2.31302">
        <ele>19.200000762939</ele>
        <time>2021-03-07T08:51:49.000Z</time>
      </trkpt>
      <trkpt lat="47.24915" lon="-2.31303">
        <ele>19.200000762939</ele>
        <time>2021-03-07T08:51:50.000Z</time>
      </trkpt>
      <trkpt lat="47.24903" lon="-2.31308">
        <ele>19.200000762939</ele>
        <time>2021-03-07T08:51:53.000Z</time>
      </trkpt>
      <trkpt lat="47.24894" lon="-2.3131">
        <ele>19.200000762939</ele>
        <time>2021-03-07T08:51:55.000Z</time>
      </trkpt>
      <trkpt lat="47.24856" lon="-2.31322">
        <ele>19.200000762939</ele>
        <time>2021-03-07T08:52:04.000Z</time>
      </trkpt>
      <trkpt lat="47.24816" lon="-2.31337">
        <ele>19.200000762939</ele>
        <time>2021-03-07T08:52:13.000Z</time>
      </trkpt>
      <trkpt lat="47.24807" lon="-2.31343">
        <ele>19.200000762939</ele>
        <time>2021-03-07T08:52:15.000Z</time>
      </trkpt>
      <trkpt lat="47.24795" lon="-2.31354">
        <ele>19.200000762939</ele>
        <time>2021-03-07T08:52:18.000Z</time>
      </trkpt>
      <trkpt lat="47.24769" lon="-2.3138">
        <ele>19.200000762939</ele>
        <time>2021-03-07T08:52:25.000Z</time>
      </trkpt>
      <trkpt lat="47.24757" lon="-2.31376">
        <ele>19.200000762939</ele>
        <time>2021-03-07T08:52:28.000Z</time>
      </trkpt>
      <trkpt lat="47.24747" lon="-2.3136">
        <ele>19.200000762939</ele>
        <time>2021-03-07T08:52:31.000Z</time>
      </trkpt>
      <trkpt lat="47.24745" lon="-2.31354">
        <ele>19.200000762939</ele>
        <time>2021-03-07T08:52:32.000Z</time>
      </trkpt>
      <trkpt lat="47.24725" lon="-2.31317">
        <ele>19.200000762939</ele>
        <time>2021-03-07T08:52:39.000Z</time>
      </trkpt>
      <trkpt lat="47.24711" lon="-2.31318">
        <ele>19.200000762939</ele>
        <time>2021-03-07T08:52:42.000Z</time>
      </trkpt>
      <trkpt lat="47.24706" lon="-2.3132">
        <ele>19.200000762939</ele>
        <time>2021-03-07T08:52:43.000Z</time>
      </trkpt>
      <trkpt lat="47.24688" lon="-2.31329">
        <ele>19.200000762939</ele>
        <time>2021-03-07T08:52:47.000Z</time>
      </trkpt>
      <trkpt lat="47.24653" lon="-2.31347">
        <ele>18.799999237061</ele>
        <time>2021-03-07T08:52:55.000Z</time>
      </trkpt>
      <trkpt lat="47.24649" lon="-2.3135">
        <ele>18.39999961853</ele>
        <time>2021-03-07T08:52:56.000Z</time>
      </trkpt>
      <trkpt lat="47.24644" lon="-2.31353">
        <ele>18</ele>
        <time>2021-03-07T08:52:57.000Z</time>
      </trkpt>
      <trkpt lat="47.24639" lon="-2.31355">
        <ele>17.60000038147</ele>
        <time>2021-03-07T08:52:58.000Z</time>
      </trkpt>
      <trkpt lat="47.24635" lon="-2.31358">
        <ele>17.200000762939</ele>
        <time>2021-03-07T08:52:59.000Z</time>
      </trkpt>
      <trkpt lat="47.2462" lon="-2.31365">
        <ele>17.200000762939</ele>
        <time>2021-03-07T08:53:02.000Z</time>
      </trkpt>
      <trkpt lat="47.24583" lon="-2.31386">
        <ele>17.200000762939</ele>
        <time>2021-03-07T08:53:10.000Z</time>
      </trkpt>
      <trkpt lat="47.2457" lon="-2.31392">
        <ele>17.200000762939</ele>
        <time>2021-03-07T08:53:14.000Z</time>
      </trkpt>
      <trkpt lat="47.24553" lon="-2.31397">
        <ele>17.200000762939</ele>
        <time>2021-03-07T08:53:19.000Z</time>
      </trkpt>
      <trkpt lat="47.2453" lon="-2.31391">
        <ele>17.200000762939</ele>
        <time>2021-03-07T08:53:25.000Z</time>
      </trkpt>
      <trkpt lat="47.2451" lon="-2.31377">
        <ele>16.799999237061</ele>
        <time>2021-03-07T08:53:30.000Z</time>
      </trkpt>
      <trkpt lat="47.24506" lon="-2.31372">
        <ele>16.200000762939</ele>
        <time>2021-03-07T08:53:31.000Z</time>
      </trkpt>
      <trkpt lat="47.24502" lon="-2.31367">
        <ele>15.800000190735</ele>
        <time>2021-03-07T08:53:32.000Z</time>
      </trkpt>
      <trkpt lat="47.24499" lon="-2.31362">
        <ele>15.39999961853</ele>
        <time>2021-03-07T08:53:33.000Z</time>
      </trkpt>
      <trkpt lat="47.24495" lon="-2.31356">
        <ele>15</ele>
        <time>2021-03-07T08:53:34.000Z</time>
      </trkpt>
      <trkpt lat="47.24489" lon="-2.31346">
        <ele>15</ele>
        <time>2021-03-07T08:53:36.000Z</time>
      </trkpt>
      <trkpt lat="47.24487" lon="-2.31342">
        <ele>14.39999961853</ele>
        <time>2021-03-07T08:53:37.000Z</time>
      </trkpt>
      <trkpt lat="47.24485" lon="-2.31338">
        <ele>14</ele>
        <time>2021-03-07T08:53:38.000Z</time>
      </trkpt>
      <trkpt lat="47.24484" lon="-2.31335">
        <ele>13.39999961853</ele>
        <time>2021-03-07T08:53:39.000Z</time>
      </trkpt>
      <trkpt lat="47.24483" lon="-2.3133">
        <ele>13</ele>
        <time>2021-03-07T08:53:40.000Z</time>
      </trkpt>
      <trkpt lat="47.24482" lon="-2.31326">
        <ele>12.39999961853</ele>
        <time>2021-03-07T08:53:41.000Z</time>
      </trkpt>
      <trkpt lat="47.24477" lon="-2.31307">
        <ele>12.39999961853</ele>
        <time>2021-03-07T08:53:44.000Z</time>
      </trkpt>
      <trkpt lat="47.24474" lon="-2.31298">
        <ele>12.39999961853</ele>
        <time>2021-03-07T08:53:45.000Z</time>
      </trkpt>
      <trkpt lat="47.24471" lon="-2.31291">
        <ele>12.39999961853</ele>
        <time>2021-03-07T08:53:46.000Z</time>
      </trkpt>
      <trkpt lat="47.24462" lon="-2.3127">
        <ele>12</ele>
        <time>2021-03-07T08:53:49.000Z</time>
      </trkpt>
      <trkpt lat="47.24459" lon="-2.31264">
        <ele>11.60000038147</ele>
        <time>2021-03-07T08:53:50.000Z</time>
      </trkpt>
      <trkpt lat="47.24457" lon="-2.31258">
        <ele>11.199999809265</ele>
        <time>2021-03-07T08:53:51.000Z</time>
      </trkpt>
      <trkpt lat="47.24455" lon="-2.31253">
        <ele>10.60000038147</ele>
        <time>2021-03-07T08:53:52.000Z</time>
      </trkpt>
      <trkpt lat="47.24453" lon="-2.31247">
        <ele>10.199999809265</ele>
        <time>2021-03-07T08:53:53.000Z</time>
      </trkpt>
      <trkpt lat="47.24446" lon="-2.3123">
        <ele>10.199999809265</ele>
        <time>2021-03-07T08:53:57.000Z</time>
      </trkpt>
      <trkpt lat="47.24445" lon="-2.31228">
        <ele>9.8000001907349</ele>
        <time>2021-03-07T08:53:58.000Z</time>
      </trkpt>
      <trkpt lat="47.24443" lon="-2.31227">
        <ele>9.3999996185303</ele>
        <time>2021-03-07T08:53:59.000Z</time>
      </trkpt>
      <trkpt lat="47.24441" lon="-2.31228">
        <ele>9</ele>
        <time>2021-03-07T08:54:00.000Z</time>
      </trkpt>
      <trkpt lat="47.24438" lon="-2.3123">
        <ele>8.6000003814697</ele>
        <time>2021-03-07T08:54:01.000Z</time>
      </trkpt>
      <trkpt lat="47.24434" lon="-2.3123">
        <ele>8.1999998092651</ele>
        <time>2021-03-07T08:54:02.000Z</time>
      </trkpt>
      <trkpt lat="47.2443" lon="-2.3123">
        <ele>7.5999999046326</ele>
        <time>2021-03-07T08:54:03.000Z</time>
      </trkpt>
      <trkpt lat="47.24427" lon="-2.31228">
        <ele>7.1999998092651</ele>
        <time>2021-03-07T08:54:04.000Z</time>
      </trkpt>
      <trkpt lat="47.24425" lon="-2.31225">
        <ele>6.8000001907349</ele>
        <time>2021-03-07T08:54:05.000Z</time>
      </trkpt>
      <trkpt lat="47.24423" lon="-2.31221">
        <ele>6.1999998092651</ele>
        <time>2021-03-07T08:54:06.000Z</time>
      </trkpt>
      <trkpt lat="47.24421" lon="-2.31217">
        <ele>5.8000001907349</ele>
        <time>2021-03-07T08:54:07.000Z</time>
      </trkpt>
      <trkpt lat="47.24416" lon="-2.31208">
        <ele>5.8000001907349</ele>
        <time>2021-03-07T08:54:10.000Z</time>
      </trkpt>
      <trkpt lat="47.24412" lon="-2.31197">
        <ele>5.8000001907349</ele>
        <time>2021-03-07T08:54:14.000Z</time>
      </trkpt>
      <trkpt lat="47.2441" lon="-2.31194">
        <ele>6.1999998092651</ele>
        <time>2021-03-07T08:54:15.000Z</time>
      </trkpt>
      <trkpt lat="47.24408" lon="-2.31191">
        <ele>6.5999999046326</ele>
        <time>2021-03-07T08:54:16.000Z</time>
      </trkpt>
      <trkpt lat="47.24405" lon="-2.31188">
        <ele>7</ele>
        <time>2021-03-07T08:54:17.000Z</time>
      </trkpt>
      <trkpt lat="47.24402" lon="-2.31184">
        <ele>7.4000000953674</ele>
        <time>2021-03-07T08:54:18.000Z</time>
      </trkpt>
      <trkpt lat="47.24399" lon="-2.31181">
        <ele>7.8000001907349</ele>
        <time>2021-03-07T08:54:19.000Z</time>
      </trkpt>
      <trkpt lat="47.24393" lon="-2.31174">
        <ele>7.8000001907349</ele>
        <time>2021-03-07T08:54:21.000Z</time>
      </trkpt>
      <trkpt lat="47.24373" lon="-2.31153">
        <ele>8.1999998092651</ele>
        <time>2021-03-07T08:54:27.000Z</time>
      </trkpt>
      <trkpt lat="47.24371" lon="-2.31149">
        <ele>8.6000003814697</ele>
        <time>2021-03-07T08:54:28.000Z</time>
      </trkpt>
      <trkpt lat="47.24368" lon="-2.31144">
        <ele>9</ele>
        <time>2021-03-07T08:54:29.000Z</time>
      </trkpt>
      <trkpt lat="47.24366" lon="-2.3114">
        <ele>9.6000003814697</ele>
        <time>2021-03-07T08:54:30.000Z</time>
      </trkpt>
      <trkpt lat="47.24363" lon="-2.31136">
        <ele>10</ele>
        <time>2021-03-07T08:54:31.000Z</time>
      </trkpt>
      <trkpt lat="47.24353" lon="-2.31115">
        <ele>10</ele>
        <time>2021-03-07T08:54:35.000Z</time>
      </trkpt>
      <trkpt lat="47.24351" lon="-2.31109">
        <ele>10</ele>
        <time>2021-03-07T08:54:36.000Z</time>
      </trkpt>
      <trkpt lat="47.24348" lon="-2.31093">
        <ele>10</ele>
        <time>2021-03-07T08:54:39.000Z</time>
      </trkpt>
      <trkpt lat="47.24334" lon="-2.31055">
        <ele>10</ele>
        <time>2021-03-07T08:54:46.000Z</time>
      </trkpt>
      <trkpt lat="47.24319" lon="-2.31039">
        <ele>10</ele>
        <time>2021-03-07T08:54:51.000Z</time>
      </trkpt>
      <trkpt lat="47.24314" lon="-2.31038">
        <ele>10</ele>
        <time>2021-03-07T08:54:52.000Z</time>
      </trkpt>
      <trkpt lat="47.24294" lon="-2.31036">
        <ele>10</ele>
        <time>2021-03-07T08:54:56.000Z</time>
      </trkpt>
      <trkpt lat="47.24285" lon="-2.31036">
        <ele>9.3999996185303</ele>
        <time>2021-03-07T08:54:58.000Z</time>
      </trkpt>
      <trkpt lat="47.24281" lon="-2.31034">
        <ele>9</ele>
        <time>2021-03-07T08:54:59.000Z</time>
      </trkpt>
      <trkpt lat="47.24278" lon="-2.31029">
        <ele>8.3999996185303</ele>
        <time>2021-03-07T08:55:00.000Z</time>
      </trkpt>
      <trkpt lat="47.24278" lon="-2.31024">
        <ele>8</ele>
        <time>2021-03-07T08:55:01.000Z</time>
      </trkpt>
      <trkpt lat="47.24277" lon="-2.31019">
        <ele>7.4000000953674</ele>
        <time>2021-03-07T08:55:02.000Z</time>
      </trkpt>
      <trkpt lat="47.24277" lon="-2.31014">
        <ele>7.4000000953674</ele>
        <time>2021-03-07T08:55:03.000Z</time>
      </trkpt>
      <trkpt lat="47.24279" lon="-2.30986">
        <ele>7.4000000953674</ele>
        <time>2021-03-07T08:55:08.000Z</time>
      </trkpt>
      <trkpt lat="47.24281" lon="-2.30967">
        <ele>7.4000000953674</ele>
        <time>2021-03-07T08:55:13.000Z</time>
      </trkpt>
      <trkpt lat="47.24281" lon="-2.30963">
        <ele>7.8000001907349</ele>
        <time>2021-03-07T08:55:14.000Z</time>
      </trkpt>
      <trkpt lat="47.24282" lon="-2.30959">
        <ele>8.1999998092651</ele>
        <time>2021-03-07T08:55:15.000Z</time>
      </trkpt>
      <trkpt lat="47.24282" lon="-2.30955">
        <ele>8.6000003814697</ele>
        <time>2021-03-07T08:55:16.000Z</time>
      </trkpt>
      <trkpt lat="47.24283" lon="-2.30952">
        <ele>9.1999998092651</ele>
        <time>2021-03-07T08:55:17.000Z</time>
      </trkpt>
      <trkpt lat="47.24283" lon="-2.30949">
        <ele>9.6000003814697</ele>
        <time>2021-03-07T08:55:18.000Z</time>
      </trkpt>
      <trkpt lat="47.24285" lon="-2.30936">
        <ele>10</ele>
        <time>2021-03-07T08:55:22.000Z</time>
      </trkpt>
      <trkpt lat="47.24285" lon="-2.30933">
        <ele>10.39999961853</ele>
        <time>2021-03-07T08:55:23.000Z</time>
      </trkpt>
      <trkpt lat="47.24285" lon="-2.3093">
        <ele>10.800000190735</ele>
        <time>2021-03-07T08:55:24.000Z</time>
      </trkpt>
      <trkpt lat="47.24285" lon="-2.30927">
        <ele>11.199999809265</ele>
        <time>2021-03-07T08:55:25.000Z</time>
      </trkpt>
      <trkpt lat="47.24285" lon="-2.30924">
        <ele>11.60000038147</ele>
        <time>2021-03-07T08:55:26.000Z</time>
      </trkpt>
      <trkpt lat="47.24284" lon="-2.30912">
        <ele>11.60000038147</ele>
        <time>2021-03-07T08:55:29.000Z</time>
      </trkpt>
      <trkpt lat="47.24279" lon="-2.30885">
        <ele>11.60000038147</ele>
        <time>2021-03-07T08:55:35.000Z</time>
      </trkpt>
      <trkpt lat="47.24281" lon="-2.30865">
        <ele>12</ele>
        <time>2021-03-07T08:55:39.000Z</time>
      </trkpt>
      <trkpt lat="47.24282" lon="-2.30861">
        <ele>12.39999961853</ele>
        <time>2021-03-07T08:55:40.000Z</time>
      </trkpt>
      <trkpt lat="47.24283" lon="-2.30856">
        <ele>12.800000190735</ele>
        <time>2021-03-07T08:55:41.000Z</time>
      </trkpt>
      <trkpt lat="47.24284" lon="-2.30852">
        <ele>13.199999809265</ele>
        <time>2021-03-07T08:55:42.000Z</time>
      </trkpt>
      <trkpt lat="47.24285" lon="-2.30848">
        <ele>13.60000038147</ele>
        <time>2021-03-07T08:55:43.000Z</time>
      </trkpt>
      <trkpt lat="47.24289" lon="-2.30835">
        <ele>13.60000038147</ele>
        <time>2021-03-07T08:55:46.000Z</time>
      </trkpt>
      <trkpt lat="47.24295" lon="-2.30828">
        <ele>13.60000038147</ele>
        <time>2021-03-07T08:55:48.000Z</time>
      </trkpt>
      <trkpt lat="47.24298" lon="-2.30824">
        <ele>13.60000038147</ele>
        <time>2021-03-07T08:55:49.000Z</time>
      </trkpt>
      <trkpt lat="47.24313" lon="-2.30807">
        <ele>13.60000038147</ele>
        <time>2021-03-07T08:55:55.000Z</time>
      </trkpt>
      <trkpt lat="47.24322" lon="-2.30802">
        <ele>14</ele>
        <time>2021-03-07T08:55:58.000Z</time>
      </trkpt>
      <trkpt lat="47.24325" lon="-2.308">
        <ele>14.39999961853</ele>
        <time>2021-03-07T08:55:59.000Z</time>
      </trkpt>
      <trkpt lat="47.24329" lon="-2.30799">
        <ele>14.800000190735</ele>
        <time>2021-03-07T08:56:00.000Z</time>
      </trkpt>
      <trkpt lat="47.24332" lon="-2.30799">
        <ele>15.199999809265</ele>
        <time>2021-03-07T08:56:01.000Z</time>
      </trkpt>
      <trkpt lat="47.24336" lon="-2.30798">
        <ele>15.60000038147</ele>
        <time>2021-03-07T08:56:02.000Z</time>
      </trkpt>
      <trkpt lat="47.24358" lon="-2.30788">
        <ele>15.60000038147</ele>
        <time>2021-03-07T08:56:09.000Z</time>
      </trkpt>
      <trkpt lat="47.2437" lon="-2.3078">
        <ele>16.200000762939</ele>
        <time>2021-03-07T08:56:13.000Z</time>
      </trkpt>
      <trkpt lat="47.24372" lon="-2.30777">
        <ele>16.60000038147</ele>
        <time>2021-03-07T08:56:14.000Z</time>
      </trkpt>
      <trkpt lat="47.24374" lon="-2.30774">
        <ele>17</ele>
        <time>2021-03-07T08:56:15.000Z</time>
      </trkpt>
      <trkpt lat="47.24376" lon="-2.30771">
        <ele>17.39999961853</ele>
        <time>2021-03-07T08:56:16.000Z</time>
      </trkpt>
      <trkpt lat="47.24378" lon="-2.30768">
        <ele>17.799999237061</ele>
        <time>2021-03-07T08:56:17.000Z</time>
      </trkpt>
      <trkpt lat="47.24385" lon="-2.30756">
        <ele>17.799999237061</ele>
        <time>2021-03-07T08:56:21.000Z</time>
      </trkpt>
      <trkpt lat="47.24386" lon="-2.30754">
        <ele>18.39999961853</ele>
        <time>2021-03-07T08:56:22.000Z</time>
      </trkpt>
      <trkpt lat="47.24387" lon="-2.30752">
        <ele>18.799999237061</ele>
        <time>2021-03-07T08:56:23.000Z</time>
      </trkpt>
      <trkpt lat="47.24389" lon="-2.30749">
        <ele>19.200000762939</ele>
        <time>2021-03-07T08:56:24.000Z</time>
      </trkpt>
      <trkpt lat="47.24391" lon="-2.30746">
        <ele>19.60000038147</ele>
        <time>2021-03-07T08:56:25.000Z</time>
      </trkpt>
      <trkpt lat="47.24393" lon="-2.30741">
        <ele>20</ele>
        <time>2021-03-07T08:56:26.000Z</time>
      </trkpt>
      <trkpt lat="47.24396" lon="-2.30722">
        <ele>20</ele>
        <time>2021-03-07T08:56:30.000Z</time>
      </trkpt>
      <trkpt lat="47.244" lon="-2.30695">
        <ele>20</ele>
        <time>2021-03-07T08:56:35.000Z</time>
      </trkpt>
      <trkpt lat="47.24408" lon="-2.30668">
        <ele>20</ele>
        <time>2021-03-07T08:56:40.000Z</time>
      </trkpt>
      <trkpt lat="47.24419" lon="-2.30632">
        <ele>20</ele>
        <time>2021-03-07T08:56:47.000Z</time>
      </trkpt>
      <trkpt lat="47.24434" lon="-2.30612">
        <ele>20</ele>
        <time>2021-03-07T08:56:53.000Z</time>
      </trkpt>
      <trkpt lat="47.24449" lon="-2.30595">
        <ele>20</ele>
        <time>2021-03-07T08:56:58.000Z</time>
      </trkpt>
      <trkpt lat="47.24455" lon="-2.30583">
        <ele>20</ele>
        <time>2021-03-07T08:57:00.000Z</time>
      </trkpt>
      <trkpt lat="47.24461" lon="-2.30569">
        <ele>20</ele>
        <time>2021-03-07T08:57:02.000Z</time>
      </trkpt>
      <trkpt lat="47.24463" lon="-2.30561">
        <ele>20</ele>
        <time>2021-03-07T08:57:03.000Z</time>
      </trkpt>
      <trkpt lat="47.24465" lon="-2.30555">
        <ele>19.60000038147</ele>
        <time>2021-03-07T08:57:04.000Z</time>
      </trkpt>
      <trkpt lat="47.24466" lon="-2.3055">
        <ele>19.200000762939</ele>
        <time>2021-03-07T08:57:05.000Z</time>
      </trkpt>
      <trkpt lat="47.24465" lon="-2.30548">
        <ele>18.799999237061</ele>
        <time>2021-03-07T08:57:06.000Z</time>
      </trkpt>
      <trkpt lat="47.24463" lon="-2.30547">
        <ele>18.200000762939</ele>
        <time>2021-03-07T08:57:07.000Z</time>
      </trkpt>
      <trkpt lat="47.2446" lon="-2.3055">
        <ele>17.799999237061</ele>
        <time>2021-03-07T08:57:08.000Z</time>
      </trkpt>
      <trkpt lat="47.24457" lon="-2.30553">
        <ele>17.39999961853</ele>
        <time>2021-03-07T08:57:09.000Z</time>
      </trkpt>
      <trkpt lat="47.24453" lon="-2.30557">
        <ele>17</ele>
        <time>2021-03-07T08:57:10.000Z</time>
      </trkpt>
      <trkpt lat="47.2445" lon="-2.30561">
        <ele>16.60000038147</ele>
        <time>2021-03-07T08:57:11.000Z</time>
      </trkpt>
      <trkpt lat="47.24446" lon="-2.30565">
        <ele>16.200000762939</ele>
        <time>2021-03-07T08:57:12.000Z</time>
      </trkpt>
      <trkpt lat="47.24442" lon="-2.30568">
        <ele>15.800000190735</ele>
        <time>2021-03-07T08:57:13.000Z</time>
      </trkpt>
      <trkpt lat="47.24438" lon="-2.30572">
        <ele>15.800000190735</ele>
        <time>2021-03-07T08:57:14.000Z</time>
      </trkpt>
      <trkpt lat="47.24432" lon="-2.30576">
        <ele>15.800000190735</ele>
        <time>2021-03-07T08:57:15.000Z</time>
      </trkpt>
      <trkpt lat="47.24416" lon="-2.30583">
        <ele>15.39999961853</ele>
        <time>2021-03-07T08:57:18.000Z</time>
      </trkpt>
      <trkpt lat="47.2441" lon="-2.30585">
        <ele>15</ele>
        <time>2021-03-07T08:57:19.000Z</time>
      </trkpt>
      <trkpt lat="47.24405" lon="-2.30585">
        <ele>14.60000038147</ele>
        <time>2021-03-07T08:57:20.000Z</time>
      </trkpt>
      <trkpt lat="47.244" lon="-2.30585">
        <ele>14</ele>
        <time>2021-03-07T08:57:21.000Z</time>
      </trkpt>
      <trkpt lat="47.24395" lon="-2.30584">
        <ele>13.60000038147</ele>
        <time>2021-03-07T08:57:22.000Z</time>
      </trkpt>
      <trkpt lat="47.2439" lon="-2.30584">
        <ele>13.60000038147</ele>
        <time>2021-03-07T08:57:23.000Z</time>
      </trkpt>
      <trkpt lat="47.24385" lon="-2.30582">
        <ele>13.60000038147</ele>
        <time>2021-03-07T08:57:24.000Z</time>
      </trkpt>
      <trkpt lat="47.24375" lon="-2.30568">
        <ele>13.60000038147</ele>
        <time>2021-03-07T08:57:27.000Z</time>
      </trkpt>
      <trkpt lat="47.2437" lon="-2.30543">
        <ele>13.60000038147</ele>
        <time>2021-03-07T08:57:30.000Z</time>
      </trkpt>
      <trkpt lat="47.2437" lon="-2.30535">
        <ele>13.60000038147</ele>
        <time>2021-03-07T08:57:31.000Z</time>
      </trkpt>
      <trkpt lat="47.24367" lon="-2.30516">
        <ele>13.60000038147</ele>
        <time>2021-03-07T08:57:34.000Z</time>
      </trkpt>
      <trkpt lat="47.24367" lon="-2.3051">
        <ele>13.60000038147</ele>
        <time>2021-03-07T08:57:35.000Z</time>
      </trkpt>
      <trkpt lat="47.24372" lon="-2.30495">
        <ele>13.60000038147</ele>
        <time>2021-03-07T08:57:38.000Z</time>
      </trkpt>
      <trkpt lat="47.24374" lon="-2.3049">
        <ele>14.199999809265</ele>
        <time>2021-03-07T08:57:39.000Z</time>
      </trkpt>
      <trkpt lat="47.24375" lon="-2.30484">
        <ele>14.60000038147</ele>
        <time>2021-03-07T08:57:40.000Z</time>
      </trkpt>
      <trkpt lat="47.24376" lon="-2.30479">
        <ele>15</ele>
        <time>2021-03-07T08:57:41.000Z</time>
      </trkpt>
      <trkpt lat="47.24378" lon="-2.30475">
        <ele>15.39999961853</ele>
        <time>2021-03-07T08:57:42.000Z</time>
      </trkpt>
      <trkpt lat="47.24379" lon="-2.30469">
        <ele>15.800000190735</ele>
        <time>2021-03-07T08:57:43.000Z</time>
      </trkpt>
      <trkpt lat="47.2438" lon="-2.30459">
        <ele>15.800000190735</ele>
        <time>2021-03-07T08:57:45.000Z</time>
      </trkpt>
      <trkpt lat="47.24378" lon="-2.30453">
        <ele>15.800000190735</ele>
        <time>2021-03-07T08:57:47.000Z</time>
      </trkpt>
      <trkpt lat="47.24376" lon="-2.30451">
        <ele>16.200000762939</ele>
        <time>2021-03-07T08:57:48.000Z</time>
      </trkpt>
      <trkpt lat="47.24373" lon="-2.30451">
        <ele>16.60000038147</ele>
        <time>2021-03-07T08:57:49.000Z</time>
      </trkpt>
      <trkpt lat="47.2437" lon="-2.30451">
        <ele>17.200000762939</ele>
        <time>2021-03-07T08:57:50.000Z</time>
      </trkpt>
      <trkpt lat="47.24367" lon="-2.30452">
        <ele>18</ele>
        <time>2021-03-07T08:57:51.000Z</time>
      </trkpt>
      <trkpt lat="47.2436" lon="-2.30453">
        <ele>18</ele>
        <time>2021-03-07T08:57:53.000Z</time>
      </trkpt>
      <trkpt lat="47.24343" lon="-2.30444">
        <ele>18</ele>
        <time>2021-03-07T08:57:58.000Z</time>
      </trkpt>
      <trkpt lat="47.24318" lon="-2.3043">
        <ele>18</ele>
        <time>2021-03-07T08:58:04.000Z</time>
      </trkpt>
      <trkpt lat="47.24316" lon="-2.30428">
        <ele>18.39999961853</ele>
        <time>2021-03-07T08:58:05.000Z</time>
      </trkpt>
      <trkpt lat="47.24314" lon="-2.30427">
        <ele>18.799999237061</ele>
        <time>2021-03-07T08:58:06.000Z</time>
      </trkpt>
      <trkpt lat="47.24312" lon="-2.30426">
        <ele>19.200000762939</ele>
        <time>2021-03-07T08:58:07.000Z</time>
      </trkpt>
      <trkpt lat="47.24309" lon="-2.30425">
        <ele>19.60000038147</ele>
        <time>2021-03-07T08:58:08.000Z</time>
      </trkpt>
      <trkpt lat="47.24306" lon="-2.30423">
        <ele>20</ele>
        <time>2021-03-07T08:58:09.000Z</time>
      </trkpt>
      <trkpt lat="47.24286" lon="-2.30407">
        <ele>20</ele>
        <time>2021-03-07T08:58:15.000Z</time>
      </trkpt>
      <trkpt lat="47.24266" lon="-2.30379">
        <ele>20</ele>
        <time>2021-03-07T08:58:21.000Z</time>
      </trkpt>
      <trkpt lat="47.2425" lon="-2.30349">
        <ele>20</ele>
        <time>2021-03-07T08:58:27.000Z</time>
      </trkpt>
      <trkpt lat="47.24236" lon="-2.30329">
        <ele>20</ele>
        <time>2021-03-07T08:58:32.000Z</time>
      </trkpt>
      <trkpt lat="47.24221" lon="-2.30335">
        <ele>20</ele>
        <time>2021-03-07T08:58:37.000Z</time>
      </trkpt>
      <trkpt lat="47.24215" lon="-2.30334">
        <ele>20</ele>
        <time>2021-03-07T08:58:38.000Z</time>
      </trkpt>
      <trkpt lat="47.24211" lon="-2.3033">
        <ele>19.60000038147</ele>
        <time>2021-03-07T08:58:39.000Z</time>
      </trkpt>
      <trkpt lat="47.24208" lon="-2.30324">
        <ele>19.200000762939</ele>
        <time>2021-03-07T08:58:40.000Z</time>
      </trkpt>
      <trkpt lat="47.24206" lon="-2.30317">
        <ele>18.60000038147</ele>
        <time>2021-03-07T08:58:41.000Z</time>
      </trkpt>
      <trkpt lat="47.24204" lon="-2.30309">
        <ele>18.200000762939</ele>
        <time>2021-03-07T08:58:42.000Z</time>
      </trkpt>
      <trkpt lat="47.24202" lon="-2.30302">
        <ele>17.799999237061</ele>
        <time>2021-03-07T08:58:43.000Z</time>
      </trkpt>
      <trkpt lat="47.242" lon="-2.30286">
        <ele>17.799999237061</ele>
        <time>2021-03-07T08:58:45.000Z</time>
      </trkpt>
      <trkpt lat="47.24197" lon="-2.30262">
        <ele>17.799999237061</ele>
        <time>2021-03-07T08:58:48.000Z</time>
      </trkpt>
      <trkpt lat="47.24197" lon="-2.30255">
        <ele>17.200000762939</ele>
        <time>2021-03-07T08:58:49.000Z</time>
      </trkpt>
      <trkpt lat="47.24196" lon="-2.30249">
        <ele>16.799999237061</ele>
        <time>2021-03-07T08:58:50.000Z</time>
      </trkpt>
      <trkpt lat="47.24196" lon="-2.30244">
        <ele>16.39999961853</ele>
        <time>2021-03-07T08:58:51.000Z</time>
      </trkpt>
      <trkpt lat="47.24196" lon="-2.3024">
        <ele>16</ele>
        <time>2021-03-07T08:58:52.000Z</time>
      </trkpt>
      <trkpt lat="47.24196" lon="-2.30237">
        <ele>15.60000038147</ele>
        <time>2021-03-07T08:58:53.000Z</time>
      </trkpt>
      <trkpt lat="47.24192" lon="-2.30238">
        <ele>15.60000038147</ele>
        <time>2021-03-07T08:58:55.000Z</time>
      </trkpt>
      <trkpt lat="47.24186" lon="-2.30244">
        <ele>15.60000038147</ele>
        <time>2021-03-07T08:58:57.000Z</time>
      </trkpt>
      <trkpt lat="47.24177" lon="-2.30246">
        <ele>15.60000038147</ele>
        <time>2021-03-07T08:58:59.000Z</time>
      </trkpt>
      <trkpt lat="47.24171" lon="-2.30243">
        <ele>15.60000038147</ele>
        <time>2021-03-07T08:59:00.000Z</time>
      </trkpt>
      <trkpt lat="47.24164" lon="-2.30235">
        <ele>15.60000038147</ele>
        <time>2021-03-07T08:59:02.000Z</time>
      </trkpt>
      <trkpt lat="47.24157" lon="-2.30222">
        <ele>15.60000038147</ele>
        <time>2021-03-07T08:59:05.000Z</time>
      </trkpt>
      <trkpt lat="47.24152" lon="-2.30211">
        <ele>15.60000038147</ele>
        <time>2021-03-07T08:59:08.000Z</time>
      </trkpt>
      <trkpt lat="47.24143" lon="-2.30191">
        <ele>15.60000038147</ele>
        <time>2021-03-07T08:59:13.000Z</time>
      </trkpt>
      <trkpt lat="47.24141" lon="-2.30186">
        <ele>16</ele>
        <time>2021-03-07T08:59:14.000Z</time>
      </trkpt>
      <trkpt lat="47.24139" lon="-2.30182">
        <ele>16.60000038147</ele>
        <time>2021-03-07T08:59:15.000Z</time>
      </trkpt>
      <trkpt lat="47.24137" lon="-2.30176">
        <ele>17</ele>
        <time>2021-03-07T08:59:16.000Z</time>
      </trkpt>
      <trkpt lat="47.24134" lon="-2.30172">
        <ele>17.39999961853</ele>
        <time>2021-03-07T08:59:17.000Z</time>
      </trkpt>
      <trkpt lat="47.24131" lon="-2.30169">
        <ele>18</ele>
        <time>2021-03-07T08:59:18.000Z</time>
      </trkpt>
      <trkpt lat="47.24125" lon="-2.30163">
        <ele>18.39999961853</ele>
        <time>2021-03-07T08:59:21.000Z</time>
      </trkpt>
      <trkpt lat="47.24124" lon="-2.30162">
        <ele>18.799999237061</ele>
        <time>2021-03-07T08:59:22.000Z</time>
      </trkpt>
      <trkpt lat="47.24123" lon="-2.30161">
        <ele>19.200000762939</ele>
        <time>2021-03-07T08:59:23.000Z</time>
      </trkpt>
      <trkpt lat="47.24122" lon="-2.30161">
        <ele>20.200000762939</ele>
        <time>2021-03-07T08:59:24.000Z</time>
      </trkpt>
      <trkpt lat="47.24122" lon="-2.30161">
        <ele>20.200000762939</ele>
        <time>2021-03-07T08:59:26.000Z</time>
      </trkpt>
      <trkpt lat="47.2412" lon="-2.30165">
        <ele>20.200000762939</ele>
        <time>2021-03-07T09:00:02.000Z</time>
      </trkpt>
      <trkpt lat="47.24109" lon="-2.30165">
        <ele>20.60000038147</ele>
        <time>2021-03-07T09:00:08.000Z</time>
      </trkpt>
      <trkpt lat="47.24107" lon="-2.30165">
        <ele>21</ele>
        <time>2021-03-07T09:00:09.000Z</time>
      </trkpt>
      <trkpt lat="47.24104" lon="-2.30164">
        <ele>21.39999961853</ele>
        <time>2021-03-07T09:00:10.000Z</time>
      </trkpt>
      <trkpt lat="47.24101" lon="-2.30164">
        <ele>22</ele>
        <time>2021-03-07T09:00:11.000Z</time>
      </trkpt>
      <trkpt lat="47.24099" lon="-2.30164">
        <ele>22.39999961853</ele>
        <time>2021-03-07T09:00:12.000Z</time>
      </trkpt>
      <trkpt lat="47.24093" lon="-2.30164">
        <ele>22.39999961853</ele>
        <time>2021-03-07T09:00:15.000Z</time>
      </trkpt>
      <trkpt lat="47.24088" lon="-2.30163">
        <ele>22.39999961853</ele>
        <time>2021-03-07T09:00:18.000Z</time>
      </trkpt>
      <trkpt lat="47.24083" lon="-2.30166">
        <ele>22.39999961853</ele>
        <time>2021-03-07T09:00:20.000Z</time>
      </trkpt>
      <trkpt lat="47.24071" lon="-2.30175">
        <ele>22.39999961853</ele>
        <time>2021-03-07T09:00:26.000Z</time>
      </trkpt>
      <trkpt lat="47.24056" lon="-2.30184">
        <ele>22.39999961853</ele>
        <time>2021-03-07T09:00:31.000Z</time>
      </trkpt>
      <trkpt lat="47.24045" lon="-2.3019">
        <ele>22.39999961853</ele>
        <time>2021-03-07T09:00:36.000Z</time>
      </trkpt>
      <trkpt lat="47.24039" lon="-2.30188">
        <ele>22.799999237061</ele>
        <time>2021-03-07T09:00:38.000Z</time>
      </trkpt>
      <trkpt lat="47.24037" lon="-2.30186">
        <ele>23.200000762939</ele>
        <time>2021-03-07T09:00:39.000Z</time>
      </trkpt>
      <trkpt lat="47.24035" lon="-2.30184">
        <ele>23.60000038147</ele>
        <time>2021-03-07T09:00:40.000Z</time>
      </trkpt>
      <trkpt lat="47.24033" lon="-2.30182">
        <ele>24</ele>
        <time>2021-03-07T09:00:41.000Z</time>
      </trkpt>
      <trkpt lat="47.2403" lon="-2.3018">
        <ele>24.39999961853</ele>
        <time>2021-03-07T09:00:42.000Z</time>
      </trkpt>
      <trkpt lat="47.2402" lon="-2.3017">
        <ele>24.39999961853</ele>
        <time>2021-03-07T09:00:47.000Z</time>
      </trkpt>
      <trkpt lat="47.24005" lon="-2.3016">
        <ele>24.39999961853</ele>
        <time>2021-03-07T09:00:52.000Z</time>
      </trkpt>
      <trkpt lat="47.23985" lon="-2.30153">
        <ele>24.39999961853</ele>
        <time>2021-03-07T09:00:57.000Z</time>
      </trkpt>
      <trkpt lat="47.23975" lon="-2.30145">
        <ele>24.39999961853</ele>
        <time>2021-03-07T09:01:01.000Z</time>
      </trkpt>
      <trkpt lat="47.23974" lon="-2.30142">
        <ele>24.39999961853</ele>
        <time>2021-03-07T09:01:02.000Z</time>
      </trkpt>
      <trkpt lat="47.23977" lon="-2.3012">
        <ele>24.39999961853</ele>
        <time>2021-03-07T09:01:08.000Z</time>
      </trkpt>
      <trkpt lat="47.23979" lon="-2.30106">
        <ele>24.39999961853</ele>
        <time>2021-03-07T09:01:15.000Z</time>
      </trkpt>
      <trkpt lat="47.23978" lon="-2.30097">
        <ele>24.39999961853</ele>
        <time>2021-03-07T09:01:19.000Z</time>
      </trkpt>
      <trkpt lat="47.23978" lon="-2.30088">
        <ele>24.39999961853</ele>
        <time>2021-03-07T09:01:22.000Z</time>
      </trkpt>
      <trkpt lat="47.23979" lon="-2.30075">
        <ele>24.39999961853</ele>
        <time>2021-03-07T09:01:28.000Z</time>
      </trkpt>
      <trkpt lat="47.23989" lon="-2.30059">
        <ele>24.39999961853</ele>
        <time>2021-03-07T09:01:34.000Z</time>
      </trkpt>
      <trkpt lat="47.23992" lon="-2.30052">
        <ele>24.39999961853</ele>
        <time>2021-03-07T09:01:37.000Z</time>
      </trkpt>
      <trkpt lat="47.23992" lon="-2.30046">
        <ele>24.39999961853</ele>
        <time>2021-03-07T09:01:40.000Z</time>
      </trkpt>
      <trkpt lat="47.23993" lon="-2.30041">
        <ele>24.39999961853</ele>
        <time>2021-03-07T09:01:42.000Z</time>
      </trkpt>
      <trkpt lat="47.23994" lon="-2.30036">
        <ele>24.39999961853</ele>
        <time>2021-03-07T09:01:45.000Z</time>
      </trkpt>
      <trkpt lat="47.23999" lon="-2.30019">
        <ele>24.39999961853</ele>
        <time>2021-03-07T09:01:53.000Z</time>
      </trkpt>
      <trkpt lat="47.24006" lon="-2.3001">
        <ele>24.39999961853</ele>
        <time>2021-03-07T09:01:58.000Z</time>
      </trkpt>
      <trkpt lat="47.24011" lon="-2.30004">
        <ele>24.39999961853</ele>
        <time>2021-03-07T09:02:01.000Z</time>
      </trkpt>
      <trkpt lat="47.24018" lon="-2.29995">
        <ele>24.39999961853</ele>
        <time>2021-03-07T09:02:04.000Z</time>
      </trkpt>
      <trkpt lat="47.2402" lon="-2.29994">
        <ele>24.39999961853</ele>
        <time>2021-03-07T09:02:05.000Z</time>
      </trkpt>
      <trkpt lat="47.24023" lon="-2.29996">
        <ele>24.39999961853</ele>
        <time>2021-03-07T09:02:08.000Z</time>
      </trkpt>
      <trkpt lat="47.24024" lon="-2.29998">
        <ele>24.39999961853</ele>
        <time>2021-03-07T09:02:09.000Z</time>
      </trkpt>
      <trkpt lat="47.24029" lon="-2.30008">
        <ele>24.39999961853</ele>
        <time>2021-03-07T09:02:14.000Z</time>
      </trkpt>
      <trkpt lat="47.2403" lon="-2.30009">
        <ele>24.39999961853</ele>
        <time>2021-03-07T09:02:15.000Z</time>
      </trkpt>
      <trkpt lat="47.24043" lon="-2.30009">
        <ele>24.39999961853</ele>
        <time>2021-03-07T09:02:20.000Z</time>
      </trkpt>
      <trkpt lat="47.24046" lon="-2.30007">
        <ele>24.39999961853</ele>
        <time>2021-03-07T09:02:21.000Z</time>
      </trkpt>
      <trkpt lat="47.24047" lon="-2.30001">
        <ele>24.39999961853</ele>
        <time>2021-03-07T09:02:23.000Z</time>
      </trkpt>
      <trkpt lat="47.24051" lon="-2.2999">
        <ele>24.39999961853</ele>
        <time>2021-03-07T09:02:27.000Z</time>
      </trkpt>
      <trkpt lat="47.24052" lon="-2.29989">
        <ele>24.39999961853</ele>
        <time>2021-03-07T09:02:28.000Z</time>
      </trkpt>
      <trkpt lat="47.24055" lon="-2.29989">
        <ele>24.39999961853</ele>
        <time>2021-03-07T09:02:29.000Z</time>
      </trkpt>
      <trkpt lat="47.2406" lon="-2.29988">
        <ele>24.39999961853</ele>
        <time>2021-03-07T09:02:31.000Z</time>
      </trkpt>
      <trkpt lat="47.24068" lon="-2.29984">
        <ele>24.39999961853</ele>
        <time>2021-03-07T09:02:33.000Z</time>
      </trkpt>
      <trkpt lat="47.24071" lon="-2.29983">
        <ele>24.799999237061</ele>
        <time>2021-03-07T09:02:34.000Z</time>
      </trkpt>
      <trkpt lat="47.24074" lon="-2.29984">
        <ele>25.200000762939</ele>
        <time>2021-03-07T09:02:35.000Z</time>
      </trkpt>
      <trkpt lat="47.24078" lon="-2.29984">
        <ele>25.60000038147</ele>
        <time>2021-03-07T09:02:36.000Z</time>
      </trkpt>
      <trkpt lat="47.24082" lon="-2.29982">
        <ele>26</ele>
        <time>2021-03-07T09:02:37.000Z</time>
      </trkpt>
      <trkpt lat="47.24086" lon="-2.29981">
        <ele>26.39999961853</ele>
        <time>2021-03-07T09:02:38.000Z</time>
      </trkpt>
      <trkpt lat="47.24106" lon="-2.29983">
        <ele>26.39999961853</ele>
        <time>2021-03-07T09:02:44.000Z</time>
      </trkpt>
      <trkpt lat="47.24127" lon="-2.29982">
        <ele>26.39999961853</ele>
        <time>2021-03-07T09:02:50.000Z</time>
      </trkpt>
      <trkpt lat="47.24143" lon="-2.2998">
        <ele>26.39999961853</ele>
        <time>2021-03-07T09:02:55.000Z</time>
      </trkpt>
      <trkpt lat="47.2415" lon="-2.29983">
        <ele>26.39999961853</ele>
        <time>2021-03-07T09:02:58.000Z</time>
      </trkpt>
      <trkpt lat="47.24152" lon="-2.29985">
        <ele>26.39999961853</ele>
        <time>2021-03-07T09:02:59.000Z</time>
      </trkpt>
      <trkpt lat="47.24166" lon="-2.30006">
        <ele>26</ele>
        <time>2021-03-07T09:03:06.000Z</time>
      </trkpt>
      <trkpt lat="47.24167" lon="-2.30011">
        <ele>25.60000038147</ele>
        <time>2021-03-07T09:03:07.000Z</time>
      </trkpt>
      <trkpt lat="47.24168" lon="-2.30014">
        <ele>25</ele>
        <time>2021-03-07T09:03:08.000Z</time>
      </trkpt>
      <trkpt lat="47.24168" lon="-2.30018">
        <ele>24.60000038147</ele>
        <time>2021-03-07T09:03:09.000Z</time>
      </trkpt>
      <trkpt lat="47.24167" lon="-2.30021">
        <ele>24</ele>
        <time>2021-03-07T09:03:10.000Z</time>
      </trkpt>
      <trkpt lat="47.24162" lon="-2.30022">
        <ele>24</ele>
        <time>2021-03-07T09:03:14.000Z</time>
      </trkpt>
      <trkpt lat="47.2416" lon="-2.30023">
        <ele>24</ele>
        <time>2021-03-07T09:03:15.000Z</time>
      </trkpt>
      <trkpt lat="47.24155" lon="-2.30026">
        <ele>24</ele>
        <time>2021-03-07T09:03:19.000Z</time>
      </trkpt>
      <trkpt lat="47.24154" lon="-2.30029">
        <ele>24</ele>
        <time>2021-03-07T09:03:20.000Z</time>
      </trkpt>
      <trkpt lat="47.24154" lon="-2.30048">
        <ele>24</ele>
        <time>2021-03-07T09:03:24.000Z</time>
      </trkpt>
      <trkpt lat="47.2415" lon="-2.30066">
        <ele>24</ele>
        <time>2021-03-07T09:03:28.000Z</time>
      </trkpt>
      <trkpt lat="47.24148" lon="-2.30067">
        <ele>23.60000038147</ele>
        <time>2021-03-07T09:03:29.000Z</time>
      </trkpt>
      <trkpt lat="47.24147" lon="-2.30068">
        <ele>23.200000762939</ele>
        <time>2021-03-07T09:03:30.000Z</time>
      </trkpt>
      <trkpt lat="47.24146" lon="-2.30067">
        <ele>22.200000762939</ele>
        <time>2021-03-07T09:03:31.000Z</time>
      </trkpt>
      <trkpt lat="47.24145" lon="-2.30066">
        <ele>21.799999237061</ele>
        <time>2021-03-07T09:03:32.000Z</time>
      </trkpt>
      <trkpt lat="47.24141" lon="-2.30054">
        <ele>21.799999237061</ele>
        <time>2021-03-07T09:03:37.000Z</time>
      </trkpt>
      <trkpt lat="47.2414" lon="-2.30048">
        <ele>22.200000762939</ele>
        <time>2021-03-07T09:03:39.000Z</time>
      </trkpt>
      <trkpt lat="47.2414" lon="-2.30046">
        <ele>22.60000038147</ele>
        <time>2021-03-07T09:03:40.000Z</time>
      </trkpt>
      <trkpt lat="47.24139" lon="-2.30045">
        <ele>23</ele>
        <time>2021-03-07T09:03:41.000Z</time>
      </trkpt>
      <trkpt lat="47.24139" lon="-2.30042">
        <ele>23.39999961853</ele>
        <time>2021-03-07T09:03:42.000Z</time>
      </trkpt>
      <trkpt lat="47.24138" lon="-2.3004">
        <ele>23.799999237061</ele>
        <time>2021-03-07T09:03:43.000Z</time>
      </trkpt>
      <trkpt lat="47.24138" lon="-2.30033">
        <ele>23.799999237061</ele>
        <time>2021-03-07T09:03:45.000Z</time>
      </trkpt>
      <trkpt lat="47.24139" lon="-2.30027">
        <ele>23.799999237061</ele>
        <time>2021-03-07T09:03:47.000Z</time>
      </trkpt>
      <trkpt lat="47.2414" lon="-2.30022">
        <ele>23.799999237061</ele>
        <time>2021-03-07T09:03:49.000Z</time>
      </trkpt>
      <trkpt lat="47.24136" lon="-2.30008">
        <ele>23.799999237061</ele>
        <time>2021-03-07T09:03:54.000Z</time>
      </trkpt>
      <trkpt lat="47.24132" lon="-2.30004">
        <ele>23.799999237061</ele>
        <time>2021-03-07T09:03:56.000Z</time>
      </trkpt>
      <trkpt lat="47.24123" lon="-2.30001">
        <ele>23.799999237061</ele>
        <time>2021-03-07T09:03:59.000Z</time>
      </trkpt>
      <trkpt lat="47.24107" lon="-2.29992">
        <ele>23.799999237061</ele>
        <time>2021-03-07T09:04:04.000Z</time>
      </trkpt>
      <trkpt lat="47.24089" lon="-2.29986">
        <ele>23.799999237061</ele>
        <time>2021-03-07T09:04:10.000Z</time>
      </trkpt>
      <trkpt lat="47.24078" lon="-2.29978">
        <ele>24.200000762939</ele>
        <time>2021-03-07T09:04:14.000Z</time>
      </trkpt>
      <trkpt lat="47.24076" lon="-2.29974">
        <ele>24.60000038147</ele>
        <time>2021-03-07T09:04:15.000Z</time>
      </trkpt>
      <trkpt lat="47.24073" lon="-2.2997">
        <ele>25</ele>
        <time>2021-03-07T09:04:16.000Z</time>
      </trkpt>
      <trkpt lat="47.2407" lon="-2.29966">
        <ele>25.39999961853</ele>
        <time>2021-03-07T09:04:17.000Z</time>
      </trkpt>
      <trkpt lat="47.24068" lon="-2.29962">
        <ele>25.799999237061</ele>
        <time>2021-03-07T09:04:18.000Z</time>
      </trkpt>
      <trkpt lat="47.24059" lon="-2.29945">
        <ele>25.799999237061</ele>
        <time>2021-03-07T09:04:22.000Z</time>
      </trkpt>
      <trkpt lat="47.24058" lon="-2.29927">
        <ele>25.799999237061</ele>
        <time>2021-03-07T09:04:27.000Z</time>
      </trkpt>
      <trkpt lat="47.24057" lon="-2.29924">
        <ele>25.799999237061</ele>
        <time>2021-03-07T09:04:28.000Z</time>
      </trkpt>
      <trkpt lat="47.24053" lon="-2.29912">
        <ele>25.799999237061</ele>
        <time>2021-03-07T09:04:31.000Z</time>
      </trkpt>
      <trkpt lat="47.24048" lon="-2.29884">
        <ele>25.799999237061</ele>
        <time>2021-03-07T09:04:37.000Z</time>
      </trkpt>
      <trkpt lat="47.24051" lon="-2.29853">
        <ele>25.799999237061</ele>
        <time>2021-03-07T09:04:43.000Z</time>
      </trkpt>
      <trkpt lat="47.2405" lon="-2.29828">
        <ele>25.799999237061</ele>
        <time>2021-03-07T09:04:49.000Z</time>
      </trkpt>
      <trkpt lat="47.24056" lon="-2.29809">
        <ele>25.799999237061</ele>
        <time>2021-03-07T09:04:53.000Z</time>
      </trkpt>
      <trkpt lat="47.24058" lon="-2.29806">
        <ele>25.799999237061</ele>
        <time>2021-03-07T09:04:54.000Z</time>
      </trkpt>
      <trkpt lat="47.24064" lon="-2.29808">
        <ele>25.799999237061</ele>
        <time>2021-03-07T09:04:57.000Z</time>
      </trkpt>
      <trkpt lat="47.24065" lon="-2.29818">
        <ele>25.799999237061</ele>
        <time>2021-03-07T09:05:00.000Z</time>
      </trkpt>
      <trkpt lat="47.24064" lon="-2.29827">
        <ele>25.799999237061</ele>
        <time>2021-03-07T09:05:02.000Z</time>
      </trkpt>
      <trkpt lat="47.24068" lon="-2.29851">
        <ele>25.799999237061</ele>
        <time>2021-03-07T09:05:08.000Z</time>
      </trkpt>
      <trkpt lat="47.24081" lon="-2.29854">
        <ele>25.799999237061</ele>
        <time>2021-03-07T09:05:13.000Z</time>
      </trkpt>
      <trkpt lat="47.24084" lon="-2.29851">
        <ele>25.799999237061</ele>
        <time>2021-03-07T09:05:14.000Z</time>
      </trkpt>
      <trkpt lat="47.24108" lon="-2.2984">
        <ele>25.799999237061</ele>
        <time>2021-03-07T09:05:19.000Z</time>
      </trkpt>
      <trkpt lat="47.24124" lon="-2.29841">
        <ele>25.799999237061</ele>
        <time>2021-03-07T09:05:24.000Z</time>
      </trkpt>
      <trkpt lat="47.24136" lon="-2.29847">
        <ele>25.799999237061</ele>
        <time>2021-03-07T09:05:28.000Z</time>
      </trkpt>
      <trkpt lat="47.24144" lon="-2.29862">
        <ele>25.799999237061</ele>
        <time>2021-03-07T09:05:32.000Z</time>
      </trkpt>
      <trkpt lat="47.24155" lon="-2.29881">
        <ele>25.799999237061</ele>
        <time>2021-03-07T09:05:38.000Z</time>
      </trkpt>
      <trkpt lat="47.24157" lon="-2.29893">
        <ele>25.799999237061</ele>
        <time>2021-03-07T09:05:42.000Z</time>
      </trkpt>
      <trkpt lat="47.24152" lon="-2.29913">
        <ele>25.799999237061</ele>
        <time>2021-03-07T09:05:47.000Z</time>
      </trkpt>
      <trkpt lat="47.24148" lon="-2.29924">
        <ele>25.799999237061</ele>
        <time>2021-03-07T09:05:49.000Z</time>
      </trkpt>
      <trkpt lat="47.24143" lon="-2.29941">
        <ele>25.799999237061</ele>
        <time>2021-03-07T09:05:52.000Z</time>
      </trkpt>
      <trkpt lat="47.24137" lon="-2.29975">
        <ele>25.799999237061</ele>
        <time>2021-03-07T09:05:58.000Z</time>
      </trkpt>
      <trkpt lat="47.24131" lon="-2.30003">
        <ele>25.799999237061</ele>
        <time>2021-03-07T09:06:04.000Z</time>
      </trkpt>
      <trkpt lat="47.24129" lon="-2.30007">
        <ele>25.39999961853</ele>
        <time>2021-03-07T09:06:05.000Z</time>
      </trkpt>
      <trkpt lat="47.24128" lon="-2.3001">
        <ele>25</ele>
        <time>2021-03-07T09:06:06.000Z</time>
      </trkpt>
      <trkpt lat="47.24128" lon="-2.30013">
        <ele>24.60000038147</ele>
        <time>2021-03-07T09:06:07.000Z</time>
      </trkpt>
      <trkpt lat="47.24127" lon="-2.30017">
        <ele>24.200000762939</ele>
        <time>2021-03-07T09:06:08.000Z</time>
      </trkpt>
      <trkpt lat="47.24128" lon="-2.30022">
        <ele>23.60000038147</ele>
        <time>2021-03-07T09:06:09.000Z</time>
      </trkpt>
      <trkpt lat="47.24133" lon="-2.30042">
        <ele>23.60000038147</ele>
        <time>2021-03-07T09:06:13.000Z</time>
      </trkpt>
      <trkpt lat="47.24135" lon="-2.30048">
        <ele>23.200000762939</ele>
        <time>2021-03-07T09:06:14.000Z</time>
      </trkpt>
      <trkpt lat="47.24141" lon="-2.30053">
        <ele>22.799999237061</ele>
        <time>2021-03-07T09:06:15.000Z</time>
      </trkpt>
      <trkpt lat="47.24144" lon="-2.30059">
        <ele>22.39999961853</ele>
        <time>2021-03-07T09:06:16.000Z</time>
      </trkpt>
      <trkpt lat="47.24145" lon="-2.30065">
        <ele>21.799999237061</ele>
        <time>2021-03-07T09:06:17.000Z</time>
      </trkpt>
      <trkpt lat="47.24147" lon="-2.30072">
        <ele>21.39999961853</ele>
        <time>2021-03-07T09:06:18.000Z</time>
      </trkpt>
      <trkpt lat="47.2415" lon="-2.30092">
        <ele>21.39999961853</ele>
        <time>2021-03-07T09:06:21.000Z</time>
      </trkpt>
      <trkpt lat="47.24151" lon="-2.30098">
        <ele>21</ele>
        <time>2021-03-07T09:06:22.000Z</time>
      </trkpt>
      <trkpt lat="47.24151" lon="-2.30103">
        <ele>20.200000762939</ele>
        <time>2021-03-07T09:06:23.000Z</time>
      </trkpt>
      <trkpt lat="47.2415" lon="-2.30108">
        <ele>19.799999237061</ele>
        <time>2021-03-07T09:06:24.000Z</time>
      </trkpt>
      <trkpt lat="47.24149" lon="-2.30112">
        <ele>19.39999961853</ele>
        <time>2021-03-07T09:06:25.000Z</time>
      </trkpt>
      <trkpt lat="47.24148" lon="-2.30115">
        <ele>19.39999961853</ele>
        <time>2021-03-07T09:06:26.000Z</time>
      </trkpt>
      <trkpt lat="47.24147" lon="-2.30136">
        <ele>18.799999237061</ele>
        <time>2021-03-07T09:06:32.000Z</time>
      </trkpt>
      <trkpt lat="47.24147" lon="-2.30141">
        <ele>18.39999961853</ele>
        <time>2021-03-07T09:06:33.000Z</time>
      </trkpt>
      <trkpt lat="47.24148" lon="-2.30147">
        <ele>18</ele>
        <time>2021-03-07T09:06:34.000Z</time>
      </trkpt>
      <trkpt lat="47.24149" lon="-2.30154">
        <ele>17.60000038147</ele>
        <time>2021-03-07T09:06:35.000Z</time>
      </trkpt>
      <trkpt lat="47.2415" lon="-2.30163">
        <ele>17.200000762939</ele>
        <time>2021-03-07T09:06:36.000Z</time>
      </trkpt>
      <trkpt lat="47.24154" lon="-2.30188">
        <ele>16.60000038147</ele>
        <time>2021-03-07T09:06:39.000Z</time>
      </trkpt>
      <trkpt lat="47.24154" lon="-2.30195">
        <ele>16.200000762939</ele>
        <time>2021-03-07T09:06:40.000Z</time>
      </trkpt>
      <trkpt lat="47.24156" lon="-2.30201">
        <ele>15.800000190735</ele>
        <time>2021-03-07T09:06:41.000Z</time>
      </trkpt>
      <trkpt lat="47.24158" lon="-2.30207">
        <ele>15.39999961853</ele>
        <time>2021-03-07T09:06:42.000Z</time>
      </trkpt>
      <trkpt lat="47.24161" lon="-2.30211">
        <ele>14.800000190735</ele>
        <time>2021-03-07T09:06:43.000Z</time>
      </trkpt>
      <trkpt lat="47.24166" lon="-2.30218">
        <ele>14.800000190735</ele>
        <time>2021-03-07T09:06:45.000Z</time>
      </trkpt>
      <trkpt lat="47.24167" lon="-2.30223">
        <ele>14.39999961853</ele>
        <time>2021-03-07T09:06:46.000Z</time>
      </trkpt>
      <trkpt lat="47.24169" lon="-2.30228">
        <ele>14</ele>
        <time>2021-03-07T09:06:47.000Z</time>
      </trkpt>
      <trkpt lat="47.24173" lon="-2.30229">
        <ele>13.199999809265</ele>
        <time>2021-03-07T09:06:48.000Z</time>
      </trkpt>
      <trkpt lat="47.24176" lon="-2.30229">
        <ele>12.800000190735</ele>
        <time>2021-03-07T09:06:49.000Z</time>
      </trkpt>
      <trkpt lat="47.2418" lon="-2.30229">
        <ele>12.800000190735</ele>
        <time>2021-03-07T09:06:50.000Z</time>
      </trkpt>
      <trkpt lat="47.24189" lon="-2.30226">
        <ele>12.800000190735</ele>
        <time>2021-03-07T09:06:53.000Z</time>
      </trkpt>
      <trkpt lat="47.24195" lon="-2.30223">
        <ele>12.800000190735</ele>
        <time>2021-03-07T09:06:55.000Z</time>
      </trkpt>
      <trkpt lat="47.24215" lon="-2.30214">
        <ele>13.199999809265</ele>
        <time>2021-03-07T09:07:01.000Z</time>
      </trkpt>
      <trkpt lat="47.24218" lon="-2.30212">
        <ele>13.60000038147</ele>
        <time>2021-03-07T09:07:02.000Z</time>
      </trkpt>
      <trkpt lat="47.24221" lon="-2.3021">
        <ele>14</ele>
        <time>2021-03-07T09:07:03.000Z</time>
      </trkpt>
      <trkpt lat="47.24224" lon="-2.30206">
        <ele>14.39999961853</ele>
        <time>2021-03-07T09:07:04.000Z</time>
      </trkpt>
      <trkpt lat="47.24227" lon="-2.30202">
        <ele>15</ele>
        <time>2021-03-07T09:07:05.000Z</time>
      </trkpt>
      <trkpt lat="47.2423" lon="-2.30198">
        <ele>15</ele>
        <time>2021-03-07T09:07:06.000Z</time>
      </trkpt>
      <trkpt lat="47.24236" lon="-2.30184">
        <ele>15.39999961853</ele>
        <time>2021-03-07T09:07:09.000Z</time>
      </trkpt>
      <trkpt lat="47.24238" lon="-2.3018">
        <ele>15.800000190735</ele>
        <time>2021-03-07T09:07:10.000Z</time>
      </trkpt>
      <trkpt lat="47.24241" lon="-2.30176">
        <ele>16.200000762939</ele>
        <time>2021-03-07T09:07:11.000Z</time>
      </trkpt>
      <trkpt lat="47.24243" lon="-2.30171">
        <ele>16.60000038147</ele>
        <time>2021-03-07T09:07:12.000Z</time>
      </trkpt>
      <trkpt lat="47.24245" lon="-2.30167">
        <ele>17</ele>
        <time>2021-03-07T09:07:13.000Z</time>
      </trkpt>
      <trkpt lat="47.24255" lon="-2.30152">
        <ele>17</ele>
        <time>2021-03-07T09:07:18.000Z</time>
      </trkpt>
      <trkpt lat="47.24261" lon="-2.30145">
        <ele>17.39999961853</ele>
        <time>2021-03-07T09:07:21.000Z</time>
      </trkpt>
      <trkpt lat="47.24264" lon="-2.30142">
        <ele>17.799999237061</ele>
        <time>2021-03-07T09:07:22.000Z</time>
      </trkpt>
      <trkpt lat="47.24266" lon="-2.3014">
        <ele>18.200000762939</ele>
        <time>2021-03-07T09:07:23.000Z</time>
      </trkpt>
      <trkpt lat="47.24268" lon="-2.30137">
        <ele>18.60000038147</ele>
        <time>2021-03-07T09:07:24.000Z</time>
      </trkpt>
      <trkpt lat="47.24271" lon="-2.30134">
        <ele>19</ele>
        <time>2021-03-07T09:07:25.000Z</time>
      </trkpt>
      <trkpt lat="47.24285" lon="-2.30121">
        <ele>19</ele>
        <time>2021-03-07T09:07:30.000Z</time>
      </trkpt>
      <trkpt lat="47.24303" lon="-2.30119">
        <ele>19</ele>
        <time>2021-03-07T09:07:35.000Z</time>
      </trkpt>
      <trkpt lat="47.24321" lon="-2.3013">
        <ele>19.60000038147</ele>
        <time>2021-03-07T09:07:41.000Z</time>
      </trkpt>
      <trkpt lat="47.24325" lon="-2.30129">
        <ele>20</ele>
        <time>2021-03-07T09:07:42.000Z</time>
      </trkpt>
      <trkpt lat="47.24328" lon="-2.30127">
        <ele>20.39999961853</ele>
        <time>2021-03-07T09:07:43.000Z</time>
      </trkpt>
      <trkpt lat="47.24331" lon="-2.30125">
        <ele>20.799999237061</ele>
        <time>2021-03-07T09:07:44.000Z</time>
      </trkpt>
      <trkpt lat="47.24334" lon="-2.30122">
        <ele>21.200000762939</ele>
        <time>2021-03-07T09:07:45.000Z</time>
      </trkpt>
      <trkpt lat="47.24357" lon="-2.30102">
        <ele>21.200000762939</ele>
        <time>2021-03-07T09:07:52.000Z</time>
      </trkpt>
      <trkpt lat="47.24375" lon="-2.30089">
        <ele>21.60000038147</ele>
        <time>2021-03-07T09:07:57.000Z</time>
      </trkpt>
      <trkpt lat="47.24379" lon="-2.30089">
        <ele>22</ele>
        <time>2021-03-07T09:07:58.000Z</time>
      </trkpt>
      <trkpt lat="47.24383" lon="-2.30091">
        <ele>22.39999961853</ele>
        <time>2021-03-07T09:07:59.000Z</time>
      </trkpt>
      <trkpt lat="47.24386" lon="-2.30095">
        <ele>22.799999237061</ele>
        <time>2021-03-07T09:08:00.000Z</time>
      </trkpt>
      <trkpt lat="47.24389" lon="-2.301">
        <ele>23.200000762939</ele>
        <time>2021-03-07T09:08:01.000Z</time>
      </trkpt>
      <trkpt lat="47.24397" lon="-2.30117">
        <ele>23.200000762939</ele>
        <time>2021-03-07T09:08:04.000Z</time>
      </trkpt>
      <trkpt lat="47.24405" lon="-2.30134">
        <ele>23.200000762939</ele>
        <time>2021-03-07T09:08:07.000Z</time>
      </trkpt>
      <trkpt lat="47.24415" lon="-2.30147">
        <ele>23.200000762939</ele>
        <time>2021-03-07T09:08:10.000Z</time>
      </trkpt>
      <trkpt lat="47.24424" lon="-2.30152">
        <ele>23.200000762939</ele>
        <time>2021-03-07T09:08:12.000Z</time>
      </trkpt>
      <trkpt lat="47.24432" lon="-2.30156">
        <ele>23.200000762939</ele>
        <time>2021-03-07T09:08:14.000Z</time>
      </trkpt>
      <trkpt lat="47.24441" lon="-2.30171">
        <ele>23.200000762939</ele>
        <time>2021-03-07T09:08:17.000Z</time>
      </trkpt>
      <trkpt lat="47.24444" lon="-2.30176">
        <ele>23.200000762939</ele>
        <time>2021-03-07T09:08:18.000Z</time>
      </trkpt>
      <trkpt lat="47.24449" lon="-2.30187">
        <ele>23.200000762939</ele>
        <time>2021-03-07T09:08:20.000Z</time>
      </trkpt>
      <trkpt lat="47.24457" lon="-2.30195">
        <ele>23.200000762939</ele>
        <time>2021-03-07T09:08:22.000Z</time>
      </trkpt>
      <trkpt lat="47.24473" lon="-2.30212">
        <ele>23.200000762939</ele>
        <time>2021-03-07T09:08:26.000Z</time>
      </trkpt>
      <trkpt lat="47.24483" lon="-2.30232">
        <ele>23.200000762939</ele>
        <time>2021-03-07T09:08:29.000Z</time>
      </trkpt>
      <trkpt lat="47.24489" lon="-2.30245">
        <ele>23.200000762939</ele>
        <time>2021-03-07T09:08:31.000Z</time>
      </trkpt>
      <trkpt lat="47.24494" lon="-2.3025">
        <ele>23.200000762939</ele>
        <time>2021-03-07T09:08:32.000Z</time>
      </trkpt>
      <trkpt lat="47.24503" lon="-2.30248">
        <ele>23.200000762939</ele>
        <time>2021-03-07T09:08:34.000Z</time>
      </trkpt>
      <trkpt lat="47.24513" lon="-2.3024">
        <ele>23.200000762939</ele>
        <time>2021-03-07T09:08:36.000Z</time>
      </trkpt>
      <trkpt lat="47.24524" lon="-2.30228">
        <ele>23.200000762939</ele>
        <time>2021-03-07T09:08:39.000Z</time>
      </trkpt>
      <trkpt lat="47.24555" lon="-2.30192">
        <ele>23.200000762939</ele>
        <time>2021-03-07T09:08:47.000Z</time>
      </trkpt>
      <trkpt lat="47.24576" lon="-2.3016">
        <ele>23.200000762939</ele>
        <time>2021-03-07T09:08:53.000Z</time>
      </trkpt>
      <trkpt lat="47.24604" lon="-2.30122">
        <ele>23.200000762939</ele>
        <time>2021-03-07T09:09:01.000Z</time>
      </trkpt>
      <trkpt lat="47.24624" lon="-2.30102">
        <ele>23.200000762939</ele>
        <time>2021-03-07T09:09:07.000Z</time>
      </trkpt>
      <trkpt lat="47.24641" lon="-2.30084">
        <ele>23.200000762939</ele>
        <time>2021-03-07T09:09:14.000Z</time>
      </trkpt>
      <trkpt lat="47.24658" lon="-2.3007">
        <ele>23.200000762939</ele>
        <time>2021-03-07T09:09:19.000Z</time>
      </trkpt>
      <trkpt lat="47.24669" lon="-2.30061">
        <ele>23.60000038147</ele>
        <time>2021-03-07T09:09:22.000Z</time>
      </trkpt>
      <trkpt lat="47.24673" lon="-2.30058">
        <ele>24</ele>
        <time>2021-03-07T09:09:23.000Z</time>
      </trkpt>
      <trkpt lat="47.24677" lon="-2.30055">
        <ele>24.39999961853</ele>
        <time>2021-03-07T09:09:24.000Z</time>
      </trkpt>
      <trkpt lat="47.24681" lon="-2.30052">
        <ele>24.799999237061</ele>
        <time>2021-03-07T09:09:25.000Z</time>
      </trkpt>
      <trkpt lat="47.24685" lon="-2.30049">
        <ele>25.200000762939</ele>
        <time>2021-03-07T09:09:26.000Z</time>
      </trkpt>
      <trkpt lat="47.24689" lon="-2.30046">
        <ele>25.200000762939</ele>
        <time>2021-03-07T09:09:27.000Z</time>
      </trkpt>
      <trkpt lat="47.24714" lon="-2.30021">
        <ele>25.200000762939</ele>
        <time>2021-03-07T09:09:33.000Z</time>
      </trkpt>
      <trkpt lat="47.24736" lon="-2.29989">
        <ele>25.200000762939</ele>
        <time>2021-03-07T09:09:39.000Z</time>
      </trkpt>
      <trkpt lat="47.24739" lon="-2.29983">
        <ele>25.60000038147</ele>
        <time>2021-03-07T09:09:40.000Z</time>
      </trkpt>
      <trkpt lat="47.24741" lon="-2.29977">
        <ele>26.60000038147</ele>
        <time>2021-03-07T09:09:41.000Z</time>
      </trkpt>
      <trkpt lat="47.24742" lon="-2.2997">
        <ele>27</ele>
        <time>2021-03-07T09:09:42.000Z</time>
      </trkpt>
      <trkpt lat="47.24744" lon="-2.29963">
        <ele>27.39999961853</ele>
        <time>2021-03-07T09:09:43.000Z</time>
      </trkpt>
      <trkpt lat="47.24744" lon="-2.29956">
        <ele>27.39999961853</ele>
        <time>2021-03-07T09:09:44.000Z</time>
      </trkpt>
      <trkpt lat="47.24745" lon="-2.29949">
        <ele>27.39999961853</ele>
        <time>2021-03-07T09:09:45.000Z</time>
      </trkpt>
      <trkpt lat="47.24746" lon="-2.2991">
        <ele>27.39999961853</ele>
        <time>2021-03-07T09:09:51.000Z</time>
      </trkpt>
      <trkpt lat="47.24747" lon="-2.29898">
        <ele>27.39999961853</ele>
        <time>2021-03-07T09:09:53.000Z</time>
      </trkpt>
      <trkpt lat="47.24753" lon="-2.29888">
        <ele>27.39999961853</ele>
        <time>2021-03-07T09:09:55.000Z</time>
      </trkpt>
      <trkpt lat="47.24761" lon="-2.29881">
        <ele>27.39999961853</ele>
        <time>2021-03-07T09:09:57.000Z</time>
      </trkpt>
      <trkpt lat="47.24774" lon="-2.29871">
        <ele>27.39999961853</ele>
        <time>2021-03-07T09:10:00.000Z</time>
      </trkpt>
      <trkpt lat="47.24788" lon="-2.29861">
        <ele>27.799999237061</ele>
        <time>2021-03-07T09:10:03.000Z</time>
      </trkpt>
      <trkpt lat="47.24792" lon="-2.29858">
        <ele>28.200000762939</ele>
        <time>2021-03-07T09:10:04.000Z</time>
      </trkpt>
      <trkpt lat="47.24796" lon="-2.29856">
        <ele>28.60000038147</ele>
        <time>2021-03-07T09:10:05.000Z</time>
      </trkpt>
      <trkpt lat="47.24801" lon="-2.29853">
        <ele>29.39999961853</ele>
        <time>2021-03-07T09:10:06.000Z</time>
      </trkpt>
      <trkpt lat="47.24809" lon="-2.2985">
        <ele>29.39999961853</ele>
        <time>2021-03-07T09:10:08.000Z</time>
      </trkpt>
      <trkpt lat="47.2484" lon="-2.29842">
        <ele>29.39999961853</ele>
        <time>2021-03-07T09:10:16.000Z</time>
      </trkpt>
      <trkpt lat="47.24855" lon="-2.2983">
        <ele>29.39999961853</ele>
        <time>2021-03-07T09:10:21.000Z</time>
      </trkpt>
      <trkpt lat="47.24861" lon="-2.29827">
        <ele>29.39999961853</ele>
        <time>2021-03-07T09:10:24.000Z</time>
      </trkpt>
      <trkpt lat="47.24863" lon="-2.29829">
        <ele>29.39999961853</ele>
        <time>2021-03-07T09:10:25.000Z</time>
      </trkpt>
      <trkpt lat="47.24867" lon="-2.2984">
        <ele>29.39999961853</ele>
        <time>2021-03-07T09:10:28.000Z</time>
      </trkpt>
      <trkpt lat="47.24868" lon="-2.29845">
        <ele>29.39999961853</ele>
        <time>2021-03-07T09:10:29.000Z</time>
      </trkpt>
      <trkpt lat="47.24875" lon="-2.29881">
        <ele>29.39999961853</ele>
        <time>2021-03-07T09:10:34.000Z</time>
      </trkpt>
      <trkpt lat="47.24876" lon="-2.29888">
        <ele>29.39999961853</ele>
        <time>2021-03-07T09:10:35.000Z</time>
      </trkpt>
      <trkpt lat="47.24881" lon="-2.29929">
        <ele>29.39999961853</ele>
        <time>2021-03-07T09:10:40.000Z</time>
      </trkpt>
      <trkpt lat="47.2489" lon="-2.29971">
        <ele>29.39999961853</ele>
        <time>2021-03-07T09:10:45.000Z</time>
      </trkpt>
      <trkpt lat="47.24901" lon="-2.30017">
        <ele>29.39999961853</ele>
        <time>2021-03-07T09:10:51.000Z</time>
      </trkpt>
      <trkpt lat="47.24903" lon="-2.30046">
        <ele>29.39999961853</ele>
        <time>2021-03-07T09:10:56.000Z</time>
      </trkpt>
      <trkpt lat="47.24904" lon="-2.3005">
        <ele>29.39999961853</ele>
        <time>2021-03-07T09:10:57.000Z</time>
      </trkpt>
      <trkpt lat="47.24909" lon="-2.30056">
        <ele>29.39999961853</ele>
        <time>2021-03-07T09:10:59.000Z</time>
      </trkpt>
      <trkpt lat="47.24924" lon="-2.30056">
        <ele>29.39999961853</ele>
        <time>2021-03-07T09:11:03.000Z</time>
      </trkpt>
      <trkpt lat="47.24945" lon="-2.30055">
        <ele>29.39999961853</ele>
        <time>2021-03-07T09:11:08.000Z</time>
      </trkpt>
      <trkpt lat="47.24981" lon="-2.30054">
        <ele>29.39999961853</ele>
        <time>2021-03-07T09:11:16.000Z</time>
      </trkpt>
      <trkpt lat="47.25002" lon="-2.30051">
        <ele>29.39999961853</ele>
        <time>2021-03-07T09:11:20.000Z</time>
      </trkpt>
      <trkpt lat="47.25011" lon="-2.30051">
        <ele>29.39999961853</ele>
        <time>2021-03-07T09:11:22.000Z</time>
      </trkpt>
      <trkpt lat="47.2502" lon="-2.30052">
        <ele>29.39999961853</ele>
        <time>2021-03-07T09:11:24.000Z</time>
      </trkpt>
      <trkpt lat="47.2503" lon="-2.30053">
        <ele>29.39999961853</ele>
        <time>2021-03-07T09:11:26.000Z</time>
      </trkpt>
      <trkpt lat="47.25034" lon="-2.30053">
        <ele>29.39999961853</ele>
        <time>2021-03-07T09:11:27.000Z</time>
      </trkpt>
      <trkpt lat="47.25043" lon="-2.30054">
        <ele>29</ele>
        <time>2021-03-07T09:11:29.000Z</time>
      </trkpt>
      <trkpt lat="47.25047" lon="-2.30055">
        <ele>28.60000038147</ele>
        <time>2021-03-07T09:11:30.000Z</time>
      </trkpt>
      <trkpt lat="47.25052" lon="-2.30055">
        <ele>28.200000762939</ele>
        <time>2021-03-07T09:11:31.000Z</time>
      </trkpt>
      <trkpt lat="47.25057" lon="-2.30055">
        <ele>27.799999237061</ele>
        <time>2021-03-07T09:11:32.000Z</time>
      </trkpt>
      <trkpt lat="47.25062" lon="-2.30056">
        <ele>27.39999961853</ele>
        <time>2021-03-07T09:11:33.000Z</time>
      </trkpt>
      <trkpt lat="47.25066" lon="-2.30057">
        <ele>27.39999961853</ele>
        <time>2021-03-07T09:11:34.000Z</time>
      </trkpt>
      <trkpt lat="47.25069" lon="-2.30059">
        <ele>27.39999961853</ele>
        <time>2021-03-07T09:11:35.000Z</time>
      </trkpt>
      <trkpt lat="47.25071" lon="-2.3007">
        <ele>27.39999961853</ele>
        <time>2021-03-07T09:11:37.000Z</time>
      </trkpt>
      <trkpt lat="47.2507" lon="-2.30084">
        <ele>27.39999961853</ele>
        <time>2021-03-07T09:11:39.000Z</time>
      </trkpt>
      <trkpt lat="47.25068" lon="-2.30106">
        <ele>27.39999961853</ele>
        <time>2021-03-07T09:11:42.000Z</time>
      </trkpt>
      <trkpt lat="47.25068" lon="-2.30132">
        <ele>27.39999961853</ele>
        <time>2021-03-07T09:11:47.000Z</time>
      </trkpt>
      <trkpt lat="47.25077" lon="-2.30136">
        <ele>27.39999961853</ele>
        <time>2021-03-07T09:11:50.000Z</time>
      </trkpt>
      <trkpt lat="47.25086" lon="-2.30135">
        <ele>27.39999961853</ele>
        <time>2021-03-07T09:11:52.000Z</time>
      </trkpt>
      <trkpt lat="47.251" lon="-2.30133">
        <ele>27</ele>
        <time>2021-03-07T09:11:55.000Z</time>
      </trkpt>
      <trkpt lat="47.25104" lon="-2.30132">
        <ele>26.60000038147</ele>
        <time>2021-03-07T09:11:56.000Z</time>
      </trkpt>
      <trkpt lat="47.25109" lon="-2.30131">
        <ele>26.200000762939</ele>
        <time>2021-03-07T09:11:57.000Z</time>
      </trkpt>
      <trkpt lat="47.25112" lon="-2.3013">
        <ele>25.799999237061</ele>
        <time>2021-03-07T09:11:58.000Z</time>
      </trkpt>
      <trkpt lat="47.25116" lon="-2.30129">
        <ele>25.39999961853</ele>
        <time>2021-03-07T09:11:59.000Z</time>
      </trkpt>
      <trkpt lat="47.25124" lon="-2.30127">
        <ele>25.39999961853</ele>
        <time>2021-03-07T09:12:01.000Z</time>
      </trkpt>
      <trkpt lat="47.25146" lon="-2.30124">
        <ele>25.39999961853</ele>
        <time>2021-03-07T09:12:05.000Z</time>
      </trkpt>
      <trkpt lat="47.25172" lon="-2.30116">
        <ele>25.39999961853</ele>
        <time>2021-03-07T09:12:10.000Z</time>
      </trkpt>
      <trkpt lat="47.25177" lon="-2.30117">
        <ele>25.39999961853</ele>
        <time>2021-03-07T09:12:11.000Z</time>
      </trkpt>
      <trkpt lat="47.25189" lon="-2.30132">
        <ele>25.39999961853</ele>
        <time>2021-03-07T09:12:14.000Z</time>
      </trkpt>
      <trkpt lat="47.25192" lon="-2.30139">
        <ele>24.799999237061</ele>
        <time>2021-03-07T09:12:15.000Z</time>
      </trkpt>
      <trkpt lat="47.25197" lon="-2.30146">
        <ele>24.39999961853</ele>
        <time>2021-03-07T09:12:16.000Z</time>
      </trkpt>
      <trkpt lat="47.25202" lon="-2.30152">
        <ele>24</ele>
        <time>2021-03-07T09:12:17.000Z</time>
      </trkpt>
      <trkpt lat="47.25207" lon="-2.30158">
        <ele>23.60000038147</ele>
        <time>2021-03-07T09:12:18.000Z</time>
      </trkpt>
      <trkpt lat="47.25212" lon="-2.30163">
        <ele>23.200000762939</ele>
        <time>2021-03-07T09:12:19.000Z</time>
      </trkpt>
      <trkpt lat="47.25227" lon="-2.30176">
        <ele>23.200000762939</ele>
        <time>2021-03-07T09:12:22.000Z</time>
      </trkpt>
      <trkpt lat="47.25232" lon="-2.30177">
        <ele>23.200000762939</ele>
        <time>2021-03-07T09:12:23.000Z</time>
      </trkpt>
      <trkpt lat="47.25254" lon="-2.30186">
        <ele>22.799999237061</ele>
        <time>2021-03-07T09:12:27.000Z</time>
      </trkpt>
      <trkpt lat="47.2526" lon="-2.30189">
        <ele>22.39999961853</ele>
        <time>2021-03-07T09:12:28.000Z</time>
      </trkpt>
      <trkpt lat="47.25266" lon="-2.30192">
        <ele>21.799999237061</ele>
        <time>2021-03-07T09:12:29.000Z</time>
      </trkpt>
      <trkpt lat="47.25272" lon="-2.30195">
        <ele>21.39999961853</ele>
        <time>2021-03-07T09:12:30.000Z</time>
      </trkpt>
      <trkpt lat="47.25278" lon="-2.30199">
        <ele>21</ele>
        <time>2021-03-07T09:12:31.000Z</time>
      </trkpt>
      <trkpt lat="47.25289" lon="-2.30204">
        <ele>21</ele>
        <time>2021-03-07T09:12:33.000Z</time>
      </trkpt>
      <trkpt lat="47.253" lon="-2.3021">
        <ele>20.60000038147</ele>
        <time>2021-03-07T09:12:36.000Z</time>
      </trkpt>
      <trkpt lat="47.25303" lon="-2.30211">
        <ele>20.200000762939</ele>
        <time>2021-03-07T09:12:37.000Z</time>
      </trkpt>
      <trkpt lat="47.25304" lon="-2.3021">
        <ele>19.799999237061</ele>
        <time>2021-03-07T09:12:38.000Z</time>
      </trkpt>
      <trkpt lat="47.25306" lon="-2.30207">
        <ele>19.39999961853</ele>
        <time>2021-03-07T09:12:39.000Z</time>
      </trkpt>
      <trkpt lat="47.25308" lon="-2.30204">
        <ele>19</ele>
        <time>2021-03-07T09:12:40.000Z</time>
      </trkpt>
      <trkpt lat="47.2532" lon="-2.30206">
        <ele>19</ele>
        <time>2021-03-07T09:12:43.000Z</time>
      </trkpt>
      <trkpt lat="47.25324" lon="-2.30207">
        <ele>19</ele>
        <time>2021-03-07T09:12:44.000Z</time>
      </trkpt>
      <trkpt lat="47.25329" lon="-2.30207">
        <ele>19</ele>
        <time>2021-03-07T09:12:45.000Z</time>
      </trkpt>
      <trkpt lat="47.2535" lon="-2.30208">
        <ele>19</ele>
        <time>2021-03-07T09:12:49.000Z</time>
      </trkpt>
      <trkpt lat="47.25375" lon="-2.3021">
        <ele>18.60000038147</ele>
        <time>2021-03-07T09:12:54.000Z</time>
      </trkpt>
      <trkpt lat="47.2538" lon="-2.30212">
        <ele>18</ele>
        <time>2021-03-07T09:12:55.000Z</time>
      </trkpt>
      <trkpt lat="47.25384" lon="-2.30213">
        <ele>17.60000038147</ele>
        <time>2021-03-07T09:12:56.000Z</time>
      </trkpt>
      <trkpt lat="47.25389" lon="-2.30215">
        <ele>17.200000762939</ele>
        <time>2021-03-07T09:12:57.000Z</time>
      </trkpt>
      <trkpt lat="47.25393" lon="-2.30217">
        <ele>16.799999237061</ele>
        <time>2021-03-07T09:12:58.000Z</time>
      </trkpt>
      <trkpt lat="47.25399" lon="-2.3022">
        <ele>16.799999237061</ele>
        <time>2021-03-07T09:13:00.000Z</time>
      </trkpt>
      <trkpt lat="47.25416" lon="-2.30226">
        <ele>16.799999237061</ele>
        <time>2021-03-07T09:13:05.000Z</time>
      </trkpt>
      <trkpt lat="47.25437" lon="-2.30235">
        <ele>16.799999237061</ele>
        <time>2021-03-07T09:13:10.000Z</time>
      </trkpt>
      <trkpt lat="47.25456" lon="-2.30239">
        <ele>16.799999237061</ele>
        <time>2021-03-07T09:13:14.000Z</time>
      </trkpt>
      <trkpt lat="47.2546" lon="-2.3024">
        <ele>16.799999237061</ele>
        <time>2021-03-07T09:13:15.000Z</time>
      </trkpt>
      <trkpt lat="47.25474" lon="-2.30242">
        <ele>16.200000762939</ele>
        <time>2021-03-07T09:13:19.000Z</time>
      </trkpt>
      <trkpt lat="47.25475" lon="-2.30237">
        <ele>15.800000190735</ele>
        <time>2021-03-07T09:13:20.000Z</time>
      </trkpt>
      <trkpt lat="47.25476" lon="-2.30232">
        <ele>15.39999961853</ele>
        <time>2021-03-07T09:13:21.000Z</time>
      </trkpt>
      <trkpt lat="47.25478" lon="-2.30226">
        <ele>15</ele>
        <time>2021-03-07T09:13:22.000Z</time>
      </trkpt>
      <trkpt lat="47.2548" lon="-2.3022">
        <ele>14.60000038147</ele>
        <time>2021-03-07T09:13:23.000Z</time>
      </trkpt>
      <trkpt lat="47.25489" lon="-2.30204">
        <ele>14.60000038147</ele>
        <time>2021-03-07T09:13:26.000Z</time>
      </trkpt>
      <trkpt lat="47.25497" lon="-2.30195">
        <ele>14.60000038147</ele>
        <time>2021-03-07T09:13:28.000Z</time>
      </trkpt>
      <trkpt lat="47.25501" lon="-2.30194">
        <ele>14.60000038147</ele>
        <time>2021-03-07T09:13:29.000Z</time>
      </trkpt>
      <trkpt lat="47.25514" lon="-2.30196">
        <ele>14.60000038147</ele>
        <time>2021-03-07T09:13:32.000Z</time>
      </trkpt>
      <trkpt lat="47.25519" lon="-2.30196">
        <ele>14.60000038147</ele>
        <time>2021-03-07T09:13:33.000Z</time>
      </trkpt>
      <trkpt lat="47.25541" lon="-2.30187">
        <ele>14.60000038147</ele>
        <time>2021-03-07T09:13:37.000Z</time>
      </trkpt>
      <trkpt lat="47.25558" lon="-2.30182">
        <ele>14.60000038147</ele>
        <time>2021-03-07T09:13:40.000Z</time>
      </trkpt>
      <trkpt lat="47.2557" lon="-2.30185">
        <ele>14.60000038147</ele>
        <time>2021-03-07T09:13:42.000Z</time>
      </trkpt>
      <trkpt lat="47.25575" lon="-2.30188">
        <ele>14.60000038147</ele>
        <time>2021-03-07T09:13:43.000Z</time>
      </trkpt>
      <trkpt lat="47.25591" lon="-2.30202">
        <ele>14.60000038147</ele>
        <time>2021-03-07T09:13:46.000Z</time>
      </trkpt>
      <trkpt lat="47.25596" lon="-2.30207">
        <ele>14.60000038147</ele>
        <time>2021-03-07T09:13:47.000Z</time>
      </trkpt>
      <trkpt lat="47.25605" lon="-2.30218">
        <ele>13.60000038147</ele>
        <time>2021-03-07T09:13:49.000Z</time>
      </trkpt>
      <trkpt lat="47.25608" lon="-2.30223">
        <ele>13.199999809265</ele>
        <time>2021-03-07T09:13:50.000Z</time>
      </trkpt>
      <trkpt lat="47.25611" lon="-2.30228">
        <ele>12.800000190735</ele>
        <time>2021-03-07T09:13:51.000Z</time>
      </trkpt>
      <trkpt lat="47.25613" lon="-2.30234">
        <ele>12.39999961853</ele>
        <time>2021-03-07T09:13:52.000Z</time>
      </trkpt>
      <trkpt lat="47.25618" lon="-2.30252">
        <ele>12.39999961853</ele>
        <time>2021-03-07T09:13:55.000Z</time>
      </trkpt>
      <trkpt lat="47.25619" lon="-2.30258">
        <ele>12.39999961853</ele>
        <time>2021-03-07T09:13:56.000Z</time>
      </trkpt>
      <trkpt lat="47.25621" lon="-2.30281">
        <ele>12.39999961853</ele>
        <time>2021-03-07T09:14:01.000Z</time>
      </trkpt>
      <trkpt lat="47.25624" lon="-2.30306">
        <ele>12.39999961853</ele>
        <time>2021-03-07T09:14:07.000Z</time>
      </trkpt>
      <trkpt lat="47.25625" lon="-2.30317">
        <ele>12.39999961853</ele>
        <time>2021-03-07T09:14:09.000Z</time>
      </trkpt>
      <trkpt lat="47.25629" lon="-2.30334">
        <ele>12.39999961853</ele>
        <time>2021-03-07T09:14:12.000Z</time>
      </trkpt>
      <trkpt lat="47.25632" lon="-2.3034">
        <ele>12.39999961853</ele>
        <time>2021-03-07T09:14:14.000Z</time>
      </trkpt>
      <trkpt lat="47.25634" lon="-2.3034">
        <ele>12.39999961853</ele>
        <time>2021-03-07T09:14:15.000Z</time>
      </trkpt>
      <trkpt lat="47.25646" lon="-2.30326">
        <ele>12.39999961853</ele>
        <time>2021-03-07T09:14:19.000Z</time>
      </trkpt>
      <trkpt lat="47.25648" lon="-2.3032">
        <ele>12.39999961853</ele>
        <time>2021-03-07T09:14:20.000Z</time>
      </trkpt>
      <trkpt lat="47.25656" lon="-2.30298">
        <ele>12.39999961853</ele>
        <time>2021-03-07T09:14:24.000Z</time>
      </trkpt>
      <trkpt lat="47.25662" lon="-2.30275">
        <ele>12.39999961853</ele>
        <time>2021-03-07T09:14:28.000Z</time>
      </trkpt>
      <trkpt lat="47.25672" lon="-2.30265">
        <ele>12.39999961853</ele>
        <time>2021-03-07T09:14:31.000Z</time>
      </trkpt>
      <trkpt lat="47.25675" lon="-2.30261">
        <ele>12.39999961853</ele>
        <time>2021-03-07T09:14:32.000Z</time>
      </trkpt>
      <trkpt lat="47.25678" lon="-2.30256">
        <ele>12.39999961853</ele>
        <time>2021-03-07T09:14:33.000Z</time>
      </trkpt>
      <trkpt lat="47.25685" lon="-2.30238">
        <ele>12.39999961853</ele>
        <time>2021-03-07T09:14:36.000Z</time>
      </trkpt>
      <trkpt lat="47.25693" lon="-2.30221">
        <ele>12.39999961853</ele>
        <time>2021-03-07T09:14:39.000Z</time>
      </trkpt>
      <trkpt lat="47.25702" lon="-2.30212">
        <ele>12.39999961853</ele>
        <time>2021-03-07T09:14:41.000Z</time>
      </trkpt>
      <trkpt lat="47.25727" lon="-2.30205">
        <ele>12.39999961853</ele>
        <time>2021-03-07T09:14:46.000Z</time>
      </trkpt>
      <trkpt lat="47.25738" lon="-2.30208">
        <ele>12</ele>
        <time>2021-03-07T09:14:48.000Z</time>
      </trkpt>
      <trkpt lat="47.25743" lon="-2.30211">
        <ele>11.60000038147</ele>
        <time>2021-03-07T09:14:49.000Z</time>
      </trkpt>
      <trkpt lat="47.25749" lon="-2.30214">
        <ele>11.199999809265</ele>
        <time>2021-03-07T09:14:50.000Z</time>
      </trkpt>
      <trkpt lat="47.25753" lon="-2.30216">
        <ele>10.800000190735</ele>
        <time>2021-03-07T09:14:51.000Z</time>
      </trkpt>
      <trkpt lat="47.25759" lon="-2.3022">
        <ele>10.39999961853</ele>
        <time>2021-03-07T09:14:52.000Z</time>
      </trkpt>
      <trkpt lat="47.25794" lon="-2.30239">
        <ele>10.39999961853</ele>
        <time>2021-03-07T09:14:58.000Z</time>
      </trkpt>
      <trkpt lat="47.2583" lon="-2.30259">
        <ele>10</ele>
        <time>2021-03-07T09:15:06.000Z</time>
      </trkpt>
      <trkpt lat="47.25835" lon="-2.30261">
        <ele>9.6000003814697</ele>
        <time>2021-03-07T09:15:07.000Z</time>
      </trkpt>
      <trkpt lat="47.25839" lon="-2.30262">
        <ele>9.1999998092651</ele>
        <time>2021-03-07T09:15:08.000Z</time>
      </trkpt>
      <trkpt lat="47.25843" lon="-2.30263">
        <ele>8.8000001907349</ele>
        <time>2021-03-07T09:15:09.000Z</time>
      </trkpt>
      <trkpt lat="47.25847" lon="-2.30265">
        <ele>8.3999996185303</ele>
        <time>2021-03-07T09:15:10.000Z</time>
      </trkpt>
      <trkpt lat="47.2586" lon="-2.30271">
        <ele>8.3999996185303</ele>
        <time>2021-03-07T09:15:13.000Z</time>
      </trkpt>
      <trkpt lat="47.25865" lon="-2.30272">
        <ele>8.3999996185303</ele>
        <time>2021-03-07T09:15:14.000Z</time>
      </trkpt>
      <trkpt lat="47.25873" lon="-2.30267">
        <ele>8.3999996185303</ele>
        <time>2021-03-07T09:15:16.000Z</time>
      </trkpt>
      <trkpt lat="47.2588" lon="-2.30259">
        <ele>8.3999996185303</ele>
        <time>2021-03-07T09:15:18.000Z</time>
      </trkpt>
      <trkpt lat="47.25884" lon="-2.30253">
        <ele>8.3999996185303</ele>
        <time>2021-03-07T09:15:19.000Z</time>
      </trkpt>
      <trkpt lat="47.25888" lon="-2.30246">
        <ele>8.3999996185303</ele>
        <time>2021-03-07T09:15:20.000Z</time>
      </trkpt>
      <trkpt lat="47.2589" lon="-2.3023">
        <ele>8.8000001907349</ele>
        <time>2021-03-07T09:15:22.000Z</time>
      </trkpt>
      <trkpt lat="47.2589" lon="-2.30222">
        <ele>9.1999998092651</ele>
        <time>2021-03-07T09:15:23.000Z</time>
      </trkpt>
      <trkpt lat="47.2589" lon="-2.30214">
        <ele>9.6000003814697</ele>
        <time>2021-03-07T09:15:24.000Z</time>
      </trkpt>
      <trkpt lat="47.25889" lon="-2.30206">
        <ele>10</ele>
        <time>2021-03-07T09:15:25.000Z</time>
      </trkpt>
      <trkpt lat="47.25889" lon="-2.30198">
        <ele>10.39999961853</ele>
        <time>2021-03-07T09:15:26.000Z</time>
      </trkpt>
      <trkpt lat="47.2589" lon="-2.30191">
        <ele>10.39999961853</ele>
        <time>2021-03-07T09:15:27.000Z</time>
      </trkpt>
      <trkpt lat="47.25892" lon="-2.30184">
        <ele>10.39999961853</ele>
        <time>2021-03-07T09:15:28.000Z</time>
      </trkpt>
      <trkpt lat="47.25903" lon="-2.30171">
        <ele>10.39999961853</ele>
        <time>2021-03-07T09:15:31.000Z</time>
      </trkpt>
      <trkpt lat="47.25908" lon="-2.30169">
        <ele>10.39999961853</ele>
        <time>2021-03-07T09:15:32.000Z</time>
      </trkpt>
      <trkpt lat="47.25918" lon="-2.30165">
        <ele>10.39999961853</ele>
        <time>2021-03-07T09:15:34.000Z</time>
      </trkpt>
      <trkpt lat="47.25941" lon="-2.3016">
        <ele>10</ele>
        <time>2021-03-07T09:15:38.000Z</time>
      </trkpt>
      <trkpt lat="47.25946" lon="-2.30156">
        <ele>9.3999996185303</ele>
        <time>2021-03-07T09:15:39.000Z</time>
      </trkpt>
      <trkpt lat="47.25952" lon="-2.30151">
        <ele>9</ele>
        <time>2021-03-07T09:15:40.000Z</time>
      </trkpt>
      <trkpt lat="47.25956" lon="-2.30146">
        <ele>8.6000003814697</ele>
        <time>2021-03-07T09:15:41.000Z</time>
      </trkpt>
      <trkpt lat="47.2596" lon="-2.3014">
        <ele>8</ele>
        <time>2021-03-07T09:15:42.000Z</time>
      </trkpt>
      <trkpt lat="47.25966" lon="-2.30131">
        <ele>8</ele>
        <time>2021-03-07T09:15:44.000Z</time>
      </trkpt>
      <trkpt lat="47.25976" lon="-2.30128">
        <ele>8</ele>
        <time>2021-03-07T09:15:47.000Z</time>
      </trkpt>
      <trkpt lat="47.25984" lon="-2.30127">
        <ele>8</ele>
        <time>2021-03-07T09:15:51.000Z</time>
      </trkpt>
      <trkpt lat="47.25992" lon="-2.30127">
        <ele>8</ele>
        <time>2021-03-07T09:15:56.000Z</time>
      </trkpt>
      <trkpt lat="47.25995" lon="-2.30128">
        <ele>8</ele>
        <time>2021-03-07T09:15:57.000Z</time>
      </trkpt>
      <trkpt lat="47.26005" lon="-2.30127">
        <ele>8</ele>
        <time>2021-03-07T09:16:00.000Z</time>
      </trkpt>
      <trkpt lat="47.26013" lon="-2.30131">
        <ele>8</ele>
        <time>2021-03-07T09:16:02.000Z</time>
      </trkpt>
      <trkpt lat="47.26022" lon="-2.30135">
        <ele>8</ele>
        <time>2021-03-07T09:16:04.000Z</time>
      </trkpt>
      <trkpt lat="47.26044" lon="-2.30131">
        <ele>8.3999996185303</ele>
        <time>2021-03-07T09:16:09.000Z</time>
      </trkpt>
      <trkpt lat="47.26047" lon="-2.30131">
        <ele>9</ele>
        <time>2021-03-07T09:16:10.000Z</time>
      </trkpt>
      <trkpt lat="47.2605" lon="-2.30132">
        <ele>9.3999996185303</ele>
        <time>2021-03-07T09:16:11.000Z</time>
      </trkpt>
      <trkpt lat="47.26054" lon="-2.30135">
        <ele>9.8000001907349</ele>
        <time>2021-03-07T09:16:12.000Z</time>
      </trkpt>
      <trkpt lat="47.26057" lon="-2.30138">
        <ele>10.199999809265</ele>
        <time>2021-03-07T09:16:13.000Z</time>
      </trkpt>
      <trkpt lat="47.26072" lon="-2.30148">
        <ele>10.199999809265</ele>
        <time>2021-03-07T09:16:18.000Z</time>
      </trkpt>
      <trkpt lat="47.26086" lon="-2.30148">
        <ele>10.60000038147</ele>
        <time>2021-03-07T09:16:25.000Z</time>
      </trkpt>
      <trkpt lat="47.26088" lon="-2.3015">
        <ele>11</ele>
        <time>2021-03-07T09:16:26.000Z</time>
      </trkpt>
      <trkpt lat="47.26089" lon="-2.30152">
        <ele>11.39999961853</ele>
        <time>2021-03-07T09:16:27.000Z</time>
      </trkpt>
      <trkpt lat="47.26091" lon="-2.30153">
        <ele>12</ele>
        <time>2021-03-07T09:16:28.000Z</time>
      </trkpt>
      <trkpt lat="47.26092" lon="-2.30155">
        <ele>12.39999961853</ele>
        <time>2021-03-07T09:16:29.000Z</time>
      </trkpt>
      <trkpt lat="47.26093" lon="-2.30158">
        <ele>12.39999961853</ele>
        <time>2021-03-07T09:16:30.000Z</time>
      </trkpt>
      <trkpt lat="47.26096" lon="-2.3016">
        <ele>12.39999961853</ele>
        <time>2021-03-07T09:16:31.000Z</time>
      </trkpt>
      <trkpt lat="47.26102" lon="-2.30158">
        <ele>12.39999961853</ele>
        <time>2021-03-07T09:16:33.000Z</time>
      </trkpt>
      <trkpt lat="47.26117" lon="-2.30154">
        <ele>12.39999961853</ele>
        <time>2021-03-07T09:16:38.000Z</time>
      </trkpt>
      <trkpt lat="47.26123" lon="-2.30153">
        <ele>12.39999961853</ele>
        <time>2021-03-07T09:16:40.000Z</time>
      </trkpt>
      <trkpt lat="47.26129" lon="-2.30152">
        <ele>12.800000190735</ele>
        <time>2021-03-07T09:16:42.000Z</time>
      </trkpt>
      <trkpt lat="47.26132" lon="-2.30151">
        <ele>13.60000038147</ele>
        <time>2021-03-07T09:16:43.000Z</time>
      </trkpt>
      <trkpt lat="47.26135" lon="-2.30151">
        <ele>14</ele>
        <time>2021-03-07T09:16:44.000Z</time>
      </trkpt>
      <trkpt lat="47.26138" lon="-2.30151">
        <ele>14.39999961853</ele>
        <time>2021-03-07T09:16:45.000Z</time>
      </trkpt>
      <trkpt lat="47.26153" lon="-2.30146">
        <ele>14.39999961853</ele>
        <time>2021-03-07T09:16:51.000Z</time>
      </trkpt>
      <trkpt lat="47.26159" lon="-2.30145">
        <ele>14.800000190735</ele>
        <time>2021-03-07T09:16:54.000Z</time>
      </trkpt>
      <trkpt lat="47.26161" lon="-2.30145">
        <ele>15.199999809265</ele>
        <time>2021-03-07T09:16:55.000Z</time>
      </trkpt>
      <trkpt lat="47.26163" lon="-2.30144">
        <ele>15.60000038147</ele>
        <time>2021-03-07T09:16:56.000Z</time>
      </trkpt>
      <trkpt lat="47.26165" lon="-2.30144">
        <ele>16</ele>
        <time>2021-03-07T09:16:57.000Z</time>
      </trkpt>
      <trkpt lat="47.26167" lon="-2.30144">
        <ele>16.39999961853</ele>
        <time>2021-03-07T09:16:58.000Z</time>
      </trkpt>
      <trkpt lat="47.26168" lon="-2.30145">
        <ele>16.39999961853</ele>
        <time>2021-03-07T09:16:59.000Z</time>
      </trkpt>
      <trkpt lat="47.26173" lon="-2.30155">
        <ele>16.39999961853</ele>
        <time>2021-03-07T09:17:02.000Z</time>
      </trkpt>
      <trkpt lat="47.26183" lon="-2.30153">
        <ele>16.39999961853</ele>
        <time>2021-03-07T09:17:05.000Z</time>
      </trkpt>
      <trkpt lat="47.26186" lon="-2.30151">
        <ele>16.39999961853</ele>
        <time>2021-03-07T09:17:06.000Z</time>
      </trkpt>
      <trkpt lat="47.26196" lon="-2.30146">
        <ele>17</ele>
        <time>2021-03-07T09:17:09.000Z</time>
      </trkpt>
      <trkpt lat="47.26199" lon="-2.30145">
        <ele>17.39999961853</ele>
        <time>2021-03-07T09:17:10.000Z</time>
      </trkpt>
      <trkpt lat="47.26203" lon="-2.30143">
        <ele>17.799999237061</ele>
        <time>2021-03-07T09:17:11.000Z</time>
      </trkpt>
      <trkpt lat="47.26207" lon="-2.30142">
        <ele>18.200000762939</ele>
        <time>2021-03-07T09:17:12.000Z</time>
      </trkpt>
      <trkpt lat="47.2621" lon="-2.30141">
        <ele>18.60000038147</ele>
        <time>2021-03-07T09:17:13.000Z</time>
      </trkpt>
      <trkpt lat="47.26229" lon="-2.30134">
        <ele>18.60000038147</ele>
        <time>2021-03-07T09:17:19.000Z</time>
      </trkpt>
      <trkpt lat="47.26246" lon="-2.30127">
        <ele>18.60000038147</ele>
        <time>2021-03-07T09:17:26.000Z</time>
      </trkpt>
      <trkpt lat="47.26246" lon="-2.30119">
        <ele>19</ele>
        <time>2021-03-07T09:17:29.000Z</time>
      </trkpt>
      <trkpt lat="47.26245" lon="-2.30115">
        <ele>19.39999961853</ele>
        <time>2021-03-07T09:17:30.000Z</time>
      </trkpt>
      <trkpt lat="47.26245" lon="-2.30111">
        <ele>20</ele>
        <time>2021-03-07T09:17:31.000Z</time>
      </trkpt>
      <trkpt lat="47.26244" lon="-2.30107">
        <ele>20.799999237061</ele>
        <time>2021-03-07T09:17:32.000Z</time>
      </trkpt>
      <trkpt lat="47.26238" lon="-2.30086">
        <ele>20.799999237061</ele>
        <time>2021-03-07T09:17:37.000Z</time>
      </trkpt>
      <trkpt lat="47.26228" lon="-2.30051">
        <ele>20.799999237061</ele>
        <time>2021-03-07T09:17:44.000Z</time>
      </trkpt>
      <trkpt lat="47.26226" lon="-2.30005">
        <ele>20.799999237061</ele>
        <time>2021-03-07T09:17:51.000Z</time>
      </trkpt>
      <trkpt lat="47.26226" lon="-2.29963">
        <ele>20.799999237061</ele>
        <time>2021-03-07T09:17:57.000Z</time>
      </trkpt>
      <trkpt lat="47.26225" lon="-2.29958">
        <ele>20.799999237061</ele>
        <time>2021-03-07T09:17:58.000Z</time>
      </trkpt>
      <trkpt lat="47.26224" lon="-2.29932">
        <ele>21.200000762939</ele>
        <time>2021-03-07T09:18:02.000Z</time>
      </trkpt>
      <trkpt lat="47.26223" lon="-2.29926">
        <ele>21.60000038147</ele>
        <time>2021-03-07T09:18:03.000Z</time>
      </trkpt>
      <trkpt lat="47.26223" lon="-2.29919">
        <ele>22</ele>
        <time>2021-03-07T09:18:04.000Z</time>
      </trkpt>
      <trkpt lat="47.26222" lon="-2.29912">
        <ele>22.39999961853</ele>
        <time>2021-03-07T09:18:05.000Z</time>
      </trkpt>
      <trkpt lat="47.26222" lon="-2.29906">
        <ele>23</ele>
        <time>2021-03-07T09:18:06.000Z</time>
      </trkpt>
      <trkpt lat="47.2622" lon="-2.2986">
        <ele>23</ele>
        <time>2021-03-07T09:18:13.000Z</time>
      </trkpt>
      <trkpt lat="47.2622" lon="-2.29847">
        <ele>23</ele>
        <time>2021-03-07T09:18:15.000Z</time>
      </trkpt>
      <trkpt lat="47.26217" lon="-2.2984">
        <ele>23</ele>
        <time>2021-03-07T09:18:17.000Z</time>
      </trkpt>
      <trkpt lat="47.26204" lon="-2.2984">
        <ele>22.39999961853</ele>
        <time>2021-03-07T09:18:20.000Z</time>
      </trkpt>
      <trkpt lat="47.26199" lon="-2.2984">
        <ele>21.60000038147</ele>
        <time>2021-03-07T09:18:21.000Z</time>
      </trkpt>
      <trkpt lat="47.26194" lon="-2.29841">
        <ele>21.200000762939</ele>
        <time>2021-03-07T09:18:22.000Z</time>
      </trkpt>
      <trkpt lat="47.26188" lon="-2.29841">
        <ele>20.799999237061</ele>
        <time>2021-03-07T09:18:23.000Z</time>
      </trkpt>
      <trkpt lat="47.26172" lon="-2.29842">
        <ele>20.39999961853</ele>
        <time>2021-03-07T09:18:26.000Z</time>
      </trkpt>
      <trkpt lat="47.26166" lon="-2.29843">
        <ele>20</ele>
        <time>2021-03-07T09:18:27.000Z</time>
      </trkpt>
      <trkpt lat="47.26159" lon="-2.29845">
        <ele>19.60000038147</ele>
        <time>2021-03-07T09:18:28.000Z</time>
      </trkpt>
      <trkpt lat="47.26153" lon="-2.29847">
        <ele>19.200000762939</ele>
        <time>2021-03-07T09:18:29.000Z</time>
      </trkpt>
      <trkpt lat="47.26146" lon="-2.2985">
        <ele>18.799999237061</ele>
        <time>2021-03-07T09:18:30.000Z</time>
      </trkpt>
      <trkpt lat="47.2614" lon="-2.29853">
        <ele>18.799999237061</ele>
        <time>2021-03-07T09:18:31.000Z</time>
      </trkpt>
      <trkpt lat="47.26121" lon="-2.29862">
        <ele>18.200000762939</ele>
        <time>2021-03-07T09:18:34.000Z</time>
      </trkpt>
      <trkpt lat="47.26114" lon="-2.29865">
        <ele>17.799999237061</ele>
        <time>2021-03-07T09:18:35.000Z</time>
      </trkpt>
      <trkpt lat="47.26106" lon="-2.29867">
        <ele>17.200000762939</ele>
        <time>2021-03-07T09:18:36.000Z</time>
      </trkpt>
      <trkpt lat="47.26098" lon="-2.29869">
        <ele>16.799999237061</ele>
        <time>2021-03-07T09:18:37.000Z</time>
      </trkpt>
      <trkpt lat="47.26091" lon="-2.29871">
        <ele>16.39999961853</ele>
        <time>2021-03-07T09:18:38.000Z</time>
      </trkpt>
      <trkpt lat="47.26083" lon="-2.29874">
        <ele>16.39999961853</ele>
        <time>2021-03-07T09:18:39.000Z</time>
      </trkpt>
      <trkpt lat="47.26067" lon="-2.29882">
        <ele>15.800000190735</ele>
        <time>2021-03-07T09:18:41.000Z</time>
      </trkpt>
      <trkpt lat="47.26058" lon="-2.29885">
        <ele>15.39999961853</ele>
        <time>2021-03-07T09:18:42.000Z</time>
      </trkpt>
      <trkpt lat="47.26049" lon="-2.29888">
        <ele>14.800000190735</ele>
        <time>2021-03-07T09:18:43.000Z</time>
      </trkpt>
      <trkpt lat="47.26041" lon="-2.2989">
        <ele>14.39999961853</ele>
        <time>2021-03-07T09:18:44.000Z</time>
      </trkpt>
      <trkpt lat="47.26032" lon="-2.29894">
        <ele>14</ele>
        <time>2021-03-07T09:18:45.000Z</time>
      </trkpt>
      <trkpt lat="47.26025" lon="-2.29897">
        <ele>13.39999961853</ele>
        <time>2021-03-07T09:18:46.000Z</time>
      </trkpt>
      <trkpt lat="47.26018" lon="-2.29901">
        <ele>13</ele>
        <time>2021-03-07T09:18:47.000Z</time>
      </trkpt>
      <trkpt lat="47.26012" lon="-2.29906">
        <ele>12.39999961853</ele>
        <time>2021-03-07T09:18:48.000Z</time>
      </trkpt>
      <trkpt lat="47.26006" lon="-2.29911">
        <ele>11.800000190735</ele>
        <time>2021-03-07T09:18:49.000Z</time>
      </trkpt>
      <trkpt lat="47.26001" lon="-2.29915">
        <ele>11.39999961853</ele>
        <time>2021-03-07T09:18:50.000Z</time>
      </trkpt>
      <trkpt lat="47.25998" lon="-2.29919">
        <ele>11</ele>
        <time>2021-03-07T09:18:51.000Z</time>
      </trkpt>
      <trkpt lat="47.25994" lon="-2.29923">
        <ele>10.60000038147</ele>
        <time>2021-03-07T09:18:52.000Z</time>
      </trkpt>
      <trkpt lat="47.25991" lon="-2.29923">
        <ele>10</ele>
        <time>2021-03-07T09:18:53.000Z</time>
      </trkpt>
      <trkpt lat="47.25988" lon="-2.29922">
        <ele>9.6000003814697</ele>
        <time>2021-03-07T09:18:54.000Z</time>
      </trkpt>
      <trkpt lat="47.25985" lon="-2.29921">
        <ele>9.1999998092651</ele>
        <time>2021-03-07T09:18:55.000Z</time>
      </trkpt>
      <trkpt lat="47.25974" lon="-2.29908">
        <ele>9.1999998092651</ele>
        <time>2021-03-07T09:18:59.000Z</time>
      </trkpt>
      <trkpt lat="47.25969" lon="-2.29899">
        <ele>9.1999998092651</ele>
        <time>2021-03-07T09:19:01.000Z</time>
      </trkpt>
      <trkpt lat="47.25964" lon="-2.29886">
        <ele>9.1999998092651</ele>
        <time>2021-03-07T09:19:04.000Z</time>
      </trkpt>
      <trkpt lat="47.25956" lon="-2.29871">
        <ele>9.1999998092651</ele>
        <time>2021-03-07T09:19:09.000Z</time>
      </trkpt>
      <trkpt lat="47.25956" lon="-2.29869">
        <ele>9.1999998092651</ele>
        <time>2021-03-07T09:19:10.000Z</time>
      </trkpt>
      <trkpt lat="47.25955" lon="-2.29864">
        <ele>9.1999998092651</ele>
        <time>2021-03-07T09:19:14.000Z</time>
      </trkpt>
      <trkpt lat="47.25954" lon="-2.29858">
        <ele>9.1999998092651</ele>
        <time>2021-03-07T09:19:19.000Z</time>
      </trkpt>
      <trkpt lat="47.25954" lon="-2.29848">
        <ele>9.1999998092651</ele>
        <time>2021-03-07T09:19:22.000Z</time>
      </trkpt>
      <trkpt lat="47.25953" lon="-2.29822">
        <ele>9.1999998092651</ele>
        <time>2021-03-07T09:19:27.000Z</time>
      </trkpt>
      <trkpt lat="47.25949" lon="-2.29804">
        <ele>9.1999998092651</ele>
        <time>2021-03-07T09:19:31.000Z</time>
      </trkpt>
      <trkpt lat="47.25943" lon="-2.2978">
        <ele>9.1999998092651</ele>
        <time>2021-03-07T09:19:36.000Z</time>
      </trkpt>
      <trkpt lat="47.2593" lon="-2.29746">
        <ele>9.1999998092651</ele>
        <time>2021-03-07T09:19:43.000Z</time>
      </trkpt>
      <trkpt lat="47.25929" lon="-2.29727">
        <ele>9.1999998092651</ele>
        <time>2021-03-07T09:19:47.000Z</time>
      </trkpt>
      <trkpt lat="47.25932" lon="-2.29688">
        <ele>9.1999998092651</ele>
        <time>2021-03-07T09:19:53.000Z</time>
      </trkpt>
      <trkpt lat="47.25933" lon="-2.29675">
        <ele>9.6000003814697</ele>
        <time>2021-03-07T09:19:55.000Z</time>
      </trkpt>
      <trkpt lat="47.25934" lon="-2.29669">
        <ele>10</ele>
        <time>2021-03-07T09:19:56.000Z</time>
      </trkpt>
      <trkpt lat="47.25935" lon="-2.29662">
        <ele>10.39999961853</ele>
        <time>2021-03-07T09:19:57.000Z</time>
      </trkpt>
      <trkpt lat="47.25936" lon="-2.29656">
        <ele>10.800000190735</ele>
        <time>2021-03-07T09:19:58.000Z</time>
      </trkpt>
      <trkpt lat="47.25936" lon="-2.2965">
        <ele>11.39999961853</ele>
        <time>2021-03-07T09:19:59.000Z</time>
      </trkpt>
      <trkpt lat="47.25936" lon="-2.29645">
        <ele>11.39999961853</ele>
        <time>2021-03-07T09:20:00.000Z</time>
      </trkpt>
      <trkpt lat="47.25937" lon="-2.29622">
        <ele>11.39999961853</ele>
        <time>2021-03-07T09:20:05.000Z</time>
      </trkpt>
      <trkpt lat="47.25941" lon="-2.29622">
        <ele>11.39999961853</ele>
        <time>2021-03-07T09:20:06.000Z</time>
      </trkpt>
      <trkpt lat="47.25944" lon="-2.29625">
        <ele>11.39999961853</ele>
        <time>2021-03-07T09:20:07.000Z</time>
      </trkpt>
      <trkpt lat="47.25955" lon="-2.29637">
        <ele>11.39999961853</ele>
        <time>2021-03-07T09:20:10.000Z</time>
      </trkpt>
      <trkpt lat="47.25959" lon="-2.2964">
        <ele>11.39999961853</ele>
        <time>2021-03-07T09:20:11.000Z</time>
      </trkpt>
      <trkpt lat="47.25972" lon="-2.29639">
        <ele>11.39999961853</ele>
        <time>2021-03-07T09:20:14.000Z</time>
      </trkpt>
      <trkpt lat="47.25981" lon="-2.29633">
        <ele>11.39999961853</ele>
        <time>2021-03-07T09:20:16.000Z</time>
      </trkpt>
      <trkpt lat="47.25994" lon="-2.29627">
        <ele>11.39999961853</ele>
        <time>2021-03-07T09:20:19.000Z</time>
      </trkpt>
      <trkpt lat="47.26014" lon="-2.29618">
        <ele>11.39999961853</ele>
        <time>2021-03-07T09:20:25.000Z</time>
      </trkpt>
      <trkpt lat="47.26031" lon="-2.29617">
        <ele>11.39999961853</ele>
        <time>2021-03-07T09:20:31.000Z</time>
      </trkpt>
      <trkpt lat="47.26045" lon="-2.29616">
        <ele>11.39999961853</ele>
        <time>2021-03-07T09:20:37.000Z</time>
      </trkpt>
      <trkpt lat="47.26058" lon="-2.29615">
        <ele>11.800000190735</ele>
        <time>2021-03-07T09:20:43.000Z</time>
      </trkpt>
      <trkpt lat="47.26059" lon="-2.29614">
        <ele>12.199999809265</ele>
        <time>2021-03-07T09:20:44.000Z</time>
      </trkpt>
      <trkpt lat="47.26062" lon="-2.29614">
        <ele>12.60000038147</ele>
        <time>2021-03-07T09:20:45.000Z</time>
      </trkpt>
      <trkpt lat="47.26064" lon="-2.29614">
        <ele>13</ele>
        <time>2021-03-07T09:20:46.000Z</time>
      </trkpt>
      <trkpt lat="47.26066" lon="-2.29613">
        <ele>13.39999961853</ele>
        <time>2021-03-07T09:20:47.000Z</time>
      </trkpt>
      <trkpt lat="47.26068" lon="-2.29613">
        <ele>13.39999961853</ele>
        <time>2021-03-07T09:20:48.000Z</time>
      </trkpt>
      <trkpt lat="47.26081" lon="-2.2961">
        <ele>13.800000190735</ele>
        <time>2021-03-07T09:20:54.000Z</time>
      </trkpt>
      <trkpt lat="47.26083" lon="-2.2961">
        <ele>14.199999809265</ele>
        <time>2021-03-07T09:20:55.000Z</time>
      </trkpt>
      <trkpt lat="47.26085" lon="-2.2961">
        <ele>14.60000038147</ele>
        <time>2021-03-07T09:20:56.000Z</time>
      </trkpt>
      <trkpt lat="47.26088" lon="-2.29611">
        <ele>15</ele>
        <time>2021-03-07T09:20:57.000Z</time>
      </trkpt>
      <trkpt lat="47.26091" lon="-2.29611">
        <ele>15.39999961853</ele>
        <time>2021-03-07T09:20:58.000Z</time>
      </trkpt>
      <trkpt lat="47.26096" lon="-2.29608">
        <ele>15.39999961853</ele>
        <time>2021-03-07T09:21:00.000Z</time>
      </trkpt>
      <trkpt lat="47.26101" lon="-2.29606">
        <ele>16</ele>
        <time>2021-03-07T09:21:02.000Z</time>
      </trkpt>
      <trkpt lat="47.26104" lon="-2.29605">
        <ele>16.39999961853</ele>
        <time>2021-03-07T09:21:03.000Z</time>
      </trkpt>
      <trkpt lat="47.26107" lon="-2.29604">
        <ele>16.799999237061</ele>
        <time>2021-03-07T09:21:04.000Z</time>
      </trkpt>
      <trkpt lat="47.26111" lon="-2.29603">
        <ele>17.39999961853</ele>
        <time>2021-03-07T09:21:05.000Z</time>
      </trkpt>
      <trkpt lat="47.26114" lon="-2.29602">
        <ele>17.799999237061</ele>
        <time>2021-03-07T09:21:06.000Z</time>
      </trkpt>
      <trkpt lat="47.26128" lon="-2.29594">
        <ele>18.200000762939</ele>
        <time>2021-03-07T09:21:10.000Z</time>
      </trkpt>
      <trkpt lat="47.26131" lon="-2.29592">
        <ele>18.60000038147</ele>
        <time>2021-03-07T09:21:11.000Z</time>
      </trkpt>
      <trkpt lat="47.26135" lon="-2.2959">
        <ele>19</ele>
        <time>2021-03-07T09:21:12.000Z</time>
      </trkpt>
      <trkpt lat="47.26138" lon="-2.29588">
        <ele>19.60000038147</ele>
        <time>2021-03-07T09:21:13.000Z</time>
      </trkpt>
      <trkpt lat="47.26142" lon="-2.29586">
        <ele>20</ele>
        <time>2021-03-07T09:21:14.000Z</time>
      </trkpt>
      <trkpt lat="47.26153" lon="-2.29581">
        <ele>20.39999961853</ele>
        <time>2021-03-07T09:21:17.000Z</time>
      </trkpt>
      <trkpt lat="47.26156" lon="-2.29579">
        <ele>20.799999237061</ele>
        <time>2021-03-07T09:21:18.000Z</time>
      </trkpt>
      <trkpt lat="47.26159" lon="-2.29578">
        <ele>21.200000762939</ele>
        <time>2021-03-07T09:21:19.000Z</time>
      </trkpt>
      <trkpt lat="47.26162" lon="-2.29576">
        <ele>21.60000038147</ele>
        <time>2021-03-07T09:21:20.000Z</time>
      </trkpt>
      <trkpt lat="47.26165" lon="-2.29575">
        <ele>22</ele>
        <time>2021-03-07T09:21:21.000Z</time>
      </trkpt>
      <trkpt lat="47.2618" lon="-2.2957">
        <ele>22</ele>
        <time>2021-03-07T09:21:26.000Z</time>
      </trkpt>
      <trkpt lat="47.26183" lon="-2.29569">
        <ele>22.39999961853</ele>
        <time>2021-03-07T09:21:27.000Z</time>
      </trkpt>
      <trkpt lat="47.26186" lon="-2.29567">
        <ele>22.799999237061</ele>
        <time>2021-03-07T09:21:28.000Z</time>
      </trkpt>
      <trkpt lat="47.26188" lon="-2.29565">
        <ele>23.39999961853</ele>
        <time>2021-03-07T09:21:29.000Z</time>
      </trkpt>
      <trkpt lat="47.26189" lon="-2.29561">
        <ele>23.799999237061</ele>
        <time>2021-03-07T09:21:30.000Z</time>
      </trkpt>
      <trkpt lat="47.26189" lon="-2.29557">
        <ele>24.200000762939</ele>
        <time>2021-03-07T09:21:31.000Z</time>
      </trkpt>
      <trkpt lat="47.26186" lon="-2.29547">
        <ele>24.200000762939</ele>
        <time>2021-03-07T09:21:34.000Z</time>
      </trkpt>
      <trkpt lat="47.26182" lon="-2.29541">
        <ele>24.200000762939</ele>
        <time>2021-03-07T09:21:36.000Z</time>
      </trkpt>
      <trkpt lat="47.26167" lon="-2.29527">
        <ele>24.200000762939</ele>
        <time>2021-03-07T09:21:41.000Z</time>
      </trkpt>
      <trkpt lat="47.26155" lon="-2.29519">
        <ele>24.200000762939</ele>
        <time>2021-03-07T09:21:44.000Z</time>
      </trkpt>
      <trkpt lat="47.26147" lon="-2.2951">
        <ele>24.200000762939</ele>
        <time>2021-03-07T09:21:46.000Z</time>
      </trkpt>
      <trkpt lat="47.2614" lon="-2.29499">
        <ele>24.200000762939</ele>
        <time>2021-03-07T09:21:48.000Z</time>
      </trkpt>
      <trkpt lat="47.2613" lon="-2.29481">
        <ele>24.200000762939</ele>
        <time>2021-03-07T09:21:51.000Z</time>
      </trkpt>
      <trkpt lat="47.26124" lon="-2.29463">
        <ele>24.200000762939</ele>
        <time>2021-03-07T09:21:54.000Z</time>
      </trkpt>
      <trkpt lat="47.26122" lon="-2.29448">
        <ele>24.200000762939</ele>
        <time>2021-03-07T09:21:56.000Z</time>
      </trkpt>
      <trkpt lat="47.26122" lon="-2.29426">
        <ele>24.200000762939</ele>
        <time>2021-03-07T09:21:59.000Z</time>
      </trkpt>
      <trkpt lat="47.26124" lon="-2.29411">
        <ele>24.200000762939</ele>
        <time>2021-03-07T09:22:01.000Z</time>
      </trkpt>
      <trkpt lat="47.26132" lon="-2.29365">
        <ele>24.200000762939</ele>
        <time>2021-03-07T09:22:08.000Z</time>
      </trkpt>
      <trkpt lat="47.26133" lon="-2.29358">
        <ele>24.200000762939</ele>
        <time>2021-03-07T09:22:09.000Z</time>
      </trkpt>
      <trkpt lat="47.26143" lon="-2.2935">
        <ele>24.200000762939</ele>
        <time>2021-03-07T09:22:12.000Z</time>
      </trkpt>
      <trkpt lat="47.26155" lon="-2.29355">
        <ele>24.200000762939</ele>
        <time>2021-03-07T09:22:15.000Z</time>
      </trkpt>
      <trkpt lat="47.26158" lon="-2.29358">
        <ele>24.200000762939</ele>
        <time>2021-03-07T09:22:16.000Z</time>
      </trkpt>
      <trkpt lat="47.26176" lon="-2.29358">
        <ele>24.200000762939</ele>
        <time>2021-03-07T09:22:21.000Z</time>
      </trkpt>
      <trkpt lat="47.2619" lon="-2.29344">
        <ele>24.200000762939</ele>
        <time>2021-03-07T09:22:26.000Z</time>
      </trkpt>
      <trkpt lat="47.26197" lon="-2.29339">
        <ele>24.60000038147</ele>
        <time>2021-03-07T09:22:28.000Z</time>
      </trkpt>
      <trkpt lat="47.262" lon="-2.29337">
        <ele>25</ele>
        <time>2021-03-07T09:22:29.000Z</time>
      </trkpt>
      <trkpt lat="47.26204" lon="-2.29334">
        <ele>25.60000038147</ele>
        <time>2021-03-07T09:22:30.000Z</time>
      </trkpt>
      <trkpt lat="47.26208" lon="-2.2933">
        <ele>26</ele>
        <time>2021-03-07T09:22:31.000Z</time>
      </trkpt>
      <trkpt lat="47.26213" lon="-2.29326">
        <ele>26.39999961853</ele>
        <time>2021-03-07T09:22:32.000Z</time>
      </trkpt>
      <trkpt lat="47.26247" lon="-2.29299">
        <ele>26.39999961853</ele>
        <time>2021-03-07T09:22:38.000Z</time>
      </trkpt>
      <trkpt lat="47.26275" lon="-2.29281">
        <ele>26.799999237061</ele>
        <time>2021-03-07T09:22:43.000Z</time>
      </trkpt>
      <trkpt lat="47.26281" lon="-2.29279">
        <ele>27.200000762939</ele>
        <time>2021-03-07T09:22:44.000Z</time>
      </trkpt>
      <trkpt lat="47.26287" lon="-2.29277">
        <ele>27.60000038147</ele>
        <time>2021-03-07T09:22:45.000Z</time>
      </trkpt>
      <trkpt lat="47.26292" lon="-2.29275">
        <ele>28</ele>
        <time>2021-03-07T09:22:46.000Z</time>
      </trkpt>
      <trkpt lat="47.26297" lon="-2.29273">
        <ele>28.39999961853</ele>
        <time>2021-03-07T09:22:47.000Z</time>
      </trkpt>
      <trkpt lat="47.26318" lon="-2.29269">
        <ele>28.39999961853</ele>
        <time>2021-03-07T09:22:51.000Z</time>
      </trkpt>
      <trkpt lat="47.26344" lon="-2.29271">
        <ele>28.799999237061</ele>
        <time>2021-03-07T09:22:56.000Z</time>
      </trkpt>
      <trkpt lat="47.26349" lon="-2.29273">
        <ele>29.200000762939</ele>
        <time>2021-03-07T09:22:57.000Z</time>
      </trkpt>
      <trkpt lat="47.26354" lon="-2.29275">
        <ele>29.60000038147</ele>
        <time>2021-03-07T09:22:58.000Z</time>
      </trkpt>
      <trkpt lat="47.26359" lon="-2.29277">
        <ele>30</ele>
        <time>2021-03-07T09:22:59.000Z</time>
      </trkpt>
      <trkpt lat="47.26364" lon="-2.29279">
        <ele>30.39999961853</ele>
        <time>2021-03-07T09:23:00.000Z</time>
      </trkpt>
      <trkpt lat="47.26369" lon="-2.29282">
        <ele>30.39999961853</ele>
        <time>2021-03-07T09:23:01.000Z</time>
      </trkpt>
      <trkpt lat="47.26379" lon="-2.29287">
        <ele>30.39999961853</ele>
        <time>2021-03-07T09:23:03.000Z</time>
      </trkpt>
      <trkpt lat="47.26419" lon="-2.29309">
        <ele>30.39999961853</ele>
        <time>2021-03-07T09:23:11.000Z</time>
      </trkpt>
      <trkpt lat="47.26454" lon="-2.29328">
        <ele>30.39999961853</ele>
        <time>2021-03-07T09:23:18.000Z</time>
      </trkpt>
      <trkpt lat="47.26474" lon="-2.29338">
        <ele>30.39999961853</ele>
        <time>2021-03-07T09:23:22.000Z</time>
      </trkpt>
      <trkpt lat="47.26485" lon="-2.29338">
        <ele>30.39999961853</ele>
        <time>2021-03-07T09:23:24.000Z</time>
      </trkpt>
      <trkpt lat="47.26501" lon="-2.29337">
        <ele>30.39999961853</ele>
        <time>2021-03-07T09:23:27.000Z</time>
      </trkpt>
      <trkpt lat="47.26517" lon="-2.29332">
        <ele>30.39999961853</ele>
        <time>2021-03-07T09:23:30.000Z</time>
      </trkpt>
      <trkpt lat="47.26551" lon="-2.29313">
        <ele>30.39999961853</ele>
        <time>2021-03-07T09:23:36.000Z</time>
      </trkpt>
      <trkpt lat="47.26557" lon="-2.29309">
        <ele>30.799999237061</ele>
        <time>2021-03-07T09:23:37.000Z</time>
      </trkpt>
      <trkpt lat="47.26562" lon="-2.29306">
        <ele>31.200000762939</ele>
        <time>2021-03-07T09:23:38.000Z</time>
      </trkpt>
      <trkpt lat="47.26568" lon="-2.29302">
        <ele>31.60000038147</ele>
        <time>2021-03-07T09:23:39.000Z</time>
      </trkpt>
      <trkpt lat="47.26574" lon="-2.29299">
        <ele>32</ele>
        <time>2021-03-07T09:23:40.000Z</time>
      </trkpt>
      <trkpt lat="47.2658" lon="-2.29295">
        <ele>32.599998474121</ele>
        <time>2021-03-07T09:23:41.000Z</time>
      </trkpt>
      <trkpt lat="47.26598" lon="-2.29284">
        <ele>32.599998474121</ele>
        <time>2021-03-07T09:23:44.000Z</time>
      </trkpt>
      <trkpt lat="47.26634" lon="-2.2926">
        <ele>32</ele>
        <time>2021-03-07T09:23:50.000Z</time>
      </trkpt>
      <trkpt lat="47.2664" lon="-2.29255">
        <ele>31.60000038147</ele>
        <time>2021-03-07T09:23:51.000Z</time>
      </trkpt>
      <trkpt lat="47.26646" lon="-2.2925">
        <ele>31.200000762939</ele>
        <time>2021-03-07T09:23:52.000Z</time>
      </trkpt>
      <trkpt lat="47.26651" lon="-2.29245">
        <ele>30.799999237061</ele>
        <time>2021-03-07T09:23:53.000Z</time>
      </trkpt>
      <trkpt lat="47.26657" lon="-2.29239">
        <ele>30.39999961853</ele>
        <time>2021-03-07T09:23:54.000Z</time>
      </trkpt>
      <trkpt lat="47.26669" lon="-2.29227">
        <ele>30.39999961853</ele>
        <time>2021-03-07T09:23:56.000Z</time>
      </trkpt>
      <trkpt lat="47.26698" lon="-2.29197">
        <ele>30</ele>
        <time>2021-03-07T09:24:01.000Z</time>
      </trkpt>
      <trkpt lat="47.26704" lon="-2.29191">
        <ele>29.39999961853</ele>
        <time>2021-03-07T09:24:02.000Z</time>
      </trkpt>
      <trkpt lat="47.2671" lon="-2.29186">
        <ele>29</ele>
        <time>2021-03-07T09:24:03.000Z</time>
      </trkpt>
      <trkpt lat="47.26716" lon="-2.29179">
        <ele>28.60000038147</ele>
        <time>2021-03-07T09:24:04.000Z</time>
      </trkpt>
      <trkpt lat="47.26722" lon="-2.29172">
        <ele>28.200000762939</ele>
        <time>2021-03-07T09:24:05.000Z</time>
      </trkpt>
      <trkpt lat="47.26747" lon="-2.29148">
        <ele>27.799999237061</ele>
        <time>2021-03-07T09:24:09.000Z</time>
      </trkpt>
      <trkpt lat="47.26753" lon="-2.29142">
        <ele>27.39999961853</ele>
        <time>2021-03-07T09:24:10.000Z</time>
      </trkpt>
      <trkpt lat="47.26759" lon="-2.29136">
        <ele>27</ele>
        <time>2021-03-07T09:24:11.000Z</time>
      </trkpt>
      <trkpt lat="47.26765" lon="-2.2913">
        <ele>26.60000038147</ele>
        <time>2021-03-07T09:24:12.000Z</time>
      </trkpt>
      <trkpt lat="47.26772" lon="-2.29124">
        <ele>26</ele>
        <time>2021-03-07T09:24:13.000Z</time>
      </trkpt>
      <trkpt lat="47.2679" lon="-2.29106">
        <ele>25.60000038147</ele>
        <time>2021-03-07T09:24:16.000Z</time>
      </trkpt>
      <trkpt lat="47.26796" lon="-2.291">
        <ele>25.200000762939</ele>
        <time>2021-03-07T09:24:17.000Z</time>
      </trkpt>
      <trkpt lat="47.26802" lon="-2.29094">
        <ele>24.799999237061</ele>
        <time>2021-03-07T09:24:18.000Z</time>
      </trkpt>
      <trkpt lat="47.26809" lon="-2.29087">
        <ele>24.39999961853</ele>
        <time>2021-03-07T09:24:19.000Z</time>
      </trkpt>
      <trkpt lat="47.26815" lon="-2.29081">
        <ele>24</ele>
        <time>2021-03-07T09:24:20.000Z</time>
      </trkpt>
      <trkpt lat="47.26839" lon="-2.29058">
        <ele>24</ele>
        <time>2021-03-07T09:24:24.000Z</time>
      </trkpt>
      <trkpt lat="47.26845" lon="-2.29052">
        <ele>23.39999961853</ele>
        <time>2021-03-07T09:24:25.000Z</time>
      </trkpt>
      <trkpt lat="47.26851" lon="-2.29047">
        <ele>23</ele>
        <time>2021-03-07T09:24:26.000Z</time>
      </trkpt>
      <trkpt lat="47.26857" lon="-2.29041">
        <ele>22.60000038147</ele>
        <time>2021-03-07T09:24:27.000Z</time>
      </trkpt>
      <trkpt lat="47.26862" lon="-2.29036">
        <ele>22.200000762939</ele>
        <time>2021-03-07T09:24:28.000Z</time>
      </trkpt>
      <trkpt lat="47.26868" lon="-2.29031">
        <ele>21.799999237061</ele>
        <time>2021-03-07T09:24:29.000Z</time>
      </trkpt>
      <trkpt lat="47.26873" lon="-2.29026">
        <ele>21.799999237061</ele>
        <time>2021-03-07T09:24:30.000Z</time>
      </trkpt>
      <trkpt lat="47.26907" lon="-2.28999">
        <ele>21.799999237061</ele>
        <time>2021-03-07T09:24:37.000Z</time>
      </trkpt>
      <trkpt lat="47.26912" lon="-2.28997">
        <ele>21.799999237061</ele>
        <time>2021-03-07T09:24:38.000Z</time>
      </trkpt>
      <trkpt lat="47.26916" lon="-2.28996">
        <ele>21.39999961853</ele>
        <time>2021-03-07T09:24:39.000Z</time>
      </trkpt>
      <trkpt lat="47.26919" lon="-2.28996">
        <ele>21</ele>
        <time>2021-03-07T09:24:40.000Z</time>
      </trkpt>
      <trkpt lat="47.26922" lon="-2.28995">
        <ele>20.60000038147</ele>
        <time>2021-03-07T09:24:41.000Z</time>
      </trkpt>
      <trkpt lat="47.26924" lon="-2.28993">
        <ele>20</ele>
        <time>2021-03-07T09:24:42.000Z</time>
      </trkpt>
      <trkpt lat="47.26925" lon="-2.28992">
        <ele>19.60000038147</ele>
        <time>2021-03-07T09:24:43.000Z</time>
      </trkpt>
      <trkpt lat="47.26928" lon="-2.2899">
        <ele>19.60000038147</ele>
        <time>2021-03-07T09:24:45.000Z</time>
      </trkpt>
      <trkpt lat="47.26928" lon="-2.28988">
        <ele>19.60000038147</ele>
        <time>2021-03-07T09:24:46.000Z</time>
      </trkpt>
      <trkpt lat="47.26926" lon="-2.28982">
        <ele>19.60000038147</ele>
        <time>2021-03-07T09:24:49.000Z</time>
      </trkpt>
      <trkpt lat="47.26924" lon="-2.2898">
        <ele>19.60000038147</ele>
        <time>2021-03-07T09:24:51.000Z</time>
      </trkpt>
      <trkpt lat="47.2691" lon="-2.28974">
        <ele>19.60000038147</ele>
        <time>2021-03-07T09:24:57.000Z</time>
      </trkpt>
      <trkpt lat="47.26888" lon="-2.28966">
        <ele>19.60000038147</ele>
        <time>2021-03-07T09:25:02.000Z</time>
      </trkpt>
      <trkpt lat="47.26865" lon="-2.28954">
        <ele>19.60000038147</ele>
        <time>2021-03-07T09:25:08.000Z</time>
      </trkpt>
      <trkpt lat="47.2685" lon="-2.28946">
        <ele>19.60000038147</ele>
        <time>2021-03-07T09:25:12.000Z</time>
      </trkpt>
      <trkpt lat="47.26842" lon="-2.28941">
        <ele>19.60000038147</ele>
        <time>2021-03-07T09:25:14.000Z</time>
      </trkpt>
      <trkpt lat="47.26818" lon="-2.28927">
        <ele>19.60000038147</ele>
        <time>2021-03-07T09:25:20.000Z</time>
      </trkpt>
      <trkpt lat="47.26786" lon="-2.2891">
        <ele>19.60000038147</ele>
        <time>2021-03-07T09:25:27.000Z</time>
      </trkpt>
      <trkpt lat="47.2678" lon="-2.28906">
        <ele>20</ele>
        <time>2021-03-07T09:25:28.000Z</time>
      </trkpt>
      <trkpt lat="47.26774" lon="-2.289">
        <ele>20.39999961853</ele>
        <time>2021-03-07T09:25:29.000Z</time>
      </trkpt>
      <trkpt lat="47.26769" lon="-2.28896">
        <ele>20.799999237061</ele>
        <time>2021-03-07T09:25:30.000Z</time>
      </trkpt>
      <trkpt lat="47.26763" lon="-2.28892">
        <ele>21.200000762939</ele>
        <time>2021-03-07T09:25:31.000Z</time>
      </trkpt>
      <trkpt lat="47.26759" lon="-2.28888">
        <ele>21.60000038147</ele>
        <time>2021-03-07T09:25:32.000Z</time>
      </trkpt>
      <trkpt lat="47.26749" lon="-2.28879">
        <ele>21.60000038147</ele>
        <time>2021-03-07T09:25:34.000Z</time>
      </trkpt>
      <trkpt lat="47.26735" lon="-2.28866">
        <ele>21.60000038147</ele>
        <time>2021-03-07T09:25:37.000Z</time>
      </trkpt>
      <trkpt lat="47.26701" lon="-2.28838">
        <ele>21.60000038147</ele>
        <time>2021-03-07T09:25:44.000Z</time>
      </trkpt>
      <trkpt lat="47.26676" lon="-2.28812">
        <ele>21.60000038147</ele>
        <time>2021-03-07T09:25:50.000Z</time>
      </trkpt>
      <trkpt lat="47.26658" lon="-2.28791">
        <ele>21.60000038147</ele>
        <time>2021-03-07T09:25:55.000Z</time>
      </trkpt>
      <trkpt lat="47.26642" lon="-2.28774">
        <ele>21.60000038147</ele>
        <time>2021-03-07T09:25:59.000Z</time>
      </trkpt>
      <trkpt lat="47.26638" lon="-2.28771">
        <ele>21.60000038147</ele>
        <time>2021-03-07T09:26:00.000Z</time>
      </trkpt>
      <trkpt lat="47.26622" lon="-2.28757">
        <ele>22</ele>
        <time>2021-03-07T09:26:04.000Z</time>
      </trkpt>
      <trkpt lat="47.26619" lon="-2.28753">
        <ele>22.39999961853</ele>
        <time>2021-03-07T09:26:05.000Z</time>
      </trkpt>
      <trkpt lat="47.26615" lon="-2.28749">
        <ele>22.799999237061</ele>
        <time>2021-03-07T09:26:06.000Z</time>
      </trkpt>
      <trkpt lat="47.26611" lon="-2.28745">
        <ele>23.39999961853</ele>
        <time>2021-03-07T09:26:07.000Z</time>
      </trkpt>
      <trkpt lat="47.26607" lon="-2.2874">
        <ele>23.799999237061</ele>
        <time>2021-03-07T09:26:08.000Z</time>
      </trkpt>
      <trkpt lat="47.26603" lon="-2.28736">
        <ele>23.799999237061</ele>
        <time>2021-03-07T09:26:09.000Z</time>
      </trkpt>
      <trkpt lat="47.26596" lon="-2.28727">
        <ele>23.799999237061</ele>
        <time>2021-03-07T09:26:11.000Z</time>
      </trkpt>
      <trkpt lat="47.26585" lon="-2.28713">
        <ele>23.799999237061</ele>
        <time>2021-03-07T09:26:14.000Z</time>
      </trkpt>
      <trkpt lat="47.26572" lon="-2.28699">
        <ele>23.799999237061</ele>
        <time>2021-03-07T09:26:17.000Z</time>
      </trkpt>
      <trkpt lat="47.26551" lon="-2.28677">
        <ele>23.799999237061</ele>
        <time>2021-03-07T09:26:22.000Z</time>
      </trkpt>
      <trkpt lat="47.26546" lon="-2.28673">
        <ele>23.799999237061</ele>
        <time>2021-03-07T09:26:23.000Z</time>
      </trkpt>
      <trkpt lat="47.26542" lon="-2.28669">
        <ele>24.200000762939</ele>
        <time>2021-03-07T09:26:24.000Z</time>
      </trkpt>
      <trkpt lat="47.26538" lon="-2.28664">
        <ele>24.60000038147</ele>
        <time>2021-03-07T09:26:25.000Z</time>
      </trkpt>
      <trkpt lat="47.26534" lon="-2.2866">
        <ele>25</ele>
        <time>2021-03-07T09:26:26.000Z</time>
      </trkpt>
      <trkpt lat="47.2653" lon="-2.28654">
        <ele>25.39999961853</ele>
        <time>2021-03-07T09:26:27.000Z</time>
      </trkpt>
      <trkpt lat="47.26527" lon="-2.28649">
        <ele>26</ele>
        <time>2021-03-07T09:26:28.000Z</time>
      </trkpt>
      <trkpt lat="47.26524" lon="-2.28644">
        <ele>26</ele>
        <time>2021-03-07T09:26:29.000Z</time>
      </trkpt>
      <trkpt lat="47.26511" lon="-2.28627">
        <ele>26</ele>
        <time>2021-03-07T09:26:34.000Z</time>
      </trkpt>
      <trkpt lat="47.26502" lon="-2.28609">
        <ele>26</ele>
        <time>2021-03-07T09:26:40.000Z</time>
      </trkpt>
      <trkpt lat="47.26502" lon="-2.28589">
        <ele>26</ele>
        <time>2021-03-07T09:26:45.000Z</time>
      </trkpt>
      <trkpt lat="47.26495" lon="-2.28566">
        <ele>26</ele>
        <time>2021-03-07T09:26:50.000Z</time>
      </trkpt>
      <trkpt lat="47.26488" lon="-2.28549">
        <ele>26.39999961853</ele>
        <time>2021-03-07T09:26:54.000Z</time>
      </trkpt>
      <trkpt lat="47.26486" lon="-2.28545">
        <ele>26.799999237061</ele>
        <time>2021-03-07T09:26:55.000Z</time>
      </trkpt>
      <trkpt lat="47.26484" lon="-2.28541">
        <ele>27.200000762939</ele>
        <time>2021-03-07T09:26:56.000Z</time>
      </trkpt>
      <trkpt lat="47.26483" lon="-2.28536">
        <ele>27.60000038147</ele>
        <time>2021-03-07T09:26:57.000Z</time>
      </trkpt>
      <trkpt lat="47.2648" lon="-2.28531">
        <ele>28</ele>
        <time>2021-03-07T09:26:58.000Z</time>
      </trkpt>
      <trkpt lat="47.26467" lon="-2.28508">
        <ele>28</ele>
        <time>2021-03-07T09:27:03.000Z</time>
      </trkpt>
      <trkpt lat="47.26445" lon="-2.28464">
        <ele>28</ele>
        <time>2021-03-07T09:27:11.000Z</time>
      </trkpt>
      <trkpt lat="47.26443" lon="-2.28458">
        <ele>28.39999961853</ele>
        <time>2021-03-07T09:27:12.000Z</time>
      </trkpt>
      <trkpt lat="47.2644" lon="-2.28452">
        <ele>28.799999237061</ele>
        <time>2021-03-07T09:27:13.000Z</time>
      </trkpt>
      <trkpt lat="47.26438" lon="-2.28446">
        <ele>29.39999961853</ele>
        <time>2021-03-07T09:27:14.000Z</time>
      </trkpt>
      <trkpt lat="47.26435" lon="-2.28441">
        <ele>29.799999237061</ele>
        <time>2021-03-07T09:27:15.000Z</time>
      </trkpt>
      <trkpt lat="47.26433" lon="-2.28435">
        <ele>30.200000762939</ele>
        <time>2021-03-07T09:27:16.000Z</time>
      </trkpt>
      <trkpt lat="47.2642" lon="-2.28409">
        <ele>30.200000762939</ele>
        <time>2021-03-07T09:27:21.000Z</time>
      </trkpt>
      <trkpt lat="47.26399" lon="-2.28364">
        <ele>30.200000762939</ele>
        <time>2021-03-07T09:27:29.000Z</time>
      </trkpt>
      <trkpt lat="47.26379" lon="-2.28319">
        <ele>30.200000762939</ele>
        <time>2021-03-07T09:27:37.000Z</time>
      </trkpt>
      <trkpt lat="47.26367" lon="-2.28282">
        <ele>30.60000038147</ele>
        <time>2021-03-07T09:27:43.000Z</time>
      </trkpt>
      <trkpt lat="47.26365" lon="-2.28275">
        <ele>31</ele>
        <time>2021-03-07T09:27:44.000Z</time>
      </trkpt>
      <trkpt lat="47.26363" lon="-2.28267">
        <ele>31.39999961853</ele>
        <time>2021-03-07T09:27:45.000Z</time>
      </trkpt>
      <trkpt lat="47.26361" lon="-2.28261">
        <ele>31.799999237061</ele>
        <time>2021-03-07T09:27:46.000Z</time>
      </trkpt>
      <trkpt lat="47.26359" lon="-2.28253">
        <ele>32.200000762939</ele>
        <time>2021-03-07T09:27:47.000Z</time>
      </trkpt>
      <trkpt lat="47.26349" lon="-2.28212">
        <ele>32.200000762939</ele>
        <time>2021-03-07T09:27:53.000Z</time>
      </trkpt>
      <trkpt lat="47.26345" lon="-2.28192">
        <ele>32.200000762939</ele>
        <time>2021-03-07T09:27:56.000Z</time>
      </trkpt>
      <trkpt lat="47.26341" lon="-2.28172">
        <ele>32.200000762939</ele>
        <time>2021-03-07T09:27:59.000Z</time>
      </trkpt>
      <trkpt lat="47.26339" lon="-2.28159">
        <ele>32.200000762939</ele>
        <time>2021-03-07T09:28:01.000Z</time>
      </trkpt>
      <trkpt lat="47.26337" lon="-2.28138">
        <ele>32.200000762939</ele>
        <time>2021-03-07T09:28:04.000Z</time>
      </trkpt>
      <trkpt lat="47.26326" lon="-2.28076">
        <ele>31.39999961853</ele>
        <time>2021-03-07T09:28:13.000Z</time>
      </trkpt>
      <trkpt lat="47.26324" lon="-2.28069">
        <ele>31</ele>
        <time>2021-03-07T09:28:14.000Z</time>
      </trkpt>
      <trkpt lat="47.26322" lon="-2.28062">
        <ele>30.60000038147</ele>
        <time>2021-03-07T09:28:15.000Z</time>
      </trkpt>
      <trkpt lat="47.2632" lon="-2.28055">
        <ele>30.200000762939</ele>
        <time>2021-03-07T09:28:16.000Z</time>
      </trkpt>
      <trkpt lat="47.26312" lon="-2.28028">
        <ele>30.200000762939</ele>
        <time>2021-03-07T09:28:20.000Z</time>
      </trkpt>
      <trkpt lat="47.26297" lon="-2.27989">
        <ele>30.200000762939</ele>
        <time>2021-03-07T09:28:27.000Z</time>
      </trkpt>
      <trkpt lat="47.26283" lon="-2.27969">
        <ele>29.799999237061</ele>
        <time>2021-03-07T09:28:32.000Z</time>
      </trkpt>
      <trkpt lat="47.2628" lon="-2.27965">
        <ele>29.39999961853</ele>
        <time>2021-03-07T09:28:33.000Z</time>
      </trkpt>
      <trkpt lat="47.26277" lon="-2.27961">
        <ele>29</ele>
        <time>2021-03-07T09:28:34.000Z</time>
      </trkpt>
      <trkpt lat="47.26274" lon="-2.27956">
        <ele>28.60000038147</ele>
        <time>2021-03-07T09:28:35.000Z</time>
      </trkpt>
      <trkpt lat="47.26272" lon="-2.27951">
        <ele>28.200000762939</ele>
        <time>2021-03-07T09:28:36.000Z</time>
      </trkpt>
      <trkpt lat="47.26269" lon="-2.27946">
        <ele>28.200000762939</ele>
        <time>2021-03-07T09:28:37.000Z</time>
      </trkpt>
      <trkpt lat="47.26266" lon="-2.2794">
        <ele>28.200000762939</ele>
        <time>2021-03-07T09:28:38.000Z</time>
      </trkpt>
      <trkpt lat="47.26246" lon="-2.27898">
        <ele>28.200000762939</ele>
        <time>2021-03-07T09:28:45.000Z</time>
      </trkpt>
      <trkpt lat="47.26223" lon="-2.27853">
        <ele>28.200000762939</ele>
        <time>2021-03-07T09:28:52.000Z</time>
      </trkpt>
      <trkpt lat="47.26197" lon="-2.27801">
        <ele>28.200000762939</ele>
        <time>2021-03-07T09:29:00.000Z</time>
      </trkpt>
      <trkpt lat="47.26194" lon="-2.27793">
        <ele>28.60000038147</ele>
        <time>2021-03-07T09:29:01.000Z</time>
      </trkpt>
      <trkpt lat="47.26191" lon="-2.27786">
        <ele>29</ele>
        <time>2021-03-07T09:29:02.000Z</time>
      </trkpt>
      <trkpt lat="47.26189" lon="-2.27779">
        <ele>29.799999237061</ele>
        <time>2021-03-07T09:29:03.000Z</time>
      </trkpt>
      <trkpt lat="47.26186" lon="-2.27772">
        <ele>30.200000762939</ele>
        <time>2021-03-07T09:29:04.000Z</time>
      </trkpt>
      <trkpt lat="47.26176" lon="-2.27742">
        <ele>30.200000762939</ele>
        <time>2021-03-07T09:29:08.000Z</time>
      </trkpt>
      <trkpt lat="47.26161" lon="-2.2769">
        <ele>30.200000762939</ele>
        <time>2021-03-07T09:29:15.000Z</time>
      </trkpt>
      <trkpt lat="47.26145" lon="-2.27621">
        <ele>30.200000762939</ele>
        <time>2021-03-07T09:29:24.000Z</time>
      </trkpt>
      <trkpt lat="47.2614" lon="-2.27578">
        <ele>30.200000762939</ele>
        <time>2021-03-07T09:29:30.000Z</time>
      </trkpt>
      <trkpt lat="47.26148" lon="-2.27567">
        <ele>30.200000762939</ele>
        <time>2021-03-07T09:29:32.000Z</time>
      </trkpt>
      <trkpt lat="47.26164" lon="-2.27547">
        <ele>30.200000762939</ele>
        <time>2021-03-07T09:29:36.000Z</time>
      </trkpt>
      <trkpt lat="47.26173" lon="-2.27537">
        <ele>30.200000762939</ele>
        <time>2021-03-07T09:29:38.000Z</time>
      </trkpt>
      <trkpt lat="47.26204" lon="-2.27508">
        <ele>30.200000762939</ele>
        <time>2021-03-07T09:29:45.000Z</time>
      </trkpt>
      <trkpt lat="47.26219" lon="-2.27495">
        <ele>29.799999237061</ele>
        <time>2021-03-07T09:29:48.000Z</time>
      </trkpt>
      <trkpt lat="47.26225" lon="-2.2749">
        <ele>29.39999961853</ele>
        <time>2021-03-07T09:29:49.000Z</time>
      </trkpt>
      <trkpt lat="47.2623" lon="-2.27485">
        <ele>29</ele>
        <time>2021-03-07T09:29:50.000Z</time>
      </trkpt>
      <trkpt lat="47.26235" lon="-2.2748">
        <ele>28.60000038147</ele>
        <time>2021-03-07T09:29:51.000Z</time>
      </trkpt>
      <trkpt lat="47.2624" lon="-2.27476">
        <ele>28.200000762939</ele>
        <time>2021-03-07T09:29:52.000Z</time>
      </trkpt>
      <trkpt lat="47.26259" lon="-2.27481">
        <ele>27.60000038147</ele>
        <time>2021-03-07T09:29:55.000Z</time>
      </trkpt>
      <trkpt lat="47.26266" lon="-2.27486">
        <ele>27.200000762939</ele>
        <time>2021-03-07T09:29:56.000Z</time>
      </trkpt>
      <trkpt lat="47.26272" lon="-2.27491">
        <ele>26.799999237061</ele>
        <time>2021-03-07T09:29:57.000Z</time>
      </trkpt>
      <trkpt lat="47.26279" lon="-2.27496">
        <ele>26.200000762939</ele>
        <time>2021-03-07T09:29:58.000Z</time>
      </trkpt>
      <trkpt lat="47.26286" lon="-2.27502">
        <ele>25.799999237061</ele>
        <time>2021-03-07T09:29:59.000Z</time>
      </trkpt>
      <trkpt lat="47.26293" lon="-2.27507">
        <ele>25.799999237061</ele>
        <time>2021-03-07T09:30:00.000Z</time>
      </trkpt>
      <trkpt lat="47.26332" lon="-2.27532">
        <ele>25.39999961853</ele>
        <time>2021-03-07T09:30:06.000Z</time>
      </trkpt>
      <trkpt lat="47.26338" lon="-2.27536">
        <ele>25</ele>
        <time>2021-03-07T09:30:07.000Z</time>
      </trkpt>
      <trkpt lat="47.26344" lon="-2.2754">
        <ele>24.60000038147</ele>
        <time>2021-03-07T09:30:08.000Z</time>
      </trkpt>
      <trkpt lat="47.26351" lon="-2.27544">
        <ele>24.200000762939</ele>
        <time>2021-03-07T09:30:09.000Z</time>
      </trkpt>
      <trkpt lat="47.26357" lon="-2.27549">
        <ele>23.799999237061</ele>
        <time>2021-03-07T09:30:10.000Z</time>
      </trkpt>
      <trkpt lat="47.26376" lon="-2.2756">
        <ele>23.799999237061</ele>
        <time>2021-03-07T09:30:13.000Z</time>
      </trkpt>
      <trkpt lat="47.26401" lon="-2.27575">
        <ele>23.39999961853</ele>
        <time>2021-03-07T09:30:17.000Z</time>
      </trkpt>
      <trkpt lat="47.26408" lon="-2.27578">
        <ele>23</ele>
        <time>2021-03-07T09:30:18.000Z</time>
      </trkpt>
      <trkpt lat="47.26415" lon="-2.2758">
        <ele>22.60000038147</ele>
        <time>2021-03-07T09:30:19.000Z</time>
      </trkpt>
      <trkpt lat="47.26422" lon="-2.27582">
        <ele>22.200000762939</ele>
        <time>2021-03-07T09:30:20.000Z</time>
      </trkpt>
      <trkpt lat="47.26428" lon="-2.27583">
        <ele>21.799999237061</ele>
        <time>2021-03-07T09:30:21.000Z</time>
      </trkpt>
      <trkpt lat="47.26457" lon="-2.2759">
        <ele>21.799999237061</ele>
        <time>2021-03-07T09:30:25.000Z</time>
      </trkpt>
      <trkpt lat="47.26477" lon="-2.27588">
        <ele>21.799999237061</ele>
        <time>2021-03-07T09:30:28.000Z</time>
      </trkpt>
      <trkpt lat="47.26481" lon="-2.27587">
        <ele>21.799999237061</ele>
        <time>2021-03-07T09:30:29.000Z</time>
      </trkpt>
      <trkpt lat="47.26492" lon="-2.27574">
        <ele>21.799999237061</ele>
        <time>2021-03-07T09:30:33.000Z</time>
      </trkpt>
      <trkpt lat="47.26491" lon="-2.27561">
        <ele>21.799999237061</ele>
        <time>2021-03-07T09:30:36.000Z</time>
      </trkpt>
      <trkpt lat="47.26491" lon="-2.27556">
        <ele>21.799999237061</ele>
        <time>2021-03-07T09:30:37.000Z</time>
      </trkpt>
      <trkpt lat="47.26483" lon="-2.27522">
        <ele>21.799999237061</ele>
        <time>2021-03-07T09:30:43.000Z</time>
      </trkpt>
      <trkpt lat="47.26481" lon="-2.27509">
        <ele>21.799999237061</ele>
        <time>2021-03-07T09:30:45.000Z</time>
      </trkpt>
      <trkpt lat="47.26475" lon="-2.2749">
        <ele>21.799999237061</ele>
        <time>2021-03-07T09:30:48.000Z</time>
      </trkpt>
      <trkpt lat="47.26459" lon="-2.27444">
        <ele>21.799999237061</ele>
        <time>2021-03-07T09:30:55.000Z</time>
      </trkpt>
      <trkpt lat="47.26455" lon="-2.27431">
        <ele>21.799999237061</ele>
        <time>2021-03-07T09:30:57.000Z</time>
      </trkpt>
      <trkpt lat="47.26452" lon="-2.27418">
        <ele>22.200000762939</ele>
        <time>2021-03-07T09:30:59.000Z</time>
      </trkpt>
      <trkpt lat="47.26451" lon="-2.27412">
        <ele>22.60000038147</ele>
        <time>2021-03-07T09:31:00.000Z</time>
      </trkpt>
      <trkpt lat="47.26449" lon="-2.27407">
        <ele>23</ele>
        <time>2021-03-07T09:31:01.000Z</time>
      </trkpt>
      <trkpt lat="47.26449" lon="-2.27402">
        <ele>23.39999961853</ele>
        <time>2021-03-07T09:31:02.000Z</time>
      </trkpt>
      <trkpt lat="47.26447" lon="-2.27396">
        <ele>23.799999237061</ele>
        <time>2021-03-07T09:31:03.000Z</time>
      </trkpt>
      <trkpt lat="47.26444" lon="-2.27383">
        <ele>23.799999237061</ele>
        <time>2021-03-07T09:31:05.000Z</time>
      </trkpt>
      <trkpt lat="47.2643" lon="-2.2735">
        <ele>23.799999237061</ele>
        <time>2021-03-07T09:31:11.000Z</time>
      </trkpt>
      <trkpt lat="47.26427" lon="-2.27346">
        <ele>23.799999237061</ele>
        <time>2021-03-07T09:31:12.000Z</time>
      </trkpt>
      <trkpt lat="47.26419" lon="-2.2734">
        <ele>23.799999237061</ele>
        <time>2021-03-07T09:31:14.000Z</time>
      </trkpt>
      <trkpt lat="47.26409" lon="-2.27337">
        <ele>23.799999237061</ele>
        <time>2021-03-07T09:31:16.000Z</time>
      </trkpt>
      <trkpt lat="47.26395" lon="-2.27334">
        <ele>23.799999237061</ele>
        <time>2021-03-07T09:31:19.000Z</time>
      </trkpt>
      <trkpt lat="47.26386" lon="-2.27334">
        <ele>23.799999237061</ele>
        <time>2021-03-07T09:31:21.000Z</time>
      </trkpt>
      <trkpt lat="47.2636" lon="-2.27333">
        <ele>24.200000762939</ele>
        <time>2021-03-07T09:31:26.000Z</time>
      </trkpt>
      <trkpt lat="47.26355" lon="-2.27332">
        <ele>24.799999237061</ele>
        <time>2021-03-07T09:31:27.000Z</time>
      </trkpt>
      <trkpt lat="47.2635" lon="-2.27332">
        <ele>25.200000762939</ele>
        <time>2021-03-07T09:31:28.000Z</time>
      </trkpt>
      <trkpt lat="47.26345" lon="-2.27331">
        <ele>25.60000038147</ele>
        <time>2021-03-07T09:31:29.000Z</time>
      </trkpt>
      <trkpt lat="47.26339" lon="-2.27331">
        <ele>26</ele>
        <time>2021-03-07T09:31:30.000Z</time>
      </trkpt>
      <trkpt lat="47.26328" lon="-2.27329">
        <ele>26</ele>
        <time>2021-03-07T09:31:32.000Z</time>
      </trkpt>
      <trkpt lat="47.26302" lon="-2.27326">
        <ele>26</ele>
        <time>2021-03-07T09:31:37.000Z</time>
      </trkpt>
      <trkpt lat="47.26267" lon="-2.27321">
        <ele>26.39999961853</ele>
        <time>2021-03-07T09:31:44.000Z</time>
      </trkpt>
      <trkpt lat="47.26262" lon="-2.27321">
        <ele>26.799999237061</ele>
        <time>2021-03-07T09:31:45.000Z</time>
      </trkpt>
      <trkpt lat="47.26257" lon="-2.27321">
        <ele>27.200000762939</ele>
        <time>2021-03-07T09:31:46.000Z</time>
      </trkpt>
      <trkpt lat="47.26252" lon="-2.27321">
        <ele>27.60000038147</ele>
        <time>2021-03-07T09:31:47.000Z</time>
      </trkpt>
      <trkpt lat="47.26247" lon="-2.27321">
        <ele>28</ele>
        <time>2021-03-07T09:31:48.000Z</time>
      </trkpt>
      <trkpt lat="47.26237" lon="-2.27319">
        <ele>28</ele>
        <time>2021-03-07T09:31:50.000Z</time>
      </trkpt>
      <trkpt lat="47.26229" lon="-2.27317">
        <ele>28</ele>
        <time>2021-03-07T09:31:52.000Z</time>
      </trkpt>
      <trkpt lat="47.26215" lon="-2.27314">
        <ele>28</ele>
        <time>2021-03-07T09:31:55.000Z</time>
      </trkpt>
      <trkpt lat="47.26188" lon="-2.27316">
        <ele>28</ele>
        <time>2021-03-07T09:32:00.000Z</time>
      </trkpt>
      <trkpt lat="47.26183" lon="-2.27317">
        <ele>28</ele>
        <time>2021-03-07T09:32:01.000Z</time>
      </trkpt>
      <trkpt lat="47.26157" lon="-2.27319">
        <ele>28</ele>
        <time>2021-03-07T09:32:06.000Z</time>
      </trkpt>
      <trkpt lat="47.26152" lon="-2.27316">
        <ele>28</ele>
        <time>2021-03-07T09:32:07.000Z</time>
      </trkpt>
      <trkpt lat="47.26144" lon="-2.27299">
        <ele>28</ele>
        <time>2021-03-07T09:32:10.000Z</time>
      </trkpt>
      <trkpt lat="47.26142" lon="-2.27277">
        <ele>28</ele>
        <time>2021-03-07T09:32:13.000Z</time>
      </trkpt>
      <trkpt lat="47.26141" lon="-2.2727">
        <ele>28</ele>
        <time>2021-03-07T09:32:14.000Z</time>
      </trkpt>
      <trkpt lat="47.26136" lon="-2.27251">
        <ele>28.39999961853</ele>
        <time>2021-03-07T09:32:17.000Z</time>
      </trkpt>
      <trkpt lat="47.26134" lon="-2.27244">
        <ele>28.799999237061</ele>
        <time>2021-03-07T09:32:18.000Z</time>
      </trkpt>
      <trkpt lat="47.26132" lon="-2.27238">
        <ele>29.39999961853</ele>
        <time>2021-03-07T09:32:19.000Z</time>
      </trkpt>
      <trkpt lat="47.26131" lon="-2.27232">
        <ele>30.200000762939</ele>
        <time>2021-03-07T09:32:20.000Z</time>
      </trkpt>
      <trkpt lat="47.26126" lon="-2.2722">
        <ele>30.200000762939</ele>
        <time>2021-03-07T09:32:22.000Z</time>
      </trkpt>
      <trkpt lat="47.26117" lon="-2.27197">
        <ele>30.200000762939</ele>
        <time>2021-03-07T09:32:26.000Z</time>
      </trkpt>
      <trkpt lat="47.26103" lon="-2.27162">
        <ele>30.200000762939</ele>
        <time>2021-03-07T09:32:32.000Z</time>
      </trkpt>
      <trkpt lat="47.261" lon="-2.27157">
        <ele>30.200000762939</ele>
        <time>2021-03-07T09:32:33.000Z</time>
      </trkpt>
      <trkpt lat="47.26098" lon="-2.27151">
        <ele>30.200000762939</ele>
        <time>2021-03-07T09:32:34.000Z</time>
      </trkpt>
      <trkpt lat="47.26094" lon="-2.27139">
        <ele>30.200000762939</ele>
        <time>2021-03-07T09:32:36.000Z</time>
      </trkpt>
      <trkpt lat="47.26091" lon="-2.27125">
        <ele>30.200000762939</ele>
        <time>2021-03-07T09:32:38.000Z</time>
      </trkpt>
      <trkpt lat="47.26084" lon="-2.27077">
        <ele>30.200000762939</ele>
        <time>2021-03-07T09:32:45.000Z</time>
      </trkpt>
      <trkpt lat="47.26072" lon="-2.27029">
        <ele>30.200000762939</ele>
        <time>2021-03-07T09:32:52.000Z</time>
      </trkpt>
      <trkpt lat="47.26059" lon="-2.26989">
        <ele>30.200000762939</ele>
        <time>2021-03-07T09:32:58.000Z</time>
      </trkpt>
      <trkpt lat="47.26056" lon="-2.26984">
        <ele>30.200000762939</ele>
        <time>2021-03-07T09:32:59.000Z</time>
      </trkpt>
      <trkpt lat="47.2605" lon="-2.26973">
        <ele>30.200000762939</ele>
        <time>2021-03-07T09:33:01.000Z</time>
      </trkpt>
      <trkpt lat="47.26034" lon="-2.26952">
        <ele>30.200000762939</ele>
        <time>2021-03-07T09:33:05.000Z</time>
      </trkpt>
      <trkpt lat="47.26016" lon="-2.26928">
        <ele>30.200000762939</ele>
        <time>2021-03-07T09:33:09.000Z</time>
      </trkpt>
      <trkpt lat="47.26005" lon="-2.26906">
        <ele>30.200000762939</ele>
        <time>2021-03-07T09:33:12.000Z</time>
      </trkpt>
      <trkpt lat="47.25993" lon="-2.26877">
        <ele>30.200000762939</ele>
        <time>2021-03-07T09:33:16.000Z</time>
      </trkpt>
      <trkpt lat="47.25992" lon="-2.26861">
        <ele>30.200000762939</ele>
        <time>2021-03-07T09:33:18.000Z</time>
      </trkpt>
      <trkpt lat="47.25989" lon="-2.26829">
        <ele>30.200000762939</ele>
        <time>2021-03-07T09:33:23.000Z</time>
      </trkpt>
      <trkpt lat="47.25987" lon="-2.26819">
        <ele>30.200000762939</ele>
        <time>2021-03-07T09:33:27.000Z</time>
      </trkpt>
      <trkpt lat="47.25988" lon="-2.26819">
        <ele>30.200000762939</ele>
        <time>2021-03-07T09:33:28.000Z</time>
      </trkpt>
      <trkpt lat="47.25987" lon="-2.26817">
        <ele>28</ele>
        <time>2021-03-07T09:36:23.000Z</time>
      </trkpt>
      <trkpt lat="47.25985" lon="-2.26815">
        <ele>28</ele>
        <time>2021-03-07T09:36:24.000Z</time>
      </trkpt>
      <trkpt lat="47.25971" lon="-2.26812">
        <ele>28</ele>
        <time>2021-03-07T09:36:29.000Z</time>
      </trkpt>
      <trkpt lat="47.25961" lon="-2.26813">
        <ele>28</ele>
        <time>2021-03-07T09:36:32.000Z</time>
      </trkpt>
      <trkpt lat="47.2595" lon="-2.26816">
        <ele>28</ele>
        <time>2021-03-07T09:36:35.000Z</time>
      </trkpt>
      <trkpt lat="47.25933" lon="-2.26829">
        <ele>28</ele>
        <time>2021-03-07T09:36:40.000Z</time>
      </trkpt>
      <trkpt lat="47.25926" lon="-2.26832">
        <ele>28</ele>
        <time>2021-03-07T09:36:42.000Z</time>
      </trkpt>
      <trkpt lat="47.25913" lon="-2.26835">
        <ele>28</ele>
        <time>2021-03-07T09:36:45.000Z</time>
      </trkpt>
      <trkpt lat="47.259" lon="-2.26839">
        <ele>28.39999961853</ele>
        <time>2021-03-07T09:36:48.000Z</time>
      </trkpt>
      <trkpt lat="47.25896" lon="-2.26841">
        <ele>28.799999237061</ele>
        <time>2021-03-07T09:36:49.000Z</time>
      </trkpt>
      <trkpt lat="47.25892" lon="-2.26842">
        <ele>29.200000762939</ele>
        <time>2021-03-07T09:36:50.000Z</time>
      </trkpt>
      <trkpt lat="47.25888" lon="-2.26844">
        <ele>29.60000038147</ele>
        <time>2021-03-07T09:36:51.000Z</time>
      </trkpt>
      <trkpt lat="47.25884" lon="-2.26846">
        <ele>30</ele>
        <time>2021-03-07T09:36:52.000Z</time>
      </trkpt>
      <trkpt lat="47.2588" lon="-2.26848">
        <ele>30</ele>
        <time>2021-03-07T09:36:53.000Z</time>
      </trkpt>
      <trkpt lat="47.25852" lon="-2.2686">
        <ele>30</ele>
        <time>2021-03-07T09:37:00.000Z</time>
      </trkpt>
      <trkpt lat="47.25844" lon="-2.26864">
        <ele>30.39999961853</ele>
        <time>2021-03-07T09:37:02.000Z</time>
      </trkpt>
      <trkpt lat="47.2584" lon="-2.26866">
        <ele>30.799999237061</ele>
        <time>2021-03-07T09:37:03.000Z</time>
      </trkpt>
      <trkpt lat="47.25837" lon="-2.26867">
        <ele>31.200000762939</ele>
        <time>2021-03-07T09:37:04.000Z</time>
      </trkpt>
      <trkpt lat="47.25833" lon="-2.26868">
        <ele>31.60000038147</ele>
        <time>2021-03-07T09:37:05.000Z</time>
      </trkpt>
      <trkpt lat="47.2583" lon="-2.26869">
        <ele>32</ele>
        <time>2021-03-07T09:37:06.000Z</time>
      </trkpt>
      <trkpt lat="47.25827" lon="-2.2687">
        <ele>32</ele>
        <time>2021-03-07T09:37:07.000Z</time>
      </trkpt>
      <trkpt lat="47.25808" lon="-2.26877">
        <ele>32</ele>
        <time>2021-03-07T09:37:13.000Z</time>
      </trkpt>
      <trkpt lat="47.25781" lon="-2.26894">
        <ele>32</ele>
        <time>2021-03-07T09:37:21.000Z</time>
      </trkpt>
      <trkpt lat="47.25756" lon="-2.26907">
        <ele>32.400001525879</ele>
        <time>2021-03-07T09:37:28.000Z</time>
      </trkpt>
      <trkpt lat="47.25753" lon="-2.26909">
        <ele>32.799999237061</ele>
        <time>2021-03-07T09:37:29.000Z</time>
      </trkpt>
      <trkpt lat="47.2575" lon="-2.26911">
        <ele>33.200000762939</ele>
        <time>2021-03-07T09:37:30.000Z</time>
      </trkpt>
      <trkpt lat="47.25747" lon="-2.26913">
        <ele>33.799999237061</ele>
        <time>2021-03-07T09:37:31.000Z</time>
      </trkpt>
      <trkpt lat="47.25744" lon="-2.26916">
        <ele>34.200000762939</ele>
        <time>2021-03-07T09:37:32.000Z</time>
      </trkpt>
      <trkpt lat="47.25736" lon="-2.26928">
        <ele>34.200000762939</ele>
        <time>2021-03-07T09:37:35.000Z</time>
      </trkpt>
      <trkpt lat="47.25734" lon="-2.26933">
        <ele>34.200000762939</ele>
        <time>2021-03-07T09:37:36.000Z</time>
      </trkpt>
      <trkpt lat="47.25729" lon="-2.26952">
        <ele>34.200000762939</ele>
        <time>2021-03-07T09:37:39.000Z</time>
      </trkpt>
      <trkpt lat="47.25724" lon="-2.26971">
        <ele>34.200000762939</ele>
        <time>2021-03-07T09:37:42.000Z</time>
      </trkpt>
      <trkpt lat="47.25715" lon="-2.26981">
        <ele>34.200000762939</ele>
        <time>2021-03-07T09:37:45.000Z</time>
      </trkpt>
      <trkpt lat="47.25711" lon="-2.26984">
        <ele>34.200000762939</ele>
        <time>2021-03-07T09:37:46.000Z</time>
      </trkpt>
      <trkpt lat="47.25703" lon="-2.26989">
        <ele>34.200000762939</ele>
        <time>2021-03-07T09:37:48.000Z</time>
      </trkpt>
      <trkpt lat="47.25694" lon="-2.26992">
        <ele>34.200000762939</ele>
        <time>2021-03-07T09:37:50.000Z</time>
      </trkpt>
      <trkpt lat="47.2568" lon="-2.26992">
        <ele>34.200000762939</ele>
        <time>2021-03-07T09:37:53.000Z</time>
      </trkpt>
      <trkpt lat="47.25676" lon="-2.26992">
        <ele>34.200000762939</ele>
        <time>2021-03-07T09:37:54.000Z</time>
      </trkpt>
      <trkpt lat="47.25667" lon="-2.26988">
        <ele>34.200000762939</ele>
        <time>2021-03-07T09:37:56.000Z</time>
      </trkpt>
      <trkpt lat="47.25659" lon="-2.26983">
        <ele>34.200000762939</ele>
        <time>2021-03-07T09:37:58.000Z</time>
      </trkpt>
      <trkpt lat="47.25649" lon="-2.26974">
        <ele>34.200000762939</ele>
        <time>2021-03-07T09:38:01.000Z</time>
      </trkpt>
      <trkpt lat="47.25638" lon="-2.26959">
        <ele>34.200000762939</ele>
        <time>2021-03-07T09:38:05.000Z</time>
      </trkpt>
      <trkpt lat="47.25635" lon="-2.26953">
        <ele>34.200000762939</ele>
        <time>2021-03-07T09:38:06.000Z</time>
      </trkpt>
      <trkpt lat="47.2563" lon="-2.26941">
        <ele>34.200000762939</ele>
        <time>2021-03-07T09:38:08.000Z</time>
      </trkpt>
      <trkpt lat="47.25627" lon="-2.26928">
        <ele>34.200000762939</ele>
        <time>2021-03-07T09:38:10.000Z</time>
      </trkpt>
      <trkpt lat="47.25627" lon="-2.26922">
        <ele>34.200000762939</ele>
        <time>2021-03-07T09:38:11.000Z</time>
      </trkpt>
      <trkpt lat="47.25626" lon="-2.26916">
        <ele>34.599998474121</ele>
        <time>2021-03-07T09:38:12.000Z</time>
      </trkpt>
      <trkpt lat="47.25626" lon="-2.2691">
        <ele>35</ele>
        <time>2021-03-07T09:38:13.000Z</time>
      </trkpt>
      <trkpt lat="47.25626" lon="-2.26904">
        <ele>35.400001525879</ele>
        <time>2021-03-07T09:38:14.000Z</time>
      </trkpt>
      <trkpt lat="47.25625" lon="-2.26899">
        <ele>35.799999237061</ele>
        <time>2021-03-07T09:38:15.000Z</time>
      </trkpt>
      <trkpt lat="47.25625" lon="-2.26893">
        <ele>36.200000762939</ele>
        <time>2021-03-07T09:38:16.000Z</time>
      </trkpt>
      <trkpt lat="47.25623" lon="-2.26888">
        <ele>36.200000762939</ele>
        <time>2021-03-07T09:38:17.000Z</time>
      </trkpt>
      <trkpt lat="47.25611" lon="-2.2688">
        <ele>36.200000762939</ele>
        <time>2021-03-07T09:38:20.000Z</time>
      </trkpt>
      <trkpt lat="47.25606" lon="-2.26878">
        <ele>36.200000762939</ele>
        <time>2021-03-07T09:38:21.000Z</time>
      </trkpt>
      <trkpt lat="47.25583" lon="-2.26868">
        <ele>35.799999237061</ele>
        <time>2021-03-07T09:38:25.000Z</time>
      </trkpt>
      <trkpt lat="47.25577" lon="-2.26864">
        <ele>35.400001525879</ele>
        <time>2021-03-07T09:38:26.000Z</time>
      </trkpt>
      <trkpt lat="47.25571" lon="-2.26861">
        <ele>34.799999237061</ele>
        <time>2021-03-07T09:38:27.000Z</time>
      </trkpt>
      <trkpt lat="47.25565" lon="-2.26857">
        <ele>34.400001525879</ele>
        <time>2021-03-07T09:38:28.000Z</time>
      </trkpt>
      <trkpt lat="47.25559" lon="-2.26852">
        <ele>34</ele>
        <time>2021-03-07T09:38:29.000Z</time>
      </trkpt>
      <trkpt lat="47.25546" lon="-2.26842">
        <ele>34</ele>
        <time>2021-03-07T09:38:31.000Z</time>
      </trkpt>
      <trkpt lat="47.25527" lon="-2.26823">
        <ele>33.599998474121</ele>
        <time>2021-03-07T09:38:34.000Z</time>
      </trkpt>
      <trkpt lat="47.25521" lon="-2.26816">
        <ele>33.200000762939</ele>
        <time>2021-03-07T09:38:35.000Z</time>
      </trkpt>
      <trkpt lat="47.25515" lon="-2.26808">
        <ele>32.799999237061</ele>
        <time>2021-03-07T09:38:36.000Z</time>
      </trkpt>
      <trkpt lat="47.25508" lon="-2.26801">
        <ele>32.400001525879</ele>
        <time>2021-03-07T09:38:37.000Z</time>
      </trkpt>
      <trkpt lat="47.25503" lon="-2.26793">
        <ele>31.799999237061</ele>
        <time>2021-03-07T09:38:38.000Z</time>
      </trkpt>
      <trkpt lat="47.25497" lon="-2.26784">
        <ele>31.200000762939</ele>
        <time>2021-03-07T09:38:39.000Z</time>
      </trkpt>
      <trkpt lat="47.25491" lon="-2.26775">
        <ele>30.799999237061</ele>
        <time>2021-03-07T09:38:40.000Z</time>
      </trkpt>
      <trkpt lat="47.25486" lon="-2.26767">
        <ele>30.200000762939</ele>
        <time>2021-03-07T09:38:41.000Z</time>
      </trkpt>
      <trkpt lat="47.25481" lon="-2.26759">
        <ele>29.799999237061</ele>
        <time>2021-03-07T09:38:42.000Z</time>
      </trkpt>
      <trkpt lat="47.25477" lon="-2.26753">
        <ele>29.799999237061</ele>
        <time>2021-03-07T09:38:43.000Z</time>
      </trkpt>
      <trkpt lat="47.25469" lon="-2.26739">
        <ele>29.200000762939</ele>
        <time>2021-03-07T09:38:46.000Z</time>
      </trkpt>
      <trkpt lat="47.25467" lon="-2.26736">
        <ele>28.799999237061</ele>
        <time>2021-03-07T09:38:47.000Z</time>
      </trkpt>
      <trkpt lat="47.25466" lon="-2.26734">
        <ele>28.200000762939</ele>
        <time>2021-03-07T09:38:48.000Z</time>
      </trkpt>
      <trkpt lat="47.25465" lon="-2.26732">
        <ele>27.799999237061</ele>
        <time>2021-03-07T09:38:49.000Z</time>
      </trkpt>
      <trkpt lat="47.25464" lon="-2.2673">
        <ele>27.200000762939</ele>
        <time>2021-03-07T09:38:50.000Z</time>
      </trkpt>
      <trkpt lat="47.25464" lon="-2.26728">
        <ele>27.200000762939</ele>
        <time>2021-03-07T09:38:51.000Z</time>
      </trkpt>
      <trkpt lat="47.25465" lon="-2.26724">
        <ele>27.200000762939</ele>
        <time>2021-03-07T09:38:53.000Z</time>
      </trkpt>
      <trkpt lat="47.25468" lon="-2.26716">
        <ele>27.200000762939</ele>
        <time>2021-03-07T09:38:55.000Z</time>
      </trkpt>
      <trkpt lat="47.25469" lon="-2.26709">
        <ele>27.200000762939</ele>
        <time>2021-03-07T09:38:56.000Z</time>
      </trkpt>
      <trkpt lat="47.2547" lon="-2.26703">
        <ele>27.200000762939</ele>
        <time>2021-03-07T09:38:57.000Z</time>
      </trkpt>
      <trkpt lat="47.25467" lon="-2.26689">
        <ele>27.200000762939</ele>
        <time>2021-03-07T09:38:59.000Z</time>
      </trkpt>
      <trkpt lat="47.25465" lon="-2.26684">
        <ele>26.799999237061</ele>
        <time>2021-03-07T09:39:00.000Z</time>
      </trkpt>
      <trkpt lat="47.25461" lon="-2.2668">
        <ele>26.39999961853</ele>
        <time>2021-03-07T09:39:01.000Z</time>
      </trkpt>
      <trkpt lat="47.25458" lon="-2.26677">
        <ele>26</ele>
        <time>2021-03-07T09:39:02.000Z</time>
      </trkpt>
      <trkpt lat="47.25454" lon="-2.26673">
        <ele>25.60000038147</ele>
        <time>2021-03-07T09:39:03.000Z</time>
      </trkpt>
      <trkpt lat="47.25451" lon="-2.26668">
        <ele>25.200000762939</ele>
        <time>2021-03-07T09:39:04.000Z</time>
      </trkpt>
      <trkpt lat="47.25444" lon="-2.26654">
        <ele>25.200000762939</ele>
        <time>2021-03-07T09:39:06.000Z</time>
      </trkpt>
      <trkpt lat="47.2544" lon="-2.26617">
        <ele>25.200000762939</ele>
        <time>2021-03-07T09:39:10.000Z</time>
      </trkpt>
      <trkpt lat="47.25439" lon="-2.26606">
        <ele>25.200000762939</ele>
        <time>2021-03-07T09:39:11.000Z</time>
      </trkpt>
      <trkpt lat="47.25433" lon="-2.26573">
        <ele>25.200000762939</ele>
        <time>2021-03-07T09:39:14.000Z</time>
      </trkpt>
      <trkpt lat="47.25425" lon="-2.26556">
        <ele>25.200000762939</ele>
        <time>2021-03-07T09:39:16.000Z</time>
      </trkpt>
      <trkpt lat="47.25422" lon="-2.26547">
        <ele>25.200000762939</ele>
        <time>2021-03-07T09:39:17.000Z</time>
      </trkpt>
      <trkpt lat="47.25422" lon="-2.26538">
        <ele>25.200000762939</ele>
        <time>2021-03-07T09:39:18.000Z</time>
      </trkpt>
      <trkpt lat="47.25425" lon="-2.26511">
        <ele>25.200000762939</ele>
        <time>2021-03-07T09:39:21.000Z</time>
      </trkpt>
      <trkpt lat="47.25426" lon="-2.26492">
        <ele>25.200000762939</ele>
        <time>2021-03-07T09:39:23.000Z</time>
      </trkpt>
      <trkpt lat="47.25426" lon="-2.2648">
        <ele>24.60000038147</ele>
        <time>2021-03-07T09:39:24.000Z</time>
      </trkpt>
      <trkpt lat="47.25427" lon="-2.26467">
        <ele>24.200000762939</ele>
        <time>2021-03-07T09:39:25.000Z</time>
      </trkpt>
      <trkpt lat="47.25428" lon="-2.26453">
        <ele>23.799999237061</ele>
        <time>2021-03-07T09:39:26.000Z</time>
      </trkpt>
      <trkpt lat="47.25429" lon="-2.2644">
        <ele>23.200000762939</ele>
        <time>2021-03-07T09:39:27.000Z</time>
      </trkpt>
      <trkpt lat="47.2543" lon="-2.26427">
        <ele>22.799999237061</ele>
        <time>2021-03-07T09:39:28.000Z</time>
      </trkpt>
      <trkpt lat="47.25431" lon="-2.26403">
        <ele>22.200000762939</ele>
        <time>2021-03-07T09:39:30.000Z</time>
      </trkpt>
      <trkpt lat="47.2543" lon="-2.26393">
        <ele>21.799999237061</ele>
        <time>2021-03-07T09:39:31.000Z</time>
      </trkpt>
      <trkpt lat="47.25429" lon="-2.26385">
        <ele>21.39999961853</ele>
        <time>2021-03-07T09:39:32.000Z</time>
      </trkpt>
      <trkpt lat="47.25426" lon="-2.26379">
        <ele>20.60000038147</ele>
        <time>2021-03-07T09:39:33.000Z</time>
      </trkpt>
      <trkpt lat="47.25422" lon="-2.26373">
        <ele>20</ele>
        <time>2021-03-07T09:39:34.000Z</time>
      </trkpt>
      <trkpt lat="47.25419" lon="-2.26367">
        <ele>19.39999961853</ele>
        <time>2021-03-07T09:39:35.000Z</time>
      </trkpt>
      <trkpt lat="47.25416" lon="-2.26362">
        <ele>18.799999237061</ele>
        <time>2021-03-07T09:39:36.000Z</time>
      </trkpt>
      <trkpt lat="47.25413" lon="-2.26358">
        <ele>18</ele>
        <time>2021-03-07T09:39:37.000Z</time>
      </trkpt>
      <trkpt lat="47.25409" lon="-2.26352">
        <ele>18</ele>
        <time>2021-03-07T09:39:39.000Z</time>
      </trkpt>
      <trkpt lat="47.25407" lon="-2.26334">
        <ele>18</ele>
        <time>2021-03-07T09:39:42.000Z</time>
      </trkpt>
      <trkpt lat="47.25405" lon="-2.26328">
        <ele>18</ele>
        <time>2021-03-07T09:39:43.000Z</time>
      </trkpt>
      <trkpt lat="47.254" lon="-2.26312">
        <ele>18.39999961853</ele>
        <time>2021-03-07T09:39:46.000Z</time>
      </trkpt>
      <trkpt lat="47.25398" lon="-2.26306">
        <ele>19</ele>
        <time>2021-03-07T09:39:47.000Z</time>
      </trkpt>
      <trkpt lat="47.25397" lon="-2.263">
        <ele>19.39999961853</ele>
        <time>2021-03-07T09:39:48.000Z</time>
      </trkpt>
      <trkpt lat="47.25395" lon="-2.26294">
        <ele>19.799999237061</ele>
        <time>2021-03-07T09:39:49.000Z</time>
      </trkpt>
      <trkpt lat="47.25394" lon="-2.26288">
        <ele>20.200000762939</ele>
        <time>2021-03-07T09:39:50.000Z</time>
      </trkpt>
      <trkpt lat="47.25392" lon="-2.26277">
        <ele>20.200000762939</ele>
        <time>2021-03-07T09:39:52.000Z</time>
      </trkpt>
      <trkpt lat="47.25393" lon="-2.26265">
        <ele>20.200000762939</ele>
        <time>2021-03-07T09:39:54.000Z</time>
      </trkpt>
      <trkpt lat="47.25397" lon="-2.26251">
        <ele>20.200000762939</ele>
        <time>2021-03-07T09:39:56.000Z</time>
      </trkpt>
      <trkpt lat="47.25393" lon="-2.26225">
        <ele>19.799999237061</ele>
        <time>2021-03-07T09:39:59.000Z</time>
      </trkpt>
      <trkpt lat="47.25391" lon="-2.26217">
        <ele>19.39999961853</ele>
        <time>2021-03-07T09:40:00.000Z</time>
      </trkpt>
      <trkpt lat="47.25388" lon="-2.2621">
        <ele>18.799999237061</ele>
        <time>2021-03-07T09:40:01.000Z</time>
      </trkpt>
      <trkpt lat="47.25386" lon="-2.26203">
        <ele>18.39999961853</ele>
        <time>2021-03-07T09:40:02.000Z</time>
      </trkpt>
      <trkpt lat="47.25384" lon="-2.26197">
        <ele>18</ele>
        <time>2021-03-07T09:40:03.000Z</time>
      </trkpt>
      <trkpt lat="47.25382" lon="-2.2619">
        <ele>18</ele>
        <time>2021-03-07T09:40:04.000Z</time>
      </trkpt>
      <trkpt lat="47.25382" lon="-2.26153">
        <ele>18</ele>
        <time>2021-03-07T09:40:08.000Z</time>
      </trkpt>
      <trkpt lat="47.25386" lon="-2.26137">
        <ele>18</ele>
        <time>2021-03-07T09:40:10.000Z</time>
      </trkpt>
      <trkpt lat="47.25388" lon="-2.26131">
        <ele>18</ele>
        <time>2021-03-07T09:40:11.000Z</time>
      </trkpt>
      <trkpt lat="47.2539" lon="-2.26127">
        <ele>17.39999961853</ele>
        <time>2021-03-07T09:40:12.000Z</time>
      </trkpt>
      <trkpt lat="47.25392" lon="-2.26125">
        <ele>17</ele>
        <time>2021-03-07T09:40:13.000Z</time>
      </trkpt>
      <trkpt lat="47.25394" lon="-2.26123">
        <ele>16.39999961853</ele>
        <time>2021-03-07T09:40:14.000Z</time>
      </trkpt>
      <trkpt lat="47.25397" lon="-2.26122">
        <ele>15.800000190735</ele>
        <time>2021-03-07T09:40:15.000Z</time>
      </trkpt>
      <trkpt lat="47.25398" lon="-2.26118">
        <ele>15.199999809265</ele>
        <time>2021-03-07T09:40:16.000Z</time>
      </trkpt>
      <trkpt lat="47.25399" lon="-2.26113">
        <ele>14.39999961853</ele>
        <time>2021-03-07T09:40:17.000Z</time>
      </trkpt>
      <trkpt lat="47.25398" lon="-2.26107">
        <ele>13.800000190735</ele>
        <time>2021-03-07T09:40:18.000Z</time>
      </trkpt>
      <trkpt lat="47.25397" lon="-2.26101">
        <ele>13.199999809265</ele>
        <time>2021-03-07T09:40:19.000Z</time>
      </trkpt>
      <trkpt lat="47.25396" lon="-2.26095">
        <ele>13.199999809265</ele>
        <time>2021-03-07T09:40:20.000Z</time>
      </trkpt>
      <trkpt lat="47.25395" lon="-2.26088">
        <ele>13.199999809265</ele>
        <time>2021-03-07T09:40:21.000Z</time>
      </trkpt>
      <trkpt lat="47.25395" lon="-2.26081">
        <ele>13.199999809265</ele>
        <time>2021-03-07T09:40:22.000Z</time>
      </trkpt>
      <trkpt lat="47.25393" lon="-2.2606">
        <ele>13.199999809265</ele>
        <time>2021-03-07T09:40:25.000Z</time>
      </trkpt>
      <trkpt lat="47.25393" lon="-2.26037">
        <ele>13.199999809265</ele>
        <time>2021-03-07T09:40:31.000Z</time>
      </trkpt>
      <trkpt lat="47.25394" lon="-2.26025">
        <ele>12.800000190735</ele>
        <time>2021-03-07T09:40:35.000Z</time>
      </trkpt>
      <trkpt lat="47.25394" lon="-2.2602">
        <ele>12.199999809265</ele>
        <time>2021-03-07T09:40:36.000Z</time>
      </trkpt>
      <trkpt lat="47.25394" lon="-2.26014">
        <ele>11.800000190735</ele>
        <time>2021-03-07T09:40:37.000Z</time>
      </trkpt>
      <trkpt lat="47.25394" lon="-2.26009">
        <ele>11.39999961853</ele>
        <time>2021-03-07T09:40:38.000Z</time>
      </trkpt>
      <trkpt lat="47.25394" lon="-2.26004">
        <ele>10.800000190735</ele>
        <time>2021-03-07T09:40:39.000Z</time>
      </trkpt>
      <trkpt lat="47.25396" lon="-2.26001">
        <ele>10.199999809265</ele>
        <time>2021-03-07T09:40:40.000Z</time>
      </trkpt>
      <trkpt lat="47.25398" lon="-2.25999">
        <ele>9.6000003814697</ele>
        <time>2021-03-07T09:40:41.000Z</time>
      </trkpt>
      <trkpt lat="47.254" lon="-2.25997">
        <ele>8.8000001907349</ele>
        <time>2021-03-07T09:40:42.000Z</time>
      </trkpt>
      <trkpt lat="47.25402" lon="-2.25993">
        <ele>8.1999998092651</ele>
        <time>2021-03-07T09:40:43.000Z</time>
      </trkpt>
      <trkpt lat="47.25404" lon="-2.25988">
        <ele>7.8000001907349</ele>
        <time>2021-03-07T09:40:44.000Z</time>
      </trkpt>
      <trkpt lat="47.25406" lon="-2.25983">
        <ele>7.4000000953674</ele>
        <time>2021-03-07T09:40:45.000Z</time>
      </trkpt>
      <trkpt lat="47.25407" lon="-2.25978">
        <ele>7</ele>
        <time>2021-03-07T09:40:46.000Z</time>
      </trkpt>
      <trkpt lat="47.25409" lon="-2.25972">
        <ele>6.5999999046326</ele>
        <time>2021-03-07T09:40:47.000Z</time>
      </trkpt>
      <trkpt lat="47.2541" lon="-2.25966">
        <ele>6</ele>
        <time>2021-03-07T09:40:48.000Z</time>
      </trkpt>
      <trkpt lat="47.25412" lon="-2.25962">
        <ele>6</ele>
        <time>2021-03-07T09:40:49.000Z</time>
      </trkpt>
      <trkpt lat="47.25423" lon="-2.2595">
        <ele>6</ele>
        <time>2021-03-07T09:40:53.000Z</time>
      </trkpt>
      <trkpt lat="47.25426" lon="-2.25943">
        <ele>6</ele>
        <time>2021-03-07T09:40:55.000Z</time>
      </trkpt>
      <trkpt lat="47.25427" lon="-2.25936">
        <ele>6</ele>
        <time>2021-03-07T09:40:57.000Z</time>
      </trkpt>
      <trkpt lat="47.25427" lon="-2.25922">
        <ele>6</ele>
        <time>2021-03-07T09:41:00.000Z</time>
      </trkpt>
      <trkpt lat="47.25425" lon="-2.25907">
        <ele>6</ele>
        <time>2021-03-07T09:41:03.000Z</time>
      </trkpt>
      <trkpt lat="47.25424" lon="-2.25895">
        <ele>6</ele>
        <time>2021-03-07T09:41:05.000Z</time>
      </trkpt>
      <trkpt lat="47.25421" lon="-2.2588">
        <ele>6</ele>
        <time>2021-03-07T09:41:07.000Z</time>
      </trkpt>
      <trkpt lat="47.25422" lon="-2.25846">
        <ele>6</ele>
        <time>2021-03-07T09:41:12.000Z</time>
      </trkpt>
      <trkpt lat="47.25428" lon="-2.25816">
        <ele>6</ele>
        <time>2021-03-07T09:41:18.000Z</time>
      </trkpt>
      <trkpt lat="47.25431" lon="-2.2578">
        <ele>6</ele>
        <time>2021-03-07T09:41:24.000Z</time>
      </trkpt>
      <trkpt lat="47.25439" lon="-2.25748">
        <ele>6</ele>
        <time>2021-03-07T09:41:29.000Z</time>
      </trkpt>
      <trkpt lat="47.25444" lon="-2.2571">
        <ele>6</ele>
        <time>2021-03-07T09:41:35.000Z</time>
      </trkpt>
      <trkpt lat="47.25446" lon="-2.25706">
        <ele>6</ele>
        <time>2021-03-07T09:41:36.000Z</time>
      </trkpt>
      <trkpt lat="47.25451" lon="-2.25703">
        <ele>5.5999999046326</ele>
        <time>2021-03-07T09:41:38.000Z</time>
      </trkpt>
      <trkpt lat="47.25453" lon="-2.25704">
        <ele>5.1999998092651</ele>
        <time>2021-03-07T09:41:39.000Z</time>
      </trkpt>
      <trkpt lat="47.25454" lon="-2.25706">
        <ele>4.8000001907349</ele>
        <time>2021-03-07T09:41:40.000Z</time>
      </trkpt>
      <trkpt lat="47.25455" lon="-2.25709">
        <ele>4.4000000953674</ele>
        <time>2021-03-07T09:41:41.000Z</time>
      </trkpt>
      <trkpt lat="47.25456" lon="-2.25712">
        <ele>4</ele>
        <time>2021-03-07T09:41:42.000Z</time>
      </trkpt>
      <trkpt lat="47.2546" lon="-2.25727">
        <ele>4.4000000953674</ele>
        <time>2021-03-07T09:41:47.000Z</time>
      </trkpt>
      <trkpt lat="47.25461" lon="-2.2573">
        <ele>5</ele>
        <time>2021-03-07T09:41:48.000Z</time>
      </trkpt>
      <trkpt lat="47.25461" lon="-2.25733">
        <ele>5.8000001907349</ele>
        <time>2021-03-07T09:41:49.000Z</time>
      </trkpt>
      <trkpt lat="47.25461" lon="-2.25736">
        <ele>6.4000000953674</ele>
        <time>2021-03-07T09:41:50.000Z</time>
      </trkpt>
      <trkpt lat="47.25462" lon="-2.25744">
        <ele>6.8000001907349</ele>
        <time>2021-03-07T09:41:53.000Z</time>
      </trkpt>
      <trkpt lat="47.25462" lon="-2.25747">
        <ele>7.1999998092651</ele>
        <time>2021-03-07T09:41:54.000Z</time>
      </trkpt>
      <trkpt lat="47.25461" lon="-2.2575">
        <ele>7.5999999046326</ele>
        <time>2021-03-07T09:41:55.000Z</time>
      </trkpt>
      <trkpt lat="47.25461" lon="-2.25752">
        <ele>8</ele>
        <time>2021-03-07T09:41:56.000Z</time>
      </trkpt>
      <trkpt lat="47.25461" lon="-2.25756">
        <ele>8.3999996185303</ele>
        <time>2021-03-07T09:41:57.000Z</time>
      </trkpt>
      <trkpt lat="47.25459" lon="-2.25767">
        <ele>8.3999996185303</ele>
        <time>2021-03-07T09:42:01.000Z</time>
      </trkpt>
      <trkpt lat="47.25463" lon="-2.25773">
        <ele>8.8000001907349</ele>
        <time>2021-03-07T09:42:06.000Z</time>
      </trkpt>
      <trkpt lat="47.25464" lon="-2.25775">
        <ele>9.1999998092651</ele>
        <time>2021-03-07T09:42:07.000Z</time>
      </trkpt>
      <trkpt lat="47.25466" lon="-2.25777">
        <ele>9.6000003814697</ele>
        <time>2021-03-07T09:42:08.000Z</time>
      </trkpt>
      <trkpt lat="47.25467" lon="-2.25778">
        <ele>10</ele>
        <time>2021-03-07T09:42:09.000Z</time>
      </trkpt>
      <trkpt lat="47.25468" lon="-2.2578">
        <ele>10.39999961853</ele>
        <time>2021-03-07T09:42:10.000Z</time>
      </trkpt>
      <trkpt lat="47.25469" lon="-2.25784">
        <ele>10.39999961853</ele>
        <time>2021-03-07T09:42:12.000Z</time>
      </trkpt>
      <trkpt lat="47.25469" lon="-2.25799">
        <ele>10.800000190735</ele>
        <time>2021-03-07T09:42:18.000Z</time>
      </trkpt>
      <trkpt lat="47.25469" lon="-2.25801">
        <ele>11.199999809265</ele>
        <time>2021-03-07T09:42:19.000Z</time>
      </trkpt>
      <trkpt lat="47.25468" lon="-2.25803">
        <ele>11.60000038147</ele>
        <time>2021-03-07T09:42:20.000Z</time>
      </trkpt>
      <trkpt lat="47.25468" lon="-2.25804">
        <ele>12</ele>
        <time>2021-03-07T09:42:21.000Z</time>
      </trkpt>
      <trkpt lat="47.25466" lon="-2.25807">
        <ele>12.39999961853</ele>
        <time>2021-03-07T09:42:29.000Z</time>
      </trkpt>
      <trkpt lat="47.25464" lon="-2.25808">
        <ele>12.39999961853</ele>
        <time>2021-03-07T09:42:30.000Z</time>
      </trkpt>
      <trkpt lat="47.25453" lon="-2.25808">
        <ele>12.39999961853</ele>
        <time>2021-03-07T09:42:35.000Z</time>
      </trkpt>
      <trkpt lat="47.25451" lon="-2.25811">
        <ele>12.39999961853</ele>
        <time>2021-03-07T09:42:36.000Z</time>
      </trkpt>
      <trkpt lat="47.2545" lon="-2.25814">
        <ele>11.800000190735</ele>
        <time>2021-03-07T09:42:37.000Z</time>
      </trkpt>
      <trkpt lat="47.25449" lon="-2.25817">
        <ele>11</ele>
        <time>2021-03-07T09:42:38.000Z</time>
      </trkpt>
      <trkpt lat="47.25449" lon="-2.2582">
        <ele>10.39999961853</ele>
        <time>2021-03-07T09:42:39.000Z</time>
      </trkpt>
      <trkpt lat="47.25449" lon="-2.25824">
        <ele>10</ele>
        <time>2021-03-07T09:42:40.000Z</time>
      </trkpt>
      <trkpt lat="47.25448" lon="-2.25828">
        <ele>10</ele>
        <time>2021-03-07T09:42:41.000Z</time>
      </trkpt>
      <trkpt lat="47.25444" lon="-2.2585">
        <ele>10</ele>
        <time>2021-03-07T09:42:46.000Z</time>
      </trkpt>
      <trkpt lat="47.25441" lon="-2.25861">
        <ele>9.6000003814697</ele>
        <time>2021-03-07T09:42:48.000Z</time>
      </trkpt>
      <trkpt lat="47.2544" lon="-2.25866">
        <ele>9.1999998092651</ele>
        <time>2021-03-07T09:42:49.000Z</time>
      </trkpt>
      <trkpt lat="47.25438" lon="-2.2587">
        <ele>8.6000003814697</ele>
        <time>2021-03-07T09:42:50.000Z</time>
      </trkpt>
      <trkpt lat="47.25435" lon="-2.25875">
        <ele>8.1999998092651</ele>
        <time>2021-03-07T09:42:51.000Z</time>
      </trkpt>
      <trkpt lat="47.25433" lon="-2.2588">
        <ele>7.8000001907349</ele>
        <time>2021-03-07T09:42:52.000Z</time>
      </trkpt>
      <trkpt lat="47.25431" lon="-2.25884">
        <ele>7.8000001907349</ele>
        <time>2021-03-07T09:42:53.000Z</time>
      </trkpt>
      <trkpt lat="47.2543" lon="-2.25889">
        <ele>7.8000001907349</ele>
        <time>2021-03-07T09:42:55.000Z</time>
      </trkpt>
      <trkpt lat="47.25432" lon="-2.259">
        <ele>7.8000001907349</ele>
        <time>2021-03-07T09:42:59.000Z</time>
      </trkpt>
      <trkpt lat="47.25435" lon="-2.25911">
        <ele>7.8000001907349</ele>
        <time>2021-03-07T09:43:02.000Z</time>
      </trkpt>
      <trkpt lat="47.25436" lon="-2.25931">
        <ele>7.8000001907349</ele>
        <time>2021-03-07T09:43:07.000Z</time>
      </trkpt>
      <trkpt lat="47.25435" lon="-2.25935">
        <ele>7.8000001907349</ele>
        <time>2021-03-07T09:43:08.000Z</time>
      </trkpt>
      <trkpt lat="47.25423" lon="-2.25945">
        <ele>7.8000001907349</ele>
        <time>2021-03-07T09:43:12.000Z</time>
      </trkpt>
      <trkpt lat="47.2542" lon="-2.25945">
        <ele>7.4000000953674</ele>
        <time>2021-03-07T09:43:13.000Z</time>
      </trkpt>
      <trkpt lat="47.25417" lon="-2.25945">
        <ele>7</ele>
        <time>2021-03-07T09:43:14.000Z</time>
      </trkpt>
      <trkpt lat="47.25415" lon="-2.25943">
        <ele>6.5999999046326</ele>
        <time>2021-03-07T09:43:15.000Z</time>
      </trkpt>
      <trkpt lat="47.25414" lon="-2.25941">
        <ele>6.1999998092651</ele>
        <time>2021-03-07T09:43:16.000Z</time>
      </trkpt>
      <trkpt lat="47.25412" lon="-2.25938">
        <ele>5.8000001907349</ele>
        <time>2021-03-07T09:43:17.000Z</time>
      </trkpt>
      <trkpt lat="47.2541" lon="-2.2593">
        <ele>5.8000001907349</ele>
        <time>2021-03-07T09:43:19.000Z</time>
      </trkpt>
      <trkpt lat="47.25409" lon="-2.25925">
        <ele>5.8000001907349</ele>
        <time>2021-03-07T09:43:20.000Z</time>
      </trkpt>
      <trkpt lat="47.25405" lon="-2.25896">
        <ele>5.8000001907349</ele>
        <time>2021-03-07T09:43:26.000Z</time>
      </trkpt>
      <trkpt lat="47.25403" lon="-2.2588">
        <ele>5.4000000953674</ele>
        <time>2021-03-07T09:43:29.000Z</time>
      </trkpt>
      <trkpt lat="47.25403" lon="-2.25874">
        <ele>5</ele>
        <time>2021-03-07T09:43:30.000Z</time>
      </trkpt>
      <trkpt lat="47.25402" lon="-2.25867">
        <ele>4.5999999046326</ele>
        <time>2021-03-07T09:43:31.000Z</time>
      </trkpt>
      <trkpt lat="47.25402" lon="-2.2586">
        <ele>4.1999998092651</ele>
        <time>2021-03-07T09:43:32.000Z</time>
      </trkpt>
      <trkpt lat="47.25401" lon="-2.25852">
        <ele>3.7999999523163</ele>
        <time>2021-03-07T09:43:33.000Z</time>
      </trkpt>
      <trkpt lat="47.25398" lon="-2.2583">
        <ele>3.7999999523163</ele>
        <time>2021-03-07T09:43:36.000Z</time>
      </trkpt>
      <trkpt lat="47.25396" lon="-2.25813">
        <ele>3.7999999523163</ele>
        <time>2021-03-07T09:43:38.000Z</time>
      </trkpt>
      <trkpt lat="47.25393" lon="-2.25783">
        <ele>3.4000000953674</ele>
        <time>2021-03-07T09:43:42.000Z</time>
      </trkpt>
      <trkpt lat="47.25393" lon="-2.25775">
        <ele>3</ele>
        <time>2021-03-07T09:43:43.000Z</time>
      </trkpt>
      <trkpt lat="47.25393" lon="-2.25768">
        <ele>2.4000000953674</ele>
        <time>2021-03-07T09:43:44.000Z</time>
      </trkpt>
      <trkpt lat="47.25393" lon="-2.2576">
        <ele>2</ele>
        <time>2021-03-07T09:43:45.000Z</time>
      </trkpt>
      <trkpt lat="47.25392" lon="-2.25752">
        <ele>1.6000000238419</ele>
        <time>2021-03-07T09:43:46.000Z</time>
      </trkpt>
      <trkpt lat="47.25391" lon="-2.25702">
        <ele>1.6000000238419</ele>
        <time>2021-03-07T09:43:52.000Z</time>
      </trkpt>
      <trkpt lat="47.25392" lon="-2.25681">
        <ele>1.6000000238419</ele>
        <time>2021-03-07T09:43:56.000Z</time>
      </trkpt>
      <trkpt lat="47.25393" lon="-2.25679">
        <ele>1.6000000238419</ele>
        <time>2021-03-07T09:43:57.000Z</time>
      </trkpt>
      <trkpt lat="47.25395" lon="-2.25673">
        <ele>1.6000000238419</ele>
        <time>2021-03-07T09:44:01.000Z</time>
      </trkpt>
      <trkpt lat="47.25401" lon="-2.25669">
        <ele>1.6000000238419</ele>
        <time>2021-03-07T09:44:06.000Z</time>
      </trkpt>
      <trkpt lat="47.25412" lon="-2.25661">
        <ele>1.6000000238419</ele>
        <time>2021-03-07T09:44:13.000Z</time>
      </trkpt>
      <trkpt lat="47.25416" lon="-2.25657">
        <ele>1.6000000238419</ele>
        <time>2021-03-07T09:44:16.000Z</time>
      </trkpt>
      <trkpt lat="47.2542" lon="-2.25655">
        <ele>1.6000000238419</ele>
        <time>2021-03-07T09:44:19.000Z</time>
      </trkpt>
      <trkpt lat="47.25424" lon="-2.25654">
        <ele>1.6000000238419</ele>
        <time>2021-03-07T09:44:22.000Z</time>
      </trkpt>
      <trkpt lat="47.25427" lon="-2.25656">
        <ele>1.6000000238419</ele>
        <time>2021-03-07T09:44:25.000Z</time>
      </trkpt>
      <trkpt lat="47.2544" lon="-2.25663">
        <ele>1.6000000238419</ele>
        <time>2021-03-07T09:44:29.000Z</time>
      </trkpt>
      <trkpt lat="47.25449" lon="-2.25666">
        <ele>2.2000000476837</ele>
        <time>2021-03-07T09:44:32.000Z</time>
      </trkpt>
      <trkpt lat="47.25451" lon="-2.25666">
        <ele>2.5999999046326</ele>
        <time>2021-03-07T09:44:33.000Z</time>
      </trkpt>
      <trkpt lat="47.25454" lon="-2.25666">
        <ele>3</ele>
        <time>2021-03-07T09:44:34.000Z</time>
      </trkpt>
      <trkpt lat="47.25457" lon="-2.25666">
        <ele>3.4000000953674</ele>
        <time>2021-03-07T09:44:35.000Z</time>
      </trkpt>
      <trkpt lat="47.2546" lon="-2.25664">
        <ele>3.7999999523163</ele>
        <time>2021-03-07T09:44:36.000Z</time>
      </trkpt>
      <trkpt lat="47.25463" lon="-2.25662">
        <ele>4.1999998092651</ele>
        <time>2021-03-07T09:44:37.000Z</time>
      </trkpt>
      <trkpt lat="47.25466" lon="-2.25659">
        <ele>4.5999999046326</ele>
        <time>2021-03-07T09:44:38.000Z</time>
      </trkpt>
      <trkpt lat="47.25469" lon="-2.25656">
        <ele>5</ele>
        <time>2021-03-07T09:44:39.000Z</time>
      </trkpt>
      <trkpt lat="47.25472" lon="-2.25653">
        <ele>5.5999999046326</ele>
        <time>2021-03-07T09:44:40.000Z</time>
      </trkpt>
      <trkpt lat="47.25475" lon="-2.2565">
        <ele>6</ele>
        <time>2021-03-07T09:44:41.000Z</time>
      </trkpt>
      <trkpt lat="47.25485" lon="-2.25636">
        <ele>6.4000000953674</ele>
        <time>2021-03-07T09:44:45.000Z</time>
      </trkpt>
      <trkpt lat="47.25486" lon="-2.25632">
        <ele>6.8000001907349</ele>
        <time>2021-03-07T09:44:46.000Z</time>
      </trkpt>
      <trkpt lat="47.25488" lon="-2.25628">
        <ele>7.4000000953674</ele>
        <time>2021-03-07T09:44:47.000Z</time>
      </trkpt>
      <trkpt lat="47.25491" lon="-2.25625">
        <ele>7.8000001907349</ele>
        <time>2021-03-07T09:44:48.000Z</time>
      </trkpt>
      <trkpt lat="47.25492" lon="-2.25622">
        <ele>8.1999998092651</ele>
        <time>2021-03-07T09:44:49.000Z</time>
      </trkpt>
      <trkpt lat="47.25497" lon="-2.25611">
        <ele>8.1999998092651</ele>
        <time>2021-03-07T09:44:52.000Z</time>
      </trkpt>
      <trkpt lat="47.25504" lon="-2.256">
        <ele>8.6000003814697</ele>
        <time>2021-03-07T09:44:56.000Z</time>
      </trkpt>
      <trkpt lat="47.25505" lon="-2.25597">
        <ele>9</ele>
        <time>2021-03-07T09:44:57.000Z</time>
      </trkpt>
      <trkpt lat="47.25507" lon="-2.25595">
        <ele>9.3999996185303</ele>
        <time>2021-03-07T09:44:58.000Z</time>
      </trkpt>
      <trkpt lat="47.25509" lon="-2.25594">
        <ele>9.8000001907349</ele>
        <time>2021-03-07T09:44:59.000Z</time>
      </trkpt>
      <trkpt lat="47.2551" lon="-2.25592">
        <ele>10.199999809265</ele>
        <time>2021-03-07T09:45:00.000Z</time>
      </trkpt>
      <trkpt lat="47.25515" lon="-2.25578">
        <ele>10.60000038147</ele>
        <time>2021-03-07T09:45:05.000Z</time>
      </trkpt>
      <trkpt lat="47.25516" lon="-2.25575">
        <ele>11.39999961853</ele>
        <time>2021-03-07T09:45:06.000Z</time>
      </trkpt>
      <trkpt lat="47.25517" lon="-2.25573">
        <ele>11.800000190735</ele>
        <time>2021-03-07T09:45:07.000Z</time>
      </trkpt>
      <trkpt lat="47.25518" lon="-2.2557">
        <ele>12.199999809265</ele>
        <time>2021-03-07T09:45:08.000Z</time>
      </trkpt>
      <trkpt lat="47.25519" lon="-2.25568">
        <ele>12.199999809265</ele>
        <time>2021-03-07T09:45:09.000Z</time>
      </trkpt>
      <trkpt lat="47.25522" lon="-2.25565">
        <ele>12.199999809265</ele>
        <time>2021-03-07T09:45:11.000Z</time>
      </trkpt>
      <trkpt lat="47.25524" lon="-2.25557">
        <ele>12.800000190735</ele>
        <time>2021-03-07T09:45:15.000Z</time>
      </trkpt>
      <trkpt lat="47.25525" lon="-2.25557">
        <ele>13.199999809265</ele>
        <time>2021-03-07T09:45:16.000Z</time>
      </trkpt>
      <trkpt lat="47.25523" lon="-2.25555">
        <ele>14.39999961853</ele>
        <time>2021-03-07T09:46:00.000Z</time>
      </trkpt>
      <trkpt lat="47.25519" lon="-2.25545">
        <ele>14.39999961853</ele>
        <time>2021-03-07T09:46:02.000Z</time>
      </trkpt>
      <trkpt lat="47.25514" lon="-2.25529">
        <ele>14.39999961853</ele>
        <time>2021-03-07T09:46:04.000Z</time>
      </trkpt>
      <trkpt lat="47.2551" lon="-2.25511">
        <ele>14.39999961853</ele>
        <time>2021-03-07T09:46:06.000Z</time>
      </trkpt>
      <trkpt lat="47.25509" lon="-2.25503">
        <ele>14</ele>
        <time>2021-03-07T09:46:07.000Z</time>
      </trkpt>
      <trkpt lat="47.25508" lon="-2.25496">
        <ele>13.39999961853</ele>
        <time>2021-03-07T09:46:08.000Z</time>
      </trkpt>
      <trkpt lat="47.25507" lon="-2.2549">
        <ele>13</ele>
        <time>2021-03-07T09:46:09.000Z</time>
      </trkpt>
      <trkpt lat="47.25506" lon="-2.25484">
        <ele>12.39999961853</ele>
        <time>2021-03-07T09:46:10.000Z</time>
      </trkpt>
      <trkpt lat="47.25506" lon="-2.25477">
        <ele>12</ele>
        <time>2021-03-07T09:46:11.000Z</time>
      </trkpt>
      <trkpt lat="47.25505" lon="-2.25458">
        <ele>12</ele>
        <time>2021-03-07T09:46:14.000Z</time>
      </trkpt>
      <trkpt lat="47.25502" lon="-2.25444">
        <ele>12</ele>
        <time>2021-03-07T09:46:16.000Z</time>
      </trkpt>
      <trkpt lat="47.25498" lon="-2.25433">
        <ele>12</ele>
        <time>2021-03-07T09:46:18.000Z</time>
      </trkpt>
      <trkpt lat="47.25492" lon="-2.2542">
        <ele>11</ele>
        <time>2021-03-07T09:46:21.000Z</time>
      </trkpt>
      <trkpt lat="47.25491" lon="-2.25419">
        <ele>10.60000038147</ele>
        <time>2021-03-07T09:46:22.000Z</time>
      </trkpt>
      <trkpt lat="47.25489" lon="-2.25418">
        <ele>10.199999809265</ele>
        <time>2021-03-07T09:46:23.000Z</time>
      </trkpt>
      <trkpt lat="47.25488" lon="-2.25417">
        <ele>9.8000001907349</ele>
        <time>2021-03-07T09:46:24.000Z</time>
      </trkpt>
      <trkpt lat="47.25486" lon="-2.25417">
        <ele>9.8000001907349</ele>
        <time>2021-03-07T09:46:26.000Z</time>
      </trkpt>
      <trkpt lat="47.25485" lon="-2.25416">
        <ele>9.3999996185303</ele>
        <time>2021-03-07T09:46:27.000Z</time>
      </trkpt>
      <trkpt lat="47.25484" lon="-2.25416">
        <ele>9</ele>
        <time>2021-03-07T09:46:28.000Z</time>
      </trkpt>
      <trkpt lat="47.25484" lon="-2.25415">
        <ele>8.6000003814697</ele>
        <time>2021-03-07T09:46:29.000Z</time>
      </trkpt>
      <trkpt lat="47.25483" lon="-2.25414">
        <ele>8.1999998092651</ele>
        <time>2021-03-07T09:46:30.000Z</time>
      </trkpt>
      <trkpt lat="47.25482" lon="-2.25414">
        <ele>7.8000001907349</ele>
        <time>2021-03-07T09:46:31.000Z</time>
      </trkpt>
      <trkpt lat="47.25481" lon="-2.25414">
        <ele>7.8000001907349</ele>
        <time>2021-03-07T09:46:33.000Z</time>
      </trkpt>
      <trkpt lat="47.25478" lon="-2.2541">
        <ele>7.8000001907349</ele>
        <time>2021-03-07T09:46:37.000Z</time>
      </trkpt>
      <trkpt lat="47.25476" lon="-2.2541">
        <ele>7.8000001907349</ele>
        <time>2021-03-07T09:46:38.000Z</time>
      </trkpt>
      <trkpt lat="47.25468" lon="-2.25411">
        <ele>7.4000000953674</ele>
        <time>2021-03-07T09:46:41.000Z</time>
      </trkpt>
      <trkpt lat="47.25466" lon="-2.25412">
        <ele>6.8000001907349</ele>
        <time>2021-03-07T09:46:42.000Z</time>
      </trkpt>
      <trkpt lat="47.25464" lon="-2.25413">
        <ele>6.4000000953674</ele>
        <time>2021-03-07T09:46:43.000Z</time>
      </trkpt>
      <trkpt lat="47.25462" lon="-2.25413">
        <ele>6</ele>
        <time>2021-03-07T09:46:44.000Z</time>
      </trkpt>
      <trkpt lat="47.25461" lon="-2.25414">
        <ele>5.5999999046326</ele>
        <time>2021-03-07T09:46:45.000Z</time>
      </trkpt>
      <trkpt lat="47.25458" lon="-2.25412">
        <ele>5.5999999046326</ele>
        <time>2021-03-07T09:46:46.000Z</time>
      </trkpt>
      <trkpt lat="47.25456" lon="-2.2541">
        <ele>5.1999998092651</ele>
        <time>2021-03-07T09:46:47.000Z</time>
      </trkpt>
      <trkpt lat="47.25454" lon="-2.25407">
        <ele>4.8000001907349</ele>
        <time>2021-03-07T09:46:48.000Z</time>
      </trkpt>
      <trkpt lat="47.25452" lon="-2.25405">
        <ele>4.4000000953674</ele>
        <time>2021-03-07T09:46:49.000Z</time>
      </trkpt>
      <trkpt lat="47.2545" lon="-2.25403">
        <ele>4</ele>
        <time>2021-03-07T09:46:50.000Z</time>
      </trkpt>
      <trkpt lat="47.25448" lon="-2.25402">
        <ele>3.5999999046326</ele>
        <time>2021-03-07T09:46:51.000Z</time>
      </trkpt>
      <trkpt lat="47.25443" lon="-2.25403">
        <ele>3.5999999046326</ele>
        <time>2021-03-07T09:46:54.000Z</time>
      </trkpt>
      <trkpt lat="47.25441" lon="-2.25406">
        <ele>3.5999999046326</ele>
        <time>2021-03-07T09:46:55.000Z</time>
      </trkpt>
      <trkpt lat="47.25436" lon="-2.25411">
        <ele>3.2000000476837</ele>
        <time>2021-03-07T09:46:57.000Z</time>
      </trkpt>
      <trkpt lat="47.25431" lon="-2.25411">
        <ele>2.7999999523163</ele>
        <time>2021-03-07T09:46:58.000Z</time>
      </trkpt>
      <trkpt lat="47.25426" lon="-2.25411">
        <ele>2.4000000953674</ele>
        <time>2021-03-07T09:46:59.000Z</time>
      </trkpt>
      <trkpt lat="47.2542" lon="-2.25411">
        <ele>2</ele>
        <time>2021-03-07T09:47:00.000Z</time>
      </trkpt>
      <trkpt lat="47.25414" lon="-2.2541">
        <ele>1.3999999761581</ele>
        <time>2021-03-07T09:47:01.000Z</time>
      </trkpt>
      <trkpt lat="47.25408" lon="-2.25408">
        <ele>1</ele>
        <time>2021-03-07T09:47:02.000Z</time>
      </trkpt>
      <trkpt lat="47.25401" lon="-2.25406">
        <ele>0.60000002384186</ele>
        <time>2021-03-07T09:47:03.000Z</time>
      </trkpt>
      <trkpt lat="47.25395" lon="-2.25404">
        <ele>0.20000000298023</ele>
        <time>2021-03-07T09:47:04.000Z</time>
      </trkpt>
      <trkpt lat="47.25388" lon="-2.25403">
        <ele>-0.20000000298023</ele>
        <time>2021-03-07T09:47:05.000Z</time>
      </trkpt>
      <trkpt lat="47.25382" lon="-2.25401">
        <ele>-0.60000002384186</ele>
        <time>2021-03-07T09:47:06.000Z</time>
      </trkpt>
      <trkpt lat="47.25375" lon="-2.25398">
        <ele>-1</ele>
        <time>2021-03-07T09:47:07.000Z</time>
      </trkpt>
      <trkpt lat="47.25369" lon="-2.25394">
        <ele>-1.3999999761581</ele>
        <time>2021-03-07T09:47:08.000Z</time>
      </trkpt>
      <trkpt lat="47.25365" lon="-2.25391">
        <ele>-1.7999999523163</ele>
        <time>2021-03-07T09:47:09.000Z</time>
      </trkpt>
      <trkpt lat="47.25361" lon="-2.25389">
        <ele>-2.5999999046326</ele>
        <time>2021-03-07T09:47:10.000Z</time>
      </trkpt>
      <trkpt lat="47.25359" lon="-2.25388">
        <ele>-3.2000000476837</ele>
        <time>2021-03-07T09:47:11.000Z</time>
      </trkpt>
      <trkpt lat="47.25356" lon="-2.25389">
        <ele>-3.5999999046326</ele>
        <time>2021-03-07T09:47:12.000Z</time>
      </trkpt>
      <trkpt lat="47.25353" lon="-2.25391">
        <ele>-4.1999998092651</ele>
        <time>2021-03-07T09:47:13.000Z</time>
      </trkpt>
      <trkpt lat="47.25352" lon="-2.25393">
        <ele>-4.5999999046326</ele>
        <time>2021-03-07T09:47:14.000Z</time>
      </trkpt>
      <trkpt lat="47.2535" lon="-2.25396">
        <ele>-5.1999998092651</ele>
        <time>2021-03-07T09:47:15.000Z</time>
      </trkpt>
      <trkpt lat="47.25348" lon="-2.254">
        <ele>-5.1999998092651</ele>
        <time>2021-03-07T09:47:19.000Z</time>
      </trkpt>
      <trkpt lat="47.2534" lon="-2.25398">
        <ele>-5.1999998092651</ele>
        <time>2021-03-07T09:47:46.000Z</time>
      </trkpt>
      <trkpt lat="47.25339" lon="-2.254">
        <ele>-5.1999998092651</ele>
        <time>2021-03-07T09:47:48.000Z</time>
      </trkpt>
      <trkpt lat="47.25335" lon="-2.254">
        <ele>-5.1999998092651</ele>
        <time>2021-03-07T09:47:53.000Z</time>
      </trkpt>
      <trkpt lat="47.25334" lon="-2.254">
        <ele>-5.1999998092651</ele>
        <time>2021-03-07T09:47:55.000Z</time>
      </trkpt>
      <trkpt lat="47.25336" lon="-2.25398">
        <ele>-3.2000000476837</ele>
        <time>2021-03-07T10:01:35.000Z</time>
      </trkpt>
      <trkpt lat="47.25343" lon="-2.25396">
        <ele>-3.2000000476837</ele>
        <time>2021-03-07T10:01:41.000Z</time>
      </trkpt>
      <trkpt lat="47.25342" lon="-2.25406">
        <ele>-3.2000000476837</ele>
        <time>2021-03-07T10:01:46.000Z</time>
      </trkpt>
      <trkpt lat="47.25341" lon="-2.25408">
        <ele>-3.2000000476837</ele>
        <time>2021-03-07T10:01:47.000Z</time>
      </trkpt>
      <trkpt lat="47.25337" lon="-2.25411">
        <ele>-3.2000000476837</ele>
        <time>2021-03-07T10:01:50.000Z</time>
      </trkpt>
      <trkpt lat="47.25335" lon="-2.25412">
        <ele>-2.7999999523163</ele>
        <time>2021-03-07T10:01:51.000Z</time>
      </trkpt>
      <trkpt lat="47.25333" lon="-2.25412">
        <ele>-2.2000000476837</ele>
        <time>2021-03-07T10:01:52.000Z</time>
      </trkpt>
      <trkpt lat="47.25331" lon="-2.25412">
        <ele>-1.7999999523163</ele>
        <time>2021-03-07T10:01:53.000Z</time>
      </trkpt>
      <trkpt lat="47.25329" lon="-2.25412">
        <ele>-1.3999999761581</ele>
        <time>2021-03-07T10:01:54.000Z</time>
      </trkpt>
      <trkpt lat="47.25327" lon="-2.25413">
        <ele>-1</ele>
        <time>2021-03-07T10:01:55.000Z</time>
      </trkpt>
      <trkpt lat="47.25325" lon="-2.25414">
        <ele>-0.40000000596046</ele>
        <time>2021-03-07T10:01:56.000Z</time>
      </trkpt>
      <trkpt lat="47.25325" lon="-2.25415">
        <ele>8.5</ele>
        <time>2021-03-07T10:01:57.000Z</time>
      </trkpt>
      <trkpt lat="47.25324" lon="-2.25417">
        <ele>0.40000000596046</ele>
        <time>2021-03-07T10:01:58.000Z</time>
      </trkpt>
      <trkpt lat="47.25324" lon="-2.25419">
        <ele>1</ele>
        <time>2021-03-07T10:01:59.000Z</time>
      </trkpt>
      <trkpt lat="47.25325" lon="-2.25421">
        <ele>2</ele>
        <time>2021-03-07T10:02:00.000Z</time>
      </trkpt>
      <trkpt lat="47.25325" lon="-2.25424">
        <ele>2.4000000953674</ele>
        <time>2021-03-07T10:02:01.000Z</time>
      </trkpt>
      <trkpt lat="47.25326" lon="-2.25428">
        <ele>3</ele>
        <time>2021-03-07T10:02:02.000Z</time>
      </trkpt>
      <trkpt lat="47.25326" lon="-2.2543">
        <ele>3.4000000953674</ele>
        <time>2021-03-07T10:02:03.000Z</time>
      </trkpt>
      <trkpt lat="47.25326" lon="-2.25432">
        <ele>3.4000000953674</ele>
        <time>2021-03-07T10:02:04.000Z</time>
      </trkpt>
      <trkpt lat="47.25327" lon="-2.25436">
        <ele>3.7999999523163</ele>
        <time>2021-03-07T10:02:06.000Z</time>
      </trkpt>
      <trkpt lat="47.25328" lon="-2.25436">
        <ele>4.1999998092651</ele>
        <time>2021-03-07T10:02:07.000Z</time>
      </trkpt>
      <trkpt lat="47.25327" lon="-2.25439">
        <ele>4.5999999046326</ele>
        <time>2021-03-07T10:02:08.000Z</time>
      </trkpt>
      <trkpt lat="47.25327" lon="-2.25441">
        <ele>5.1999998092651</ele>
        <time>2021-03-07T10:02:09.000Z</time>
      </trkpt>
      <trkpt lat="47.25327" lon="-2.25442">
        <ele>5.5999999046326</ele>
        <time>2021-03-07T10:02:10.000Z</time>
      </trkpt>
      <trkpt lat="47.25326" lon="-2.25448">
        <ele>5.5999999046326</ele>
        <time>2021-03-07T10:02:13.000Z</time>
      </trkpt>
      <trkpt lat="47.25327" lon="-2.25463">
        <ele>6</ele>
        <time>2021-03-07T10:02:19.000Z</time>
      </trkpt>
      <trkpt lat="47.25326" lon="-2.25465">
        <ele>6.4000000953674</ele>
        <time>2021-03-07T10:02:20.000Z</time>
      </trkpt>
      <trkpt lat="47.25326" lon="-2.25467">
        <ele>6.8000001907349</ele>
        <time>2021-03-07T10:02:21.000Z</time>
      </trkpt>
      <trkpt lat="47.25325" lon="-2.25469">
        <ele>7.1999998092651</ele>
        <time>2021-03-07T10:02:22.000Z</time>
      </trkpt>
      <trkpt lat="47.25325" lon="-2.25472">
        <ele>7.5999999046326</ele>
        <time>2021-03-07T10:02:23.000Z</time>
      </trkpt>
      <trkpt lat="47.25326" lon="-2.25477">
        <ele>7.5999999046326</ele>
        <time>2021-03-07T10:02:26.000Z</time>
      </trkpt>
      <trkpt lat="47.25327" lon="-2.25489">
        <ele>8</ele>
        <time>2021-03-07T10:02:31.000Z</time>
      </trkpt>
      <trkpt lat="47.25327" lon="-2.25492">
        <ele>8.3999996185303</ele>
        <time>2021-03-07T10:02:32.000Z</time>
      </trkpt>
      <trkpt lat="47.25327" lon="-2.25494">
        <ele>8.8000001907349</ele>
        <time>2021-03-07T10:02:33.000Z</time>
      </trkpt>
      <trkpt lat="47.25326" lon="-2.25497">
        <ele>9.1999998092651</ele>
        <time>2021-03-07T10:02:34.000Z</time>
      </trkpt>
      <trkpt lat="47.25326" lon="-2.25499">
        <ele>9.6000003814697</ele>
        <time>2021-03-07T10:02:35.000Z</time>
      </trkpt>
      <trkpt lat="47.25326" lon="-2.25506">
        <ele>9.6000003814697</ele>
        <time>2021-03-07T10:02:38.000Z</time>
      </trkpt>
      <trkpt lat="47.25326" lon="-2.25523">
        <ele>9.6000003814697</ele>
        <time>2021-03-07T10:02:45.000Z</time>
      </trkpt>
      <trkpt lat="47.25328" lon="-2.25535">
        <ele>10</ele>
        <time>2021-03-07T10:02:49.000Z</time>
      </trkpt>
      <trkpt lat="47.25328" lon="-2.25537">
        <ele>11</ele>
        <time>2021-03-07T10:02:50.000Z</time>
      </trkpt>
      <trkpt lat="47.25329" lon="-2.2554">
        <ele>11.39999961853</ele>
        <time>2021-03-07T10:02:51.000Z</time>
      </trkpt>
      <trkpt lat="47.25329" lon="-2.25542">
        <ele>11.800000190735</ele>
        <time>2021-03-07T10:02:52.000Z</time>
      </trkpt>
      <trkpt lat="47.25329" lon="-2.25557">
        <ele>11.800000190735</ele>
        <time>2021-03-07T10:02:56.000Z</time>
      </trkpt>
      <trkpt lat="47.25329" lon="-2.2556">
        <ele>11.800000190735</ele>
        <time>2021-03-07T10:02:57.000Z</time>
      </trkpt>
      <trkpt lat="47.25331" lon="-2.25573">
        <ele>12.199999809265</ele>
        <time>2021-03-07T10:03:01.000Z</time>
      </trkpt>
      <trkpt lat="47.25331" lon="-2.25577">
        <ele>12.60000038147</ele>
        <time>2021-03-07T10:03:02.000Z</time>
      </trkpt>
      <trkpt lat="47.25332" lon="-2.25579">
        <ele>13</ele>
        <time>2021-03-07T10:03:03.000Z</time>
      </trkpt>
      <trkpt lat="47.25332" lon="-2.25583">
        <ele>13.39999961853</ele>
        <time>2021-03-07T10:03:04.000Z</time>
      </trkpt>
      <trkpt lat="47.25333" lon="-2.25586">
        <ele>13.800000190735</ele>
        <time>2021-03-07T10:03:05.000Z</time>
      </trkpt>
      <trkpt lat="47.25335" lon="-2.25595">
        <ele>13.800000190735</ele>
        <time>2021-03-07T10:03:08.000Z</time>
      </trkpt>
      <trkpt lat="47.25341" lon="-2.2562">
        <ele>13.800000190735</ele>
        <time>2021-03-07T10:03:16.000Z</time>
      </trkpt>
      <trkpt lat="47.25348" lon="-2.25654">
        <ele>13.800000190735</ele>
        <time>2021-03-07T10:03:23.000Z</time>
      </trkpt>
      <trkpt lat="47.25349" lon="-2.25682">
        <ele>13.800000190735</ele>
        <time>2021-03-07T10:03:28.000Z</time>
      </trkpt>
      <trkpt lat="47.25349" lon="-2.25718">
        <ele>13.800000190735</ele>
        <time>2021-03-07T10:03:34.000Z</time>
      </trkpt>
      <trkpt lat="47.2535" lon="-2.2574">
        <ele>13.800000190735</ele>
        <time>2021-03-07T10:03:38.000Z</time>
      </trkpt>
      <trkpt lat="47.25346" lon="-2.25769">
        <ele>13.800000190735</ele>
        <time>2021-03-07T10:03:44.000Z</time>
      </trkpt>
      <trkpt lat="47.25342" lon="-2.25807">
        <ele>13.800000190735</ele>
        <time>2021-03-07T10:03:50.000Z</time>
      </trkpt>
      <trkpt lat="47.25339" lon="-2.25826">
        <ele>13.800000190735</ele>
        <time>2021-03-07T10:03:55.000Z</time>
      </trkpt>
      <trkpt lat="47.25339" lon="-2.25829">
        <ele>14.39999961853</ele>
        <time>2021-03-07T10:03:56.000Z</time>
      </trkpt>
      <trkpt lat="47.25339" lon="-2.25832">
        <ele>14.800000190735</ele>
        <time>2021-03-07T10:03:57.000Z</time>
      </trkpt>
      <trkpt lat="47.25338" lon="-2.25834">
        <ele>15.199999809265</ele>
        <time>2021-03-07T10:03:58.000Z</time>
      </trkpt>
      <trkpt lat="47.25338" lon="-2.25838">
        <ele>15.60000038147</ele>
        <time>2021-03-07T10:03:59.000Z</time>
      </trkpt>
      <trkpt lat="47.25338" lon="-2.25842">
        <ele>16</ele>
        <time>2021-03-07T10:04:00.000Z</time>
      </trkpt>
      <trkpt lat="47.25338" lon="-2.25844">
        <ele>16</ele>
        <time>2021-03-07T10:04:01.000Z</time>
      </trkpt>
      <trkpt lat="47.25339" lon="-2.25848">
        <ele>16</ele>
        <time>2021-03-07T10:04:06.000Z</time>
      </trkpt>
      <trkpt lat="47.2534" lon="-2.25845">
        <ele>16</ele>
        <time>2021-03-07T10:04:08.000Z</time>
      </trkpt>
      <trkpt lat="47.25342" lon="-2.2584">
        <ele>16</ele>
        <time>2021-03-07T10:04:11.000Z</time>
      </trkpt>
      <trkpt lat="47.25344" lon="-2.25831">
        <ele>15.39999961853</ele>
        <time>2021-03-07T10:04:14.000Z</time>
      </trkpt>
      <trkpt lat="47.25345" lon="-2.25827">
        <ele>15</ele>
        <time>2021-03-07T10:04:15.000Z</time>
      </trkpt>
      <trkpt lat="47.25346" lon="-2.25822">
        <ele>14.39999961853</ele>
        <time>2021-03-07T10:04:16.000Z</time>
      </trkpt>
      <trkpt lat="47.25347" lon="-2.25818">
        <ele>14</ele>
        <time>2021-03-07T10:04:17.000Z</time>
      </trkpt>
      <trkpt lat="47.25349" lon="-2.25814">
        <ele>13.39999961853</ele>
        <time>2021-03-07T10:04:18.000Z</time>
      </trkpt>
      <trkpt lat="47.25351" lon="-2.2581">
        <ele>12.800000190735</ele>
        <time>2021-03-07T10:04:19.000Z</time>
      </trkpt>
      <trkpt lat="47.25353" lon="-2.25808">
        <ele>12.199999809265</ele>
        <time>2021-03-07T10:04:20.000Z</time>
      </trkpt>
      <trkpt lat="47.25355" lon="-2.25805">
        <ele>11.60000038147</ele>
        <time>2021-03-07T10:04:21.000Z</time>
      </trkpt>
      <trkpt lat="47.25357" lon="-2.25802">
        <ele>11</ele>
        <time>2021-03-07T10:04:22.000Z</time>
      </trkpt>
      <trkpt lat="47.25359" lon="-2.25798">
        <ele>10.60000038147</ele>
        <time>2021-03-07T10:04:23.000Z</time>
      </trkpt>
      <trkpt lat="47.25362" lon="-2.25793">
        <ele>10</ele>
        <time>2021-03-07T10:04:24.000Z</time>
      </trkpt>
      <trkpt lat="47.25364" lon="-2.2579">
        <ele>9.6000003814697</ele>
        <time>2021-03-07T10:04:25.000Z</time>
      </trkpt>
      <trkpt lat="47.25365" lon="-2.25787">
        <ele>9</ele>
        <time>2021-03-07T10:04:26.000Z</time>
      </trkpt>
      <trkpt lat="47.25367" lon="-2.25784">
        <ele>8.3999996185303</ele>
        <time>2021-03-07T10:04:27.000Z</time>
      </trkpt>
      <trkpt lat="47.25368" lon="-2.25783">
        <ele>7.5999999046326</ele>
        <time>2021-03-07T10:04:28.000Z</time>
      </trkpt>
      <trkpt lat="47.25369" lon="-2.25781">
        <ele>6.4000000953674</ele>
        <time>2021-03-07T10:04:29.000Z</time>
      </trkpt>
      <trkpt lat="47.25372" lon="-2.25778">
        <ele>6.4000000953674</ele>
        <time>2021-03-07T10:04:31.000Z</time>
      </trkpt>
      <trkpt lat="47.25378" lon="-2.25782">
        <ele>6.4000000953674</ele>
        <time>2021-03-07T10:04:34.000Z</time>
      </trkpt>
      <trkpt lat="47.2538" lon="-2.25786">
        <ele>6.4000000953674</ele>
        <time>2021-03-07T10:04:35.000Z</time>
      </trkpt>
      <trkpt lat="47.25389" lon="-2.25791">
        <ele>6.4000000953674</ele>
        <time>2021-03-07T10:04:37.000Z</time>
      </trkpt>
      <trkpt lat="47.25398" lon="-2.25791">
        <ele>6.4000000953674</ele>
        <time>2021-03-07T10:04:39.000Z</time>
      </trkpt>
      <trkpt lat="47.25408" lon="-2.25791">
        <ele>6.4000000953674</ele>
        <time>2021-03-07T10:04:42.000Z</time>
      </trkpt>
      <trkpt lat="47.25413" lon="-2.25791">
        <ele>6.4000000953674</ele>
        <time>2021-03-07T10:04:45.000Z</time>
      </trkpt>
      <trkpt lat="47.25419" lon="-2.25798">
        <ele>6.8000001907349</ele>
        <time>2021-03-07T10:04:50.000Z</time>
      </trkpt>
      <trkpt lat="47.2542" lon="-2.258">
        <ele>7.1999998092651</ele>
        <time>2021-03-07T10:04:51.000Z</time>
      </trkpt>
      <trkpt lat="47.25422" lon="-2.25801">
        <ele>7.8000001907349</ele>
        <time>2021-03-07T10:04:52.000Z</time>
      </trkpt>
      <trkpt lat="47.25423" lon="-2.25802">
        <ele>8.1999998092651</ele>
        <time>2021-03-07T10:04:53.000Z</time>
      </trkpt>
      <trkpt lat="47.25424" lon="-2.25804">
        <ele>8.6000003814697</ele>
        <time>2021-03-07T10:04:54.000Z</time>
      </trkpt>
      <trkpt lat="47.25425" lon="-2.25807">
        <ele>8.6000003814697</ele>
        <time>2021-03-07T10:04:55.000Z</time>
      </trkpt>
      <trkpt lat="47.25424" lon="-2.25818">
        <ele>8.6000003814697</ele>
        <time>2021-03-07T10:04:58.000Z</time>
      </trkpt>
      <trkpt lat="47.25428" lon="-2.25841">
        <ele>8.6000003814697</ele>
        <time>2021-03-07T10:05:03.000Z</time>
      </trkpt>
      <trkpt lat="47.25427" lon="-2.25847">
        <ele>8.6000003814697</ele>
        <time>2021-03-07T10:05:04.000Z</time>
      </trkpt>
      <trkpt lat="47.25428" lon="-2.25863">
        <ele>8.6000003814697</ele>
        <time>2021-03-07T10:05:07.000Z</time>
      </trkpt>
      <trkpt lat="47.25428" lon="-2.25891">
        <ele>8.6000003814697</ele>
        <time>2021-03-07T10:05:13.000Z</time>
      </trkpt>
      <trkpt lat="47.25429" lon="-2.25898">
        <ele>9</ele>
        <time>2021-03-07T10:05:15.000Z</time>
      </trkpt>
      <trkpt lat="47.25429" lon="-2.25902">
        <ele>9.3999996185303</ele>
        <time>2021-03-07T10:05:16.000Z</time>
      </trkpt>
      <trkpt lat="47.25429" lon="-2.25906">
        <ele>9.8000001907349</ele>
        <time>2021-03-07T10:05:17.000Z</time>
      </trkpt>
      <trkpt lat="47.2543" lon="-2.25909">
        <ele>10.199999809265</ele>
        <time>2021-03-07T10:05:18.000Z</time>
      </trkpt>
      <trkpt lat="47.2543" lon="-2.25912">
        <ele>10.800000190735</ele>
        <time>2021-03-07T10:05:19.000Z</time>
      </trkpt>
      <trkpt lat="47.25431" lon="-2.25916">
        <ele>10.800000190735</ele>
        <time>2021-03-07T10:05:20.000Z</time>
      </trkpt>
      <trkpt lat="47.25428" lon="-2.25933">
        <ele>10.800000190735</ele>
        <time>2021-03-07T10:05:24.000Z</time>
      </trkpt>
      <trkpt lat="47.25425" lon="-2.25937">
        <ele>10.800000190735</ele>
        <time>2021-03-07T10:05:25.000Z</time>
      </trkpt>
      <trkpt lat="47.25411" lon="-2.25953">
        <ele>10.800000190735</ele>
        <time>2021-03-07T10:05:29.000Z</time>
      </trkpt>
      <trkpt lat="47.25407" lon="-2.25967">
        <ele>10.800000190735</ele>
        <time>2021-03-07T10:05:33.000Z</time>
      </trkpt>
      <trkpt lat="47.25403" lon="-2.25976">
        <ele>10.800000190735</ele>
        <time>2021-03-07T10:05:38.000Z</time>
      </trkpt>
      <trkpt lat="47.25401" lon="-2.25977">
        <ele>10.800000190735</ele>
        <time>2021-03-07T10:05:39.000Z</time>
      </trkpt>
      <trkpt lat="47.25392" lon="-2.25979">
        <ele>10.800000190735</ele>
        <time>2021-03-07T10:05:45.000Z</time>
      </trkpt>
      <trkpt lat="47.25388" lon="-2.25979">
        <ele>10.800000190735</ele>
        <time>2021-03-07T10:05:47.000Z</time>
      </trkpt>
      <trkpt lat="47.25382" lon="-2.2598">
        <ele>11.199999809265</ele>
        <time>2021-03-07T10:05:50.000Z</time>
      </trkpt>
      <trkpt lat="47.2538" lon="-2.25981">
        <ele>11.60000038147</ele>
        <time>2021-03-07T10:05:51.000Z</time>
      </trkpt>
      <trkpt lat="47.25379" lon="-2.25981">
        <ele>12.199999809265</ele>
        <time>2021-03-07T10:05:52.000Z</time>
      </trkpt>
      <trkpt lat="47.25378" lon="-2.25981">
        <ele>12.60000038147</ele>
        <time>2021-03-07T10:05:53.000Z</time>
      </trkpt>
      <trkpt lat="47.25376" lon="-2.25981">
        <ele>13</ele>
        <time>2021-03-07T10:05:54.000Z</time>
      </trkpt>
      <trkpt lat="47.25375" lon="-2.25981">
        <ele>13.39999961853</ele>
        <time>2021-03-07T10:05:55.000Z</time>
      </trkpt>
      <trkpt lat="47.25374" lon="-2.25982">
        <ele>13.800000190735</ele>
        <time>2021-03-07T10:05:56.000Z</time>
      </trkpt>
      <trkpt lat="47.25372" lon="-2.25981">
        <ele>14.199999809265</ele>
        <time>2021-03-07T10:05:57.000Z</time>
      </trkpt>
      <trkpt lat="47.25371" lon="-2.2598">
        <ele>14.60000038147</ele>
        <time>2021-03-07T10:05:58.000Z</time>
      </trkpt>
      <trkpt lat="47.25369" lon="-2.2598">
        <ele>15</ele>
        <time>2021-03-07T10:05:59.000Z</time>
      </trkpt>
      <trkpt lat="47.25368" lon="-2.25979">
        <ele>15</ele>
        <time>2021-03-07T10:06:00.000Z</time>
      </trkpt>
      <trkpt lat="47.25367" lon="-2.25979">
        <ele>15.39999961853</ele>
        <time>2021-03-07T10:06:01.000Z</time>
      </trkpt>
      <trkpt lat="47.25366" lon="-2.2598">
        <ele>16</ele>
        <time>2021-03-07T10:06:02.000Z</time>
      </trkpt>
      <trkpt lat="47.25364" lon="-2.2598">
        <ele>16.39999961853</ele>
        <time>2021-03-07T10:06:03.000Z</time>
      </trkpt>
      <trkpt lat="47.25363" lon="-2.25979">
        <ele>16.799999237061</ele>
        <time>2021-03-07T10:06:04.000Z</time>
      </trkpt>
      <trkpt lat="47.25361" lon="-2.2598">
        <ele>17.200000762939</ele>
        <time>2021-03-07T10:06:05.000Z</time>
      </trkpt>
      <trkpt lat="47.2536" lon="-2.25981">
        <ele>17.200000762939</ele>
        <time>2021-03-07T10:06:06.000Z</time>
      </trkpt>
      <trkpt lat="47.2536" lon="-2.25986">
        <ele>17.200000762939</ele>
        <time>2021-03-07T10:06:09.000Z</time>
      </trkpt>
      <trkpt lat="47.2536" lon="-2.25992">
        <ele>17.200000762939</ele>
        <time>2021-03-07T10:06:11.000Z</time>
      </trkpt>
      <trkpt lat="47.25361" lon="-2.25996">
        <ele>17.60000038147</ele>
        <time>2021-03-07T10:06:13.000Z</time>
      </trkpt>
      <trkpt lat="47.2536" lon="-2.25999">
        <ele>18</ele>
        <time>2021-03-07T10:06:14.000Z</time>
      </trkpt>
      <trkpt lat="47.25361" lon="-2.26001">
        <ele>18.39999961853</ele>
        <time>2021-03-07T10:06:15.000Z</time>
      </trkpt>
      <trkpt lat="47.2536" lon="-2.26002">
        <ele>18.799999237061</ele>
        <time>2021-03-07T10:06:16.000Z</time>
      </trkpt>
      <trkpt lat="47.2536" lon="-2.26004">
        <ele>19.39999961853</ele>
        <time>2021-03-07T10:06:17.000Z</time>
      </trkpt>
      <trkpt lat="47.25357" lon="-2.26009">
        <ele>19.39999961853</ele>
        <time>2021-03-07T10:06:22.000Z</time>
      </trkpt>
      <trkpt lat="47.25354" lon="-2.26009">
        <ele>19.39999961853</ele>
        <time>2021-03-07T10:06:24.000Z</time>
      </trkpt>
      <trkpt lat="47.25352" lon="-2.2601">
        <ele>19.799999237061</ele>
        <time>2021-03-07T10:06:26.000Z</time>
      </trkpt>
      <trkpt lat="47.2535" lon="-2.2601">
        <ele>20.200000762939</ele>
        <time>2021-03-07T10:06:27.000Z</time>
      </trkpt>
      <trkpt lat="47.25348" lon="-2.2601">
        <ele>20.60000038147</ele>
        <time>2021-03-07T10:06:28.000Z</time>
      </trkpt>
      <trkpt lat="47.25346" lon="-2.2601">
        <ele>21</ele>
        <time>2021-03-07T10:06:29.000Z</time>
      </trkpt>
      <trkpt lat="47.25344" lon="-2.2601">
        <ele>21.39999961853</ele>
        <time>2021-03-07T10:06:30.000Z</time>
      </trkpt>
      <trkpt lat="47.25338" lon="-2.26016">
        <ele>21.39999961853</ele>
        <time>2021-03-07T10:06:35.000Z</time>
      </trkpt>
      <trkpt lat="47.25332" lon="-2.26021">
        <ele>21.39999961853</ele>
        <time>2021-03-07T10:06:41.000Z</time>
      </trkpt>
      <trkpt lat="47.25331" lon="-2.26017">
        <ele>21.39999961853</ele>
        <time>2021-03-07T10:06:44.000Z</time>
      </trkpt>
      <trkpt lat="47.25332" lon="-2.26014">
        <ele>21.39999961853</ele>
        <time>2021-03-07T10:06:46.000Z</time>
      </trkpt>
      <trkpt lat="47.25333" lon="-2.26013">
        <ele>21.39999961853</ele>
        <time>2021-03-07T10:06:47.000Z</time>
      </trkpt>
      <trkpt lat="47.25336" lon="-2.26012">
        <ele>21.39999961853</ele>
        <time>2021-03-07T10:06:50.000Z</time>
      </trkpt>
      <trkpt lat="47.25341" lon="-2.26011">
        <ele>21.39999961853</ele>
        <time>2021-03-07T10:06:53.000Z</time>
      </trkpt>
      <trkpt lat="47.25349" lon="-2.26012">
        <ele>21.39999961853</ele>
        <time>2021-03-07T10:06:56.000Z</time>
      </trkpt>
      <trkpt lat="47.25349" lon="-2.26018">
        <ele>21.39999961853</ele>
        <time>2021-03-07T10:06:58.000Z</time>
      </trkpt>
      <trkpt lat="47.2534" lon="-2.2603">
        <ele>21.39999961853</ele>
        <time>2021-03-07T10:07:02.000Z</time>
      </trkpt>
      <trkpt lat="47.25332" lon="-2.26033">
        <ele>21.39999961853</ele>
        <time>2021-03-07T10:07:05.000Z</time>
      </trkpt>
      <trkpt lat="47.2533" lon="-2.26034">
        <ele>21.799999237061</ele>
        <time>2021-03-07T10:07:06.000Z</time>
      </trkpt>
      <trkpt lat="47.25329" lon="-2.26035">
        <ele>22.200000762939</ele>
        <time>2021-03-07T10:07:07.000Z</time>
      </trkpt>
      <trkpt lat="47.25328" lon="-2.26034">
        <ele>22.60000038147</ele>
        <time>2021-03-07T10:07:08.000Z</time>
      </trkpt>
      <trkpt lat="47.25328" lon="-2.26032">
        <ele>23</ele>
        <time>2021-03-07T10:07:09.000Z</time>
      </trkpt>
      <trkpt lat="47.25327" lon="-2.26031">
        <ele>23.60000038147</ele>
        <time>2021-03-07T10:07:10.000Z</time>
      </trkpt>
      <trkpt lat="47.25324" lon="-2.26025">
        <ele>23.60000038147</ele>
        <time>2021-03-07T10:07:15.000Z</time>
      </trkpt>
      <trkpt lat="47.25325" lon="-2.26023">
        <ele>23.60000038147</ele>
        <time>2021-03-07T10:07:16.000Z</time>
      </trkpt>
      <trkpt lat="47.2533" lon="-2.26018">
        <ele>23.60000038147</ele>
        <time>2021-03-07T10:07:20.000Z</time>
      </trkpt>
      <trkpt lat="47.25333" lon="-2.26015">
        <ele>23.60000038147</ele>
        <time>2021-03-07T10:07:22.000Z</time>
      </trkpt>
      <trkpt lat="47.25339" lon="-2.26012">
        <ele>23.60000038147</ele>
        <time>2021-03-07T10:07:26.000Z</time>
      </trkpt>
      <trkpt lat="47.25355" lon="-2.26013">
        <ele>23.60000038147</ele>
        <time>2021-03-07T10:07:31.000Z</time>
      </trkpt>
      <trkpt lat="47.25358" lon="-2.26014">
        <ele>23</ele>
        <time>2021-03-07T10:07:32.000Z</time>
      </trkpt>
      <trkpt lat="47.25361" lon="-2.26014">
        <ele>22.60000038147</ele>
        <time>2021-03-07T10:07:33.000Z</time>
      </trkpt>
      <trkpt lat="47.25365" lon="-2.26014">
        <ele>22.200000762939</ele>
        <time>2021-03-07T10:07:34.000Z</time>
      </trkpt>
      <trkpt lat="47.25368" lon="-2.26015">
        <ele>21.799999237061</ele>
        <time>2021-03-07T10:07:35.000Z</time>
      </trkpt>
      <trkpt lat="47.25371" lon="-2.26016">
        <ele>21.39999961853</ele>
        <time>2021-03-07T10:07:36.000Z</time>
      </trkpt>
      <trkpt lat="47.25373" lon="-2.26016">
        <ele>21</ele>
        <time>2021-03-07T10:07:37.000Z</time>
      </trkpt>
      <trkpt lat="47.25376" lon="-2.26018">
        <ele>20.60000038147</ele>
        <time>2021-03-07T10:07:38.000Z</time>
      </trkpt>
      <trkpt lat="47.25377" lon="-2.2602">
        <ele>20.200000762939</ele>
        <time>2021-03-07T10:07:39.000Z</time>
      </trkpt>
      <trkpt lat="47.25379" lon="-2.26023">
        <ele>19.799999237061</ele>
        <time>2021-03-07T10:07:40.000Z</time>
      </trkpt>
      <trkpt lat="47.2538" lon="-2.26027">
        <ele>19.39999961853</ele>
        <time>2021-03-07T10:07:41.000Z</time>
      </trkpt>
      <trkpt lat="47.25381" lon="-2.26031">
        <ele>19</ele>
        <time>2021-03-07T10:07:42.000Z</time>
      </trkpt>
      <trkpt lat="47.25382" lon="-2.26033">
        <ele>18.60000038147</ele>
        <time>2021-03-07T10:07:43.000Z</time>
      </trkpt>
      <trkpt lat="47.25384" lon="-2.26037">
        <ele>18.200000762939</ele>
        <time>2021-03-07T10:07:44.000Z</time>
      </trkpt>
      <trkpt lat="47.25385" lon="-2.26041">
        <ele>17.799999237061</ele>
        <time>2021-03-07T10:07:45.000Z</time>
      </trkpt>
      <trkpt lat="47.25385" lon="-2.26045">
        <ele>17.200000762939</ele>
        <time>2021-03-07T10:07:46.000Z</time>
      </trkpt>
      <trkpt lat="47.25386" lon="-2.26052">
        <ele>17.200000762939</ele>
        <time>2021-03-07T10:07:47.000Z</time>
      </trkpt>
      <trkpt lat="47.25388" lon="-2.2607">
        <ele>17.200000762939</ele>
        <time>2021-03-07T10:07:50.000Z</time>
      </trkpt>
      <trkpt lat="47.25388" lon="-2.2608">
        <ele>17.200000762939</ele>
        <time>2021-03-07T10:07:52.000Z</time>
      </trkpt>
      <trkpt lat="47.25393" lon="-2.26094">
        <ele>17.200000762939</ele>
        <time>2021-03-07T10:07:55.000Z</time>
      </trkpt>
      <trkpt lat="47.25398" lon="-2.26099">
        <ele>17.200000762939</ele>
        <time>2021-03-07T10:07:56.000Z</time>
      </trkpt>
      <trkpt lat="47.25409" lon="-2.26121">
        <ele>17.200000762939</ele>
        <time>2021-03-07T10:07:59.000Z</time>
      </trkpt>
      <trkpt lat="47.2541" lon="-2.26129">
        <ele>17.200000762939</ele>
        <time>2021-03-07T10:08:00.000Z</time>
      </trkpt>
      <trkpt lat="47.25414" lon="-2.26137">
        <ele>16.799999237061</ele>
        <time>2021-03-07T10:08:01.000Z</time>
      </trkpt>
      <trkpt lat="47.25416" lon="-2.26144">
        <ele>16.39999961853</ele>
        <time>2021-03-07T10:08:02.000Z</time>
      </trkpt>
      <trkpt lat="47.25417" lon="-2.26152">
        <ele>15.800000190735</ele>
        <time>2021-03-07T10:08:03.000Z</time>
      </trkpt>
      <trkpt lat="47.25417" lon="-2.26158">
        <ele>15.39999961853</ele>
        <time>2021-03-07T10:08:04.000Z</time>
      </trkpt>
      <trkpt lat="47.25418" lon="-2.26166">
        <ele>15</ele>
        <time>2021-03-07T10:08:05.000Z</time>
      </trkpt>
      <trkpt lat="47.25419" lon="-2.26172">
        <ele>15</ele>
        <time>2021-03-07T10:08:06.000Z</time>
      </trkpt>
      <trkpt lat="47.25419" lon="-2.2618">
        <ele>15</ele>
        <time>2021-03-07T10:08:07.000Z</time>
      </trkpt>
      <trkpt lat="47.25415" lon="-2.26196">
        <ele>15</ele>
        <time>2021-03-07T10:08:09.000Z</time>
      </trkpt>
      <trkpt lat="47.25414" lon="-2.26204">
        <ele>15</ele>
        <time>2021-03-07T10:08:11.000Z</time>
      </trkpt>
      <trkpt lat="47.25414" lon="-2.26213">
        <ele>15</ele>
        <time>2021-03-07T10:08:13.000Z</time>
      </trkpt>
      <trkpt lat="47.25414" lon="-2.26218">
        <ele>15.39999961853</ele>
        <time>2021-03-07T10:08:14.000Z</time>
      </trkpt>
      <trkpt lat="47.25414" lon="-2.26224">
        <ele>15.800000190735</ele>
        <time>2021-03-07T10:08:15.000Z</time>
      </trkpt>
      <trkpt lat="47.25415" lon="-2.26229">
        <ele>16.200000762939</ele>
        <time>2021-03-07T10:08:16.000Z</time>
      </trkpt>
      <trkpt lat="47.25416" lon="-2.26234">
        <ele>16.60000038147</ele>
        <time>2021-03-07T10:08:17.000Z</time>
      </trkpt>
      <trkpt lat="47.25417" lon="-2.26239">
        <ele>17</ele>
        <time>2021-03-07T10:08:18.000Z</time>
      </trkpt>
      <trkpt lat="47.25417" lon="-2.26245">
        <ele>17</ele>
        <time>2021-03-07T10:08:19.000Z</time>
      </trkpt>
      <trkpt lat="47.25418" lon="-2.26276">
        <ele>17</ele>
        <time>2021-03-07T10:08:24.000Z</time>
      </trkpt>
      <trkpt lat="47.25427" lon="-2.2629">
        <ele>17</ele>
        <time>2021-03-07T10:08:28.000Z</time>
      </trkpt>
      <trkpt lat="47.25428" lon="-2.26292">
        <ele>17.39999961853</ele>
        <time>2021-03-07T10:08:29.000Z</time>
      </trkpt>
      <trkpt lat="47.2543" lon="-2.26293">
        <ele>17.799999237061</ele>
        <time>2021-03-07T10:08:30.000Z</time>
      </trkpt>
      <trkpt lat="47.25432" lon="-2.26294">
        <ele>18.39999961853</ele>
        <time>2021-03-07T10:08:31.000Z</time>
      </trkpt>
      <trkpt lat="47.25435" lon="-2.26294">
        <ele>18.799999237061</ele>
        <time>2021-03-07T10:08:32.000Z</time>
      </trkpt>
      <trkpt lat="47.25438" lon="-2.26294">
        <ele>19.200000762939</ele>
        <time>2021-03-07T10:08:33.000Z</time>
      </trkpt>
      <trkpt lat="47.25441" lon="-2.26298">
        <ele>19.200000762939</ele>
        <time>2021-03-07T10:08:36.000Z</time>
      </trkpt>
      <trkpt lat="47.25446" lon="-2.263">
        <ele>19.200000762939</ele>
        <time>2021-03-07T10:08:42.000Z</time>
      </trkpt>
      <trkpt lat="47.25455" lon="-2.26296">
        <ele>19.200000762939</ele>
        <time>2021-03-07T10:08:48.000Z</time>
      </trkpt>
      <trkpt lat="47.25457" lon="-2.26296">
        <ele>19.200000762939</ele>
        <time>2021-03-07T10:08:49.000Z</time>
      </trkpt>
      <trkpt lat="47.25459" lon="-2.26292">
        <ele>19.60000038147</ele>
        <time>2021-03-07T10:08:51.000Z</time>
      </trkpt>
      <trkpt lat="47.2546" lon="-2.26291">
        <ele>20</ele>
        <time>2021-03-07T10:08:52.000Z</time>
      </trkpt>
      <trkpt lat="47.25461" lon="-2.26289">
        <ele>20.60000038147</ele>
        <time>2021-03-07T10:08:53.000Z</time>
      </trkpt>
      <trkpt lat="47.25462" lon="-2.26288">
        <ele>21</ele>
        <time>2021-03-07T10:08:54.000Z</time>
      </trkpt>
      <trkpt lat="47.25464" lon="-2.26287">
        <ele>21.39999961853</ele>
        <time>2021-03-07T10:08:55.000Z</time>
      </trkpt>
      <trkpt lat="47.25465" lon="-2.26287">
        <ele>22</ele>
        <time>2021-03-07T10:08:56.000Z</time>
      </trkpt>
      <trkpt lat="47.25466" lon="-2.26289">
        <ele>22.39999961853</ele>
        <time>2021-03-07T10:08:57.000Z</time>
      </trkpt>
      <trkpt lat="47.25467" lon="-2.2629">
        <ele>23</ele>
        <time>2021-03-07T10:08:58.000Z</time>
      </trkpt>
      <trkpt lat="47.25467" lon="-2.26291">
        <ele>23.39999961853</ele>
        <time>2021-03-07T10:08:59.000Z</time>
      </trkpt>
      <trkpt lat="47.25468" lon="-2.26293">
        <ele>23.799999237061</ele>
        <time>2021-03-07T10:09:00.000Z</time>
      </trkpt>
      <trkpt lat="47.25469" lon="-2.26296">
        <ele>24.200000762939</ele>
        <time>2021-03-07T10:09:01.000Z</time>
      </trkpt>
      <trkpt lat="47.2547" lon="-2.26298">
        <ele>24.60000038147</ele>
        <time>2021-03-07T10:09:02.000Z</time>
      </trkpt>
      <trkpt lat="47.2547" lon="-2.26302">
        <ele>25</ele>
        <time>2021-03-07T10:09:03.000Z</time>
      </trkpt>
      <trkpt lat="47.2547" lon="-2.26306">
        <ele>25.60000038147</ele>
        <time>2021-03-07T10:09:04.000Z</time>
      </trkpt>
      <trkpt lat="47.25472" lon="-2.26323">
        <ele>25.60000038147</ele>
        <time>2021-03-07T10:09:09.000Z</time>
      </trkpt>
      <trkpt lat="47.25469" lon="-2.26333">
        <ele>25.60000038147</ele>
        <time>2021-03-07T10:09:15.000Z</time>
      </trkpt>
      <trkpt lat="47.25468" lon="-2.26334">
        <ele>25.60000038147</ele>
        <time>2021-03-07T10:09:16.000Z</time>
      </trkpt>
      <trkpt lat="47.2546" lon="-2.26343">
        <ele>25.60000038147</ele>
        <time>2021-03-07T10:09:19.000Z</time>
      </trkpt>
      <trkpt lat="47.25458" lon="-2.26351">
        <ele>25</ele>
        <time>2021-03-07T10:09:20.000Z</time>
      </trkpt>
      <trkpt lat="47.25458" lon="-2.26359">
        <ele>24.39999961853</ele>
        <time>2021-03-07T10:09:21.000Z</time>
      </trkpt>
      <trkpt lat="47.25457" lon="-2.26366">
        <ele>23.799999237061</ele>
        <time>2021-03-07T10:09:22.000Z</time>
      </trkpt>
      <trkpt lat="47.25456" lon="-2.26373">
        <ele>23.39999961853</ele>
        <time>2021-03-07T10:09:23.000Z</time>
      </trkpt>
      <trkpt lat="47.25455" lon="-2.2638">
        <ele>22.799999237061</ele>
        <time>2021-03-07T10:09:24.000Z</time>
      </trkpt>
      <trkpt lat="47.25451" lon="-2.26414">
        <ele>22.799999237061</ele>
        <time>2021-03-07T10:09:29.000Z</time>
      </trkpt>
      <trkpt lat="47.2545" lon="-2.2643">
        <ele>22.799999237061</ele>
        <time>2021-03-07T10:09:32.000Z</time>
      </trkpt>
      <trkpt lat="47.25448" lon="-2.26431">
        <ele>22.799999237061</ele>
        <time>2021-03-07T10:09:33.000Z</time>
      </trkpt>
      <trkpt lat="47.25433" lon="-2.26434">
        <ele>22.799999237061</ele>
        <time>2021-03-07T10:09:37.000Z</time>
      </trkpt>
      <trkpt lat="47.2543" lon="-2.26438">
        <ele>22.799999237061</ele>
        <time>2021-03-07T10:09:38.000Z</time>
      </trkpt>
      <trkpt lat="47.25428" lon="-2.26449">
        <ele>22.799999237061</ele>
        <time>2021-03-07T10:09:40.000Z</time>
      </trkpt>
      <trkpt lat="47.25427" lon="-2.2648">
        <ele>22.799999237061</ele>
        <time>2021-03-07T10:09:46.000Z</time>
      </trkpt>
      <trkpt lat="47.25427" lon="-2.26484">
        <ele>23.200000762939</ele>
        <time>2021-03-07T10:09:47.000Z</time>
      </trkpt>
      <trkpt lat="47.25427" lon="-2.26487">
        <ele>24</ele>
        <time>2021-03-07T10:09:48.000Z</time>
      </trkpt>
      <trkpt lat="47.25426" lon="-2.26491">
        <ele>24.39999961853</ele>
        <time>2021-03-07T10:09:49.000Z</time>
      </trkpt>
      <trkpt lat="47.25426" lon="-2.26494">
        <ele>24.799999237061</ele>
        <time>2021-03-07T10:09:50.000Z</time>
      </trkpt>
      <trkpt lat="47.25426" lon="-2.26497">
        <ele>24.799999237061</ele>
        <time>2021-03-07T10:09:51.000Z</time>
      </trkpt>
      <trkpt lat="47.25427" lon="-2.26503">
        <ele>25.39999961853</ele>
        <time>2021-03-07T10:09:53.000Z</time>
      </trkpt>
      <trkpt lat="47.25427" lon="-2.26506">
        <ele>25.799999237061</ele>
        <time>2021-03-07T10:09:54.000Z</time>
      </trkpt>
      <trkpt lat="47.25427" lon="-2.26509">
        <ele>26.200000762939</ele>
        <time>2021-03-07T10:09:55.000Z</time>
      </trkpt>
      <trkpt lat="47.25428" lon="-2.26511">
        <ele>26.60000038147</ele>
        <time>2021-03-07T10:09:56.000Z</time>
      </trkpt>
      <trkpt lat="47.2543" lon="-2.26512">
        <ele>27.200000762939</ele>
        <time>2021-03-07T10:09:57.000Z</time>
      </trkpt>
      <trkpt lat="47.2544" lon="-2.26509">
        <ele>27.200000762939</ele>
        <time>2021-03-07T10:10:01.000Z</time>
      </trkpt>
      <trkpt lat="47.25455" lon="-2.26507">
        <ele>27.200000762939</ele>
        <time>2021-03-07T10:10:06.000Z</time>
      </trkpt>
      <trkpt lat="47.2547" lon="-2.26527">
        <ele>27.200000762939</ele>
        <time>2021-03-07T10:10:11.000Z</time>
      </trkpt>
      <trkpt lat="47.25483" lon="-2.26557">
        <ele>27.200000762939</ele>
        <time>2021-03-07T10:10:18.000Z</time>
      </trkpt>
      <trkpt lat="47.25487" lon="-2.26588">
        <ele>27.200000762939</ele>
        <time>2021-03-07T10:10:25.000Z</time>
      </trkpt>
      <trkpt lat="47.25486" lon="-2.26623">
        <ele>27.200000762939</ele>
        <time>2021-03-07T10:10:32.000Z</time>
      </trkpt>
      <trkpt lat="47.25487" lon="-2.26659">
        <ele>27.60000038147</ele>
        <time>2021-03-07T10:10:39.000Z</time>
      </trkpt>
      <trkpt lat="47.25487" lon="-2.26664">
        <ele>28</ele>
        <time>2021-03-07T10:10:40.000Z</time>
      </trkpt>
      <trkpt lat="47.25487" lon="-2.26668">
        <ele>28.39999961853</ele>
        <time>2021-03-07T10:10:41.000Z</time>
      </trkpt>
      <trkpt lat="47.25486" lon="-2.26673">
        <ele>28.799999237061</ele>
        <time>2021-03-07T10:10:42.000Z</time>
      </trkpt>
      <trkpt lat="47.25486" lon="-2.26677">
        <ele>29.39999961853</ele>
        <time>2021-03-07T10:10:43.000Z</time>
      </trkpt>
      <trkpt lat="47.25483" lon="-2.26688">
        <ele>29.39999961853</ele>
        <time>2021-03-07T10:10:46.000Z</time>
      </trkpt>
      <trkpt lat="47.25477" lon="-2.26702">
        <ele>29.39999961853</ele>
        <time>2021-03-07T10:10:51.000Z</time>
      </trkpt>
      <trkpt lat="47.25475" lon="-2.26721">
        <ele>29.799999237061</ele>
        <time>2021-03-07T10:10:56.000Z</time>
      </trkpt>
      <trkpt lat="47.25476" lon="-2.26726">
        <ele>30.200000762939</ele>
        <time>2021-03-07T10:10:57.000Z</time>
      </trkpt>
      <trkpt lat="47.25477" lon="-2.2673">
        <ele>30.60000038147</ele>
        <time>2021-03-07T10:10:58.000Z</time>
      </trkpt>
      <trkpt lat="47.25477" lon="-2.26736">
        <ele>31.200000762939</ele>
        <time>2021-03-07T10:10:59.000Z</time>
      </trkpt>
      <trkpt lat="47.25479" lon="-2.26741">
        <ele>31.60000038147</ele>
        <time>2021-03-07T10:11:00.000Z</time>
      </trkpt>
      <trkpt lat="47.25481" lon="-2.26746">
        <ele>31.60000038147</ele>
        <time>2021-03-07T10:11:01.000Z</time>
      </trkpt>
      <trkpt lat="47.25485" lon="-2.26755">
        <ele>32.400001525879</ele>
        <time>2021-03-07T10:11:03.000Z</time>
      </trkpt>
      <trkpt lat="47.25488" lon="-2.26759">
        <ele>32.799999237061</ele>
        <time>2021-03-07T10:11:04.000Z</time>
      </trkpt>
      <trkpt lat="47.25491" lon="-2.26764">
        <ele>33.400001525879</ele>
        <time>2021-03-07T10:11:05.000Z</time>
      </trkpt>
      <trkpt lat="47.25493" lon="-2.26769">
        <ele>33.799999237061</ele>
        <time>2021-03-07T10:11:06.000Z</time>
      </trkpt>
      <trkpt lat="47.25498" lon="-2.26778">
        <ele>33.799999237061</ele>
        <time>2021-03-07T10:11:08.000Z</time>
      </trkpt>
      <trkpt lat="47.25516" lon="-2.26805">
        <ele>33.799999237061</ele>
        <time>2021-03-07T10:11:15.000Z</time>
      </trkpt>
      <trkpt lat="47.25536" lon="-2.26829">
        <ele>33.799999237061</ele>
        <time>2021-03-07T10:11:22.000Z</time>
      </trkpt>
      <trkpt lat="47.2555" lon="-2.26843">
        <ele>34.200000762939</ele>
        <time>2021-03-07T10:11:27.000Z</time>
      </trkpt>
      <trkpt lat="47.25553" lon="-2.26846">
        <ele>35</ele>
        <time>2021-03-07T10:11:28.000Z</time>
      </trkpt>
      <trkpt lat="47.25556" lon="-2.26848">
        <ele>35.400001525879</ele>
        <time>2021-03-07T10:11:29.000Z</time>
      </trkpt>
      <trkpt lat="47.25559" lon="-2.26851">
        <ele>35.799999237061</ele>
        <time>2021-03-07T10:11:30.000Z</time>
      </trkpt>
      <trkpt lat="47.25573" lon="-2.26861">
        <ele>35.799999237061</ele>
        <time>2021-03-07T10:11:35.000Z</time>
      </trkpt>
      <trkpt lat="47.25579" lon="-2.26865">
        <ele>36.200000762939</ele>
        <time>2021-03-07T10:11:37.000Z</time>
      </trkpt>
      <trkpt lat="47.25582" lon="-2.26866">
        <ele>36.599998474121</ele>
        <time>2021-03-07T10:11:38.000Z</time>
      </trkpt>
      <trkpt lat="47.25584" lon="-2.26867">
        <ele>37</ele>
        <time>2021-03-07T10:11:39.000Z</time>
      </trkpt>
      <trkpt lat="47.25587" lon="-2.26869">
        <ele>37.400001525879</ele>
        <time>2021-03-07T10:11:40.000Z</time>
      </trkpt>
      <trkpt lat="47.2559" lon="-2.2687">
        <ele>37.799999237061</ele>
        <time>2021-03-07T10:11:41.000Z</time>
      </trkpt>
      <trkpt lat="47.25612" lon="-2.26879">
        <ele>38.400001525879</ele>
        <time>2021-03-07T10:11:49.000Z</time>
      </trkpt>
      <trkpt lat="47.25614" lon="-2.26879">
        <ele>38.799999237061</ele>
        <time>2021-03-07T10:11:50.000Z</time>
      </trkpt>
      <trkpt lat="47.25617" lon="-2.2688">
        <ele>39.200000762939</ele>
        <time>2021-03-07T10:11:51.000Z</time>
      </trkpt>
      <trkpt lat="47.2562" lon="-2.2688">
        <ele>39.599998474121</ele>
        <time>2021-03-07T10:11:52.000Z</time>
      </trkpt>
      <trkpt lat="47.25623" lon="-2.26879">
        <ele>40</ele>
        <time>2021-03-07T10:11:53.000Z</time>
      </trkpt>
      <trkpt lat="47.25626" lon="-2.26876">
        <ele>40</ele>
        <time>2021-03-07T10:11:54.000Z</time>
      </trkpt>
      <trkpt lat="47.25638" lon="-2.26851">
        <ele>40</ele>
        <time>2021-03-07T10:11:59.000Z</time>
      </trkpt>
      <trkpt lat="47.25657" lon="-2.26828">
        <ele>40</ele>
        <time>2021-03-07T10:12:05.000Z</time>
      </trkpt>
      <trkpt lat="47.25676" lon="-2.2682">
        <ele>40</ele>
        <time>2021-03-07T10:12:10.000Z</time>
      </trkpt>
      <trkpt lat="47.25685" lon="-2.26819">
        <ele>40</ele>
        <time>2021-03-07T10:12:12.000Z</time>
      </trkpt>
      <trkpt lat="47.25697" lon="-2.26819">
        <ele>40</ele>
        <time>2021-03-07T10:12:15.000Z</time>
      </trkpt>
      <trkpt lat="47.25702" lon="-2.2682">
        <ele>40</ele>
        <time>2021-03-07T10:12:16.000Z</time>
      </trkpt>
      <trkpt lat="47.25717" lon="-2.26827">
        <ele>40</ele>
        <time>2021-03-07T10:12:20.000Z</time>
      </trkpt>
      <trkpt lat="47.25728" lon="-2.26837">
        <ele>40</ele>
        <time>2021-03-07T10:12:23.000Z</time>
      </trkpt>
      <trkpt lat="47.25733" lon="-2.26847">
        <ele>40</ele>
        <time>2021-03-07T10:12:25.000Z</time>
      </trkpt>
      <trkpt lat="47.25746" lon="-2.26886">
        <ele>40</ele>
        <time>2021-03-07T10:12:32.000Z</time>
      </trkpt>
      <trkpt lat="47.25748" lon="-2.26895">
        <ele>40</ele>
        <time>2021-03-07T10:12:34.000Z</time>
      </trkpt>
      <trkpt lat="47.25752" lon="-2.26898">
        <ele>40</ele>
        <time>2021-03-07T10:12:35.000Z</time>
      </trkpt>
      <trkpt lat="47.25767" lon="-2.26897">
        <ele>40</ele>
        <time>2021-03-07T10:12:39.000Z</time>
      </trkpt>
      <trkpt lat="47.25775" lon="-2.26894">
        <ele>40</ele>
        <time>2021-03-07T10:12:41.000Z</time>
      </trkpt>
      <trkpt lat="47.25784" lon="-2.26891">
        <ele>40</ele>
        <time>2021-03-07T10:12:43.000Z</time>
      </trkpt>
      <trkpt lat="47.25806" lon="-2.26877">
        <ele>40</ele>
        <time>2021-03-07T10:12:48.000Z</time>
      </trkpt>
      <trkpt lat="47.25819" lon="-2.26872">
        <ele>40</ele>
        <time>2021-03-07T10:12:51.000Z</time>
      </trkpt>
      <trkpt lat="47.25844" lon="-2.26859">
        <ele>40</ele>
        <time>2021-03-07T10:12:56.000Z</time>
      </trkpt>
      <trkpt lat="47.25854" lon="-2.26855">
        <ele>40</ele>
        <time>2021-03-07T10:12:58.000Z</time>
      </trkpt>
      <trkpt lat="47.25897" lon="-2.2684">
        <ele>40</ele>
        <time>2021-03-07T10:13:06.000Z</time>
      </trkpt>
      <trkpt lat="47.25918" lon="-2.26826">
        <ele>39.599998474121</ele>
        <time>2021-03-07T10:13:10.000Z</time>
      </trkpt>
      <trkpt lat="47.25923" lon="-2.26822">
        <ele>39.200000762939</ele>
        <time>2021-03-07T10:13:11.000Z</time>
      </trkpt>
      <trkpt lat="47.25928" lon="-2.2682">
        <ele>38.799999237061</ele>
        <time>2021-03-07T10:13:12.000Z</time>
      </trkpt>
      <trkpt lat="47.25934" lon="-2.26818">
        <ele>38.400001525879</ele>
        <time>2021-03-07T10:13:13.000Z</time>
      </trkpt>
      <trkpt lat="47.2594" lon="-2.26818">
        <ele>38</ele>
        <time>2021-03-07T10:13:14.000Z</time>
      </trkpt>
      <trkpt lat="47.25952" lon="-2.26817">
        <ele>38</ele>
        <time>2021-03-07T10:13:16.000Z</time>
      </trkpt>
      <trkpt lat="47.25963" lon="-2.26816">
        <ele>37.599998474121</ele>
        <time>2021-03-07T10:13:18.000Z</time>
      </trkpt>
      <trkpt lat="47.25969" lon="-2.26816">
        <ele>37</ele>
        <time>2021-03-07T10:13:19.000Z</time>
      </trkpt>
      <trkpt lat="47.25975" lon="-2.26817">
        <ele>36.599998474121</ele>
        <time>2021-03-07T10:13:20.000Z</time>
      </trkpt>
      <trkpt lat="47.2598" lon="-2.26818">
        <ele>36.200000762939</ele>
        <time>2021-03-07T10:13:21.000Z</time>
      </trkpt>
      <trkpt lat="47.25984" lon="-2.26819">
        <ele>35.799999237061</ele>
        <time>2021-03-07T10:13:22.000Z</time>
      </trkpt>
      <trkpt lat="47.2599" lon="-2.26836">
        <ele>35.799999237061</ele>
        <time>2021-03-07T10:13:25.000Z</time>
      </trkpt>
      <trkpt lat="47.25992" lon="-2.2687">
        <ele>35.799999237061</ele>
        <time>2021-03-07T10:13:29.000Z</time>
      </trkpt>
      <trkpt lat="47.25993" lon="-2.26879">
        <ele>35.799999237061</ele>
        <time>2021-03-07T10:13:30.000Z</time>
      </trkpt>
      <trkpt lat="47.25996" lon="-2.26896">
        <ele>35.799999237061</ele>
        <time>2021-03-07T10:13:32.000Z</time>
      </trkpt>
      <trkpt lat="47.26002" lon="-2.26911">
        <ele>35.799999237061</ele>
        <time>2021-03-07T10:13:34.000Z</time>
      </trkpt>
      <trkpt lat="47.2601" lon="-2.26925">
        <ele>35.799999237061</ele>
        <time>2021-03-07T10:13:36.000Z</time>
      </trkpt>
      <trkpt lat="47.26021" lon="-2.26943">
        <ele>35.799999237061</ele>
        <time>2021-03-07T10:13:39.000Z</time>
      </trkpt>
      <trkpt lat="47.26025" lon="-2.26947">
        <ele>35.799999237061</ele>
        <time>2021-03-07T10:13:40.000Z</time>
      </trkpt>
      <trkpt lat="47.2604" lon="-2.26965">
        <ele>35.799999237061</ele>
        <time>2021-03-07T10:13:44.000Z</time>
      </trkpt>
      <trkpt lat="47.26061" lon="-2.26999">
        <ele>35.799999237061</ele>
        <time>2021-03-07T10:13:49.000Z</time>
      </trkpt>
      <trkpt lat="47.26064" lon="-2.27007">
        <ele>35.799999237061</ele>
        <time>2021-03-07T10:13:50.000Z</time>
      </trkpt>
      <trkpt lat="47.26072" lon="-2.27031">
        <ele>35.799999237061</ele>
        <time>2021-03-07T10:13:53.000Z</time>
      </trkpt>
      <trkpt lat="47.26081" lon="-2.27066">
        <ele>35.799999237061</ele>
        <time>2021-03-07T10:13:57.000Z</time>
      </trkpt>
      <trkpt lat="47.26086" lon="-2.27092">
        <ele>35.799999237061</ele>
        <time>2021-03-07T10:14:00.000Z</time>
      </trkpt>
      <trkpt lat="47.26094" lon="-2.27138">
        <ele>35.799999237061</ele>
        <time>2021-03-07T10:14:05.000Z</time>
      </trkpt>
      <trkpt lat="47.26099" lon="-2.27155">
        <ele>35.799999237061</ele>
        <time>2021-03-07T10:14:07.000Z</time>
      </trkpt>
      <trkpt lat="47.26112" lon="-2.2719">
        <ele>35.799999237061</ele>
        <time>2021-03-07T10:14:11.000Z</time>
      </trkpt>
      <trkpt lat="47.26116" lon="-2.27199">
        <ele>35.799999237061</ele>
        <time>2021-03-07T10:14:12.000Z</time>
      </trkpt>
      <trkpt lat="47.26134" lon="-2.27247">
        <ele>35.799999237061</ele>
        <time>2021-03-07T10:14:18.000Z</time>
      </trkpt>
      <trkpt lat="47.26142" lon="-2.27279">
        <ele>35.799999237061</ele>
        <time>2021-03-07T10:14:22.000Z</time>
      </trkpt>
      <trkpt lat="47.26143" lon="-2.27287">
        <ele>35.799999237061</ele>
        <time>2021-03-07T10:14:23.000Z</time>
      </trkpt>
      <trkpt lat="47.26144" lon="-2.27295">
        <ele>35.799999237061</ele>
        <time>2021-03-07T10:14:24.000Z</time>
      </trkpt>
      <trkpt lat="47.26151" lon="-2.27314">
        <ele>35.799999237061</ele>
        <time>2021-03-07T10:14:27.000Z</time>
      </trkpt>
      <trkpt lat="47.26166" lon="-2.2732">
        <ele>35.799999237061</ele>
        <time>2021-03-07T10:14:30.000Z</time>
      </trkpt>
      <trkpt lat="47.26172" lon="-2.27319">
        <ele>35.799999237061</ele>
        <time>2021-03-07T10:14:31.000Z</time>
      </trkpt>
      <trkpt lat="47.26201" lon="-2.27313">
        <ele>35.799999237061</ele>
        <time>2021-03-07T10:14:36.000Z</time>
      </trkpt>
      <trkpt lat="47.26207" lon="-2.27313">
        <ele>35.799999237061</ele>
        <time>2021-03-07T10:14:37.000Z</time>
      </trkpt>
      <trkpt lat="47.26233" lon="-2.27316">
        <ele>35.799999237061</ele>
        <time>2021-03-07T10:14:41.000Z</time>
      </trkpt>
      <trkpt lat="47.26238" lon="-2.27317">
        <ele>35.799999237061</ele>
        <time>2021-03-07T10:14:42.000Z</time>
      </trkpt>
      <trkpt lat="47.26263" lon="-2.27321">
        <ele>35.799999237061</ele>
        <time>2021-03-07T10:14:46.000Z</time>
      </trkpt>
      <trkpt lat="47.26301" lon="-2.27323">
        <ele>35.799999237061</ele>
        <time>2021-03-07T10:14:52.000Z</time>
      </trkpt>
      <trkpt lat="47.26307" lon="-2.27324">
        <ele>35.400001525879</ele>
        <time>2021-03-07T10:14:53.000Z</time>
      </trkpt>
      <trkpt lat="47.26314" lon="-2.27325">
        <ele>35</ele>
        <time>2021-03-07T10:14:54.000Z</time>
      </trkpt>
      <trkpt lat="47.2632" lon="-2.27326">
        <ele>34.599998474121</ele>
        <time>2021-03-07T10:14:55.000Z</time>
      </trkpt>
      <trkpt lat="47.26326" lon="-2.27326">
        <ele>34.200000762939</ele>
        <time>2021-03-07T10:14:56.000Z</time>
      </trkpt>
      <trkpt lat="47.26333" lon="-2.27327">
        <ele>33.799999237061</ele>
        <time>2021-03-07T10:14:57.000Z</time>
      </trkpt>
      <trkpt lat="47.26339" lon="-2.27328">
        <ele>33.799999237061</ele>
        <time>2021-03-07T10:14:58.000Z</time>
      </trkpt>
      <trkpt lat="47.26375" lon="-2.27329">
        <ele>33.799999237061</ele>
        <time>2021-03-07T10:15:04.000Z</time>
      </trkpt>
      <trkpt lat="47.26406" lon="-2.2733">
        <ele>33.799999237061</ele>
        <time>2021-03-07T10:15:09.000Z</time>
      </trkpt>
      <trkpt lat="47.26412" lon="-2.27332">
        <ele>33.799999237061</ele>
        <time>2021-03-07T10:15:10.000Z</time>
      </trkpt>
      <trkpt lat="47.26423" lon="-2.27337">
        <ele>33.400001525879</ele>
        <time>2021-03-07T10:15:12.000Z</time>
      </trkpt>
      <trkpt lat="47.26427" lon="-2.27344">
        <ele>33</ele>
        <time>2021-03-07T10:15:13.000Z</time>
      </trkpt>
      <trkpt lat="47.2643" lon="-2.27351">
        <ele>32.599998474121</ele>
        <time>2021-03-07T10:15:14.000Z</time>
      </trkpt>
      <trkpt lat="47.26432" lon="-2.2736">
        <ele>32.200000762939</ele>
        <time>2021-03-07T10:15:15.000Z</time>
      </trkpt>
      <trkpt lat="47.26435" lon="-2.27368">
        <ele>31.799999237061</ele>
        <time>2021-03-07T10:15:16.000Z</time>
      </trkpt>
      <trkpt lat="47.26438" lon="-2.27376">
        <ele>31.799999237061</ele>
        <time>2021-03-07T10:15:17.000Z</time>
      </trkpt>
      <trkpt lat="47.26452" lon="-2.27417">
        <ele>31.799999237061</ele>
        <time>2021-03-07T10:15:22.000Z</time>
      </trkpt>
      <trkpt lat="47.26455" lon="-2.27426">
        <ele>31.200000762939</ele>
        <time>2021-03-07T10:15:23.000Z</time>
      </trkpt>
      <trkpt lat="47.26458" lon="-2.27435">
        <ele>30.799999237061</ele>
        <time>2021-03-07T10:15:24.000Z</time>
      </trkpt>
      <trkpt lat="47.26461" lon="-2.27444">
        <ele>30.39999961853</ele>
        <time>2021-03-07T10:15:25.000Z</time>
      </trkpt>
      <trkpt lat="47.26464" lon="-2.27453">
        <ele>30</ele>
        <time>2021-03-07T10:15:26.000Z</time>
      </trkpt>
      <trkpt lat="47.26466" lon="-2.27462">
        <ele>29.60000038147</ele>
        <time>2021-03-07T10:15:27.000Z</time>
      </trkpt>
      <trkpt lat="47.26471" lon="-2.2748">
        <ele>29.60000038147</ele>
        <time>2021-03-07T10:15:29.000Z</time>
      </trkpt>
      <trkpt lat="47.26485" lon="-2.27545">
        <ele>29.60000038147</ele>
        <time>2021-03-07T10:15:36.000Z</time>
      </trkpt>
      <trkpt lat="47.26487" lon="-2.27555">
        <ele>29.200000762939</ele>
        <time>2021-03-07T10:15:37.000Z</time>
      </trkpt>
      <trkpt lat="47.26488" lon="-2.27563">
        <ele>28.799999237061</ele>
        <time>2021-03-07T10:15:38.000Z</time>
      </trkpt>
      <trkpt lat="47.2649" lon="-2.2757">
        <ele>28.39999961853</ele>
        <time>2021-03-07T10:15:39.000Z</time>
      </trkpt>
      <trkpt lat="47.26493" lon="-2.27575">
        <ele>27.799999237061</ele>
        <time>2021-03-07T10:15:40.000Z</time>
      </trkpt>
      <trkpt lat="47.26497" lon="-2.27578">
        <ele>27.39999961853</ele>
        <time>2021-03-07T10:15:41.000Z</time>
      </trkpt>
      <trkpt lat="47.26506" lon="-2.27578">
        <ele>27</ele>
        <time>2021-03-07T10:15:43.000Z</time>
      </trkpt>
      <trkpt lat="47.2651" lon="-2.27578">
        <ele>26.60000038147</ele>
        <time>2021-03-07T10:15:44.000Z</time>
      </trkpt>
      <trkpt lat="47.26514" lon="-2.27577">
        <ele>26.200000762939</ele>
        <time>2021-03-07T10:15:45.000Z</time>
      </trkpt>
      <trkpt lat="47.26518" lon="-2.27576">
        <ele>25.799999237061</ele>
        <time>2021-03-07T10:15:46.000Z</time>
      </trkpt>
      <trkpt lat="47.26522" lon="-2.27574">
        <ele>25.39999961853</ele>
        <time>2021-03-07T10:15:47.000Z</time>
      </trkpt>
      <trkpt lat="47.2653" lon="-2.27571">
        <ele>25.39999961853</ele>
        <time>2021-03-07T10:15:49.000Z</time>
      </trkpt>
      <trkpt lat="47.26532" lon="-2.27572">
        <ele>25.39999961853</ele>
        <time>2021-03-07T10:15:50.000Z</time>
      </trkpt>
      <trkpt lat="47.26534" lon="-2.27573">
        <ele>25.39999961853</ele>
        <time>2021-03-07T10:15:52.000Z</time>
      </trkpt>
      <trkpt lat="47.26534" lon="-2.27574">
        <ele>25.39999961853</ele>
        <time>2021-03-07T10:15:53.000Z</time>
      </trkpt>
      <trkpt lat="47.26534" lon="-2.27574">
        <ele>25.39999961853</ele>
        <time>2021-03-07T10:16:05.000Z</time>
      </trkpt>
      <trkpt lat="47.26538" lon="-2.27578">
        <ele>25.39999961853</ele>
        <time>2021-03-07T10:16:07.000Z</time>
      </trkpt>
      <trkpt lat="47.26557" lon="-2.27579">
        <ele>25.39999961853</ele>
        <time>2021-03-07T10:16:12.000Z</time>
      </trkpt>
      <trkpt lat="47.26573" lon="-2.27581">
        <ele>25.39999961853</ele>
        <time>2021-03-07T10:16:15.000Z</time>
      </trkpt>
      <trkpt lat="47.26584" lon="-2.27585">
        <ele>25.39999961853</ele>
        <time>2021-03-07T10:16:17.000Z</time>
      </trkpt>
      <trkpt lat="47.26599" lon="-2.27592">
        <ele>25.39999961853</ele>
        <time>2021-03-07T10:16:20.000Z</time>
      </trkpt>
      <trkpt lat="47.26603" lon="-2.27595">
        <ele>25.39999961853</ele>
        <time>2021-03-07T10:16:21.000Z</time>
      </trkpt>
      <trkpt lat="47.26616" lon="-2.27602">
        <ele>25.39999961853</ele>
        <time>2021-03-07T10:16:24.000Z</time>
      </trkpt>
      <trkpt lat="47.26625" lon="-2.27606">
        <ele>25.39999961853</ele>
        <time>2021-03-07T10:16:26.000Z</time>
      </trkpt>
      <trkpt lat="47.26658" lon="-2.27621">
        <ele>25.39999961853</ele>
        <time>2021-03-07T10:16:33.000Z</time>
      </trkpt>
      <trkpt lat="47.26689" lon="-2.27632">
        <ele>25.39999961853</ele>
        <time>2021-03-07T10:16:39.000Z</time>
      </trkpt>
      <trkpt lat="47.26694" lon="-2.27634">
        <ele>25.39999961853</ele>
        <time>2021-03-07T10:16:40.000Z</time>
      </trkpt>
      <trkpt lat="47.26709" lon="-2.2764">
        <ele>25.39999961853</ele>
        <time>2021-03-07T10:16:43.000Z</time>
      </trkpt>
      <trkpt lat="47.26714" lon="-2.27641">
        <ele>25.39999961853</ele>
        <time>2021-03-07T10:16:44.000Z</time>
      </trkpt>
      <trkpt lat="47.26733" lon="-2.27645">
        <ele>25.39999961853</ele>
        <time>2021-03-07T10:16:48.000Z</time>
      </trkpt>
      <trkpt lat="47.26743" lon="-2.27649">
        <ele>25.39999961853</ele>
        <time>2021-03-07T10:16:50.000Z</time>
      </trkpt>
      <trkpt lat="47.26752" lon="-2.27651">
        <ele>25.39999961853</ele>
        <time>2021-03-07T10:16:52.000Z</time>
      </trkpt>
      <trkpt lat="47.2676" lon="-2.27646">
        <ele>25.39999961853</ele>
        <time>2021-03-07T10:16:54.000Z</time>
      </trkpt>
      <trkpt lat="47.2676" lon="-2.27627">
        <ele>25.39999961853</ele>
        <time>2021-03-07T10:16:57.000Z</time>
      </trkpt>
      <trkpt lat="47.26758" lon="-2.27614">
        <ele>25.39999961853</ele>
        <time>2021-03-07T10:16:59.000Z</time>
      </trkpt>
      <trkpt lat="47.26752" lon="-2.27577">
        <ele>25.39999961853</ele>
        <time>2021-03-07T10:17:04.000Z</time>
      </trkpt>
      <trkpt lat="47.26749" lon="-2.27523">
        <ele>25.39999961853</ele>
        <time>2021-03-07T10:17:11.000Z</time>
      </trkpt>
      <trkpt lat="47.2675" lon="-2.27493">
        <ele>25.799999237061</ele>
        <time>2021-03-07T10:17:15.000Z</time>
      </trkpt>
      <trkpt lat="47.2675" lon="-2.27485">
        <ele>26.200000762939</ele>
        <time>2021-03-07T10:17:16.000Z</time>
      </trkpt>
      <trkpt lat="47.2675" lon="-2.27477">
        <ele>26.60000038147</ele>
        <time>2021-03-07T10:17:17.000Z</time>
      </trkpt>
      <trkpt lat="47.2675" lon="-2.27469">
        <ele>27.200000762939</ele>
        <time>2021-03-07T10:17:18.000Z</time>
      </trkpt>
      <trkpt lat="47.26749" lon="-2.2746">
        <ele>27.60000038147</ele>
        <time>2021-03-07T10:17:19.000Z</time>
      </trkpt>
      <trkpt lat="47.26748" lon="-2.27436">
        <ele>27.60000038147</ele>
        <time>2021-03-07T10:17:22.000Z</time>
      </trkpt>
      <trkpt lat="47.26749" lon="-2.27421">
        <ele>27.60000038147</ele>
        <time>2021-03-07T10:17:24.000Z</time>
      </trkpt>
      <trkpt lat="47.26752" lon="-2.27417">
        <ele>27.60000038147</ele>
        <time>2021-03-07T10:17:25.000Z</time>
      </trkpt>
      <trkpt lat="47.26763" lon="-2.27413">
        <ele>27.60000038147</ele>
        <time>2021-03-07T10:17:28.000Z</time>
      </trkpt>
      <trkpt lat="47.26768" lon="-2.27413">
        <ele>27.200000762939</ele>
        <time>2021-03-07T10:17:29.000Z</time>
      </trkpt>
      <trkpt lat="47.26773" lon="-2.27413">
        <ele>26.799999237061</ele>
        <time>2021-03-07T10:17:30.000Z</time>
      </trkpt>
      <trkpt lat="47.26778" lon="-2.27412">
        <ele>26.39999961853</ele>
        <time>2021-03-07T10:17:31.000Z</time>
      </trkpt>
      <trkpt lat="47.26783" lon="-2.27412">
        <ele>26</ele>
        <time>2021-03-07T10:17:32.000Z</time>
      </trkpt>
      <trkpt lat="47.26788" lon="-2.27412">
        <ele>25.60000038147</ele>
        <time>2021-03-07T10:17:33.000Z</time>
      </trkpt>
      <trkpt lat="47.26799" lon="-2.27412">
        <ele>25.60000038147</ele>
        <time>2021-03-07T10:17:35.000Z</time>
      </trkpt>
      <trkpt lat="47.26823" lon="-2.27409">
        <ele>25.60000038147</ele>
        <time>2021-03-07T10:17:40.000Z</time>
      </trkpt>
      <trkpt lat="47.26828" lon="-2.27408">
        <ele>25.60000038147</ele>
        <time>2021-03-07T10:17:41.000Z</time>
      </trkpt>
      <trkpt lat="47.26844" lon="-2.27402">
        <ele>25.200000762939</ele>
        <time>2021-03-07T10:17:44.000Z</time>
      </trkpt>
      <trkpt lat="47.2685" lon="-2.274">
        <ele>24.799999237061</ele>
        <time>2021-03-07T10:17:45.000Z</time>
      </trkpt>
      <trkpt lat="47.26856" lon="-2.27398">
        <ele>24.39999961853</ele>
        <time>2021-03-07T10:17:46.000Z</time>
      </trkpt>
      <trkpt lat="47.26861" lon="-2.27396">
        <ele>23.799999237061</ele>
        <time>2021-03-07T10:17:47.000Z</time>
      </trkpt>
      <trkpt lat="47.26867" lon="-2.27394">
        <ele>23.39999961853</ele>
        <time>2021-03-07T10:17:48.000Z</time>
      </trkpt>
      <trkpt lat="47.26872" lon="-2.27392">
        <ele>23.39999961853</ele>
        <time>2021-03-07T10:17:49.000Z</time>
      </trkpt>
      <trkpt lat="47.2688" lon="-2.27388">
        <ele>23.39999961853</ele>
        <time>2021-03-07T10:17:51.000Z</time>
      </trkpt>
      <trkpt lat="47.26884" lon="-2.27386">
        <ele>23</ele>
        <time>2021-03-07T10:17:52.000Z</time>
      </trkpt>
      <trkpt lat="47.26888" lon="-2.27384">
        <ele>22.60000038147</ele>
        <time>2021-03-07T10:17:53.000Z</time>
      </trkpt>
      <trkpt lat="47.26892" lon="-2.27381">
        <ele>22.200000762939</ele>
        <time>2021-03-07T10:17:54.000Z</time>
      </trkpt>
      <trkpt lat="47.26895" lon="-2.27379">
        <ele>21.60000038147</ele>
        <time>2021-03-07T10:17:55.000Z</time>
      </trkpt>
      <trkpt lat="47.26899" lon="-2.27376">
        <ele>21.200000762939</ele>
        <time>2021-03-07T10:17:56.000Z</time>
      </trkpt>
      <trkpt lat="47.26904" lon="-2.27369">
        <ele>21.200000762939</ele>
        <time>2021-03-07T10:17:58.000Z</time>
      </trkpt>
      <trkpt lat="47.26908" lon="-2.2736">
        <ele>20.799999237061</ele>
        <time>2021-03-07T10:18:01.000Z</time>
      </trkpt>
      <trkpt lat="47.26908" lon="-2.27357">
        <ele>20.39999961853</ele>
        <time>2021-03-07T10:18:02.000Z</time>
      </trkpt>
      <trkpt lat="47.26909" lon="-2.27355">
        <ele>20</ele>
        <time>2021-03-07T10:18:03.000Z</time>
      </trkpt>
      <trkpt lat="47.2691" lon="-2.27353">
        <ele>19.200000762939</ele>
        <time>2021-03-07T10:18:04.000Z</time>
      </trkpt>
      <trkpt lat="47.26911" lon="-2.27347">
        <ele>19.200000762939</ele>
        <time>2021-03-07T10:18:06.000Z</time>
      </trkpt>
      <trkpt lat="47.26913" lon="-2.27343">
        <ele>19.200000762939</ele>
        <time>2021-03-07T10:18:08.000Z</time>
      </trkpt>
      <trkpt lat="47.26916" lon="-2.27338">
        <ele>19.200000762939</ele>
        <time>2021-03-07T10:18:10.000Z</time>
      </trkpt>
      <trkpt lat="47.2692" lon="-2.27325">
        <ele>19.200000762939</ele>
        <time>2021-03-07T10:18:16.000Z</time>
      </trkpt>
      <trkpt lat="47.26921" lon="-2.27307">
        <ele>19.200000762939</ele>
        <time>2021-03-07T10:18:22.000Z</time>
      </trkpt>
      <trkpt lat="47.26921" lon="-2.27295">
        <ele>19.200000762939</ele>
        <time>2021-03-07T10:18:26.000Z</time>
      </trkpt>
      <trkpt lat="47.26921" lon="-2.27287">
        <ele>19.200000762939</ele>
        <time>2021-03-07T10:18:28.000Z</time>
      </trkpt>
      <trkpt lat="47.26926" lon="-2.27274">
        <ele>19.200000762939</ele>
        <time>2021-03-07T10:18:31.000Z</time>
      </trkpt>
      <trkpt lat="47.26942" lon="-2.27264">
        <ele>19.200000762939</ele>
        <time>2021-03-07T10:18:37.000Z</time>
      </trkpt>
      <trkpt lat="47.26945" lon="-2.27262">
        <ele>19.200000762939</ele>
        <time>2021-03-07T10:18:38.000Z</time>
      </trkpt>
      <trkpt lat="47.26949" lon="-2.27254">
        <ele>19.200000762939</ele>
        <time>2021-03-07T10:18:40.000Z</time>
      </trkpt>
      <trkpt lat="47.26958" lon="-2.27233">
        <ele>19.200000762939</ele>
        <time>2021-03-07T10:18:45.000Z</time>
      </trkpt>
      <trkpt lat="47.26959" lon="-2.27218">
        <ele>19.200000762939</ele>
        <time>2021-03-07T10:18:49.000Z</time>
      </trkpt>
      <trkpt lat="47.26958" lon="-2.27215">
        <ele>19.200000762939</ele>
        <time>2021-03-07T10:18:50.000Z</time>
      </trkpt>
      <trkpt lat="47.26964" lon="-2.27205">
        <ele>19.200000762939</ele>
        <time>2021-03-07T10:18:54.000Z</time>
      </trkpt>
      <trkpt lat="47.2697" lon="-2.27195">
        <ele>19.200000762939</ele>
        <time>2021-03-07T10:18:58.000Z</time>
      </trkpt>
      <trkpt lat="47.26971" lon="-2.27189">
        <ele>19.200000762939</ele>
        <time>2021-03-07T10:19:00.000Z</time>
      </trkpt>
      <trkpt lat="47.26977" lon="-2.27184">
        <ele>19.200000762939</ele>
        <time>2021-03-07T10:19:04.000Z</time>
      </trkpt>
      <trkpt lat="47.26982" lon="-2.27185">
        <ele>19.200000762939</ele>
        <time>2021-03-07T10:19:07.000Z</time>
      </trkpt>
      <trkpt lat="47.26984" lon="-2.27182">
        <ele>19.200000762939</ele>
        <time>2021-03-07T10:19:09.000Z</time>
      </trkpt>
      <trkpt lat="47.26996" lon="-2.2717">
        <ele>19.200000762939</ele>
        <time>2021-03-07T10:19:15.000Z</time>
      </trkpt>
      <trkpt lat="47.27004" lon="-2.2717">
        <ele>19.200000762939</ele>
        <time>2021-03-07T10:19:19.000Z</time>
      </trkpt>
      <trkpt lat="47.27004" lon="-2.27171">
        <ele>19.200000762939</ele>
        <time>2021-03-07T10:19:20.000Z</time>
      </trkpt>
      <trkpt lat="47.27007" lon="-2.27174">
        <ele>18.799999237061</ele>
        <time>2021-03-07T10:19:23.000Z</time>
      </trkpt>
      <trkpt lat="47.27008" lon="-2.27175">
        <ele>18.39999961853</ele>
        <time>2021-03-07T10:19:24.000Z</time>
      </trkpt>
      <trkpt lat="47.27013" lon="-2.27167">
        <ele>17.200000762939</ele>
        <time>2021-03-07T10:19:29.000Z</time>
      </trkpt>
      <trkpt lat="47.27017" lon="-2.27162">
        <ele>17.200000762939</ele>
        <time>2021-03-07T10:19:32.000Z</time>
      </trkpt>
      <trkpt lat="47.27026" lon="-2.27151">
        <ele>17.200000762939</ele>
        <time>2021-03-07T10:19:36.000Z</time>
      </trkpt>
      <trkpt lat="47.27027" lon="-2.27146">
        <ele>16.60000038147</ele>
        <time>2021-03-07T10:19:37.000Z</time>
      </trkpt>
      <trkpt lat="47.27027" lon="-2.27142">
        <ele>16.200000762939</ele>
        <time>2021-03-07T10:19:38.000Z</time>
      </trkpt>
      <trkpt lat="47.27026" lon="-2.27137">
        <ele>15.800000190735</ele>
        <time>2021-03-07T10:19:39.000Z</time>
      </trkpt>
      <trkpt lat="47.27024" lon="-2.27133">
        <ele>15.39999961853</ele>
        <time>2021-03-07T10:19:40.000Z</time>
      </trkpt>
      <trkpt lat="47.27022" lon="-2.27128">
        <ele>15</ele>
        <time>2021-03-07T10:19:41.000Z</time>
      </trkpt>
      <trkpt lat="47.27018" lon="-2.27119">
        <ele>15</ele>
        <time>2021-03-07T10:19:43.000Z</time>
      </trkpt>
      <trkpt lat="47.27016" lon="-2.27115">
        <ele>15.39999961853</ele>
        <time>2021-03-07T10:19:44.000Z</time>
      </trkpt>
      <trkpt lat="47.27013" lon="-2.2711">
        <ele>15.800000190735</ele>
        <time>2021-03-07T10:19:45.000Z</time>
      </trkpt>
      <trkpt lat="47.27011" lon="-2.27105">
        <ele>16.39999961853</ele>
        <time>2021-03-07T10:19:46.000Z</time>
      </trkpt>
      <trkpt lat="47.2701" lon="-2.271">
        <ele>16.799999237061</ele>
        <time>2021-03-07T10:19:47.000Z</time>
      </trkpt>
      <trkpt lat="47.27009" lon="-2.27095">
        <ele>17.200000762939</ele>
        <time>2021-03-07T10:19:48.000Z</time>
      </trkpt>
      <trkpt lat="47.27005" lon="-2.27073">
        <ele>17.200000762939</ele>
        <time>2021-03-07T10:19:52.000Z</time>
      </trkpt>
      <trkpt lat="47.26999" lon="-2.27056">
        <ele>17.200000762939</ele>
        <time>2021-03-07T10:19:57.000Z</time>
      </trkpt>
      <trkpt lat="47.26992" lon="-2.27042">
        <ele>17.200000762939</ele>
        <time>2021-03-07T10:20:03.000Z</time>
      </trkpt>
      <trkpt lat="47.26984" lon="-2.27028">
        <ele>17.200000762939</ele>
        <time>2021-03-07T10:20:08.000Z</time>
      </trkpt>
      <trkpt lat="47.26971" lon="-2.27013">
        <ele>17.200000762939</ele>
        <time>2021-03-07T10:20:12.000Z</time>
      </trkpt>
      <trkpt lat="47.26957" lon="-2.26993">
        <ele>17.200000762939</ele>
        <time>2021-03-07T10:20:16.000Z</time>
      </trkpt>
      <trkpt lat="47.26956" lon="-2.26986">
        <ele>17.200000762939</ele>
        <time>2021-03-07T10:20:17.000Z</time>
      </trkpt>
      <trkpt lat="47.2696" lon="-2.26956">
        <ele>17.200000762939</ele>
        <time>2021-03-07T10:20:21.000Z</time>
      </trkpt>
      <trkpt lat="47.26965" lon="-2.26925">
        <ele>17.200000762939</ele>
        <time>2021-03-07T10:20:25.000Z</time>
      </trkpt>
      <trkpt lat="47.26965" lon="-2.2691">
        <ele>17.200000762939</ele>
        <time>2021-03-07T10:20:27.000Z</time>
      </trkpt>
      <trkpt lat="47.26963" lon="-2.26896">
        <ele>16.799999237061</ele>
        <time>2021-03-07T10:20:29.000Z</time>
      </trkpt>
      <trkpt lat="47.26961" lon="-2.26888">
        <ele>16.39999961853</ele>
        <time>2021-03-07T10:20:30.000Z</time>
      </trkpt>
      <trkpt lat="47.2696" lon="-2.2688">
        <ele>16</ele>
        <time>2021-03-07T10:20:31.000Z</time>
      </trkpt>
      <trkpt lat="47.26959" lon="-2.26872">
        <ele>15.199999809265</ele>
        <time>2021-03-07T10:20:32.000Z</time>
      </trkpt>
      <trkpt lat="47.26955" lon="-2.26845">
        <ele>15.199999809265</ele>
        <time>2021-03-07T10:20:36.000Z</time>
      </trkpt>
      <trkpt lat="47.26953" lon="-2.26837">
        <ele>15.199999809265</ele>
        <time>2021-03-07T10:20:38.000Z</time>
      </trkpt>
      <trkpt lat="47.26952" lon="-2.26832">
        <ele>15.199999809265</ele>
        <time>2021-03-07T10:20:40.000Z</time>
      </trkpt>
      <trkpt lat="47.26952" lon="-2.26828">
        <ele>15.199999809265</ele>
        <time>2021-03-07T10:20:42.000Z</time>
      </trkpt>
      <trkpt lat="47.26951" lon="-2.26821">
        <ele>15.199999809265</ele>
        <time>2021-03-07T10:20:48.000Z</time>
      </trkpt>
      <trkpt lat="47.26953" lon="-2.26823">
        <ele>15.199999809265</ele>
        <time>2021-03-07T10:20:54.000Z</time>
      </trkpt>
      <trkpt lat="47.26962" lon="-2.26817">
        <ele>15.199999809265</ele>
        <time>2021-03-07T10:20:59.000Z</time>
      </trkpt>
      <trkpt lat="47.26973" lon="-2.26803">
        <ele>14.60000038147</ele>
        <time>2021-03-07T10:21:03.000Z</time>
      </trkpt>
      <trkpt lat="47.26976" lon="-2.26801">
        <ele>14.199999809265</ele>
        <time>2021-03-07T10:21:04.000Z</time>
      </trkpt>
      <trkpt lat="47.26979" lon="-2.26799">
        <ele>13.800000190735</ele>
        <time>2021-03-07T10:21:05.000Z</time>
      </trkpt>
      <trkpt lat="47.26981" lon="-2.26796">
        <ele>13.39999961853</ele>
        <time>2021-03-07T10:21:06.000Z</time>
      </trkpt>
      <trkpt lat="47.26983" lon="-2.26794">
        <ele>13</ele>
        <time>2021-03-07T10:21:07.000Z</time>
      </trkpt>
      <trkpt lat="47.26986" lon="-2.26792">
        <ele>13</ele>
        <time>2021-03-07T10:21:09.000Z</time>
      </trkpt>
      <trkpt lat="47.26989" lon="-2.26791">
        <ele>13</ele>
        <time>2021-03-07T10:21:13.000Z</time>
      </trkpt>
      <trkpt lat="47.26991" lon="-2.2679">
        <ele>13</ele>
        <time>2021-03-07T10:21:18.000Z</time>
      </trkpt>
      <trkpt lat="47.27" lon="-2.2678">
        <ele>13</ele>
        <time>2021-03-07T10:21:22.000Z</time>
      </trkpt>
      <trkpt lat="47.27005" lon="-2.26773">
        <ele>13</ele>
        <time>2021-03-07T10:21:25.000Z</time>
      </trkpt>
      <trkpt lat="47.27008" lon="-2.26768">
        <ele>13</ele>
        <time>2021-03-07T10:21:27.000Z</time>
      </trkpt>
      <trkpt lat="47.27012" lon="-2.26765">
        <ele>13</ele>
        <time>2021-03-07T10:21:29.000Z</time>
      </trkpt>
      <trkpt lat="47.27016" lon="-2.26762">
        <ele>13</ele>
        <time>2021-03-07T10:21:31.000Z</time>
      </trkpt>
      <trkpt lat="47.27024" lon="-2.26755">
        <ele>13</ele>
        <time>2021-03-07T10:21:36.000Z</time>
      </trkpt>
      <trkpt lat="47.27029" lon="-2.26748">
        <ele>13</ele>
        <time>2021-03-07T10:21:41.000Z</time>
      </trkpt>
      <trkpt lat="47.27031" lon="-2.26727">
        <ele>13</ele>
        <time>2021-03-07T10:21:46.000Z</time>
      </trkpt>
      <trkpt lat="47.27031" lon="-2.26697">
        <ele>13</ele>
        <time>2021-03-07T10:21:51.000Z</time>
      </trkpt>
      <trkpt lat="47.27031" lon="-2.2667">
        <ele>13</ele>
        <time>2021-03-07T10:21:56.000Z</time>
      </trkpt>
      <trkpt lat="47.2703" lon="-2.26657">
        <ele>13</ele>
        <time>2021-03-07T10:21:58.000Z</time>
      </trkpt>
      <trkpt lat="47.27026" lon="-2.26646">
        <ele>13</ele>
        <time>2021-03-07T10:22:00.000Z</time>
      </trkpt>
      <trkpt lat="47.27021" lon="-2.26636">
        <ele>13</ele>
        <time>2021-03-07T10:22:02.000Z</time>
      </trkpt>
      <trkpt lat="47.27006" lon="-2.26612">
        <ele>13</ele>
        <time>2021-03-07T10:22:07.000Z</time>
      </trkpt>
      <trkpt lat="47.26997" lon="-2.26597">
        <ele>13</ele>
        <time>2021-03-07T10:22:10.000Z</time>
      </trkpt>
      <trkpt lat="47.26987" lon="-2.26584">
        <ele>13</ele>
        <time>2021-03-07T10:22:13.000Z</time>
      </trkpt>
      <trkpt lat="47.26984" lon="-2.26579">
        <ele>13</ele>
        <time>2021-03-07T10:22:14.000Z</time>
      </trkpt>
      <trkpt lat="47.26975" lon="-2.26553">
        <ele>13</ele>
        <time>2021-03-07T10:22:18.000Z</time>
      </trkpt>
      <trkpt lat="47.26973" lon="-2.26546">
        <ele>13.39999961853</ele>
        <time>2021-03-07T10:22:19.000Z</time>
      </trkpt>
      <trkpt lat="47.26971" lon="-2.2654">
        <ele>14</ele>
        <time>2021-03-07T10:22:20.000Z</time>
      </trkpt>
      <trkpt lat="47.2697" lon="-2.26534">
        <ele>14.39999961853</ele>
        <time>2021-03-07T10:22:21.000Z</time>
      </trkpt>
      <trkpt lat="47.26968" lon="-2.26529">
        <ele>14.800000190735</ele>
        <time>2021-03-07T10:22:22.000Z</time>
      </trkpt>
      <trkpt lat="47.26967" lon="-2.26523">
        <ele>15.199999809265</ele>
        <time>2021-03-07T10:22:23.000Z</time>
      </trkpt>
      <trkpt lat="47.26967" lon="-2.26518">
        <ele>15.199999809265</ele>
        <time>2021-03-07T10:22:24.000Z</time>
      </trkpt>
      <trkpt lat="47.26972" lon="-2.26501">
        <ele>15.199999809265</ele>
        <time>2021-03-07T10:22:28.000Z</time>
      </trkpt>
      <trkpt lat="47.26976" lon="-2.26496">
        <ele>15.199999809265</ele>
        <time>2021-03-07T10:22:29.000Z</time>
      </trkpt>
      <trkpt lat="47.26984" lon="-2.26486">
        <ele>15.199999809265</ele>
        <time>2021-03-07T10:22:31.000Z</time>
      </trkpt>
      <trkpt lat="47.26988" lon="-2.26482">
        <ele>15.60000038147</ele>
        <time>2021-03-07T10:22:32.000Z</time>
      </trkpt>
      <trkpt lat="47.26992" lon="-2.26477">
        <ele>16</ele>
        <time>2021-03-07T10:22:33.000Z</time>
      </trkpt>
      <trkpt lat="47.26995" lon="-2.26472">
        <ele>16.39999961853</ele>
        <time>2021-03-07T10:22:34.000Z</time>
      </trkpt>
      <trkpt lat="47.26998" lon="-2.26467">
        <ele>17.200000762939</ele>
        <time>2021-03-07T10:22:35.000Z</time>
      </trkpt>
      <trkpt lat="47.27005" lon="-2.26456">
        <ele>17.200000762939</ele>
        <time>2021-03-07T10:22:37.000Z</time>
      </trkpt>
      <trkpt lat="47.27026" lon="-2.26422">
        <ele>17.200000762939</ele>
        <time>2021-03-07T10:22:43.000Z</time>
      </trkpt>
      <trkpt lat="47.27054" lon="-2.26381">
        <ele>17.200000762939</ele>
        <time>2021-03-07T10:22:50.000Z</time>
      </trkpt>
      <trkpt lat="47.27084" lon="-2.26339">
        <ele>17.200000762939</ele>
        <time>2021-03-07T10:22:57.000Z</time>
      </trkpt>
      <trkpt lat="47.27114" lon="-2.26297">
        <ele>17.200000762939</ele>
        <time>2021-03-07T10:23:04.000Z</time>
      </trkpt>
      <trkpt lat="47.27144" lon="-2.26252">
        <ele>17.200000762939</ele>
        <time>2021-03-07T10:23:11.000Z</time>
      </trkpt>
      <trkpt lat="47.27183" lon="-2.26207">
        <ele>17.200000762939</ele>
        <time>2021-03-07T10:23:18.000Z</time>
      </trkpt>
      <trkpt lat="47.27195" lon="-2.26196">
        <ele>16.799999237061</ele>
        <time>2021-03-07T10:23:20.000Z</time>
      </trkpt>
      <trkpt lat="47.27202" lon="-2.2619">
        <ele>16.39999961853</ele>
        <time>2021-03-07T10:23:21.000Z</time>
      </trkpt>
      <trkpt lat="47.27208" lon="-2.26185">
        <ele>16</ele>
        <time>2021-03-07T10:23:22.000Z</time>
      </trkpt>
      <trkpt lat="47.27214" lon="-2.26181">
        <ele>15.60000038147</ele>
        <time>2021-03-07T10:23:23.000Z</time>
      </trkpt>
      <trkpt lat="47.2722" lon="-2.26177">
        <ele>15.199999809265</ele>
        <time>2021-03-07T10:23:24.000Z</time>
      </trkpt>
      <trkpt lat="47.27226" lon="-2.26173">
        <ele>15.199999809265</ele>
        <time>2021-03-07T10:23:25.000Z</time>
      </trkpt>
      <trkpt lat="47.27262" lon="-2.2615">
        <ele>14.800000190735</ele>
        <time>2021-03-07T10:23:31.000Z</time>
      </trkpt>
      <trkpt lat="47.27268" lon="-2.26147">
        <ele>14.39999961853</ele>
        <time>2021-03-07T10:23:32.000Z</time>
      </trkpt>
      <trkpt lat="47.27275" lon="-2.26144">
        <ele>13.800000190735</ele>
        <time>2021-03-07T10:23:33.000Z</time>
      </trkpt>
      <trkpt lat="47.27281" lon="-2.26142">
        <ele>13.39999961853</ele>
        <time>2021-03-07T10:23:34.000Z</time>
      </trkpt>
      <trkpt lat="47.27288" lon="-2.26139">
        <ele>13</ele>
        <time>2021-03-07T10:23:35.000Z</time>
      </trkpt>
      <trkpt lat="47.27306" lon="-2.26133">
        <ele>13</ele>
        <time>2021-03-07T10:23:38.000Z</time>
      </trkpt>
      <trkpt lat="47.27339" lon="-2.26123">
        <ele>13</ele>
        <time>2021-03-07T10:23:44.000Z</time>
      </trkpt>
      <trkpt lat="47.27344" lon="-2.26106">
        <ele>13</ele>
        <time>2021-03-07T10:23:47.000Z</time>
      </trkpt>
      <trkpt lat="47.27335" lon="-2.26085">
        <ele>13</ele>
        <time>2021-03-07T10:23:50.000Z</time>
      </trkpt>
      <trkpt lat="47.27331" lon="-2.26078">
        <ele>13</ele>
        <time>2021-03-07T10:23:51.000Z</time>
      </trkpt>
      <trkpt lat="47.27308" lon="-2.26032">
        <ele>13</ele>
        <time>2021-03-07T10:23:58.000Z</time>
      </trkpt>
      <trkpt lat="47.27298" lon="-2.26014">
        <ele>12.60000038147</ele>
        <time>2021-03-07T10:24:01.000Z</time>
      </trkpt>
      <trkpt lat="47.27294" lon="-2.2601">
        <ele>12.199999809265</ele>
        <time>2021-03-07T10:24:02.000Z</time>
      </trkpt>
      <trkpt lat="47.27292" lon="-2.26007">
        <ele>11.800000190735</ele>
        <time>2021-03-07T10:24:03.000Z</time>
      </trkpt>
      <trkpt lat="47.2729" lon="-2.26004">
        <ele>11.39999961853</ele>
        <time>2021-03-07T10:24:04.000Z</time>
      </trkpt>
      <trkpt lat="47.2729" lon="-2.26001">
        <ele>11</ele>
        <time>2021-03-07T10:24:05.000Z</time>
      </trkpt>
      <trkpt lat="47.27292" lon="-2.25995">
        <ele>11</ele>
        <time>2021-03-07T10:24:07.000Z</time>
      </trkpt>
      <trkpt lat="47.27298" lon="-2.25986">
        <ele>11</ele>
        <time>2021-03-07T10:24:11.000Z</time>
      </trkpt>
      <trkpt lat="47.27299" lon="-2.25985">
        <ele>11</ele>
        <time>2021-03-07T10:24:12.000Z</time>
      </trkpt>
      <trkpt lat="47.27309" lon="-2.25977">
        <ele>11</ele>
        <time>2021-03-07T10:24:16.000Z</time>
      </trkpt>
      <trkpt lat="47.27329" lon="-2.25965">
        <ele>11</ele>
        <time>2021-03-07T10:24:23.000Z</time>
      </trkpt>
      <trkpt lat="47.2734" lon="-2.25959">
        <ele>11</ele>
        <time>2021-03-07T10:24:28.000Z</time>
      </trkpt>
      <trkpt lat="47.27353" lon="-2.25953">
        <ele>11</ele>
        <time>2021-03-07T10:24:33.000Z</time>
      </trkpt>
      <trkpt lat="47.27368" lon="-2.25935">
        <ele>11</ele>
        <time>2021-03-07T10:24:38.000Z</time>
      </trkpt>
      <trkpt lat="47.27385" lon="-2.25916">
        <ele>11</ele>
        <time>2021-03-07T10:24:43.000Z</time>
      </trkpt>
      <trkpt lat="47.27404" lon="-2.25893">
        <ele>11</ele>
        <time>2021-03-07T10:24:49.000Z</time>
      </trkpt>
      <trkpt lat="47.27412" lon="-2.25876">
        <ele>11</ele>
        <time>2021-03-07T10:24:53.000Z</time>
      </trkpt>
      <trkpt lat="47.2742" lon="-2.25861">
        <ele>11</ele>
        <time>2021-03-07T10:24:58.000Z</time>
      </trkpt>
      <trkpt lat="47.27429" lon="-2.25847">
        <ele>11</ele>
        <time>2021-03-07T10:25:05.000Z</time>
      </trkpt>
      <trkpt lat="47.27429" lon="-2.25847">
        <ele>11</ele>
        <time>2021-03-07T10:25:06.000Z</time>
      </trkpt>
      <trkpt lat="47.27432" lon="-2.25842">
        <ele>11</ele>
        <time>2021-03-07T10:25:28.000Z</time>
      </trkpt>
      <trkpt lat="47.27433" lon="-2.2584">
        <ele>11</ele>
        <time>2021-03-07T10:25:29.000Z</time>
      </trkpt>
      <trkpt lat="47.27438" lon="-2.25833">
        <ele>11</ele>
        <time>2021-03-07T10:25:35.000Z</time>
      </trkpt>
      <trkpt lat="47.27443" lon="-2.25822">
        <ele>11</ele>
        <time>2021-03-07T10:25:39.000Z</time>
      </trkpt>
      <trkpt lat="47.27454" lon="-2.25805">
        <ele>11</ele>
        <time>2021-03-07T10:25:44.000Z</time>
      </trkpt>
      <trkpt lat="47.27462" lon="-2.25796">
        <ele>11</ele>
        <time>2021-03-07T10:25:49.000Z</time>
      </trkpt>
      <trkpt lat="47.27471" lon="-2.25787">
        <ele>11</ele>
        <time>2021-03-07T10:25:56.000Z</time>
      </trkpt>
      <trkpt lat="47.27481" lon="-2.25776">
        <ele>11</ele>
        <time>2021-03-07T10:26:02.000Z</time>
      </trkpt>
      <trkpt lat="47.2749" lon="-2.25763">
        <ele>11</ele>
        <time>2021-03-07T10:26:10.000Z</time>
      </trkpt>
      <trkpt lat="47.27501" lon="-2.2575">
        <ele>11</ele>
        <time>2021-03-07T10:26:16.000Z</time>
      </trkpt>
      <trkpt lat="47.27503" lon="-2.25748">
        <ele>10.199999809265</ele>
        <time>2021-03-07T10:26:17.000Z</time>
      </trkpt>
      <trkpt lat="47.27505" lon="-2.25746">
        <ele>9.8000001907349</ele>
        <time>2021-03-07T10:26:18.000Z</time>
      </trkpt>
      <trkpt lat="47.27506" lon="-2.25743">
        <ele>9.3999996185303</ele>
        <time>2021-03-07T10:26:19.000Z</time>
      </trkpt>
      <trkpt lat="47.27508" lon="-2.25741">
        <ele>9</ele>
        <time>2021-03-07T10:26:20.000Z</time>
      </trkpt>
      <trkpt lat="47.27514" lon="-2.25733">
        <ele>9</ele>
        <time>2021-03-07T10:26:23.000Z</time>
      </trkpt>
      <trkpt lat="47.27515" lon="-2.2573">
        <ele>9</ele>
        <time>2021-03-07T10:26:24.000Z</time>
      </trkpt>
      <trkpt lat="47.27523" lon="-2.25718">
        <ele>9</ele>
        <time>2021-03-07T10:26:29.000Z</time>
      </trkpt>
      <trkpt lat="47.2753" lon="-2.25706">
        <ele>9</ele>
        <time>2021-03-07T10:26:34.000Z</time>
      </trkpt>
      <trkpt lat="47.27538" lon="-2.25687">
        <ele>9</ele>
        <time>2021-03-07T10:26:40.000Z</time>
      </trkpt>
      <trkpt lat="47.27548" lon="-2.25673">
        <ele>9</ele>
        <time>2021-03-07T10:26:46.000Z</time>
      </trkpt>
      <trkpt lat="47.27556" lon="-2.2566">
        <ele>9</ele>
        <time>2021-03-07T10:26:51.000Z</time>
      </trkpt>
      <trkpt lat="47.27559" lon="-2.25653">
        <ele>8.6000003814697</ele>
        <time>2021-03-07T10:26:54.000Z</time>
      </trkpt>
      <trkpt lat="47.2756" lon="-2.25651">
        <ele>8.1999998092651</ele>
        <time>2021-03-07T10:26:55.000Z</time>
      </trkpt>
      <trkpt lat="47.2756" lon="-2.25649">
        <ele>7.8000001907349</ele>
        <time>2021-03-07T10:26:56.000Z</time>
      </trkpt>
      <trkpt lat="47.2756" lon="-2.25647">
        <ele>7.4000000953674</ele>
        <time>2021-03-07T10:26:57.000Z</time>
      </trkpt>
      <trkpt lat="47.27561" lon="-2.25646">
        <ele>7</ele>
        <time>2021-03-07T10:26:58.000Z</time>
      </trkpt>
      <trkpt lat="47.27561" lon="-2.25644">
        <ele>7</ele>
        <time>2021-03-07T10:27:00.000Z</time>
      </trkpt>
      <trkpt lat="47.27561" lon="-2.25633">
        <ele>7</ele>
        <time>2021-03-07T10:27:30.000Z</time>
      </trkpt>
      <trkpt lat="47.27561" lon="-2.2563">
        <ele>7</ele>
        <time>2021-03-07T10:27:31.000Z</time>
      </trkpt>
      <trkpt lat="47.2756" lon="-2.25626">
        <ele>7</ele>
        <time>2021-03-07T10:27:32.000Z</time>
      </trkpt>
      <trkpt lat="47.2756" lon="-2.25609">
        <ele>7</ele>
        <time>2021-03-07T10:27:36.000Z</time>
      </trkpt>
      <trkpt lat="47.27559" lon="-2.25586">
        <ele>7</ele>
        <time>2021-03-07T10:27:41.000Z</time>
      </trkpt>
      <trkpt lat="47.27552" lon="-2.25557">
        <ele>7</ele>
        <time>2021-03-07T10:27:46.000Z</time>
      </trkpt>
      <trkpt lat="47.27551" lon="-2.2555">
        <ele>7</ele>
        <time>2021-03-07T10:27:47.000Z</time>
      </trkpt>
      <trkpt lat="47.27545" lon="-2.25532">
        <ele>7</ele>
        <time>2021-03-07T10:27:50.000Z</time>
      </trkpt>
      <trkpt lat="47.27539" lon="-2.25522">
        <ele>6.5999999046326</ele>
        <time>2021-03-07T10:27:52.000Z</time>
      </trkpt>
      <trkpt lat="47.27537" lon="-2.25517">
        <ele>6.1999998092651</ele>
        <time>2021-03-07T10:27:53.000Z</time>
      </trkpt>
      <trkpt lat="47.27536" lon="-2.25511">
        <ele>5.8000001907349</ele>
        <time>2021-03-07T10:27:54.000Z</time>
      </trkpt>
      <trkpt lat="47.27533" lon="-2.25506">
        <ele>5.1999998092651</ele>
        <time>2021-03-07T10:27:55.000Z</time>
      </trkpt>
      <trkpt lat="47.2753" lon="-2.25501">
        <ele>4.8000001907349</ele>
        <time>2021-03-07T10:27:56.000Z</time>
      </trkpt>
      <trkpt lat="47.27527" lon="-2.25495">
        <ele>4.8000001907349</ele>
        <time>2021-03-07T10:27:57.000Z</time>
      </trkpt>
      <trkpt lat="47.2752" lon="-2.25484">
        <ele>4.8000001907349</ele>
        <time>2021-03-07T10:27:59.000Z</time>
      </trkpt>
      <trkpt lat="47.2751" lon="-2.25472">
        <ele>4.8000001907349</ele>
        <time>2021-03-07T10:28:02.000Z</time>
      </trkpt>
      <trkpt lat="47.27495" lon="-2.25461">
        <ele>4.8000001907349</ele>
        <time>2021-03-07T10:28:06.000Z</time>
      </trkpt>
      <trkpt lat="47.27478" lon="-2.25457">
        <ele>4.8000001907349</ele>
        <time>2021-03-07T10:28:10.000Z</time>
      </trkpt>
      <trkpt lat="47.27473" lon="-2.25458">
        <ele>4.8000001907349</ele>
        <time>2021-03-07T10:28:11.000Z</time>
      </trkpt>
      <trkpt lat="47.27463" lon="-2.25458">
        <ele>4.8000001907349</ele>
        <time>2021-03-07T10:28:13.000Z</time>
      </trkpt>
      <trkpt lat="47.27449" lon="-2.25454">
        <ele>4.8000001907349</ele>
        <time>2021-03-07T10:28:16.000Z</time>
      </trkpt>
      <trkpt lat="47.27433" lon="-2.25438">
        <ele>4.8000001907349</ele>
        <time>2021-03-07T10:28:21.000Z</time>
      </trkpt>
      <trkpt lat="47.27421" lon="-2.25424">
        <ele>4.8000001907349</ele>
        <time>2021-03-07T10:28:25.000Z</time>
      </trkpt>
      <trkpt lat="47.27416" lon="-2.25413">
        <ele>4.8000001907349</ele>
        <time>2021-03-07T10:28:28.000Z</time>
      </trkpt>
      <trkpt lat="47.27414" lon="-2.25406">
        <ele>4.8000001907349</ele>
        <time>2021-03-07T10:28:30.000Z</time>
      </trkpt>
      <trkpt lat="47.27405" lon="-2.25394">
        <ele>4.8000001907349</ele>
        <time>2021-03-07T10:28:34.000Z</time>
      </trkpt>
      <trkpt lat="47.27404" lon="-2.2539">
        <ele>5.4000000953674</ele>
        <time>2021-03-07T10:28:35.000Z</time>
      </trkpt>
      <trkpt lat="47.27403" lon="-2.25387">
        <ele>5.8000001907349</ele>
        <time>2021-03-07T10:28:36.000Z</time>
      </trkpt>
      <trkpt lat="47.27401" lon="-2.25383">
        <ele>6.1999998092651</ele>
        <time>2021-03-07T10:28:37.000Z</time>
      </trkpt>
      <trkpt lat="47.274" lon="-2.25379">
        <ele>6.5999999046326</ele>
        <time>2021-03-07T10:28:38.000Z</time>
      </trkpt>
      <trkpt lat="47.27399" lon="-2.25375">
        <ele>7.1999998092651</ele>
        <time>2021-03-07T10:28:39.000Z</time>
      </trkpt>
      <trkpt lat="47.27394" lon="-2.25349">
        <ele>7.1999998092651</ele>
        <time>2021-03-07T10:28:43.000Z</time>
      </trkpt>
      <trkpt lat="47.27393" lon="-2.25343">
        <ele>7.1999998092651</ele>
        <time>2021-03-07T10:28:44.000Z</time>
      </trkpt>
      <trkpt lat="47.27386" lon="-2.25326">
        <ele>7.1999998092651</ele>
        <time>2021-03-07T10:28:47.000Z</time>
      </trkpt>
      <trkpt lat="47.27386" lon="-2.25321">
        <ele>7.1999998092651</ele>
        <time>2021-03-07T10:28:48.000Z</time>
      </trkpt>
      <trkpt lat="47.27386" lon="-2.25313">
        <ele>7.1999998092651</ele>
        <time>2021-03-07T10:28:50.000Z</time>
      </trkpt>
      <trkpt lat="47.27388" lon="-2.25283">
        <ele>7.1999998092651</ele>
        <time>2021-03-07T10:28:55.000Z</time>
      </trkpt>
      <trkpt lat="47.27385" lon="-2.25262">
        <ele>6.8000001907349</ele>
        <time>2021-03-07T10:28:59.000Z</time>
      </trkpt>
      <trkpt lat="47.27384" lon="-2.25258">
        <ele>6.4000000953674</ele>
        <time>2021-03-07T10:29:00.000Z</time>
      </trkpt>
      <trkpt lat="47.27385" lon="-2.25254">
        <ele>6</ele>
        <time>2021-03-07T10:29:01.000Z</time>
      </trkpt>
      <trkpt lat="47.27386" lon="-2.25252">
        <ele>5.4000000953674</ele>
        <time>2021-03-07T10:29:02.000Z</time>
      </trkpt>
      <trkpt lat="47.27382" lon="-2.25225">
        <ele>5</ele>
        <time>2021-03-07T10:29:19.000Z</time>
      </trkpt>
      <trkpt lat="47.27381" lon="-2.25216">
        <ele>5</ele>
        <time>2021-03-07T10:29:25.000Z</time>
      </trkpt>
      <trkpt lat="47.27382" lon="-2.25211">
        <ele>4.5999999046326</ele>
        <time>2021-03-07T10:29:50.000Z</time>
      </trkpt>
      <trkpt lat="47.27381" lon="-2.25206">
        <ele>5.1999998092651</ele>
        <time>2021-03-07T10:29:51.000Z</time>
      </trkpt>
      <trkpt lat="47.27379" lon="-2.25201">
        <ele>5.1999998092651</ele>
        <time>2021-03-07T10:29:52.000Z</time>
      </trkpt>
      <trkpt lat="47.27376" lon="-2.2519">
        <ele>5.1999998092651</ele>
        <time>2021-03-07T10:29:54.000Z</time>
      </trkpt>
      <trkpt lat="47.27371" lon="-2.2517">
        <ele>5.1999998092651</ele>
        <time>2021-03-07T10:29:58.000Z</time>
      </trkpt>
      <trkpt lat="47.27364" lon="-2.25145">
        <ele>5.1999998092651</ele>
        <time>2021-03-07T10:30:03.000Z</time>
      </trkpt>
      <trkpt lat="47.27352" lon="-2.25111">
        <ele>5.1999998092651</ele>
        <time>2021-03-07T10:30:09.000Z</time>
      </trkpt>
      <trkpt lat="47.27344" lon="-2.25074">
        <ele>5.1999998092651</ele>
        <time>2021-03-07T10:30:15.000Z</time>
      </trkpt>
      <trkpt lat="47.27343" lon="-2.25053">
        <ele>5.1999998092651</ele>
        <time>2021-03-07T10:30:18.000Z</time>
      </trkpt>
      <trkpt lat="47.27345" lon="-2.25041">
        <ele>5.1999998092651</ele>
        <time>2021-03-07T10:30:20.000Z</time>
      </trkpt>
      <trkpt lat="47.27352" lon="-2.25023">
        <ele>5.1999998092651</ele>
        <time>2021-03-07T10:30:23.000Z</time>
      </trkpt>
      <trkpt lat="47.27355" lon="-2.25017">
        <ele>5.1999998092651</ele>
        <time>2021-03-07T10:30:24.000Z</time>
      </trkpt>
      <trkpt lat="47.2737" lon="-2.24991">
        <ele>5.1999998092651</ele>
        <time>2021-03-07T10:30:29.000Z</time>
      </trkpt>
      <trkpt lat="47.27374" lon="-2.24986">
        <ele>5.1999998092651</ele>
        <time>2021-03-07T10:30:30.000Z</time>
      </trkpt>
      <trkpt lat="47.2738" lon="-2.24978">
        <ele>5.1999998092651</ele>
        <time>2021-03-07T10:30:32.000Z</time>
      </trkpt>
      <trkpt lat="47.27388" lon="-2.24971">
        <ele>5.1999998092651</ele>
        <time>2021-03-07T10:30:34.000Z</time>
      </trkpt>
      <trkpt lat="47.27392" lon="-2.24969">
        <ele>5.1999998092651</ele>
        <time>2021-03-07T10:30:35.000Z</time>
      </trkpt>
      <trkpt lat="47.27417" lon="-2.24957">
        <ele>5.1999998092651</ele>
        <time>2021-03-07T10:30:41.000Z</time>
      </trkpt>
      <trkpt lat="47.27438" lon="-2.24948">
        <ele>5.1999998092651</ele>
        <time>2021-03-07T10:30:46.000Z</time>
      </trkpt>
      <trkpt lat="47.27455" lon="-2.24957">
        <ele>5.1999998092651</ele>
        <time>2021-03-07T10:30:50.000Z</time>
      </trkpt>
      <trkpt lat="47.27465" lon="-2.24962">
        <ele>5.1999998092651</ele>
        <time>2021-03-07T10:30:52.000Z</time>
      </trkpt>
      <trkpt lat="47.27478" lon="-2.24972">
        <ele>5.1999998092651</ele>
        <time>2021-03-07T10:30:55.000Z</time>
      </trkpt>
      <trkpt lat="47.27496" lon="-2.24988">
        <ele>5.1999998092651</ele>
        <time>2021-03-07T10:30:59.000Z</time>
      </trkpt>
      <trkpt lat="47.27514" lon="-2.25006">
        <ele>5.1999998092651</ele>
        <time>2021-03-07T10:31:04.000Z</time>
      </trkpt>
      <trkpt lat="47.27529" lon="-2.25026">
        <ele>5.1999998092651</ele>
        <time>2021-03-07T10:31:09.000Z</time>
      </trkpt>
      <trkpt lat="47.27548" lon="-2.25051">
        <ele>5.1999998092651</ele>
        <time>2021-03-07T10:31:15.000Z</time>
      </trkpt>
      <trkpt lat="47.27552" lon="-2.25054">
        <ele>5.1999998092651</ele>
        <time>2021-03-07T10:31:16.000Z</time>
      </trkpt>
      <trkpt lat="47.27567" lon="-2.25063">
        <ele>5.1999998092651</ele>
        <time>2021-03-07T10:31:19.000Z</time>
      </trkpt>
      <trkpt lat="47.27587" lon="-2.25075">
        <ele>5.1999998092651</ele>
        <time>2021-03-07T10:31:23.000Z</time>
      </trkpt>
      <trkpt lat="47.27597" lon="-2.25081">
        <ele>5.1999998092651</ele>
        <time>2021-03-07T10:31:25.000Z</time>
      </trkpt>
      <trkpt lat="47.27627" lon="-2.25096">
        <ele>5.1999998092651</ele>
        <time>2021-03-07T10:31:31.000Z</time>
      </trkpt>
      <trkpt lat="47.27633" lon="-2.25097">
        <ele>5.1999998092651</ele>
        <time>2021-03-07T10:31:32.000Z</time>
      </trkpt>
      <trkpt lat="47.27643" lon="-2.25096">
        <ele>5.1999998092651</ele>
        <time>2021-03-07T10:31:34.000Z</time>
      </trkpt>
      <trkpt lat="47.27656" lon="-2.25093">
        <ele>5.1999998092651</ele>
        <time>2021-03-07T10:31:37.000Z</time>
      </trkpt>
      <trkpt lat="47.2766" lon="-2.25091">
        <ele>5.1999998092651</ele>
        <time>2021-03-07T10:31:38.000Z</time>
      </trkpt>
      <trkpt lat="47.27672" lon="-2.25085">
        <ele>5.1999998092651</ele>
        <time>2021-03-07T10:31:41.000Z</time>
      </trkpt>
      <trkpt lat="47.27689" lon="-2.2508">
        <ele>5.1999998092651</ele>
        <time>2021-03-07T10:31:45.000Z</time>
      </trkpt>
      <trkpt lat="47.27694" lon="-2.25078">
        <ele>5.1999998092651</ele>
        <time>2021-03-07T10:31:46.000Z</time>
      </trkpt>
      <trkpt lat="47.2771" lon="-2.25067">
        <ele>5.1999998092651</ele>
        <time>2021-03-07T10:31:50.000Z</time>
      </trkpt>
      <trkpt lat="47.27717" lon="-2.2506">
        <ele>5.1999998092651</ele>
        <time>2021-03-07T10:31:52.000Z</time>
      </trkpt>
      <trkpt lat="47.27724" lon="-2.25053">
        <ele>5.1999998092651</ele>
        <time>2021-03-07T10:31:54.000Z</time>
      </trkpt>
      <trkpt lat="47.27732" lon="-2.25046">
        <ele>5.1999998092651</ele>
        <time>2021-03-07T10:31:56.000Z</time>
      </trkpt>
      <trkpt lat="47.27745" lon="-2.25038">
        <ele>5.1999998092651</ele>
        <time>2021-03-07T10:31:59.000Z</time>
      </trkpt>
      <trkpt lat="47.27754" lon="-2.25032">
        <ele>5.1999998092651</ele>
        <time>2021-03-07T10:32:01.000Z</time>
      </trkpt>
      <trkpt lat="47.27764" lon="-2.25027">
        <ele>5.1999998092651</ele>
        <time>2021-03-07T10:32:03.000Z</time>
      </trkpt>
      <trkpt lat="47.27783" lon="-2.25023">
        <ele>5.1999998092651</ele>
        <time>2021-03-07T10:32:06.000Z</time>
      </trkpt>
      <trkpt lat="47.27788" lon="-2.25023">
        <ele>5.1999998092651</ele>
        <time>2021-03-07T10:32:07.000Z</time>
      </trkpt>
      <trkpt lat="47.27806" lon="-2.25025">
        <ele>5.1999998092651</ele>
        <time>2021-03-07T10:32:11.000Z</time>
      </trkpt>
      <trkpt lat="47.27823" lon="-2.25035">
        <ele>5.1999998092651</ele>
        <time>2021-03-07T10:32:15.000Z</time>
      </trkpt>
      <trkpt lat="47.27827" lon="-2.25038">
        <ele>5.1999998092651</ele>
        <time>2021-03-07T10:32:16.000Z</time>
      </trkpt>
      <trkpt lat="47.2785" lon="-2.25052">
        <ele>5.1999998092651</ele>
        <time>2021-03-07T10:32:22.000Z</time>
      </trkpt>
      <trkpt lat="47.27881" lon="-2.25066">
        <ele>5.1999998092651</ele>
        <time>2021-03-07T10:32:29.000Z</time>
      </trkpt>
      <trkpt lat="47.27892" lon="-2.25076">
        <ele>5.1999998092651</ele>
        <time>2021-03-07T10:32:32.000Z</time>
      </trkpt>
      <trkpt lat="47.27902" lon="-2.25082">
        <ele>5.1999998092651</ele>
        <time>2021-03-07T10:32:34.000Z</time>
      </trkpt>
      <trkpt lat="47.27923" lon="-2.25074">
        <ele>5.1999998092651</ele>
        <time>2021-03-07T10:32:38.000Z</time>
      </trkpt>
      <trkpt lat="47.27932" lon="-2.25072">
        <ele>5.1999998092651</ele>
        <time>2021-03-07T10:32:40.000Z</time>
      </trkpt>
      <trkpt lat="47.2795" lon="-2.25071">
        <ele>5.1999998092651</ele>
        <time>2021-03-07T10:32:44.000Z</time>
      </trkpt>
      <trkpt lat="47.27976" lon="-2.25069">
        <ele>5.1999998092651</ele>
        <time>2021-03-07T10:32:51.000Z</time>
      </trkpt>
      <trkpt lat="47.27985" lon="-2.25069">
        <ele>5.1999998092651</ele>
        <time>2021-03-07T10:32:53.000Z</time>
      </trkpt>
      <trkpt lat="47.27987" lon="-2.2507">
        <ele>5.1999998092651</ele>
        <time>2021-03-07T10:32:54.000Z</time>
      </trkpt>
      <trkpt lat="47.28006" lon="-2.25085">
        <ele>5.1999998092651</ele>
        <time>2021-03-07T10:33:00.000Z</time>
      </trkpt>
      <trkpt lat="47.28027" lon="-2.25101">
        <ele>5.1999998092651</ele>
        <time>2021-03-07T10:33:07.000Z</time>
      </trkpt>
      <trkpt lat="47.28033" lon="-2.25105">
        <ele>5.1999998092651</ele>
        <time>2021-03-07T10:33:11.000Z</time>
      </trkpt>
      <trkpt lat="47.28034" lon="-2.25106">
        <ele>5.1999998092651</ele>
        <time>2021-03-07T10:33:18.000Z</time>
      </trkpt>
      <trkpt lat="47.28047" lon="-2.25116">
        <ele>5.1999998092651</ele>
        <time>2021-03-07T10:33:23.000Z</time>
      </trkpt>
      <trkpt lat="47.28058" lon="-2.25125">
        <ele>5.1999998092651</ele>
        <time>2021-03-07T10:33:26.000Z</time>
      </trkpt>
      <trkpt lat="47.28072" lon="-2.25138">
        <ele>5.1999998092651</ele>
        <time>2021-03-07T10:33:30.000Z</time>
      </trkpt>
      <trkpt lat="47.28086" lon="-2.25152">
        <ele>5.1999998092651</ele>
        <time>2021-03-07T10:33:34.000Z</time>
      </trkpt>
      <trkpt lat="47.28091" lon="-2.2516">
        <ele>5.1999998092651</ele>
        <time>2021-03-07T10:33:36.000Z</time>
      </trkpt>
      <trkpt lat="47.28099" lon="-2.25185">
        <ele>5.1999998092651</ele>
        <time>2021-03-07T10:33:41.000Z</time>
      </trkpt>
      <trkpt lat="47.28096" lon="-2.2521">
        <ele>5.1999998092651</ele>
        <time>2021-03-07T10:33:45.000Z</time>
      </trkpt>
      <trkpt lat="47.28091" lon="-2.25246">
        <ele>5.1999998092651</ele>
        <time>2021-03-07T10:33:51.000Z</time>
      </trkpt>
      <trkpt lat="47.28087" lon="-2.25258">
        <ele>5.1999998092651</ele>
        <time>2021-03-07T10:33:53.000Z</time>
      </trkpt>
      <trkpt lat="47.28082" lon="-2.2527">
        <ele>5.1999998092651</ele>
        <time>2021-03-07T10:33:55.000Z</time>
      </trkpt>
      <trkpt lat="47.2808" lon="-2.25292">
        <ele>5.1999998092651</ele>
        <time>2021-03-07T10:33:58.000Z</time>
      </trkpt>
      <trkpt lat="47.2808" lon="-2.25299">
        <ele>5.1999998092651</ele>
        <time>2021-03-07T10:33:59.000Z</time>
      </trkpt>
      <trkpt lat="47.2808" lon="-2.25318">
        <ele>5.1999998092651</ele>
        <time>2021-03-07T10:34:02.000Z</time>
      </trkpt>
      <trkpt lat="47.28081" lon="-2.2533">
        <ele>5.1999998092651</ele>
        <time>2021-03-07T10:34:04.000Z</time>
      </trkpt>
      <trkpt lat="47.2808" lon="-2.25342">
        <ele>5.1999998092651</ele>
        <time>2021-03-07T10:34:06.000Z</time>
      </trkpt>
      <trkpt lat="47.28081" lon="-2.25359">
        <ele>5.1999998092651</ele>
        <time>2021-03-07T10:34:09.000Z</time>
      </trkpt>
      <trkpt lat="47.28082" lon="-2.25397">
        <ele>5.1999998092651</ele>
        <time>2021-03-07T10:34:15.000Z</time>
      </trkpt>
      <trkpt lat="47.28085" lon="-2.25426">
        <ele>5.1999998092651</ele>
        <time>2021-03-07T10:34:20.000Z</time>
      </trkpt>
      <trkpt lat="47.28085" lon="-2.25437">
        <ele>5.1999998092651</ele>
        <time>2021-03-07T10:34:22.000Z</time>
      </trkpt>
      <trkpt lat="47.28088" lon="-2.25455">
        <ele>5.1999998092651</ele>
        <time>2021-03-07T10:34:25.000Z</time>
      </trkpt>
      <trkpt lat="47.28094" lon="-2.25472">
        <ele>5.1999998092651</ele>
        <time>2021-03-07T10:34:29.000Z</time>
      </trkpt>
      <trkpt lat="47.28105" lon="-2.25471">
        <ele>5.1999998092651</ele>
        <time>2021-03-07T10:34:33.000Z</time>
      </trkpt>
      <trkpt lat="47.2811" lon="-2.25469">
        <ele>5.1999998092651</ele>
        <time>2021-03-07T10:34:35.000Z</time>
      </trkpt>
      <trkpt lat="47.28117" lon="-2.25463">
        <ele>5.1999998092651</ele>
        <time>2021-03-07T10:34:38.000Z</time>
      </trkpt>
      <trkpt lat="47.28136" lon="-2.25451">
        <ele>5.1999998092651</ele>
        <time>2021-03-07T10:34:44.000Z</time>
      </trkpt>
      <trkpt lat="47.28139" lon="-2.25449">
        <ele>5.5999999046326</ele>
        <time>2021-03-07T10:34:45.000Z</time>
      </trkpt>
      <trkpt lat="47.28143" lon="-2.25446">
        <ele>6</ele>
        <time>2021-03-07T10:34:46.000Z</time>
      </trkpt>
      <trkpt lat="47.28146" lon="-2.25443">
        <ele>6.4000000953674</ele>
        <time>2021-03-07T10:34:47.000Z</time>
      </trkpt>
      <trkpt lat="47.28149" lon="-2.25441">
        <ele>6.8000001907349</ele>
        <time>2021-03-07T10:34:48.000Z</time>
      </trkpt>
      <trkpt lat="47.28153" lon="-2.25438">
        <ele>7.1999998092651</ele>
        <time>2021-03-07T10:34:49.000Z</time>
      </trkpt>
      <trkpt lat="47.28172" lon="-2.2543">
        <ele>7.1999998092651</ele>
        <time>2021-03-07T10:34:54.000Z</time>
      </trkpt>
      <trkpt lat="47.28175" lon="-2.25427">
        <ele>7.1999998092651</ele>
        <time>2021-03-07T10:34:55.000Z</time>
      </trkpt>
      <trkpt lat="47.28191" lon="-2.25415">
        <ele>7.1999998092651</ele>
        <time>2021-03-07T10:35:00.000Z</time>
      </trkpt>
      <trkpt lat="47.28195" lon="-2.25412">
        <ele>7.5999999046326</ele>
        <time>2021-03-07T10:35:01.000Z</time>
      </trkpt>
      <trkpt lat="47.28199" lon="-2.2541">
        <ele>8</ele>
        <time>2021-03-07T10:35:02.000Z</time>
      </trkpt>
      <trkpt lat="47.28202" lon="-2.25408">
        <ele>8.6000003814697</ele>
        <time>2021-03-07T10:35:03.000Z</time>
      </trkpt>
      <trkpt lat="47.28206" lon="-2.25406">
        <ele>9</ele>
        <time>2021-03-07T10:35:04.000Z</time>
      </trkpt>
      <trkpt lat="47.28209" lon="-2.25403">
        <ele>9.3999996185303</ele>
        <time>2021-03-07T10:35:05.000Z</time>
      </trkpt>
      <trkpt lat="47.28226" lon="-2.25387">
        <ele>9.8000001907349</ele>
        <time>2021-03-07T10:35:11.000Z</time>
      </trkpt>
      <trkpt lat="47.28229" lon="-2.25385">
        <ele>10.199999809265</ele>
        <time>2021-03-07T10:35:12.000Z</time>
      </trkpt>
      <trkpt lat="47.28231" lon="-2.25382">
        <ele>10.800000190735</ele>
        <time>2021-03-07T10:35:13.000Z</time>
      </trkpt>
      <trkpt lat="47.28234" lon="-2.25379">
        <ele>11.199999809265</ele>
        <time>2021-03-07T10:35:14.000Z</time>
      </trkpt>
      <trkpt lat="47.28237" lon="-2.25377">
        <ele>11.60000038147</ele>
        <time>2021-03-07T10:35:15.000Z</time>
      </trkpt>
      <trkpt lat="47.28243" lon="-2.25374">
        <ele>11.60000038147</ele>
        <time>2021-03-07T10:35:17.000Z</time>
      </trkpt>
      <trkpt lat="47.28256" lon="-2.25368">
        <ele>12</ele>
        <time>2021-03-07T10:35:21.000Z</time>
      </trkpt>
      <trkpt lat="47.28259" lon="-2.25366">
        <ele>12.39999961853</ele>
        <time>2021-03-07T10:35:22.000Z</time>
      </trkpt>
      <trkpt lat="47.28262" lon="-2.25366">
        <ele>13</ele>
        <time>2021-03-07T10:35:23.000Z</time>
      </trkpt>
      <trkpt lat="47.28265" lon="-2.25365">
        <ele>13.39999961853</ele>
        <time>2021-03-07T10:35:24.000Z</time>
      </trkpt>
      <trkpt lat="47.28267" lon="-2.25365">
        <ele>13.800000190735</ele>
        <time>2021-03-07T10:35:25.000Z</time>
      </trkpt>
      <trkpt lat="47.28282" lon="-2.25362">
        <ele>13.800000190735</ele>
        <time>2021-03-07T10:35:30.000Z</time>
      </trkpt>
      <trkpt lat="47.28295" lon="-2.2536">
        <ele>13.800000190735</ele>
        <time>2021-03-07T10:35:34.000Z</time>
      </trkpt>
      <trkpt lat="47.28304" lon="-2.25357">
        <ele>14.199999809265</ele>
        <time>2021-03-07T10:35:38.000Z</time>
      </trkpt>
      <trkpt lat="47.28306" lon="-2.25356">
        <ele>14.60000038147</ele>
        <time>2021-03-07T10:35:39.000Z</time>
      </trkpt>
      <trkpt lat="47.28308" lon="-2.25355">
        <ele>15</ele>
        <time>2021-03-07T10:35:40.000Z</time>
      </trkpt>
      <trkpt lat="47.28311" lon="-2.25354">
        <ele>15.39999961853</ele>
        <time>2021-03-07T10:35:41.000Z</time>
      </trkpt>
      <trkpt lat="47.28313" lon="-2.25353">
        <ele>15.800000190735</ele>
        <time>2021-03-07T10:35:42.000Z</time>
      </trkpt>
      <trkpt lat="47.28316" lon="-2.25352">
        <ele>15.800000190735</ele>
        <time>2021-03-07T10:35:43.000Z</time>
      </trkpt>
      <trkpt lat="47.28327" lon="-2.25344">
        <ele>15.800000190735</ele>
        <time>2021-03-07T10:35:47.000Z</time>
      </trkpt>
      <trkpt lat="47.28352" lon="-2.25326">
        <ele>15.800000190735</ele>
        <time>2021-03-07T10:35:55.000Z</time>
      </trkpt>
      <trkpt lat="47.28369" lon="-2.25317">
        <ele>15.800000190735</ele>
        <time>2021-03-07T10:36:01.000Z</time>
      </trkpt>
      <trkpt lat="47.28374" lon="-2.25313">
        <ele>15.800000190735</ele>
        <time>2021-03-07T10:36:04.000Z</time>
      </trkpt>
      <trkpt lat="47.28378" lon="-2.25314">
        <ele>15.800000190735</ele>
        <time>2021-03-07T10:36:06.000Z</time>
      </trkpt>
      <trkpt lat="47.28381" lon="-2.25325">
        <ele>15.800000190735</ele>
        <time>2021-03-07T10:36:09.000Z</time>
      </trkpt>
      <trkpt lat="47.2838" lon="-2.25335">
        <ele>15.800000190735</ele>
        <time>2021-03-07T10:36:11.000Z</time>
      </trkpt>
      <trkpt lat="47.28378" lon="-2.25356">
        <ele>15.800000190735</ele>
        <time>2021-03-07T10:36:15.000Z</time>
      </trkpt>
      <trkpt lat="47.28378" lon="-2.25379">
        <ele>15.800000190735</ele>
        <time>2021-03-07T10:36:19.000Z</time>
      </trkpt>
      <trkpt lat="47.28377" lon="-2.25392">
        <ele>15.800000190735</ele>
        <time>2021-03-07T10:36:21.000Z</time>
      </trkpt>
      <trkpt lat="47.28377" lon="-2.25406">
        <ele>16.200000762939</ele>
        <time>2021-03-07T10:36:23.000Z</time>
      </trkpt>
      <trkpt lat="47.28377" lon="-2.25413">
        <ele>17</ele>
        <time>2021-03-07T10:36:24.000Z</time>
      </trkpt>
      <trkpt lat="47.28377" lon="-2.25421">
        <ele>17.39999961853</ele>
        <time>2021-03-07T10:36:25.000Z</time>
      </trkpt>
      <trkpt lat="47.28377" lon="-2.25429">
        <ele>18</ele>
        <time>2021-03-07T10:36:26.000Z</time>
      </trkpt>
      <trkpt lat="47.28377" lon="-2.25436">
        <ele>18</ele>
        <time>2021-03-07T10:36:27.000Z</time>
      </trkpt>
      <trkpt lat="47.28372" lon="-2.25487">
        <ele>18</ele>
        <time>2021-03-07T10:36:33.000Z</time>
      </trkpt>
      <trkpt lat="47.28368" lon="-2.25538">
        <ele>18</ele>
        <time>2021-03-07T10:36:39.000Z</time>
      </trkpt>
      <trkpt lat="47.28365" lon="-2.25587">
        <ele>18</ele>
        <time>2021-03-07T10:36:45.000Z</time>
      </trkpt>
      <trkpt lat="47.28364" lon="-2.25594">
        <ele>18</ele>
        <time>2021-03-07T10:36:46.000Z</time>
      </trkpt>
      <trkpt lat="47.28361" lon="-2.25626">
        <ele>18</ele>
        <time>2021-03-07T10:36:51.000Z</time>
      </trkpt>
      <trkpt lat="47.28362" lon="-2.25633">
        <ele>18</ele>
        <time>2021-03-07T10:36:52.000Z</time>
      </trkpt>
      <trkpt lat="47.28372" lon="-2.25643">
        <ele>18</ele>
        <time>2021-03-07T10:36:55.000Z</time>
      </trkpt>
      <trkpt lat="47.2838" lon="-2.25656">
        <ele>18</ele>
        <time>2021-03-07T10:36:58.000Z</time>
      </trkpt>
      <trkpt lat="47.28379" lon="-2.25675">
        <ele>18</ele>
        <time>2021-03-07T10:37:01.000Z</time>
      </trkpt>
      <trkpt lat="47.2838" lon="-2.25702">
        <ele>18</ele>
        <time>2021-03-07T10:37:06.000Z</time>
      </trkpt>
      <trkpt lat="47.28381" lon="-2.25726">
        <ele>18</ele>
        <time>2021-03-07T10:37:12.000Z</time>
      </trkpt>
      <trkpt lat="47.2838" lon="-2.25731">
        <ele>18</ele>
        <time>2021-03-07T10:37:14.000Z</time>
      </trkpt>
      <trkpt lat="47.2838" lon="-2.25737">
        <ele>18</ele>
        <time>2021-03-07T10:37:16.000Z</time>
      </trkpt>
      <trkpt lat="47.28379" lon="-2.25744">
        <ele>18</ele>
        <time>2021-03-07T10:37:18.000Z</time>
      </trkpt>
      <trkpt lat="47.28377" lon="-2.25764">
        <ele>18.39999961853</ele>
        <time>2021-03-07T10:37:22.000Z</time>
      </trkpt>
      <trkpt lat="47.28377" lon="-2.2577">
        <ele>18.799999237061</ele>
        <time>2021-03-07T10:37:23.000Z</time>
      </trkpt>
      <trkpt lat="47.28377" lon="-2.25775">
        <ele>19.200000762939</ele>
        <time>2021-03-07T10:37:24.000Z</time>
      </trkpt>
      <trkpt lat="47.28376" lon="-2.25779">
        <ele>19.60000038147</ele>
        <time>2021-03-07T10:37:25.000Z</time>
      </trkpt>
      <trkpt lat="47.28376" lon="-2.25784">
        <ele>20</ele>
        <time>2021-03-07T10:37:26.000Z</time>
      </trkpt>
      <trkpt lat="47.28376" lon="-2.25795">
        <ele>20</ele>
        <time>2021-03-07T10:37:29.000Z</time>
      </trkpt>
      <trkpt lat="47.28376" lon="-2.25801">
        <ele>20</ele>
        <time>2021-03-07T10:37:31.000Z</time>
      </trkpt>
      <trkpt lat="47.28374" lon="-2.25806">
        <ele>20</ele>
        <time>2021-03-07T10:37:33.000Z</time>
      </trkpt>
      <trkpt lat="47.28382" lon="-2.25811">
        <ele>20</ele>
        <time>2021-03-07T10:37:36.000Z</time>
      </trkpt>
      <trkpt lat="47.28386" lon="-2.25811">
        <ele>20</ele>
        <time>2021-03-07T10:37:37.000Z</time>
      </trkpt>
      <trkpt lat="47.28404" lon="-2.25814">
        <ele>20</ele>
        <time>2021-03-07T10:37:41.000Z</time>
      </trkpt>
      <trkpt lat="47.28436" lon="-2.25816">
        <ele>20</ele>
        <time>2021-03-07T10:37:48.000Z</time>
      </trkpt>
      <trkpt lat="47.28471" lon="-2.25822">
        <ele>20</ele>
        <time>2021-03-07T10:37:55.000Z</time>
      </trkpt>
      <trkpt lat="47.28492" lon="-2.25825">
        <ele>20</ele>
        <time>2021-03-07T10:37:59.000Z</time>
      </trkpt>
      <trkpt lat="47.28498" lon="-2.25826">
        <ele>20</ele>
        <time>2021-03-07T10:38:00.000Z</time>
      </trkpt>
      <trkpt lat="47.28509" lon="-2.25828">
        <ele>19</ele>
        <time>2021-03-07T10:38:02.000Z</time>
      </trkpt>
      <trkpt lat="47.28515" lon="-2.25829">
        <ele>18.60000038147</ele>
        <time>2021-03-07T10:38:03.000Z</time>
      </trkpt>
      <trkpt lat="47.28521" lon="-2.25831">
        <ele>18.200000762939</ele>
        <time>2021-03-07T10:38:04.000Z</time>
      </trkpt>
      <trkpt lat="47.28527" lon="-2.25832">
        <ele>17.799999237061</ele>
        <time>2021-03-07T10:38:05.000Z</time>
      </trkpt>
      <trkpt lat="47.28551" lon="-2.25839">
        <ele>17.799999237061</ele>
        <time>2021-03-07T10:38:09.000Z</time>
      </trkpt>
      <trkpt lat="47.28556" lon="-2.25842">
        <ele>17.799999237061</ele>
        <time>2021-03-07T10:38:10.000Z</time>
      </trkpt>
      <trkpt lat="47.28559" lon="-2.25848">
        <ele>17.39999961853</ele>
        <time>2021-03-07T10:38:11.000Z</time>
      </trkpt>
      <trkpt lat="47.28561" lon="-2.25854">
        <ele>17</ele>
        <time>2021-03-07T10:38:12.000Z</time>
      </trkpt>
      <trkpt lat="47.28562" lon="-2.2586">
        <ele>16.60000038147</ele>
        <time>2021-03-07T10:38:13.000Z</time>
      </trkpt>
      <trkpt lat="47.28562" lon="-2.25868">
        <ele>16.200000762939</ele>
        <time>2021-03-07T10:38:14.000Z</time>
      </trkpt>
      <trkpt lat="47.28562" lon="-2.25875">
        <ele>15.800000190735</ele>
        <time>2021-03-07T10:38:15.000Z</time>
      </trkpt>
      <trkpt lat="47.28562" lon="-2.25896">
        <ele>15.800000190735</ele>
        <time>2021-03-07T10:38:18.000Z</time>
      </trkpt>
      <trkpt lat="47.2856" lon="-2.25929">
        <ele>15.800000190735</ele>
        <time>2021-03-07T10:38:24.000Z</time>
      </trkpt>
      <trkpt lat="47.28563" lon="-2.25961">
        <ele>15.800000190735</ele>
        <time>2021-03-07T10:38:31.000Z</time>
      </trkpt>
      <trkpt lat="47.28568" lon="-2.25966">
        <ele>15.800000190735</ele>
        <time>2021-03-07T10:38:33.000Z</time>
      </trkpt>
      <trkpt lat="47.28571" lon="-2.25967">
        <ele>15.800000190735</ele>
        <time>2021-03-07T10:38:34.000Z</time>
      </trkpt>
      <trkpt lat="47.28596" lon="-2.2597">
        <ele>15.800000190735</ele>
        <time>2021-03-07T10:38:41.000Z</time>
      </trkpt>
      <trkpt lat="47.28598" lon="-2.25971">
        <ele>15.800000190735</ele>
        <time>2021-03-07T10:38:42.000Z</time>
      </trkpt>
      <trkpt lat="47.28604" lon="-2.25983">
        <ele>15.800000190735</ele>
        <time>2021-03-07T10:38:45.000Z</time>
      </trkpt>
      <trkpt lat="47.28606" lon="-2.25997">
        <ele>15.39999961853</ele>
        <time>2021-03-07T10:38:47.000Z</time>
      </trkpt>
      <trkpt lat="47.28606" lon="-2.26005">
        <ele>15</ele>
        <time>2021-03-07T10:38:48.000Z</time>
      </trkpt>
      <trkpt lat="47.28606" lon="-2.26013">
        <ele>14.60000038147</ele>
        <time>2021-03-07T10:38:49.000Z</time>
      </trkpt>
      <trkpt lat="47.28606" lon="-2.26021">
        <ele>14.199999809265</ele>
        <time>2021-03-07T10:38:50.000Z</time>
      </trkpt>
      <trkpt lat="47.28606" lon="-2.26028">
        <ele>13.60000038147</ele>
        <time>2021-03-07T10:38:51.000Z</time>
      </trkpt>
      <trkpt lat="47.28603" lon="-2.26072">
        <ele>13.60000038147</ele>
        <time>2021-03-07T10:38:57.000Z</time>
      </trkpt>
      <trkpt lat="47.28602" lon="-2.26122">
        <ele>13.60000038147</ele>
        <time>2021-03-07T10:39:04.000Z</time>
      </trkpt>
      <trkpt lat="47.28601" lon="-2.26171">
        <ele>13.60000038147</ele>
        <time>2021-03-07T10:39:10.000Z</time>
      </trkpt>
      <trkpt lat="47.28602" lon="-2.26198">
        <ele>13.60000038147</ele>
        <time>2021-03-07T10:39:13.000Z</time>
      </trkpt>
      <trkpt lat="47.28606" lon="-2.26215">
        <ele>13.60000038147</ele>
        <time>2021-03-07T10:39:15.000Z</time>
      </trkpt>
      <trkpt lat="47.28622" lon="-2.26244">
        <ele>13.60000038147</ele>
        <time>2021-03-07T10:39:19.000Z</time>
      </trkpt>
      <trkpt lat="47.28641" lon="-2.26291">
        <ele>13.60000038147</ele>
        <time>2021-03-07T10:39:25.000Z</time>
      </trkpt>
      <trkpt lat="47.28652" lon="-2.2632">
        <ele>13.60000038147</ele>
        <time>2021-03-07T10:39:29.000Z</time>
      </trkpt>
      <trkpt lat="47.28654" lon="-2.26327">
        <ele>13.60000038147</ele>
        <time>2021-03-07T10:39:30.000Z</time>
      </trkpt>
      <trkpt lat="47.2866" lon="-2.26342">
        <ele>13.60000038147</ele>
        <time>2021-03-07T10:39:32.000Z</time>
      </trkpt>
      <trkpt lat="47.28666" lon="-2.26356">
        <ele>13.60000038147</ele>
        <time>2021-03-07T10:39:34.000Z</time>
      </trkpt>
      <trkpt lat="47.28678" lon="-2.26372">
        <ele>13.60000038147</ele>
        <time>2021-03-07T10:39:37.000Z</time>
      </trkpt>
      <trkpt lat="47.28688" lon="-2.2638">
        <ele>13.60000038147</ele>
        <time>2021-03-07T10:39:39.000Z</time>
      </trkpt>
      <trkpt lat="47.28701" lon="-2.2639">
        <ele>13.60000038147</ele>
        <time>2021-03-07T10:39:42.000Z</time>
      </trkpt>
      <trkpt lat="47.28711" lon="-2.26399">
        <ele>13.60000038147</ele>
        <time>2021-03-07T10:39:45.000Z</time>
      </trkpt>
      <trkpt lat="47.28714" lon="-2.26397">
        <ele>13.60000038147</ele>
        <time>2021-03-07T10:39:46.000Z</time>
      </trkpt>
      <trkpt lat="47.28718" lon="-2.26382">
        <ele>13.60000038147</ele>
        <time>2021-03-07T10:39:49.000Z</time>
      </trkpt>
      <trkpt lat="47.28727" lon="-2.2636">
        <ele>13.60000038147</ele>
        <time>2021-03-07T10:39:53.000Z</time>
      </trkpt>
      <trkpt lat="47.28736" lon="-2.26361">
        <ele>13.60000038147</ele>
        <time>2021-03-07T10:39:55.000Z</time>
      </trkpt>
      <trkpt lat="47.2874" lon="-2.26361">
        <ele>13.60000038147</ele>
        <time>2021-03-07T10:39:56.000Z</time>
      </trkpt>
      <trkpt lat="47.28764" lon="-2.26363">
        <ele>14.199999809265</ele>
        <time>2021-03-07T10:40:01.000Z</time>
      </trkpt>
      <trkpt lat="47.28769" lon="-2.26363">
        <ele>14.60000038147</ele>
        <time>2021-03-07T10:40:02.000Z</time>
      </trkpt>
      <trkpt lat="47.28774" lon="-2.26364">
        <ele>15</ele>
        <time>2021-03-07T10:40:03.000Z</time>
      </trkpt>
      <trkpt lat="47.28778" lon="-2.26364">
        <ele>15.39999961853</ele>
        <time>2021-03-07T10:40:04.000Z</time>
      </trkpt>
      <trkpt lat="47.28783" lon="-2.26364">
        <ele>15.800000190735</ele>
        <time>2021-03-07T10:40:05.000Z</time>
      </trkpt>
      <trkpt lat="47.28802" lon="-2.26365">
        <ele>15.800000190735</ele>
        <time>2021-03-07T10:40:09.000Z</time>
      </trkpt>
      <trkpt lat="47.28806" lon="-2.26365">
        <ele>15.800000190735</ele>
        <time>2021-03-07T10:40:10.000Z</time>
      </trkpt>
      <trkpt lat="47.28824" lon="-2.26365">
        <ele>16.200000762939</ele>
        <time>2021-03-07T10:40:14.000Z</time>
      </trkpt>
      <trkpt lat="47.28828" lon="-2.26367">
        <ele>16.60000038147</ele>
        <time>2021-03-07T10:40:15.000Z</time>
      </trkpt>
      <trkpt lat="47.28832" lon="-2.26369">
        <ele>17</ele>
        <time>2021-03-07T10:40:16.000Z</time>
      </trkpt>
      <trkpt lat="47.28836" lon="-2.2637">
        <ele>17.39999961853</ele>
        <time>2021-03-07T10:40:17.000Z</time>
      </trkpt>
      <trkpt lat="47.28841" lon="-2.2637">
        <ele>17.799999237061</ele>
        <time>2021-03-07T10:40:18.000Z</time>
      </trkpt>
      <trkpt lat="47.28849" lon="-2.26368">
        <ele>17.799999237061</ele>
        <time>2021-03-07T10:40:20.000Z</time>
      </trkpt>
      <trkpt lat="47.28877" lon="-2.26362">
        <ele>17.799999237061</ele>
        <time>2021-03-07T10:40:26.000Z</time>
      </trkpt>
      <trkpt lat="47.28881" lon="-2.26362">
        <ele>17.799999237061</ele>
        <time>2021-03-07T10:40:27.000Z</time>
      </trkpt>
      <trkpt lat="47.28912" lon="-2.26365">
        <ele>17.799999237061</ele>
        <time>2021-03-07T10:40:34.000Z</time>
      </trkpt>
      <trkpt lat="47.28936" lon="-2.2637">
        <ele>17.799999237061</ele>
        <time>2021-03-07T10:40:40.000Z</time>
      </trkpt>
      <trkpt lat="47.28952" lon="-2.26368">
        <ele>17.799999237061</ele>
        <time>2021-03-07T10:40:44.000Z</time>
      </trkpt>
      <trkpt lat="47.28965" lon="-2.26363">
        <ele>17.799999237061</ele>
        <time>2021-03-07T10:40:47.000Z</time>
      </trkpt>
      <trkpt lat="47.28978" lon="-2.2636">
        <ele>17.799999237061</ele>
        <time>2021-03-07T10:40:50.000Z</time>
      </trkpt>
      <trkpt lat="47.28982" lon="-2.26361">
        <ele>17.799999237061</ele>
        <time>2021-03-07T10:40:51.000Z</time>
      </trkpt>
      <trkpt lat="47.2899" lon="-2.26368">
        <ele>17.799999237061</ele>
        <time>2021-03-07T10:40:53.000Z</time>
      </trkpt>
      <trkpt lat="47.28992" lon="-2.2638">
        <ele>17.799999237061</ele>
        <time>2021-03-07T10:40:56.000Z</time>
      </trkpt>
      <trkpt lat="47.28994" lon="-2.26402">
        <ele>17.799999237061</ele>
        <time>2021-03-07T10:41:00.000Z</time>
      </trkpt>
      <trkpt lat="47.28997" lon="-2.26422">
        <ele>17.799999237061</ele>
        <time>2021-03-07T10:41:04.000Z</time>
      </trkpt>
      <trkpt lat="47.29006" lon="-2.26444">
        <ele>17.799999237061</ele>
        <time>2021-03-07T10:41:09.000Z</time>
      </trkpt>
      <trkpt lat="47.29012" lon="-2.26456">
        <ele>17.39999961853</ele>
        <time>2021-03-07T10:41:12.000Z</time>
      </trkpt>
      <trkpt lat="47.29013" lon="-2.26461">
        <ele>16.799999237061</ele>
        <time>2021-03-07T10:41:13.000Z</time>
      </trkpt>
      <trkpt lat="47.29014" lon="-2.26466">
        <ele>16.200000762939</ele>
        <time>2021-03-07T10:41:14.000Z</time>
      </trkpt>
      <trkpt lat="47.29015" lon="-2.26472">
        <ele>15.800000190735</ele>
        <time>2021-03-07T10:41:15.000Z</time>
      </trkpt>
      <trkpt lat="47.29015" lon="-2.26478">
        <ele>15.199999809265</ele>
        <time>2021-03-07T10:41:16.000Z</time>
      </trkpt>
      <trkpt lat="47.29017" lon="-2.26494">
        <ele>15.199999809265</ele>
        <time>2021-03-07T10:41:18.000Z</time>
      </trkpt>
      <trkpt lat="47.29018" lon="-2.26501">
        <ele>15.199999809265</ele>
        <time>2021-03-07T10:41:19.000Z</time>
      </trkpt>
      <trkpt lat="47.29019" lon="-2.26508">
        <ele>14.800000190735</ele>
        <time>2021-03-07T10:41:20.000Z</time>
      </trkpt>
      <trkpt lat="47.2902" lon="-2.26513">
        <ele>14.39999961853</ele>
        <time>2021-03-07T10:41:21.000Z</time>
      </trkpt>
      <trkpt lat="47.2902" lon="-2.26518">
        <ele>14</ele>
        <time>2021-03-07T10:41:22.000Z</time>
      </trkpt>
      <trkpt lat="47.29019" lon="-2.2652">
        <ele>13.39999961853</ele>
        <time>2021-03-07T10:41:23.000Z</time>
      </trkpt>
      <trkpt lat="47.29019" lon="-2.26522">
        <ele>13</ele>
        <time>2021-03-07T10:41:24.000Z</time>
      </trkpt>
      <trkpt lat="47.2902" lon="-2.26525">
        <ele>13</ele>
        <time>2021-03-07T10:41:25.000Z</time>
      </trkpt>
      <trkpt lat="47.29028" lon="-2.26535">
        <ele>13</ele>
        <time>2021-03-07T10:41:28.000Z</time>
      </trkpt>
      <trkpt lat="47.29035" lon="-2.26562">
        <ele>13</ele>
        <time>2021-03-07T10:41:32.000Z</time>
      </trkpt>
      <trkpt lat="47.29041" lon="-2.26583">
        <ele>13</ele>
        <time>2021-03-07T10:41:36.000Z</time>
      </trkpt>
      <trkpt lat="47.29042" lon="-2.26603">
        <ele>13</ele>
        <time>2021-03-07T10:41:39.000Z</time>
      </trkpt>
      <trkpt lat="47.29043" lon="-2.26612">
        <ele>13</ele>
        <time>2021-03-07T10:41:40.000Z</time>
      </trkpt>
      <trkpt lat="47.29049" lon="-2.26673">
        <ele>13</ele>
        <time>2021-03-07T10:41:47.000Z</time>
      </trkpt>
      <trkpt lat="47.29051" lon="-2.26694">
        <ele>12.60000038147</ele>
        <time>2021-03-07T10:41:49.000Z</time>
      </trkpt>
      <trkpt lat="47.29053" lon="-2.26704">
        <ele>12.199999809265</ele>
        <time>2021-03-07T10:41:50.000Z</time>
      </trkpt>
      <trkpt lat="47.29054" lon="-2.26716">
        <ele>11.800000190735</ele>
        <time>2021-03-07T10:41:51.000Z</time>
      </trkpt>
      <trkpt lat="47.29055" lon="-2.26728">
        <ele>11.39999961853</ele>
        <time>2021-03-07T10:41:52.000Z</time>
      </trkpt>
      <trkpt lat="47.29057" lon="-2.26741">
        <ele>11</ele>
        <time>2021-03-07T10:41:53.000Z</time>
      </trkpt>
      <trkpt lat="47.29061" lon="-2.26769">
        <ele>10.60000038147</ele>
        <time>2021-03-07T10:41:55.000Z</time>
      </trkpt>
      <trkpt lat="47.29062" lon="-2.26784">
        <ele>10.199999809265</ele>
        <time>2021-03-07T10:41:56.000Z</time>
      </trkpt>
      <trkpt lat="47.29063" lon="-2.26798">
        <ele>9.8000001907349</ele>
        <time>2021-03-07T10:41:57.000Z</time>
      </trkpt>
      <trkpt lat="47.29063" lon="-2.26812">
        <ele>9.3999996185303</ele>
        <time>2021-03-07T10:41:58.000Z</time>
      </trkpt>
      <trkpt lat="47.29062" lon="-2.26826">
        <ele>9</ele>
        <time>2021-03-07T10:41:59.000Z</time>
      </trkpt>
      <trkpt lat="47.29061" lon="-2.26855">
        <ele>9</ele>
        <time>2021-03-07T10:42:01.000Z</time>
      </trkpt>
      <trkpt lat="47.2906" lon="-2.26906">
        <ele>8.6000003814697</ele>
        <time>2021-03-07T10:42:05.000Z</time>
      </trkpt>
      <trkpt lat="47.29059" lon="-2.26917">
        <ele>8</ele>
        <time>2021-03-07T10:42:06.000Z</time>
      </trkpt>
      <trkpt lat="47.2906" lon="-2.26928">
        <ele>7.4000000953674</ele>
        <time>2021-03-07T10:42:07.000Z</time>
      </trkpt>
      <trkpt lat="47.29059" lon="-2.26939">
        <ele>7</ele>
        <time>2021-03-07T10:42:08.000Z</time>
      </trkpt>
      <trkpt lat="47.29058" lon="-2.26949">
        <ele>6.4000000953674</ele>
        <time>2021-03-07T10:42:09.000Z</time>
      </trkpt>
      <trkpt lat="47.29058" lon="-2.2696">
        <ele>6.4000000953674</ele>
        <time>2021-03-07T10:42:10.000Z</time>
      </trkpt>
      <trkpt lat="47.29056" lon="-2.27001">
        <ele>6.4000000953674</ele>
        <time>2021-03-07T10:42:15.000Z</time>
      </trkpt>
      <trkpt lat="47.29054" lon="-2.27015">
        <ele>6.4000000953674</ele>
        <time>2021-03-07T10:42:17.000Z</time>
      </trkpt>
      <trkpt lat="47.29057" lon="-2.27028">
        <ele>6.4000000953674</ele>
        <time>2021-03-07T10:42:19.000Z</time>
      </trkpt>
      <trkpt lat="47.29063" lon="-2.27047">
        <ele>6.4000000953674</ele>
        <time>2021-03-07T10:42:23.000Z</time>
      </trkpt>
      <trkpt lat="47.29062" lon="-2.27052">
        <ele>6</ele>
        <time>2021-03-07T10:42:24.000Z</time>
      </trkpt>
      <trkpt lat="47.29061" lon="-2.27058">
        <ele>5.5999999046326</ele>
        <time>2021-03-07T10:42:25.000Z</time>
      </trkpt>
      <trkpt lat="47.2906" lon="-2.27064">
        <ele>5.1999998092651</ele>
        <time>2021-03-07T10:42:26.000Z</time>
      </trkpt>
      <trkpt lat="47.29059" lon="-2.27069">
        <ele>4.8000001907349</ele>
        <time>2021-03-07T10:42:27.000Z</time>
      </trkpt>
      <trkpt lat="47.29056" lon="-2.27074">
        <ele>4.4000000953674</ele>
        <time>2021-03-07T10:42:28.000Z</time>
      </trkpt>
      <trkpt lat="47.29042" lon="-2.2709">
        <ele>4.4000000953674</ele>
        <time>2021-03-07T10:42:32.000Z</time>
      </trkpt>
      <trkpt lat="47.29033" lon="-2.27093">
        <ele>4.4000000953674</ele>
        <time>2021-03-07T10:42:34.000Z</time>
      </trkpt>
      <trkpt lat="47.29028" lon="-2.27096">
        <ele>4.4000000953674</ele>
        <time>2021-03-07T10:42:35.000Z</time>
      </trkpt>
      <trkpt lat="47.29025" lon="-2.27101">
        <ele>4.4000000953674</ele>
        <time>2021-03-07T10:42:36.000Z</time>
      </trkpt>
      <trkpt lat="47.29024" lon="-2.27116">
        <ele>4.4000000953674</ele>
        <time>2021-03-07T10:42:39.000Z</time>
      </trkpt>
      <trkpt lat="47.29034" lon="-2.27128">
        <ele>4.8000001907349</ele>
        <time>2021-03-07T10:42:42.000Z</time>
      </trkpt>
      <trkpt lat="47.29038" lon="-2.27131">
        <ele>5.1999998092651</ele>
        <time>2021-03-07T10:42:43.000Z</time>
      </trkpt>
      <trkpt lat="47.29042" lon="-2.27136">
        <ele>5.8000001907349</ele>
        <time>2021-03-07T10:42:44.000Z</time>
      </trkpt>
      <trkpt lat="47.29047" lon="-2.2714">
        <ele>6.1999998092651</ele>
        <time>2021-03-07T10:42:45.000Z</time>
      </trkpt>
      <trkpt lat="47.29051" lon="-2.27145">
        <ele>6.5999999046326</ele>
        <time>2021-03-07T10:42:46.000Z</time>
      </trkpt>
      <trkpt lat="47.29057" lon="-2.27156">
        <ele>6.5999999046326</ele>
        <time>2021-03-07T10:42:48.000Z</time>
      </trkpt>
      <trkpt lat="47.29059" lon="-2.27163">
        <ele>6.5999999046326</ele>
        <time>2021-03-07T10:42:49.000Z</time>
      </trkpt>
      <trkpt lat="47.29061" lon="-2.27169">
        <ele>6.5999999046326</ele>
        <time>2021-03-07T10:42:50.000Z</time>
      </trkpt>
      <trkpt lat="47.29071" lon="-2.27186">
        <ele>6.5999999046326</ele>
        <time>2021-03-07T10:42:53.000Z</time>
      </trkpt>
      <trkpt lat="47.29076" lon="-2.27191">
        <ele>6.5999999046326</ele>
        <time>2021-03-07T10:42:54.000Z</time>
      </trkpt>
      <trkpt lat="47.29087" lon="-2.27197">
        <ele>6.5999999046326</ele>
        <time>2021-03-07T10:42:56.000Z</time>
      </trkpt>
      <trkpt lat="47.29091" lon="-2.27196">
        <ele>6.5999999046326</ele>
        <time>2021-03-07T10:42:57.000Z</time>
      </trkpt>
      <trkpt lat="47.29098" lon="-2.27196">
        <ele>6.1999998092651</ele>
        <time>2021-03-07T10:42:59.000Z</time>
      </trkpt>
      <trkpt lat="47.29101" lon="-2.27196">
        <ele>5.8000001907349</ele>
        <time>2021-03-07T10:43:00.000Z</time>
      </trkpt>
      <trkpt lat="47.29103" lon="-2.27196">
        <ele>5.4000000953674</ele>
        <time>2021-03-07T10:43:01.000Z</time>
      </trkpt>
      <trkpt lat="47.29105" lon="-2.27196">
        <ele>5</ele>
        <time>2021-03-07T10:43:02.000Z</time>
      </trkpt>
      <trkpt lat="47.29107" lon="-2.27197">
        <ele>4.5999999046326</ele>
        <time>2021-03-07T10:43:03.000Z</time>
      </trkpt>
      <trkpt lat="47.29111" lon="-2.27199">
        <ele>4.5999999046326</ele>
        <time>2021-03-07T10:43:05.000Z</time>
      </trkpt>
      <trkpt lat="47.29112" lon="-2.272">
        <ele>4.5999999046326</ele>
        <time>2021-03-07T10:43:06.000Z</time>
      </trkpt>
      <trkpt lat="47.29113" lon="-2.27201">
        <ele>4.5999999046326</ele>
        <time>2021-03-07T10:43:07.000Z</time>
      </trkpt>
      <trkpt lat="47.29112" lon="-2.27206">
        <ele>4.5999999046326</ele>
        <time>2021-03-07T10:43:10.000Z</time>
      </trkpt>
      <trkpt lat="47.29113" lon="-2.27208">
        <ele>4.5999999046326</ele>
        <time>2021-03-07T10:43:11.000Z</time>
      </trkpt>
      <trkpt lat="47.29112" lon="-2.27215">
        <ele>4.5999999046326</ele>
        <time>2021-03-07T10:43:14.000Z</time>
      </trkpt>
      <trkpt lat="47.29111" lon="-2.2722">
        <ele>4.5999999046326</ele>
        <time>2021-03-07T10:43:16.000Z</time>
      </trkpt>
      <trkpt lat="47.29111" lon="-2.2723">
        <ele>4.5999999046326</ele>
        <time>2021-03-07T10:43:18.000Z</time>
      </trkpt>
      <trkpt lat="47.2911" lon="-2.27238">
        <ele>4.5999999046326</ele>
        <time>2021-03-07T10:43:19.000Z</time>
      </trkpt>
      <trkpt lat="47.29105" lon="-2.27261">
        <ele>4.5999999046326</ele>
        <time>2021-03-07T10:43:23.000Z</time>
      </trkpt>
      <trkpt lat="47.29104" lon="-2.27265">
        <ele>4.5999999046326</ele>
        <time>2021-03-07T10:43:24.000Z</time>
      </trkpt>
      <trkpt lat="47.29102" lon="-2.27281">
        <ele>4.5999999046326</ele>
        <time>2021-03-07T10:43:27.000Z</time>
      </trkpt>
      <trkpt lat="47.29096" lon="-2.27319">
        <ele>4.5999999046326</ele>
        <time>2021-03-07T10:43:33.000Z</time>
      </trkpt>
      <trkpt lat="47.29093" lon="-2.27342">
        <ele>4.5999999046326</ele>
        <time>2021-03-07T10:43:37.000Z</time>
      </trkpt>
      <trkpt lat="47.29094" lon="-2.27345">
        <ele>4.5999999046326</ele>
        <time>2021-03-07T10:43:38.000Z</time>
      </trkpt>
      <trkpt lat="47.29097" lon="-2.27356">
        <ele>4.5999999046326</ele>
        <time>2021-03-07T10:43:41.000Z</time>
      </trkpt>
      <trkpt lat="47.29099" lon="-2.27369">
        <ele>4.5999999046326</ele>
        <time>2021-03-07T10:43:43.000Z</time>
      </trkpt>
      <trkpt lat="47.29102" lon="-2.27383">
        <ele>4.5999999046326</ele>
        <time>2021-03-07T10:43:45.000Z</time>
      </trkpt>
      <trkpt lat="47.29104" lon="-2.27392">
        <ele>4.5999999046326</ele>
        <time>2021-03-07T10:43:46.000Z</time>
      </trkpt>
      <trkpt lat="47.29106" lon="-2.27415">
        <ele>4.5999999046326</ele>
        <time>2021-03-07T10:43:49.000Z</time>
      </trkpt>
      <trkpt lat="47.29107" lon="-2.27422">
        <ele>4.5999999046326</ele>
        <time>2021-03-07T10:43:50.000Z</time>
      </trkpt>
      <trkpt lat="47.29106" lon="-2.27445">
        <ele>4.5999999046326</ele>
        <time>2021-03-07T10:43:53.000Z</time>
      </trkpt>
      <trkpt lat="47.29105" lon="-2.2746">
        <ele>4.5999999046326</ele>
        <time>2021-03-07T10:43:55.000Z</time>
      </trkpt>
      <trkpt lat="47.29104" lon="-2.27467">
        <ele>4.5999999046326</ele>
        <time>2021-03-07T10:43:56.000Z</time>
      </trkpt>
      <trkpt lat="47.29104" lon="-2.27488">
        <ele>5</ele>
        <time>2021-03-07T10:43:59.000Z</time>
      </trkpt>
      <trkpt lat="47.29104" lon="-2.27493">
        <ele>5.4000000953674</ele>
        <time>2021-03-07T10:44:00.000Z</time>
      </trkpt>
      <trkpt lat="47.29104" lon="-2.27499">
        <ele>5.8000001907349</ele>
        <time>2021-03-07T10:44:01.000Z</time>
      </trkpt>
      <trkpt lat="47.29104" lon="-2.27504">
        <ele>6.1999998092651</ele>
        <time>2021-03-07T10:44:02.000Z</time>
      </trkpt>
      <trkpt lat="47.29104" lon="-2.27508">
        <ele>6.5999999046326</ele>
        <time>2021-03-07T10:44:03.000Z</time>
      </trkpt>
      <trkpt lat="47.29104" lon="-2.27519">
        <ele>6.5999999046326</ele>
        <time>2021-03-07T10:44:07.000Z</time>
      </trkpt>
      <trkpt lat="47.29104" lon="-2.2752">
        <ele>6.5999999046326</ele>
        <time>2021-03-07T10:44:08.000Z</time>
      </trkpt>
      <trkpt lat="47.29104" lon="-2.2753">
        <ele>6.5999999046326</ele>
        <time>2021-03-07T10:48:16.000Z</time>
      </trkpt>
      <trkpt lat="47.29104" lon="-2.27531">
        <ele>6.5999999046326</ele>
        <time>2021-03-07T10:48:17.000Z</time>
      </trkpt>
      <trkpt lat="47.29097" lon="-2.27531">
        <ele>6.5999999046326</ele>
        <time>2021-03-07T10:48:23.000Z</time>
      </trkpt>
      <trkpt lat="47.29084" lon="-2.27531">
        <ele>6.5999999046326</ele>
        <time>2021-03-07T10:48:31.000Z</time>
      </trkpt>
      <trkpt lat="47.29083" lon="-2.2753">
        <ele>6.5999999046326</ele>
        <time>2021-03-07T10:48:32.000Z</time>
      </trkpt>
      <trkpt lat="47.29077" lon="-2.27528">
        <ele>6.5999999046326</ele>
        <time>2021-03-07T10:48:36.000Z</time>
      </trkpt>
      <trkpt lat="47.29064" lon="-2.27529">
        <ele>6.5999999046326</ele>
        <time>2021-03-07T10:48:40.000Z</time>
      </trkpt>
      <trkpt lat="47.29041" lon="-2.27529">
        <ele>6.5999999046326</ele>
        <time>2021-03-07T10:48:46.000Z</time>
      </trkpt>
      <trkpt lat="47.29036" lon="-2.27528">
        <ele>6.5999999046326</ele>
        <time>2021-03-07T10:48:47.000Z</time>
      </trkpt>
      <trkpt lat="47.29016" lon="-2.27527">
        <ele>6.5999999046326</ele>
        <time>2021-03-07T10:48:51.000Z</time>
      </trkpt>
      <trkpt lat="47.28979" lon="-2.27527">
        <ele>6.5999999046326</ele>
        <time>2021-03-07T10:48:58.000Z</time>
      </trkpt>
      <trkpt lat="47.28964" lon="-2.27528">
        <ele>6.5999999046326</ele>
        <time>2021-03-07T10:49:01.000Z</time>
      </trkpt>
      <trkpt lat="47.28953" lon="-2.27527">
        <ele>6.5999999046326</ele>
        <time>2021-03-07T10:49:03.000Z</time>
      </trkpt>
      <trkpt lat="47.28913" lon="-2.27528">
        <ele>6.5999999046326</ele>
        <time>2021-03-07T10:49:10.000Z</time>
      </trkpt>
      <trkpt lat="47.28876" lon="-2.27532">
        <ele>6.5999999046326</ele>
        <time>2021-03-07T10:49:17.000Z</time>
      </trkpt>
      <trkpt lat="47.28839" lon="-2.27538">
        <ele>6.5999999046326</ele>
        <time>2021-03-07T10:49:24.000Z</time>
      </trkpt>
      <trkpt lat="47.28818" lon="-2.27544">
        <ele>6.5999999046326</ele>
        <time>2021-03-07T10:49:28.000Z</time>
      </trkpt>
      <trkpt lat="47.28807" lon="-2.27551">
        <ele>6.5999999046326</ele>
        <time>2021-03-07T10:49:30.000Z</time>
      </trkpt>
      <trkpt lat="47.28788" lon="-2.27571">
        <ele>6.5999999046326</ele>
        <time>2021-03-07T10:49:34.000Z</time>
      </trkpt>
      <trkpt lat="47.28784" lon="-2.27576">
        <ele>6.5999999046326</ele>
        <time>2021-03-07T10:49:35.000Z</time>
      </trkpt>
      <trkpt lat="47.28755" lon="-2.27611">
        <ele>6.5999999046326</ele>
        <time>2021-03-07T10:49:42.000Z</time>
      </trkpt>
      <trkpt lat="47.2872" lon="-2.27663">
        <ele>6.5999999046326</ele>
        <time>2021-03-07T10:49:50.000Z</time>
      </trkpt>
      <trkpt lat="47.28687" lon="-2.27715">
        <ele>6.5999999046326</ele>
        <time>2021-03-07T10:49:58.000Z</time>
      </trkpt>
      <trkpt lat="47.28671" lon="-2.27745">
        <ele>6.5999999046326</ele>
        <time>2021-03-07T10:50:03.000Z</time>
      </trkpt>
      <trkpt lat="47.28661" lon="-2.27767">
        <ele>6.5999999046326</ele>
        <time>2021-03-07T10:50:06.000Z</time>
      </trkpt>
      <trkpt lat="47.28656" lon="-2.27781">
        <ele>6.5999999046326</ele>
        <time>2021-03-07T10:50:08.000Z</time>
      </trkpt>
      <trkpt lat="47.28647" lon="-2.27813">
        <ele>6.5999999046326</ele>
        <time>2021-03-07T10:50:12.000Z</time>
      </trkpt>
      <trkpt lat="47.28644" lon="-2.27828">
        <ele>6.5999999046326</ele>
        <time>2021-03-07T10:50:14.000Z</time>
      </trkpt>
      <trkpt lat="47.28637" lon="-2.27867">
        <ele>6.5999999046326</ele>
        <time>2021-03-07T10:50:19.000Z</time>
      </trkpt>
      <trkpt lat="47.28635" lon="-2.27874">
        <ele>6.5999999046326</ele>
        <time>2021-03-07T10:50:20.000Z</time>
      </trkpt>
      <trkpt lat="47.2863" lon="-2.27898">
        <ele>7.1999998092651</ele>
        <time>2021-03-07T10:50:23.000Z</time>
      </trkpt>
      <trkpt lat="47.2863" lon="-2.27905">
        <ele>7.5999999046326</ele>
        <time>2021-03-07T10:50:24.000Z</time>
      </trkpt>
      <trkpt lat="47.28629" lon="-2.27912">
        <ele>8</ele>
        <time>2021-03-07T10:50:25.000Z</time>
      </trkpt>
      <trkpt lat="47.28628" lon="-2.2792">
        <ele>8.3999996185303</ele>
        <time>2021-03-07T10:50:26.000Z</time>
      </trkpt>
      <trkpt lat="47.28628" lon="-2.27928">
        <ele>8.8000001907349</ele>
        <time>2021-03-07T10:50:27.000Z</time>
      </trkpt>
      <trkpt lat="47.28622" lon="-2.27947">
        <ele>8.8000001907349</ele>
        <time>2021-03-07T10:50:30.000Z</time>
      </trkpt>
      <trkpt lat="47.28611" lon="-2.27974">
        <ele>8.8000001907349</ele>
        <time>2021-03-07T10:50:34.000Z</time>
      </trkpt>
      <trkpt lat="47.28597" lon="-2.28014">
        <ele>8.8000001907349</ele>
        <time>2021-03-07T10:50:40.000Z</time>
      </trkpt>
      <trkpt lat="47.28584" lon="-2.28029">
        <ele>8.8000001907349</ele>
        <time>2021-03-07T10:50:44.000Z</time>
      </trkpt>
      <trkpt lat="47.28581" lon="-2.28033">
        <ele>8.8000001907349</ele>
        <time>2021-03-07T10:50:45.000Z</time>
      </trkpt>
      <trkpt lat="47.28568" lon="-2.28047">
        <ele>8.8000001907349</ele>
        <time>2021-03-07T10:50:50.000Z</time>
      </trkpt>
      <trkpt lat="47.28557" lon="-2.28053">
        <ele>8.8000001907349</ele>
        <time>2021-03-07T10:50:55.000Z</time>
      </trkpt>
      <trkpt lat="47.28554" lon="-2.28051">
        <ele>9.1999998092651</ele>
        <time>2021-03-07T10:50:56.000Z</time>
      </trkpt>
      <trkpt lat="47.28551" lon="-2.2805">
        <ele>9.6000003814697</ele>
        <time>2021-03-07T10:50:57.000Z</time>
      </trkpt>
      <trkpt lat="47.28548" lon="-2.28049">
        <ele>10</ele>
        <time>2021-03-07T10:50:58.000Z</time>
      </trkpt>
      <trkpt lat="47.28546" lon="-2.28048">
        <ele>10.39999961853</ele>
        <time>2021-03-07T10:50:59.000Z</time>
      </trkpt>
      <trkpt lat="47.28544" lon="-2.28048">
        <ele>10.800000190735</ele>
        <time>2021-03-07T10:51:00.000Z</time>
      </trkpt>
      <trkpt lat="47.28537" lon="-2.28048">
        <ele>10.800000190735</ele>
        <time>2021-03-07T10:51:04.000Z</time>
      </trkpt>
      <trkpt lat="47.28534" lon="-2.28048">
        <ele>11.199999809265</ele>
        <time>2021-03-07T10:51:06.000Z</time>
      </trkpt>
      <trkpt lat="47.28533" lon="-2.28049">
        <ele>11.800000190735</ele>
        <time>2021-03-07T10:51:07.000Z</time>
      </trkpt>
      <trkpt lat="47.28532" lon="-2.28049">
        <ele>12.199999809265</ele>
        <time>2021-03-07T10:51:08.000Z</time>
      </trkpt>
      <trkpt lat="47.28531" lon="-2.2805">
        <ele>12.60000038147</ele>
        <time>2021-03-07T10:51:09.000Z</time>
      </trkpt>
      <trkpt lat="47.2853" lon="-2.2805">
        <ele>13</ele>
        <time>2021-03-07T10:51:10.000Z</time>
      </trkpt>
      <trkpt lat="47.28521" lon="-2.28048">
        <ele>13</ele>
        <time>2021-03-07T10:51:15.000Z</time>
      </trkpt>
      <trkpt lat="47.28518" lon="-2.28047">
        <ele>13.39999961853</ele>
        <time>2021-03-07T10:51:17.000Z</time>
      </trkpt>
      <trkpt lat="47.28516" lon="-2.28046">
        <ele>13.800000190735</ele>
        <time>2021-03-07T10:51:18.000Z</time>
      </trkpt>
      <trkpt lat="47.28515" lon="-2.28046">
        <ele>14.199999809265</ele>
        <time>2021-03-07T10:51:19.000Z</time>
      </trkpt>
      <trkpt lat="47.28513" lon="-2.28044">
        <ele>14.60000038147</ele>
        <time>2021-03-07T10:51:20.000Z</time>
      </trkpt>
      <trkpt lat="47.28511" lon="-2.28042">
        <ele>15</ele>
        <time>2021-03-07T10:51:21.000Z</time>
      </trkpt>
      <trkpt lat="47.28508" lon="-2.2804">
        <ele>15</ele>
        <time>2021-03-07T10:51:22.000Z</time>
      </trkpt>
      <trkpt lat="47.285" lon="-2.28035">
        <ele>15</ele>
        <time>2021-03-07T10:51:26.000Z</time>
      </trkpt>
      <trkpt lat="47.28498" lon="-2.28035">
        <ele>15.39999961853</ele>
        <time>2021-03-07T10:51:27.000Z</time>
      </trkpt>
      <trkpt lat="47.28496" lon="-2.28037">
        <ele>15.800000190735</ele>
        <time>2021-03-07T10:51:28.000Z</time>
      </trkpt>
      <trkpt lat="47.28495" lon="-2.28038">
        <ele>16.200000762939</ele>
        <time>2021-03-07T10:51:29.000Z</time>
      </trkpt>
      <trkpt lat="47.28493" lon="-2.28039">
        <ele>16.60000038147</ele>
        <time>2021-03-07T10:51:30.000Z</time>
      </trkpt>
      <trkpt lat="47.2849" lon="-2.2804">
        <ele>17</ele>
        <time>2021-03-07T10:51:31.000Z</time>
      </trkpt>
      <trkpt lat="47.28485" lon="-2.2805">
        <ele>17</ele>
        <time>2021-03-07T10:51:36.000Z</time>
      </trkpt>
      <trkpt lat="47.2849" lon="-2.28067">
        <ele>17</ele>
        <time>2021-03-07T10:51:41.000Z</time>
      </trkpt>
      <trkpt lat="47.28491" lon="-2.28075">
        <ele>17</ele>
        <time>2021-03-07T10:51:43.000Z</time>
      </trkpt>
      <trkpt lat="47.2849" lon="-2.2808">
        <ele>17</ele>
        <time>2021-03-07T10:51:44.000Z</time>
      </trkpt>
      <trkpt lat="47.28477" lon="-2.28093">
        <ele>17</ele>
        <time>2021-03-07T10:51:48.000Z</time>
      </trkpt>
      <trkpt lat="47.28472" lon="-2.28095">
        <ele>17</ele>
        <time>2021-03-07T10:51:49.000Z</time>
      </trkpt>
      <trkpt lat="47.28467" lon="-2.28097">
        <ele>16.60000038147</ele>
        <time>2021-03-07T10:51:50.000Z</time>
      </trkpt>
      <trkpt lat="47.28465" lon="-2.28094">
        <ele>16.200000762939</ele>
        <time>2021-03-07T10:51:51.000Z</time>
      </trkpt>
      <trkpt lat="47.28462" lon="-2.28092">
        <ele>15.800000190735</ele>
        <time>2021-03-07T10:51:52.000Z</time>
      </trkpt>
      <trkpt lat="47.2846" lon="-2.2809">
        <ele>15.39999961853</ele>
        <time>2021-03-07T10:51:53.000Z</time>
      </trkpt>
      <trkpt lat="47.28458" lon="-2.2809">
        <ele>15</ele>
        <time>2021-03-07T10:51:54.000Z</time>
      </trkpt>
      <trkpt lat="47.28452" lon="-2.28089">
        <ele>15</ele>
        <time>2021-03-07T10:51:56.000Z</time>
      </trkpt>
      <trkpt lat="47.28442" lon="-2.28086">
        <ele>15</ele>
        <time>2021-03-07T10:52:00.000Z</time>
      </trkpt>
      <trkpt lat="47.28433" lon="-2.28089">
        <ele>15</ele>
        <time>2021-03-07T10:52:03.000Z</time>
      </trkpt>
      <trkpt lat="47.28424" lon="-2.28089">
        <ele>15</ele>
        <time>2021-03-07T10:52:07.000Z</time>
      </trkpt>
      <trkpt lat="47.28412" lon="-2.28085">
        <ele>15</ele>
        <time>2021-03-07T10:52:11.000Z</time>
      </trkpt>
      <trkpt lat="47.28394" lon="-2.28082">
        <ele>15</ele>
        <time>2021-03-07T10:52:17.000Z</time>
      </trkpt>
      <trkpt lat="47.28382" lon="-2.28078">
        <ele>15</ele>
        <time>2021-03-07T10:52:22.000Z</time>
      </trkpt>
      <trkpt lat="47.28376" lon="-2.28076">
        <ele>15</ele>
        <time>2021-03-07T10:52:25.000Z</time>
      </trkpt>
      <trkpt lat="47.28375" lon="-2.28075">
        <ele>15</ele>
        <time>2021-03-07T10:52:26.000Z</time>
      </trkpt>
      <trkpt lat="47.28375" lon="-2.28068">
        <ele>15</ele>
        <time>2021-03-07T10:52:30.000Z</time>
      </trkpt>
      <trkpt lat="47.28375" lon="-2.28066">
        <ele>15</ele>
        <time>2021-03-07T10:52:31.000Z</time>
      </trkpt>
      <trkpt lat="47.28374" lon="-2.28059">
        <ele>15</ele>
        <time>2021-03-07T10:52:34.000Z</time>
      </trkpt>
      <trkpt lat="47.28372" lon="-2.28056">
        <ele>15</ele>
        <time>2021-03-07T10:52:36.000Z</time>
      </trkpt>
      <trkpt lat="47.2837" lon="-2.28058">
        <ele>15</ele>
        <time>2021-03-07T10:52:38.000Z</time>
      </trkpt>
      <trkpt lat="47.28366" lon="-2.28066">
        <ele>15</ele>
        <time>2021-03-07T10:52:40.000Z</time>
      </trkpt>
      <trkpt lat="47.2836" lon="-2.28087">
        <ele>15</ele>
        <time>2021-03-07T10:52:44.000Z</time>
      </trkpt>
      <trkpt lat="47.28358" lon="-2.2809">
        <ele>15</ele>
        <time>2021-03-07T10:52:45.000Z</time>
      </trkpt>
      <trkpt lat="47.28355" lon="-2.28091">
        <ele>14.60000038147</ele>
        <time>2021-03-07T10:52:46.000Z</time>
      </trkpt>
      <trkpt lat="47.28353" lon="-2.28093">
        <ele>14.199999809265</ele>
        <time>2021-03-07T10:52:47.000Z</time>
      </trkpt>
      <trkpt lat="47.28351" lon="-2.28094">
        <ele>13.800000190735</ele>
        <time>2021-03-07T10:52:48.000Z</time>
      </trkpt>
      <trkpt lat="47.28349" lon="-2.28095">
        <ele>13.39999961853</ele>
        <time>2021-03-07T10:52:49.000Z</time>
      </trkpt>
      <trkpt lat="47.28347" lon="-2.28096">
        <ele>13</ele>
        <time>2021-03-07T10:52:50.000Z</time>
      </trkpt>
      <trkpt lat="47.28331" lon="-2.28097">
        <ele>13</ele>
        <time>2021-03-07T10:52:54.000Z</time>
      </trkpt>
      <trkpt lat="47.28324" lon="-2.28106">
        <ele>13</ele>
        <time>2021-03-07T10:52:57.000Z</time>
      </trkpt>
      <trkpt lat="47.28323" lon="-2.28111">
        <ele>13</ele>
        <time>2021-03-07T10:52:58.000Z</time>
      </trkpt>
      <trkpt lat="47.28325" lon="-2.28139">
        <ele>13</ele>
        <time>2021-03-07T10:53:02.000Z</time>
      </trkpt>
      <trkpt lat="47.28326" lon="-2.28154">
        <ele>13.39999961853</ele>
        <time>2021-03-07T10:53:04.000Z</time>
      </trkpt>
      <trkpt lat="47.28326" lon="-2.28161">
        <ele>13.800000190735</ele>
        <time>2021-03-07T10:53:05.000Z</time>
      </trkpt>
      <trkpt lat="47.28326" lon="-2.28168">
        <ele>14.199999809265</ele>
        <time>2021-03-07T10:53:06.000Z</time>
      </trkpt>
      <trkpt lat="47.28326" lon="-2.28174">
        <ele>14.60000038147</ele>
        <time>2021-03-07T10:53:07.000Z</time>
      </trkpt>
      <trkpt lat="47.28326" lon="-2.28181">
        <ele>15.199999809265</ele>
        <time>2021-03-07T10:53:08.000Z</time>
      </trkpt>
      <trkpt lat="47.28325" lon="-2.28204">
        <ele>15.60000038147</ele>
        <time>2021-03-07T10:53:12.000Z</time>
      </trkpt>
      <trkpt lat="47.28326" lon="-2.2821">
        <ele>16</ele>
        <time>2021-03-07T10:53:13.000Z</time>
      </trkpt>
      <trkpt lat="47.28326" lon="-2.28216">
        <ele>17</ele>
        <time>2021-03-07T10:53:14.000Z</time>
      </trkpt>
      <trkpt lat="47.28326" lon="-2.28222">
        <ele>17.39999961853</ele>
        <time>2021-03-07T10:53:15.000Z</time>
      </trkpt>
      <trkpt lat="47.28326" lon="-2.28251">
        <ele>17.799999237061</ele>
        <time>2021-03-07T10:53:20.000Z</time>
      </trkpt>
      <trkpt lat="47.28326" lon="-2.28257">
        <ele>18.200000762939</ele>
        <time>2021-03-07T10:53:21.000Z</time>
      </trkpt>
      <trkpt lat="47.28326" lon="-2.28263">
        <ele>18.60000038147</ele>
        <time>2021-03-07T10:53:22.000Z</time>
      </trkpt>
      <trkpt lat="47.28326" lon="-2.28269">
        <ele>19</ele>
        <time>2021-03-07T10:53:23.000Z</time>
      </trkpt>
      <trkpt lat="47.28326" lon="-2.28275">
        <ele>19.39999961853</ele>
        <time>2021-03-07T10:53:24.000Z</time>
      </trkpt>
      <trkpt lat="47.28326" lon="-2.28305">
        <ele>19.39999961853</ele>
        <time>2021-03-07T10:53:29.000Z</time>
      </trkpt>
      <trkpt lat="47.28326" lon="-2.28311">
        <ele>19.799999237061</ele>
        <time>2021-03-07T10:53:30.000Z</time>
      </trkpt>
      <trkpt lat="47.28326" lon="-2.28317">
        <ele>20.200000762939</ele>
        <time>2021-03-07T10:53:31.000Z</time>
      </trkpt>
      <trkpt lat="47.28326" lon="-2.28323">
        <ele>20.799999237061</ele>
        <time>2021-03-07T10:53:32.000Z</time>
      </trkpt>
      <trkpt lat="47.28326" lon="-2.28329">
        <ele>21.200000762939</ele>
        <time>2021-03-07T10:53:33.000Z</time>
      </trkpt>
      <trkpt lat="47.28326" lon="-2.28335">
        <ele>21.60000038147</ele>
        <time>2021-03-07T10:53:34.000Z</time>
      </trkpt>
      <trkpt lat="47.28326" lon="-2.28342">
        <ele>21.60000038147</ele>
        <time>2021-03-07T10:53:35.000Z</time>
      </trkpt>
      <trkpt lat="47.28325" lon="-2.28368">
        <ele>21.60000038147</ele>
        <time>2021-03-07T10:53:39.000Z</time>
      </trkpt>
      <trkpt lat="47.28322" lon="-2.28381">
        <ele>21.60000038147</ele>
        <time>2021-03-07T10:53:41.000Z</time>
      </trkpt>
      <trkpt lat="47.28318" lon="-2.28402">
        <ele>21.60000038147</ele>
        <time>2021-03-07T10:53:44.000Z</time>
      </trkpt>
      <trkpt lat="47.28312" lon="-2.28422">
        <ele>21.60000038147</ele>
        <time>2021-03-07T10:53:47.000Z</time>
      </trkpt>
      <trkpt lat="47.28305" lon="-2.28447">
        <ele>21.60000038147</ele>
        <time>2021-03-07T10:53:51.000Z</time>
      </trkpt>
      <trkpt lat="47.283" lon="-2.28469">
        <ele>21.60000038147</ele>
        <time>2021-03-07T10:53:54.000Z</time>
      </trkpt>
      <trkpt lat="47.28291" lon="-2.28525">
        <ele>21.60000038147</ele>
        <time>2021-03-07T10:54:01.000Z</time>
      </trkpt>
      <trkpt lat="47.28279" lon="-2.28587">
        <ele>21.60000038147</ele>
        <time>2021-03-07T10:54:09.000Z</time>
      </trkpt>
      <trkpt lat="47.28266" lon="-2.28648">
        <ele>21.60000038147</ele>
        <time>2021-03-07T10:54:17.000Z</time>
      </trkpt>
      <trkpt lat="47.28262" lon="-2.2867">
        <ele>21.60000038147</ele>
        <time>2021-03-07T10:54:20.000Z</time>
      </trkpt>
      <trkpt lat="47.28257" lon="-2.28693">
        <ele>21.60000038147</ele>
        <time>2021-03-07T10:54:23.000Z</time>
      </trkpt>
      <trkpt lat="47.28247" lon="-2.2875">
        <ele>21.60000038147</ele>
        <time>2021-03-07T10:54:30.000Z</time>
      </trkpt>
      <trkpt lat="47.2824" lon="-2.28808">
        <ele>21.60000038147</ele>
        <time>2021-03-07T10:54:37.000Z</time>
      </trkpt>
      <trkpt lat="47.28231" lon="-2.28855">
        <ele>21.60000038147</ele>
        <time>2021-03-07T10:54:43.000Z</time>
      </trkpt>
      <trkpt lat="47.28228" lon="-2.28862">
        <ele>21.60000038147</ele>
        <time>2021-03-07T10:54:44.000Z</time>
      </trkpt>
      <trkpt lat="47.28214" lon="-2.28872">
        <ele>21.60000038147</ele>
        <time>2021-03-07T10:54:47.000Z</time>
      </trkpt>
      <trkpt lat="47.28197" lon="-2.28864">
        <ele>21.60000038147</ele>
        <time>2021-03-07T10:54:50.000Z</time>
      </trkpt>
      <trkpt lat="47.28187" lon="-2.28854">
        <ele>21.60000038147</ele>
        <time>2021-03-07T10:54:52.000Z</time>
      </trkpt>
      <trkpt lat="47.28164" lon="-2.28833">
        <ele>21.60000038147</ele>
        <time>2021-03-07T10:54:56.000Z</time>
      </trkpt>
      <trkpt lat="47.28125" lon="-2.28802">
        <ele>21.60000038147</ele>
        <time>2021-03-07T10:55:02.000Z</time>
      </trkpt>
      <trkpt lat="47.2811" lon="-2.28793">
        <ele>21.200000762939</ele>
        <time>2021-03-07T10:55:04.000Z</time>
      </trkpt>
      <trkpt lat="47.28104" lon="-2.28789">
        <ele>20.799999237061</ele>
        <time>2021-03-07T10:55:05.000Z</time>
      </trkpt>
      <trkpt lat="47.28097" lon="-2.28785">
        <ele>20.39999961853</ele>
        <time>2021-03-07T10:55:06.000Z</time>
      </trkpt>
      <trkpt lat="47.2809" lon="-2.2878">
        <ele>20</ele>
        <time>2021-03-07T10:55:07.000Z</time>
      </trkpt>
      <trkpt lat="47.28083" lon="-2.28777">
        <ele>19.60000038147</ele>
        <time>2021-03-07T10:55:08.000Z</time>
      </trkpt>
      <trkpt lat="47.28063" lon="-2.28768">
        <ele>19.200000762939</ele>
        <time>2021-03-07T10:55:11.000Z</time>
      </trkpt>
      <trkpt lat="47.28056" lon="-2.28765">
        <ele>18.799999237061</ele>
        <time>2021-03-07T10:55:12.000Z</time>
      </trkpt>
      <trkpt lat="47.2805" lon="-2.28762">
        <ele>18.39999961853</ele>
        <time>2021-03-07T10:55:13.000Z</time>
      </trkpt>
      <trkpt lat="47.28043" lon="-2.2876">
        <ele>18</ele>
        <time>2021-03-07T10:55:14.000Z</time>
      </trkpt>
      <trkpt lat="47.28037" lon="-2.28759">
        <ele>17.60000038147</ele>
        <time>2021-03-07T10:55:15.000Z</time>
      </trkpt>
      <trkpt lat="47.28004" lon="-2.28752">
        <ele>17.60000038147</ele>
        <time>2021-03-07T10:55:20.000Z</time>
      </trkpt>
      <trkpt lat="47.27959" lon="-2.28748">
        <ele>17.200000762939</ele>
        <time>2021-03-07T10:55:27.000Z</time>
      </trkpt>
      <trkpt lat="47.27953" lon="-2.28749">
        <ele>16.799999237061</ele>
        <time>2021-03-07T10:55:28.000Z</time>
      </trkpt>
      <trkpt lat="47.27947" lon="-2.2875">
        <ele>16.200000762939</ele>
        <time>2021-03-07T10:55:29.000Z</time>
      </trkpt>
      <trkpt lat="47.27941" lon="-2.28753">
        <ele>15.800000190735</ele>
        <time>2021-03-07T10:55:30.000Z</time>
      </trkpt>
      <trkpt lat="47.27934" lon="-2.28755">
        <ele>15.39999961853</ele>
        <time>2021-03-07T10:55:31.000Z</time>
      </trkpt>
      <trkpt lat="47.27928" lon="-2.28757">
        <ele>15.39999961853</ele>
        <time>2021-03-07T10:55:32.000Z</time>
      </trkpt>
      <trkpt lat="47.27893" lon="-2.28769">
        <ele>15.39999961853</ele>
        <time>2021-03-07T10:55:38.000Z</time>
      </trkpt>
      <trkpt lat="47.27884" lon="-2.28772">
        <ele>15.39999961853</ele>
        <time>2021-03-07T10:55:40.000Z</time>
      </trkpt>
      <trkpt lat="47.27875" lon="-2.28784">
        <ele>15.39999961853</ele>
        <time>2021-03-07T10:55:43.000Z</time>
      </trkpt>
      <trkpt lat="47.27869" lon="-2.288">
        <ele>15.39999961853</ele>
        <time>2021-03-07T10:55:46.000Z</time>
      </trkpt>
      <trkpt lat="47.27865" lon="-2.28812">
        <ele>15.39999961853</ele>
        <time>2021-03-07T10:55:48.000Z</time>
      </trkpt>
      <trkpt lat="47.27855" lon="-2.28814">
        <ele>15.39999961853</ele>
        <time>2021-03-07T10:55:50.000Z</time>
      </trkpt>
      <trkpt lat="47.27841" lon="-2.28804">
        <ele>15.39999961853</ele>
        <time>2021-03-07T10:55:53.000Z</time>
      </trkpt>
      <trkpt lat="47.27831" lon="-2.28798">
        <ele>15.39999961853</ele>
        <time>2021-03-07T10:55:55.000Z</time>
      </trkpt>
      <trkpt lat="47.27812" lon="-2.28795">
        <ele>15.39999961853</ele>
        <time>2021-03-07T10:55:58.000Z</time>
      </trkpt>
      <trkpt lat="47.27806" lon="-2.28796">
        <ele>15.39999961853</ele>
        <time>2021-03-07T10:55:59.000Z</time>
      </trkpt>
      <trkpt lat="47.27789" lon="-2.28805">
        <ele>15.39999961853</ele>
        <time>2021-03-07T10:56:02.000Z</time>
      </trkpt>
      <trkpt lat="47.27778" lon="-2.28825">
        <ele>15.39999961853</ele>
        <time>2021-03-07T10:56:05.000Z</time>
      </trkpt>
      <trkpt lat="47.27751" lon="-2.28876">
        <ele>15.39999961853</ele>
        <time>2021-03-07T10:56:12.000Z</time>
      </trkpt>
      <trkpt lat="47.27744" lon="-2.28889">
        <ele>15.39999961853</ele>
        <time>2021-03-07T10:56:16.000Z</time>
      </trkpt>
      <trkpt lat="47.27734" lon="-2.28903">
        <ele>15.39999961853</ele>
        <time>2021-03-07T10:56:21.000Z</time>
      </trkpt>
      <trkpt lat="47.27716" lon="-2.2893">
        <ele>15.39999961853</ele>
        <time>2021-03-07T10:56:26.000Z</time>
      </trkpt>
      <trkpt lat="47.2771" lon="-2.28942">
        <ele>15.39999961853</ele>
        <time>2021-03-07T10:56:28.000Z</time>
      </trkpt>
      <trkpt lat="47.27701" lon="-2.28963">
        <ele>15.39999961853</ele>
        <time>2021-03-07T10:56:31.000Z</time>
      </trkpt>
      <trkpt lat="47.27699" lon="-2.28971">
        <ele>15.39999961853</ele>
        <time>2021-03-07T10:56:32.000Z</time>
      </trkpt>
      <trkpt lat="47.27691" lon="-2.28994">
        <ele>15.39999961853</ele>
        <time>2021-03-07T10:56:35.000Z</time>
      </trkpt>
      <trkpt lat="47.27684" lon="-2.29008">
        <ele>15.39999961853</ele>
        <time>2021-03-07T10:56:37.000Z</time>
      </trkpt>
      <trkpt lat="47.27677" lon="-2.29021">
        <ele>15.39999961853</ele>
        <time>2021-03-07T10:56:39.000Z</time>
      </trkpt>
      <trkpt lat="47.27663" lon="-2.29048">
        <ele>15.39999961853</ele>
        <time>2021-03-07T10:56:43.000Z</time>
      </trkpt>
      <trkpt lat="47.27645" lon="-2.29082">
        <ele>15.39999961853</ele>
        <time>2021-03-07T10:56:48.000Z</time>
      </trkpt>
      <trkpt lat="47.27642" lon="-2.2909">
        <ele>15.39999961853</ele>
        <time>2021-03-07T10:56:49.000Z</time>
      </trkpt>
      <trkpt lat="47.27621" lon="-2.29133">
        <ele>15.39999961853</ele>
        <time>2021-03-07T10:56:55.000Z</time>
      </trkpt>
      <trkpt lat="47.27603" lon="-2.29163">
        <ele>15.39999961853</ele>
        <time>2021-03-07T10:57:00.000Z</time>
      </trkpt>
      <trkpt lat="47.27598" lon="-2.29167">
        <ele>15.39999961853</ele>
        <time>2021-03-07T10:57:01.000Z</time>
      </trkpt>
      <trkpt lat="47.27573" lon="-2.29191">
        <ele>15.39999961853</ele>
        <time>2021-03-07T10:57:06.000Z</time>
      </trkpt>
      <trkpt lat="47.27569" lon="-2.29197">
        <ele>15.39999961853</ele>
        <time>2021-03-07T10:57:07.000Z</time>
      </trkpt>
      <trkpt lat="47.27543" lon="-2.29236">
        <ele>15.39999961853</ele>
        <time>2021-03-07T10:57:13.000Z</time>
      </trkpt>
      <trkpt lat="47.27538" lon="-2.29241">
        <ele>15.39999961853</ele>
        <time>2021-03-07T10:57:14.000Z</time>
      </trkpt>
      <trkpt lat="47.27501" lon="-2.29281">
        <ele>15.800000190735</ele>
        <time>2021-03-07T10:57:22.000Z</time>
      </trkpt>
      <trkpt lat="47.27496" lon="-2.29285">
        <ele>16.200000762939</ele>
        <time>2021-03-07T10:57:23.000Z</time>
      </trkpt>
      <trkpt lat="47.27491" lon="-2.29288">
        <ele>16.60000038147</ele>
        <time>2021-03-07T10:57:24.000Z</time>
      </trkpt>
      <trkpt lat="47.27486" lon="-2.29292">
        <ele>17</ele>
        <time>2021-03-07T10:57:25.000Z</time>
      </trkpt>
      <trkpt lat="47.27482" lon="-2.29296">
        <ele>17.39999961853</ele>
        <time>2021-03-07T10:57:26.000Z</time>
      </trkpt>
      <trkpt lat="47.27475" lon="-2.29302">
        <ele>17.39999961853</ele>
        <time>2021-03-07T10:57:28.000Z</time>
      </trkpt>
      <trkpt lat="47.2747" lon="-2.29304">
        <ele>17.39999961853</ele>
        <time>2021-03-07T10:57:29.000Z</time>
      </trkpt>
      <trkpt lat="47.2745" lon="-2.29321">
        <ele>17.39999961853</ele>
        <time>2021-03-07T10:57:34.000Z</time>
      </trkpt>
      <trkpt lat="47.27441" lon="-2.2933">
        <ele>17.39999961853</ele>
        <time>2021-03-07T10:57:36.000Z</time>
      </trkpt>
      <trkpt lat="47.27427" lon="-2.29345">
        <ele>17.39999961853</ele>
        <time>2021-03-07T10:57:39.000Z</time>
      </trkpt>
      <trkpt lat="47.27393" lon="-2.29377">
        <ele>17.39999961853</ele>
        <time>2021-03-07T10:57:46.000Z</time>
      </trkpt>
      <trkpt lat="47.27389" lon="-2.29382">
        <ele>17.39999961853</ele>
        <time>2021-03-07T10:57:47.000Z</time>
      </trkpt>
      <trkpt lat="47.27378" lon="-2.29397">
        <ele>17.39999961853</ele>
        <time>2021-03-07T10:57:50.000Z</time>
      </trkpt>
      <trkpt lat="47.27374" lon="-2.29401">
        <ele>17.39999961853</ele>
        <time>2021-03-07T10:57:51.000Z</time>
      </trkpt>
      <trkpt lat="47.27358" lon="-2.2942">
        <ele>17.39999961853</ele>
        <time>2021-03-07T10:57:55.000Z</time>
      </trkpt>
      <trkpt lat="47.2735" lon="-2.29429">
        <ele>17.39999961853</ele>
        <time>2021-03-07T10:57:57.000Z</time>
      </trkpt>
      <trkpt lat="47.27342" lon="-2.29437">
        <ele>17.799999237061</ele>
        <time>2021-03-07T10:57:59.000Z</time>
      </trkpt>
      <trkpt lat="47.27338" lon="-2.29441">
        <ele>18.200000762939</ele>
        <time>2021-03-07T10:58:00.000Z</time>
      </trkpt>
      <trkpt lat="47.27334" lon="-2.29445">
        <ele>18.799999237061</ele>
        <time>2021-03-07T10:58:01.000Z</time>
      </trkpt>
      <trkpt lat="47.2733" lon="-2.29451">
        <ele>19.200000762939</ele>
        <time>2021-03-07T10:58:02.000Z</time>
      </trkpt>
      <trkpt lat="47.27325" lon="-2.29456">
        <ele>19.60000038147</ele>
        <time>2021-03-07T10:58:03.000Z</time>
      </trkpt>
      <trkpt lat="47.2732" lon="-2.29461">
        <ele>19.60000038147</ele>
        <time>2021-03-07T10:58:04.000Z</time>
      </trkpt>
      <trkpt lat="47.27302" lon="-2.29479">
        <ele>19.60000038147</ele>
        <time>2021-03-07T10:58:08.000Z</time>
      </trkpt>
      <trkpt lat="47.27293" lon="-2.29488">
        <ele>19.60000038147</ele>
        <time>2021-03-07T10:58:10.000Z</time>
      </trkpt>
      <trkpt lat="47.27269" lon="-2.29514">
        <ele>19.60000038147</ele>
        <time>2021-03-07T10:58:16.000Z</time>
      </trkpt>
      <trkpt lat="47.2725" lon="-2.29533">
        <ele>19.60000038147</ele>
        <time>2021-03-07T10:58:21.000Z</time>
      </trkpt>
      <trkpt lat="47.27246" lon="-2.29538">
        <ele>19.60000038147</ele>
        <time>2021-03-07T10:58:23.000Z</time>
      </trkpt>
      <trkpt lat="47.27244" lon="-2.29541">
        <ele>19.60000038147</ele>
        <time>2021-03-07T10:58:27.000Z</time>
      </trkpt>
      <trkpt lat="47.27243" lon="-2.29541">
        <ele>19.60000038147</ele>
        <time>2021-03-07T10:58:28.000Z</time>
      </trkpt>
      <trkpt lat="47.27244" lon="-2.29536">
        <ele>19.60000038147</ele>
        <time>2021-03-07T10:58:31.000Z</time>
      </trkpt>
      <trkpt lat="47.27244" lon="-2.29533">
        <ele>19.60000038147</ele>
        <time>2021-03-07T10:58:33.000Z</time>
      </trkpt>
      <trkpt lat="47.27249" lon="-2.2953">
        <ele>19.60000038147</ele>
        <time>2021-03-07T10:58:40.000Z</time>
      </trkpt>
      <trkpt lat="47.27249" lon="-2.29547">
        <ele>19.60000038147</ele>
        <time>2021-03-07T10:58:45.000Z</time>
      </trkpt>
      <trkpt lat="47.27252" lon="-2.29574">
        <ele>19.60000038147</ele>
        <time>2021-03-07T10:58:49.000Z</time>
      </trkpt>
      <trkpt lat="47.27254" lon="-2.29581">
        <ele>19.60000038147</ele>
        <time>2021-03-07T10:58:50.000Z</time>
      </trkpt>
      <trkpt lat="47.27261" lon="-2.29627">
        <ele>19.60000038147</ele>
        <time>2021-03-07T10:58:57.000Z</time>
      </trkpt>
      <trkpt lat="47.27268" lon="-2.29658">
        <ele>19.60000038147</ele>
        <time>2021-03-07T10:59:03.000Z</time>
      </trkpt>
      <trkpt lat="47.27275" lon="-2.29697">
        <ele>19.60000038147</ele>
        <time>2021-03-07T10:59:08.000Z</time>
      </trkpt>
      <trkpt lat="47.27279" lon="-2.29714">
        <ele>19.60000038147</ele>
        <time>2021-03-07T10:59:10.000Z</time>
      </trkpt>
      <trkpt lat="47.27283" lon="-2.29729">
        <ele>20</ele>
        <time>2021-03-07T10:59:12.000Z</time>
      </trkpt>
      <trkpt lat="47.27285" lon="-2.29738">
        <ele>20.39999961853</ele>
        <time>2021-03-07T10:59:13.000Z</time>
      </trkpt>
      <trkpt lat="47.27287" lon="-2.29746">
        <ele>20.799999237061</ele>
        <time>2021-03-07T10:59:14.000Z</time>
      </trkpt>
      <trkpt lat="47.2729" lon="-2.29754">
        <ele>21.200000762939</ele>
        <time>2021-03-07T10:59:15.000Z</time>
      </trkpt>
      <trkpt lat="47.27293" lon="-2.29763">
        <ele>21.60000038147</ele>
        <time>2021-03-07T10:59:16.000Z</time>
      </trkpt>
      <trkpt lat="47.273" lon="-2.29788">
        <ele>21.60000038147</ele>
        <time>2021-03-07T10:59:19.000Z</time>
      </trkpt>
      <trkpt lat="47.2732" lon="-2.29824">
        <ele>21.60000038147</ele>
        <time>2021-03-07T10:59:24.000Z</time>
      </trkpt>
      <trkpt lat="47.27347" lon="-2.29873">
        <ele>21.60000038147</ele>
        <time>2021-03-07T10:59:31.000Z</time>
      </trkpt>
      <trkpt lat="47.27371" lon="-2.29927">
        <ele>21.60000038147</ele>
        <time>2021-03-07T10:59:38.000Z</time>
      </trkpt>
      <trkpt lat="47.27393" lon="-2.29976">
        <ele>21.60000038147</ele>
        <time>2021-03-07T10:59:44.000Z</time>
      </trkpt>
      <trkpt lat="47.27408" lon="-2.30009">
        <ele>21.60000038147</ele>
        <time>2021-03-07T10:59:48.000Z</time>
      </trkpt>
      <trkpt lat="47.27412" lon="-2.30017">
        <ele>21.60000038147</ele>
        <time>2021-03-07T10:59:49.000Z</time>
      </trkpt>
      <trkpt lat="47.27419" lon="-2.30032">
        <ele>21.60000038147</ele>
        <time>2021-03-07T10:59:51.000Z</time>
      </trkpt>
      <trkpt lat="47.27424" lon="-2.30048">
        <ele>21.60000038147</ele>
        <time>2021-03-07T10:59:53.000Z</time>
      </trkpt>
      <trkpt lat="47.27426" lon="-2.30056">
        <ele>21.60000038147</ele>
        <time>2021-03-07T10:59:54.000Z</time>
      </trkpt>
      <trkpt lat="47.27441" lon="-2.30108">
        <ele>21.200000762939</ele>
        <time>2021-03-07T11:00:00.000Z</time>
      </trkpt>
      <trkpt lat="47.27443" lon="-2.30117">
        <ele>20.799999237061</ele>
        <time>2021-03-07T11:00:01.000Z</time>
      </trkpt>
      <trkpt lat="47.27445" lon="-2.30126">
        <ele>20.39999961853</ele>
        <time>2021-03-07T11:00:02.000Z</time>
      </trkpt>
      <trkpt lat="47.27447" lon="-2.30135">
        <ele>19.799999237061</ele>
        <time>2021-03-07T11:00:03.000Z</time>
      </trkpt>
      <trkpt lat="47.27449" lon="-2.30144">
        <ele>19.39999961853</ele>
        <time>2021-03-07T11:00:04.000Z</time>
      </trkpt>
      <trkpt lat="47.27452" lon="-2.30163">
        <ele>19.39999961853</ele>
        <time>2021-03-07T11:00:06.000Z</time>
      </trkpt>
      <trkpt lat="47.27461" lon="-2.30217">
        <ele>19</ele>
        <time>2021-03-07T11:00:12.000Z</time>
      </trkpt>
      <trkpt lat="47.27463" lon="-2.30227">
        <ele>18</ele>
        <time>2021-03-07T11:00:13.000Z</time>
      </trkpt>
      <trkpt lat="47.27465" lon="-2.30237">
        <ele>17.60000038147</ele>
        <time>2021-03-07T11:00:14.000Z</time>
      </trkpt>
      <trkpt lat="47.27468" lon="-2.30246">
        <ele>17.200000762939</ele>
        <time>2021-03-07T11:00:15.000Z</time>
      </trkpt>
      <trkpt lat="47.27475" lon="-2.30274">
        <ele>17.200000762939</ele>
        <time>2021-03-07T11:00:18.000Z</time>
      </trkpt>
      <trkpt lat="47.27482" lon="-2.30316">
        <ele>16.60000038147</ele>
        <time>2021-03-07T11:00:22.000Z</time>
      </trkpt>
      <trkpt lat="47.27484" lon="-2.30327">
        <ele>16.200000762939</ele>
        <time>2021-03-07T11:00:23.000Z</time>
      </trkpt>
      <trkpt lat="47.27486" lon="-2.30338">
        <ele>15.800000190735</ele>
        <time>2021-03-07T11:00:24.000Z</time>
      </trkpt>
      <trkpt lat="47.27489" lon="-2.30349">
        <ele>15.199999809265</ele>
        <time>2021-03-07T11:00:25.000Z</time>
      </trkpt>
      <trkpt lat="47.27491" lon="-2.3036">
        <ele>14.800000190735</ele>
        <time>2021-03-07T11:00:26.000Z</time>
      </trkpt>
      <trkpt lat="47.27499" lon="-2.30394">
        <ele>14.39999961853</ele>
        <time>2021-03-07T11:00:29.000Z</time>
      </trkpt>
      <trkpt lat="47.275" lon="-2.30405">
        <ele>14</ele>
        <time>2021-03-07T11:00:30.000Z</time>
      </trkpt>
      <trkpt lat="47.27501" lon="-2.30416">
        <ele>13.60000038147</ele>
        <time>2021-03-07T11:00:31.000Z</time>
      </trkpt>
      <trkpt lat="47.27504" lon="-2.30427">
        <ele>13.199999809265</ele>
        <time>2021-03-07T11:00:32.000Z</time>
      </trkpt>
      <trkpt lat="47.27506" lon="-2.30437">
        <ele>12.60000038147</ele>
        <time>2021-03-07T11:00:33.000Z</time>
      </trkpt>
      <trkpt lat="47.27514" lon="-2.3047">
        <ele>12.60000038147</ele>
        <time>2021-03-07T11:00:36.000Z</time>
      </trkpt>
      <trkpt lat="47.27521" lon="-2.30504">
        <ele>12.199999809265</ele>
        <time>2021-03-07T11:00:39.000Z</time>
      </trkpt>
      <trkpt lat="47.27523" lon="-2.30515">
        <ele>11.800000190735</ele>
        <time>2021-03-07T11:00:40.000Z</time>
      </trkpt>
      <trkpt lat="47.27525" lon="-2.30526">
        <ele>11.39999961853</ele>
        <time>2021-03-07T11:00:41.000Z</time>
      </trkpt>
      <trkpt lat="47.27528" lon="-2.30535">
        <ele>11</ele>
        <time>2021-03-07T11:00:42.000Z</time>
      </trkpt>
      <trkpt lat="47.27531" lon="-2.30545">
        <ele>10.60000038147</ele>
        <time>2021-03-07T11:00:43.000Z</time>
      </trkpt>
      <trkpt lat="47.27542" lon="-2.30579">
        <ele>10.199999809265</ele>
        <time>2021-03-07T11:00:47.000Z</time>
      </trkpt>
      <trkpt lat="47.27544" lon="-2.30585">
        <ele>9.8000001907349</ele>
        <time>2021-03-07T11:00:48.000Z</time>
      </trkpt>
      <trkpt lat="47.27545" lon="-2.30588">
        <ele>9.3999996185303</ele>
        <time>2021-03-07T11:00:49.000Z</time>
      </trkpt>
      <trkpt lat="47.27545" lon="-2.30593">
        <ele>8.8000001907349</ele>
        <time>2021-03-07T11:00:50.000Z</time>
      </trkpt>
      <trkpt lat="47.27546" lon="-2.30598">
        <ele>8.3999996185303</ele>
        <time>2021-03-07T11:00:51.000Z</time>
      </trkpt>
      <trkpt lat="47.27547" lon="-2.30612">
        <ele>8.3999996185303</ele>
        <time>2021-03-07T11:00:53.000Z</time>
      </trkpt>
      <trkpt lat="47.27551" lon="-2.30625">
        <ele>8.3999996185303</ele>
        <time>2021-03-07T11:00:55.000Z</time>
      </trkpt>
      <trkpt lat="47.27556" lon="-2.30639">
        <ele>8.3999996185303</ele>
        <time>2021-03-07T11:00:57.000Z</time>
      </trkpt>
      <trkpt lat="47.27569" lon="-2.30696">
        <ele>8.3999996185303</ele>
        <time>2021-03-07T11:01:04.000Z</time>
      </trkpt>
      <trkpt lat="47.27576" lon="-2.30735">
        <ele>8.8000001907349</ele>
        <time>2021-03-07T11:01:09.000Z</time>
      </trkpt>
      <trkpt lat="47.27579" lon="-2.30744">
        <ele>9.1999998092651</ele>
        <time>2021-03-07T11:01:10.000Z</time>
      </trkpt>
      <trkpt lat="47.27581" lon="-2.30751">
        <ele>9.6000003814697</ele>
        <time>2021-03-07T11:01:11.000Z</time>
      </trkpt>
      <trkpt lat="47.27583" lon="-2.30759">
        <ele>10</ele>
        <time>2021-03-07T11:01:12.000Z</time>
      </trkpt>
      <trkpt lat="47.27586" lon="-2.30766">
        <ele>10.39999961853</ele>
        <time>2021-03-07T11:01:13.000Z</time>
      </trkpt>
      <trkpt lat="47.27597" lon="-2.30797">
        <ele>10.39999961853</ele>
        <time>2021-03-07T11:01:17.000Z</time>
      </trkpt>
      <trkpt lat="47.27614" lon="-2.30834">
        <ele>10.39999961853</ele>
        <time>2021-03-07T11:01:22.000Z</time>
      </trkpt>
      <trkpt lat="47.27618" lon="-2.30842">
        <ele>10.39999961853</ele>
        <time>2021-03-07T11:01:23.000Z</time>
      </trkpt>
      <trkpt lat="47.2764" lon="-2.30895">
        <ele>10.39999961853</ele>
        <time>2021-03-07T11:01:30.000Z</time>
      </trkpt>
      <trkpt lat="47.27652" lon="-2.30918">
        <ele>10.39999961853</ele>
        <time>2021-03-07T11:01:33.000Z</time>
      </trkpt>
      <trkpt lat="47.27662" lon="-2.3094">
        <ele>10.39999961853</ele>
        <time>2021-03-07T11:01:36.000Z</time>
      </trkpt>
      <trkpt lat="47.2768" lon="-2.30987">
        <ele>10.39999961853</ele>
        <time>2021-03-07T11:01:42.000Z</time>
      </trkpt>
      <trkpt lat="47.27684" lon="-2.30994">
        <ele>10.39999961853</ele>
        <time>2021-03-07T11:01:43.000Z</time>
      </trkpt>
      <trkpt lat="47.27699" lon="-2.31031">
        <ele>10.39999961853</ele>
        <time>2021-03-07T11:01:48.000Z</time>
      </trkpt>
      <trkpt lat="47.27713" lon="-2.3107">
        <ele>10.39999961853</ele>
        <time>2021-03-07T11:01:54.000Z</time>
      </trkpt>
      <trkpt lat="47.27713" lon="-2.31092">
        <ele>10</ele>
        <time>2021-03-07T11:01:57.000Z</time>
      </trkpt>
      <trkpt lat="47.27712" lon="-2.31099">
        <ele>9.6000003814697</ele>
        <time>2021-03-07T11:01:58.000Z</time>
      </trkpt>
      <trkpt lat="47.2771" lon="-2.31106">
        <ele>9.1999998092651</ele>
        <time>2021-03-07T11:01:59.000Z</time>
      </trkpt>
      <trkpt lat="47.27707" lon="-2.31113">
        <ele>8.8000001907349</ele>
        <time>2021-03-07T11:02:00.000Z</time>
      </trkpt>
      <trkpt lat="47.27704" lon="-2.31119">
        <ele>8.3999996185303</ele>
        <time>2021-03-07T11:02:01.000Z</time>
      </trkpt>
      <trkpt lat="47.27702" lon="-2.31127">
        <ele>8.3999996185303</ele>
        <time>2021-03-07T11:02:02.000Z</time>
      </trkpt>
      <trkpt lat="47.27695" lon="-2.31157">
        <ele>8.3999996185303</ele>
        <time>2021-03-07T11:02:06.000Z</time>
      </trkpt>
      <trkpt lat="47.27681" lon="-2.31212">
        <ele>8.3999996185303</ele>
        <time>2021-03-07T11:02:12.000Z</time>
      </trkpt>
      <trkpt lat="47.2768" lon="-2.31222">
        <ele>8.3999996185303</ele>
        <time>2021-03-07T11:02:13.000Z</time>
      </trkpt>
      <trkpt lat="47.27673" lon="-2.31251">
        <ele>8.3999996185303</ele>
        <time>2021-03-07T11:02:16.000Z</time>
      </trkpt>
      <trkpt lat="47.27656" lon="-2.31311">
        <ele>8.3999996185303</ele>
        <time>2021-03-07T11:02:22.000Z</time>
      </trkpt>
      <trkpt lat="47.27653" lon="-2.31322">
        <ele>8</ele>
        <time>2021-03-07T11:02:23.000Z</time>
      </trkpt>
      <trkpt lat="47.2765" lon="-2.31332">
        <ele>7.5999999046326</ele>
        <time>2021-03-07T11:02:24.000Z</time>
      </trkpt>
      <trkpt lat="47.27646" lon="-2.31343">
        <ele>7.1999998092651</ele>
        <time>2021-03-07T11:02:25.000Z</time>
      </trkpt>
      <trkpt lat="47.27643" lon="-2.31354">
        <ele>6.8000001907349</ele>
        <time>2021-03-07T11:02:26.000Z</time>
      </trkpt>
      <trkpt lat="47.27639" lon="-2.31365">
        <ele>6.4000000953674</ele>
        <time>2021-03-07T11:02:27.000Z</time>
      </trkpt>
      <trkpt lat="47.27636" lon="-2.31376">
        <ele>6.4000000953674</ele>
        <time>2021-03-07T11:02:28.000Z</time>
      </trkpt>
      <trkpt lat="47.27616" lon="-2.31453">
        <ele>6</ele>
        <time>2021-03-07T11:02:34.000Z</time>
      </trkpt>
      <trkpt lat="47.27613" lon="-2.31465">
        <ele>5.4000000953674</ele>
        <time>2021-03-07T11:02:35.000Z</time>
      </trkpt>
      <trkpt lat="47.27609" lon="-2.31478">
        <ele>5</ele>
        <time>2021-03-07T11:02:36.000Z</time>
      </trkpt>
      <trkpt lat="47.27606" lon="-2.3149">
        <ele>4.5999999046326</ele>
        <time>2021-03-07T11:02:37.000Z</time>
      </trkpt>
      <trkpt lat="47.27603" lon="-2.31502">
        <ele>4.1999998092651</ele>
        <time>2021-03-07T11:02:38.000Z</time>
      </trkpt>
      <trkpt lat="47.2759" lon="-2.3155">
        <ele>4.1999998092651</ele>
        <time>2021-03-07T11:02:42.000Z</time>
      </trkpt>
      <trkpt lat="47.27578" lon="-2.31582">
        <ele>4.1999998092651</ele>
        <time>2021-03-07T11:02:45.000Z</time>
      </trkpt>
      <trkpt lat="47.2757" lon="-2.31603">
        <ele>4.1999998092651</ele>
        <time>2021-03-07T11:02:47.000Z</time>
      </trkpt>
      <trkpt lat="47.27556" lon="-2.31655">
        <ele>4.1999998092651</ele>
        <time>2021-03-07T11:02:52.000Z</time>
      </trkpt>
      <trkpt lat="47.2754" lon="-2.31716">
        <ele>3.7999999523163</ele>
        <time>2021-03-07T11:02:57.000Z</time>
      </trkpt>
      <trkpt lat="47.27537" lon="-2.31729">
        <ele>3.4000000953674</ele>
        <time>2021-03-07T11:02:58.000Z</time>
      </trkpt>
      <trkpt lat="47.27535" lon="-2.31742">
        <ele>3</ele>
        <time>2021-03-07T11:02:59.000Z</time>
      </trkpt>
      <trkpt lat="47.27532" lon="-2.31755">
        <ele>2.5999999046326</ele>
        <time>2021-03-07T11:03:00.000Z</time>
      </trkpt>
      <trkpt lat="47.27529" lon="-2.31768">
        <ele>2.2000000476837</ele>
        <time>2021-03-07T11:03:01.000Z</time>
      </trkpt>
      <trkpt lat="47.27524" lon="-2.31794">
        <ele>1.6000000238419</ele>
        <time>2021-03-07T11:03:03.000Z</time>
      </trkpt>
      <trkpt lat="47.27521" lon="-2.31806">
        <ele>1.2000000476837</ele>
        <time>2021-03-07T11:03:04.000Z</time>
      </trkpt>
      <trkpt lat="47.27517" lon="-2.31819">
        <ele>0.40000000596046</ele>
        <time>2021-03-07T11:03:05.000Z</time>
      </trkpt>
      <trkpt lat="47.27513" lon="-2.3183">
        <ele>8.4</ele>
        <time>2021-03-07T11:03:06.000Z</time>
      </trkpt>
      <trkpt lat="47.27501" lon="-2.31866">
        <ele>7.1</ele>
        <time>2021-03-07T11:03:09.000Z</time>
      </trkpt>
      <trkpt lat="47.27493" lon="-2.31889">
        <ele>-0.40000000596046</ele>
        <time>2021-03-07T11:03:11.000Z</time>
      </trkpt>
      <trkpt lat="47.27489" lon="-2.31901">
        <ele>-0.80000001192093</ele>
        <time>2021-03-07T11:03:12.000Z</time>
      </trkpt>
      <trkpt lat="47.27484" lon="-2.31912">
        <ele>-1.2000000476837</ele>
        <time>2021-03-07T11:03:13.000Z</time>
      </trkpt>
      <trkpt lat="47.2748" lon="-2.31923">
        <ele>-1.6000000238419</ele>
        <time>2021-03-07T11:03:14.000Z</time>
      </trkpt>
      <trkpt lat="47.27475" lon="-2.31934">
        <ele>-2</ele>
        <time>2021-03-07T11:03:15.000Z</time>
      </trkpt>
      <trkpt lat="47.2747" lon="-2.31945">
        <ele>-2</ele>
        <time>2021-03-07T11:03:16.000Z</time>
      </trkpt>
      <trkpt lat="47.27442" lon="-2.32007">
        <ele>-2</ele>
        <time>2021-03-07T11:03:22.000Z</time>
      </trkpt>
      <trkpt lat="47.27423" lon="-2.32043">
        <ele>-2</ele>
        <time>2021-03-07T11:03:26.000Z</time>
      </trkpt>
      <trkpt lat="47.27417" lon="-2.32046">
        <ele>-2</ele>
        <time>2021-03-07T11:03:27.000Z</time>
      </trkpt>
      <trkpt lat="47.27405" lon="-2.3204">
        <ele>-2</ele>
        <time>2021-03-07T11:03:29.000Z</time>
      </trkpt>
      <trkpt lat="47.27386" lon="-2.32022">
        <ele>-2</ele>
        <time>2021-03-07T11:03:32.000Z</time>
      </trkpt>
      <trkpt lat="47.2738" lon="-2.32018">
        <ele>-2</ele>
        <time>2021-03-07T11:03:33.000Z</time>
      </trkpt>
      <trkpt lat="47.27368" lon="-2.32009">
        <ele>-2.4000000953674</ele>
        <time>2021-03-07T11:03:35.000Z</time>
      </trkpt>
      <trkpt lat="47.27363" lon="-2.32004">
        <ele>-2.7999999523163</ele>
        <time>2021-03-07T11:03:36.000Z</time>
      </trkpt>
      <trkpt lat="47.27358" lon="-2.31998">
        <ele>-3.4000000953674</ele>
        <time>2021-03-07T11:03:37.000Z</time>
      </trkpt>
      <trkpt lat="47.27353" lon="-2.31992">
        <ele>-3.7999999523163</ele>
        <time>2021-03-07T11:03:38.000Z</time>
      </trkpt>
      <trkpt lat="47.27348" lon="-2.31988">
        <ele>-4.1999998092651</ele>
        <time>2021-03-07T11:03:39.000Z</time>
      </trkpt>
      <trkpt lat="47.27337" lon="-2.31981">
        <ele>-4.1999998092651</ele>
        <time>2021-03-07T11:03:43.000Z</time>
      </trkpt>
      <trkpt lat="47.27338" lon="-2.3198">
        <ele>-4.1999998092651</ele>
        <time>2021-03-07T11:03:44.000Z</time>
      </trkpt>
      <trkpt lat="47.2734" lon="-2.31988">
        <ele>-4.1999998092651</ele>
        <time>2021-03-07T11:04:54.000Z</time>
      </trkpt>
      <trkpt lat="47.27341" lon="-2.31992">
        <ele>-4.1999998092651</ele>
        <time>2021-03-07T11:04:55.000Z</time>
      </trkpt>
      <trkpt lat="47.27355" lon="-2.32016">
        <ele>-4.1999998092651</ele>
        <time>2021-03-07T11:05:00.000Z</time>
      </trkpt>
      <trkpt lat="47.27362" lon="-2.32026">
        <ele>-4.1999998092651</ele>
        <time>2021-03-07T11:05:02.000Z</time>
      </trkpt>
      <trkpt lat="47.27373" lon="-2.3204">
        <ele>-4.1999998092651</ele>
        <time>2021-03-07T11:05:05.000Z</time>
      </trkpt>
      <trkpt lat="47.27393" lon="-2.32064">
        <ele>-4.1999998092651</ele>
        <time>2021-03-07T11:05:10.000Z</time>
      </trkpt>
      <trkpt lat="47.27408" lon="-2.32089">
        <ele>-4.1999998092651</ele>
        <time>2021-03-07T11:05:14.000Z</time>
      </trkpt>
      <trkpt lat="47.2741" lon="-2.32098">
        <ele>-4.1999998092651</ele>
        <time>2021-03-07T11:05:15.000Z</time>
      </trkpt>
      <trkpt lat="47.27407" lon="-2.32124">
        <ele>-4.1999998092651</ele>
        <time>2021-03-07T11:05:18.000Z</time>
      </trkpt>
      <trkpt lat="47.27405" lon="-2.32132">
        <ele>-4.1999998092651</ele>
        <time>2021-03-07T11:05:19.000Z</time>
      </trkpt>
      <trkpt lat="47.27397" lon="-2.32185">
        <ele>-4.1999998092651</ele>
        <time>2021-03-07T11:05:25.000Z</time>
      </trkpt>
      <trkpt lat="47.27387" lon="-2.32254">
        <ele>-4.1999998092651</ele>
        <time>2021-03-07T11:05:33.000Z</time>
      </trkpt>
      <trkpt lat="47.27385" lon="-2.32262">
        <ele>-4.1999998092651</ele>
        <time>2021-03-07T11:05:34.000Z</time>
      </trkpt>
      <trkpt lat="47.27377" lon="-2.32291">
        <ele>-4.1999998092651</ele>
        <time>2021-03-07T11:05:38.000Z</time>
      </trkpt>
      <trkpt lat="47.27368" lon="-2.32333">
        <ele>-4.1999998092651</ele>
        <time>2021-03-07T11:05:44.000Z</time>
      </trkpt>
      <trkpt lat="47.27368" lon="-2.3234">
        <ele>-3.7999999523163</ele>
        <time>2021-03-07T11:05:45.000Z</time>
      </trkpt>
      <trkpt lat="47.27366" lon="-2.32347">
        <ele>-3.4000000953674</ele>
        <time>2021-03-07T11:05:46.000Z</time>
      </trkpt>
      <trkpt lat="47.27365" lon="-2.32356">
        <ele>-3</ele>
        <time>2021-03-07T11:05:47.000Z</time>
      </trkpt>
      <trkpt lat="47.27363" lon="-2.32364">
        <ele>-2.5999999046326</ele>
        <time>2021-03-07T11:05:48.000Z</time>
      </trkpt>
      <trkpt lat="47.27361" lon="-2.32373">
        <ele>-2.2000000476837</ele>
        <time>2021-03-07T11:05:49.000Z</time>
      </trkpt>
      <trkpt lat="47.2735" lon="-2.32421">
        <ele>-2.5999999046326</ele>
        <time>2021-03-07T11:05:54.000Z</time>
      </trkpt>
      <trkpt lat="47.27347" lon="-2.3243">
        <ele>-3</ele>
        <time>2021-03-07T11:05:55.000Z</time>
      </trkpt>
      <trkpt lat="47.27344" lon="-2.32439">
        <ele>-3.4000000953674</ele>
        <time>2021-03-07T11:05:56.000Z</time>
      </trkpt>
      <trkpt lat="47.2734" lon="-2.32447">
        <ele>-4.4000000953674</ele>
        <time>2021-03-07T11:05:57.000Z</time>
      </trkpt>
      <trkpt lat="47.2733" lon="-2.3247">
        <ele>-4.4000000953674</ele>
        <time>2021-03-07T11:06:00.000Z</time>
      </trkpt>
      <trkpt lat="47.27306" lon="-2.3251">
        <ele>-4.4000000953674</ele>
        <time>2021-03-07T11:06:06.000Z</time>
      </trkpt>
      <trkpt lat="47.27288" lon="-2.32537">
        <ele>-4.4000000953674</ele>
        <time>2021-03-07T11:06:10.000Z</time>
      </trkpt>
      <trkpt lat="47.27273" lon="-2.32556">
        <ele>-4.4000000953674</ele>
        <time>2021-03-07T11:06:13.000Z</time>
      </trkpt>
      <trkpt lat="47.27237" lon="-2.32594">
        <ele>-4.4000000953674</ele>
        <time>2021-03-07T11:06:20.000Z</time>
      </trkpt>
      <trkpt lat="47.27199" lon="-2.3263">
        <ele>-4</ele>
        <time>2021-03-07T11:06:27.000Z</time>
      </trkpt>
      <trkpt lat="47.27193" lon="-2.32635">
        <ele>-3.5999999046326</ele>
        <time>2021-03-07T11:06:28.000Z</time>
      </trkpt>
      <trkpt lat="47.27188" lon="-2.3264">
        <ele>-3.2000000476837</ele>
        <time>2021-03-07T11:06:29.000Z</time>
      </trkpt>
      <trkpt lat="47.27183" lon="-2.32645">
        <ele>-2.7999999523163</ele>
        <time>2021-03-07T11:06:30.000Z</time>
      </trkpt>
      <trkpt lat="47.27178" lon="-2.3265">
        <ele>-2.4000000953674</ele>
        <time>2021-03-07T11:06:31.000Z</time>
      </trkpt>
      <trkpt lat="47.27157" lon="-2.32669">
        <ele>-2.4000000953674</ele>
        <time>2021-03-07T11:06:35.000Z</time>
      </trkpt>
      <trkpt lat="47.27134" lon="-2.32693">
        <ele>-2.4000000953674</ele>
        <time>2021-03-07T11:06:40.000Z</time>
      </trkpt>
      <trkpt lat="47.27132" lon="-2.32698">
        <ele>-2.4000000953674</ele>
        <time>2021-03-07T11:06:41.000Z</time>
      </trkpt>
      <trkpt lat="47.27123" lon="-2.3271">
        <ele>-2.4000000953674</ele>
        <time>2021-03-07T11:06:44.000Z</time>
      </trkpt>
      <trkpt lat="47.27118" lon="-2.32714">
        <ele>-2.4000000953674</ele>
        <time>2021-03-07T11:06:45.000Z</time>
      </trkpt>
      <trkpt lat="47.27093" lon="-2.32738">
        <ele>-2.4000000953674</ele>
        <time>2021-03-07T11:06:50.000Z</time>
      </trkpt>
      <trkpt lat="47.2706" lon="-2.32768">
        <ele>-2.4000000953674</ele>
        <time>2021-03-07T11:06:56.000Z</time>
      </trkpt>
      <trkpt lat="47.27022" lon="-2.32802">
        <ele>-2.7999999523163</ele>
        <time>2021-03-07T11:07:03.000Z</time>
      </trkpt>
      <trkpt lat="47.27017" lon="-2.32807">
        <ele>-3.2000000476837</ele>
        <time>2021-03-07T11:07:04.000Z</time>
      </trkpt>
      <trkpt lat="47.27012" lon="-2.32812">
        <ele>-3.5999999046326</ele>
        <time>2021-03-07T11:07:05.000Z</time>
      </trkpt>
      <trkpt lat="47.27006" lon="-2.32817">
        <ele>-4</ele>
        <time>2021-03-07T11:07:06.000Z</time>
      </trkpt>
      <trkpt lat="47.27001" lon="-2.32821">
        <ele>-4.4000000953674</ele>
        <time>2021-03-07T11:07:07.000Z</time>
      </trkpt>
      <trkpt lat="47.26981" lon="-2.3284">
        <ele>-4.4000000953674</ele>
        <time>2021-03-07T11:07:11.000Z</time>
      </trkpt>
      <trkpt lat="47.26934" lon="-2.32884">
        <ele>-4.4000000953674</ele>
        <time>2021-03-07T11:07:20.000Z</time>
      </trkpt>
      <trkpt lat="47.26897" lon="-2.32917">
        <ele>-4.4000000953674</ele>
        <time>2021-03-07T11:07:27.000Z</time>
      </trkpt>
      <trkpt lat="47.26851" lon="-2.32961">
        <ele>-4.4000000953674</ele>
        <time>2021-03-07T11:07:36.000Z</time>
      </trkpt>
      <trkpt lat="47.2682" lon="-2.32989">
        <ele>-4.4000000953674</ele>
        <time>2021-03-07T11:07:42.000Z</time>
      </trkpt>
      <trkpt lat="47.26788" lon="-2.33021">
        <ele>-4.4000000953674</ele>
        <time>2021-03-07T11:07:49.000Z</time>
      </trkpt>
      <trkpt lat="47.26776" lon="-2.33034">
        <ele>-4.8000001907349</ele>
        <time>2021-03-07T11:07:52.000Z</time>
      </trkpt>
      <trkpt lat="47.26772" lon="-2.33038">
        <ele>-5.1999998092651</ele>
        <time>2021-03-07T11:07:53.000Z</time>
      </trkpt>
      <trkpt lat="47.26769" lon="-2.33042">
        <ele>-5.5999999046326</ele>
        <time>2021-03-07T11:07:54.000Z</time>
      </trkpt>
      <trkpt lat="47.26765" lon="-2.33044">
        <ele>-6</ele>
        <time>2021-03-07T11:07:55.000Z</time>
      </trkpt>
      <trkpt lat="47.26762" lon="-2.33047">
        <ele>-6.4000000953674</ele>
        <time>2021-03-07T11:07:56.000Z</time>
      </trkpt>
      <trkpt lat="47.26746" lon="-2.33061">
        <ele>-6.4000000953674</ele>
        <time>2021-03-07T11:08:01.000Z</time>
      </trkpt>
      <trkpt lat="47.26739" lon="-2.33064">
        <ele>-6.4000000953674</ele>
        <time>2021-03-07T11:08:05.000Z</time>
      </trkpt>
      <trkpt lat="47.2673" lon="-2.33063">
        <ele>-6.4000000953674</ele>
        <time>2021-03-07T11:08:09.000Z</time>
      </trkpt>
      <trkpt lat="47.26718" lon="-2.3307">
        <ele>-6.4000000953674</ele>
        <time>2021-03-07T11:08:12.000Z</time>
      </trkpt>
      <trkpt lat="47.26714" lon="-2.33074">
        <ele>-6.4000000953674</ele>
        <time>2021-03-07T11:08:13.000Z</time>
      </trkpt>
      <trkpt lat="47.26695" lon="-2.33095">
        <ele>-6.4000000953674</ele>
        <time>2021-03-07T11:08:17.000Z</time>
      </trkpt>
      <trkpt lat="47.26686" lon="-2.33105">
        <ele>-6.4000000953674</ele>
        <time>2021-03-07T11:08:19.000Z</time>
      </trkpt>
      <trkpt lat="47.26647" lon="-2.33138">
        <ele>-6.4000000953674</ele>
        <time>2021-03-07T11:08:27.000Z</time>
      </trkpt>
      <trkpt lat="47.26635" lon="-2.33148">
        <ele>-6.4000000953674</ele>
        <time>2021-03-07T11:08:30.000Z</time>
      </trkpt>
      <trkpt lat="47.26622" lon="-2.33151">
        <ele>-6.4000000953674</ele>
        <time>2021-03-07T11:08:33.000Z</time>
      </trkpt>
      <trkpt lat="47.26615" lon="-2.33151">
        <ele>-6.4000000953674</ele>
        <time>2021-03-07T11:08:35.000Z</time>
      </trkpt>
      <trkpt lat="47.2661" lon="-2.33152">
        <ele>-6.4000000953674</ele>
        <time>2021-03-07T11:08:37.000Z</time>
      </trkpt>
      <trkpt lat="47.26605" lon="-2.33156">
        <ele>-7</ele>
        <time>2021-03-07T11:08:39.000Z</time>
      </trkpt>
      <trkpt lat="47.26603" lon="-2.33159">
        <ele>-7.4000000953674</ele>
        <time>2021-03-07T11:08:40.000Z</time>
      </trkpt>
      <trkpt lat="47.26601" lon="-2.33162">
        <ele>-7.8000001907349</ele>
        <time>2021-03-07T11:08:41.000Z</time>
      </trkpt>
      <trkpt lat="47.266" lon="-2.33165">
        <ele>-8.1999998092651</ele>
        <time>2021-03-07T11:08:42.000Z</time>
      </trkpt>
      <trkpt lat="47.266" lon="-2.33166">
        <ele>-8.8000001907349</ele>
        <time>2021-03-07T11:08:43.000Z</time>
      </trkpt>
      <trkpt lat="47.26599" lon="-2.33168">
        <ele>-8.8000001907349</ele>
        <time>2021-03-07T11:08:45.000Z</time>
      </trkpt>
      <trkpt lat="47.26599" lon="-2.33171">
        <ele>-8.8000001907349</ele>
        <time>2021-03-07T11:08:46.000Z</time>
      </trkpt>
      <trkpt lat="47.26597" lon="-2.33177">
        <ele>-8.8000001907349</ele>
        <time>2021-03-07T11:08:48.000Z</time>
      </trkpt>
      <trkpt lat="47.26594" lon="-2.33186">
        <ele>-8.8000001907349</ele>
        <time>2021-03-07T11:08:50.000Z</time>
      </trkpt>
      <trkpt lat="47.26583" lon="-2.33205">
        <ele>-8.8000001907349</ele>
        <time>2021-03-07T11:08:55.000Z</time>
      </trkpt>
      <trkpt lat="47.2656" lon="-2.33221">
        <ele>-8.8000001907349</ele>
        <time>2021-03-07T11:09:01.000Z</time>
      </trkpt>
      <trkpt lat="47.26536" lon="-2.33237">
        <ele>-8.8000001907349</ele>
        <time>2021-03-07T11:09:08.000Z</time>
      </trkpt>
      <trkpt lat="47.26509" lon="-2.33255">
        <ele>-8.8000001907349</ele>
        <time>2021-03-07T11:09:16.000Z</time>
      </trkpt>
      <trkpt lat="47.26497" lon="-2.33265">
        <ele>-8.8000001907349</ele>
        <time>2021-03-07T11:09:21.000Z</time>
      </trkpt>
      <trkpt lat="47.26491" lon="-2.33278">
        <ele>-8.8000001907349</ele>
        <time>2021-03-07T11:09:27.000Z</time>
      </trkpt>
      <trkpt lat="47.26484" lon="-2.33284">
        <ele>-8.8000001907349</ele>
        <time>2021-03-07T11:09:31.000Z</time>
      </trkpt>
      <trkpt lat="47.26482" lon="-2.33289">
        <ele>-8.8000001907349</ele>
        <time>2021-03-07T11:09:33.000Z</time>
      </trkpt>
      <trkpt lat="47.26477" lon="-2.33297">
        <ele>-8.8000001907349</ele>
        <time>2021-03-07T11:09:36.000Z</time>
      </trkpt>
      <trkpt lat="47.26472" lon="-2.33305">
        <ele>-8.8000001907349</ele>
        <time>2021-03-07T11:09:39.000Z</time>
      </trkpt>
      <trkpt lat="47.26468" lon="-2.33307">
        <ele>-8.8000001907349</ele>
        <time>2021-03-07T11:09:41.000Z</time>
      </trkpt>
      <trkpt lat="47.26461" lon="-2.33311">
        <ele>-8.8000001907349</ele>
        <time>2021-03-07T11:09:46.000Z</time>
      </trkpt>
      <trkpt lat="47.26459" lon="-2.33313">
        <ele>-8.8000001907349</ele>
        <time>2021-03-07T11:10:19.000Z</time>
      </trkpt>
      <trkpt lat="47.26456" lon="-2.33316">
        <ele>-8.8000001907349</ele>
        <time>2021-03-07T11:10:21.000Z</time>
      </trkpt>
      <trkpt lat="47.26452" lon="-2.3332">
        <ele>-8.8000001907349</ele>
        <time>2021-03-07T11:10:25.000Z</time>
      </trkpt>
      <trkpt lat="47.2645" lon="-2.33322">
        <ele>-8.8000001907349</ele>
        <time>2021-03-07T11:11:34.000Z</time>
      </trkpt>
      <trkpt lat="47.26442" lon="-2.33328">
        <ele>-8.8000001907349</ele>
        <time>2021-03-07T11:11:40.000Z</time>
      </trkpt>
      <trkpt lat="47.26428" lon="-2.33339">
        <ele>-8.8000001907349</ele>
        <time>2021-03-07T11:11:45.000Z</time>
      </trkpt>
      <trkpt lat="47.26402" lon="-2.33356">
        <ele>-8.8000001907349</ele>
        <time>2021-03-07T11:11:52.000Z</time>
      </trkpt>
      <trkpt lat="47.26392" lon="-2.33363">
        <ele>-8.8000001907349</ele>
        <time>2021-03-07T11:11:55.000Z</time>
      </trkpt>
      <trkpt lat="47.26384" lon="-2.33367">
        <ele>-8.8000001907349</ele>
        <time>2021-03-07T11:11:57.000Z</time>
      </trkpt>
      <trkpt lat="47.26379" lon="-2.33369">
        <ele>-8.8000001907349</ele>
        <time>2021-03-07T11:11:58.000Z</time>
      </trkpt>
      <trkpt lat="47.26358" lon="-2.33382">
        <ele>-8.8000001907349</ele>
        <time>2021-03-07T11:12:03.000Z</time>
      </trkpt>
      <trkpt lat="47.26325" lon="-2.33398">
        <ele>-8.8000001907349</ele>
        <time>2021-03-07T11:12:11.000Z</time>
      </trkpt>
      <trkpt lat="47.26321" lon="-2.33401">
        <ele>-8.8000001907349</ele>
        <time>2021-03-07T11:12:12.000Z</time>
      </trkpt>
      <trkpt lat="47.26309" lon="-2.33414">
        <ele>-8.8000001907349</ele>
        <time>2021-03-07T11:12:16.000Z</time>
      </trkpt>
      <trkpt lat="47.26297" lon="-2.3342">
        <ele>-8.8000001907349</ele>
        <time>2021-03-07T11:12:19.000Z</time>
      </trkpt>
      <trkpt lat="47.26292" lon="-2.33421">
        <ele>-8.8000001907349</ele>
        <time>2021-03-07T11:12:20.000Z</time>
      </trkpt>
      <trkpt lat="47.26287" lon="-2.33422">
        <ele>-8.8000001907349</ele>
        <time>2021-03-07T11:12:21.000Z</time>
      </trkpt>
      <trkpt lat="47.26258" lon="-2.33427">
        <ele>-8.8000001907349</ele>
        <time>2021-03-07T11:12:27.000Z</time>
      </trkpt>
      <trkpt lat="47.26253" lon="-2.33425">
        <ele>-8.8000001907349</ele>
        <time>2021-03-07T11:12:28.000Z</time>
      </trkpt>
      <trkpt lat="47.26233" lon="-2.33426">
        <ele>-8.8000001907349</ele>
        <time>2021-03-07T11:12:32.000Z</time>
      </trkpt>
      <trkpt lat="47.26228" lon="-2.33428">
        <ele>-8.8000001907349</ele>
        <time>2021-03-07T11:12:33.000Z</time>
      </trkpt>
      <trkpt lat="47.26198" lon="-2.33435">
        <ele>-8.8000001907349</ele>
        <time>2021-03-07T11:12:39.000Z</time>
      </trkpt>
      <trkpt lat="47.26185" lon="-2.33435">
        <ele>-8.8000001907349</ele>
        <time>2021-03-07T11:12:43.000Z</time>
      </trkpt>
      <trkpt lat="47.26175" lon="-2.33439">
        <ele>-8.8000001907349</ele>
        <time>2021-03-07T11:12:48.000Z</time>
      </trkpt>
      <trkpt lat="47.26172" lon="-2.33439">
        <ele>-8.8000001907349</ele>
        <time>2021-03-07T11:12:49.000Z</time>
      </trkpt>
      <trkpt lat="47.26157" lon="-2.33434">
        <ele>-8.8000001907349</ele>
        <time>2021-03-07T11:12:54.000Z</time>
      </trkpt>
      <trkpt lat="47.26144" lon="-2.33431">
        <ele>-8.8000001907349</ele>
        <time>2021-03-07T11:12:59.000Z</time>
      </trkpt>
      <trkpt lat="47.26138" lon="-2.3344">
        <ele>-8.8000001907349</ele>
        <time>2021-03-07T11:13:02.000Z</time>
      </trkpt>
      <trkpt lat="47.26137" lon="-2.33443">
        <ele>-8.8000001907349</ele>
        <time>2021-03-07T11:13:03.000Z</time>
      </trkpt>
      <trkpt lat="47.26132" lon="-2.33457">
        <ele>-8.8000001907349</ele>
        <time>2021-03-07T11:13:07.000Z</time>
      </trkpt>
      <trkpt lat="47.2612" lon="-2.33489">
        <ele>-8.8000001907349</ele>
        <time>2021-03-07T11:13:12.000Z</time>
      </trkpt>
      <trkpt lat="47.26116" lon="-2.33493">
        <ele>-8.8000001907349</ele>
        <time>2021-03-07T11:13:13.000Z</time>
      </trkpt>
      <trkpt lat="47.26104" lon="-2.3349">
        <ele>-8.8000001907349</ele>
        <time>2021-03-07T11:13:16.000Z</time>
      </trkpt>
      <trkpt lat="47.26094" lon="-2.33488">
        <ele>-8.8000001907349</ele>
        <time>2021-03-07T11:13:20.000Z</time>
      </trkpt>
      <trkpt lat="47.2608" lon="-2.33482">
        <ele>-8.8000001907349</ele>
        <time>2021-03-07T11:13:25.000Z</time>
      </trkpt>
      <trkpt lat="47.26077" lon="-2.33481">
        <ele>-8.8000001907349</ele>
        <time>2021-03-07T11:13:26.000Z</time>
      </trkpt>
      <trkpt lat="47.26068" lon="-2.33483">
        <ele>-8.8000001907349</ele>
        <time>2021-03-07T11:13:28.000Z</time>
      </trkpt>
      <trkpt lat="47.26059" lon="-2.33487">
        <ele>-8.8000001907349</ele>
        <time>2021-03-07T11:13:30.000Z</time>
      </trkpt>
      <trkpt lat="47.26051" lon="-2.3348">
        <ele>-8.8000001907349</ele>
        <time>2021-03-07T11:13:32.000Z</time>
      </trkpt>
      <trkpt lat="47.26045" lon="-2.33473">
        <ele>-8.8000001907349</ele>
        <time>2021-03-07T11:13:34.000Z</time>
      </trkpt>
      <trkpt lat="47.26042" lon="-2.33473">
        <ele>-8.8000001907349</ele>
        <time>2021-03-07T11:13:35.000Z</time>
      </trkpt>
      <trkpt lat="47.26028" lon="-2.33485">
        <ele>-8.8000001907349</ele>
        <time>2021-03-07T11:13:39.000Z</time>
      </trkpt>
      <trkpt lat="47.26011" lon="-2.33489">
        <ele>-8.8000001907349</ele>
        <time>2021-03-07T11:13:43.000Z</time>
      </trkpt>
      <trkpt lat="47.25997" lon="-2.33491">
        <ele>-8.8000001907349</ele>
        <time>2021-03-07T11:13:47.000Z</time>
      </trkpt>
      <trkpt lat="47.25986" lon="-2.33492">
        <ele>-8.8000001907349</ele>
        <time>2021-03-07T11:13:54.000Z</time>
      </trkpt>
      <trkpt lat="47.25975" lon="-2.33501">
        <ele>-8.8000001907349</ele>
        <time>2021-03-07T11:13:59.000Z</time>
      </trkpt>
      <trkpt lat="47.25962" lon="-2.33502">
        <ele>-8.8000001907349</ele>
        <time>2021-03-07T11:14:03.000Z</time>
      </trkpt>
      <trkpt lat="47.25951" lon="-2.33507">
        <ele>-8.8000001907349</ele>
        <time>2021-03-07T11:14:06.000Z</time>
      </trkpt>
      <trkpt lat="47.25947" lon="-2.33511">
        <ele>-8.8000001907349</ele>
        <time>2021-03-07T11:14:07.000Z</time>
      </trkpt>
      <trkpt lat="47.25924" lon="-2.33532">
        <ele>-8.1999998092651</ele>
        <time>2021-03-07T11:14:13.000Z</time>
      </trkpt>
      <trkpt lat="47.25919" lon="-2.33536">
        <ele>-7.8000001907349</ele>
        <time>2021-03-07T11:14:14.000Z</time>
      </trkpt>
      <trkpt lat="47.25915" lon="-2.3354">
        <ele>-7.4000000953674</ele>
        <time>2021-03-07T11:14:15.000Z</time>
      </trkpt>
      <trkpt lat="47.2591" lon="-2.33544">
        <ele>-7</ele>
        <time>2021-03-07T11:14:16.000Z</time>
      </trkpt>
      <trkpt lat="47.25906" lon="-2.33548">
        <ele>-6.4000000953674</ele>
        <time>2021-03-07T11:14:17.000Z</time>
      </trkpt>
      <trkpt lat="47.25884" lon="-2.33568">
        <ele>-6.4000000953674</ele>
        <time>2021-03-07T11:14:22.000Z</time>
      </trkpt>
      <trkpt lat="47.25874" lon="-2.33574">
        <ele>-6.4000000953674</ele>
        <time>2021-03-07T11:14:24.000Z</time>
      </trkpt>
      <trkpt lat="47.25863" lon="-2.33575">
        <ele>-6</ele>
        <time>2021-03-07T11:14:26.000Z</time>
      </trkpt>
      <trkpt lat="47.25858" lon="-2.33575">
        <ele>-5.5999999046326</ele>
        <time>2021-03-07T11:14:27.000Z</time>
      </trkpt>
      <trkpt lat="47.25852" lon="-2.33576">
        <ele>-5.1999998092651</ele>
        <time>2021-03-07T11:14:28.000Z</time>
      </trkpt>
      <trkpt lat="47.25846" lon="-2.33576">
        <ele>-4.8000001907349</ele>
        <time>2021-03-07T11:14:29.000Z</time>
      </trkpt>
      <trkpt lat="47.25841" lon="-2.33576">
        <ele>-4.4000000953674</ele>
        <time>2021-03-07T11:14:30.000Z</time>
      </trkpt>
      <trkpt lat="47.25819" lon="-2.33578">
        <ele>-4.4000000953674</ele>
        <time>2021-03-07T11:14:34.000Z</time>
      </trkpt>
      <trkpt lat="47.25779" lon="-2.33579">
        <ele>-4.4000000953674</ele>
        <time>2021-03-07T11:14:41.000Z</time>
      </trkpt>
      <trkpt lat="47.25751" lon="-2.33583">
        <ele>-4.4000000953674</ele>
        <time>2021-03-07T11:14:46.000Z</time>
      </trkpt>
      <trkpt lat="47.25746" lon="-2.33585">
        <ele>-4.4000000953674</ele>
        <time>2021-03-07T11:14:47.000Z</time>
      </trkpt>
      <trkpt lat="47.2574" lon="-2.33586">
        <ele>-4.4000000953674</ele>
        <time>2021-03-07T11:14:48.000Z</time>
      </trkpt>
      <trkpt lat="47.25729" lon="-2.33584">
        <ele>-4.4000000953674</ele>
        <time>2021-03-07T11:14:50.000Z</time>
      </trkpt>
      <trkpt lat="47.25718" lon="-2.33584">
        <ele>-4.4000000953674</ele>
        <time>2021-03-07T11:14:52.000Z</time>
      </trkpt>
      <trkpt lat="47.25694" lon="-2.33584">
        <ele>-4.4000000953674</ele>
        <time>2021-03-07T11:14:56.000Z</time>
      </trkpt>
      <trkpt lat="47.25676" lon="-2.33582">
        <ele>-4.4000000953674</ele>
        <time>2021-03-07T11:14:59.000Z</time>
      </trkpt>
      <trkpt lat="47.25658" lon="-2.33576">
        <ele>-4.4000000953674</ele>
        <time>2021-03-07T11:15:02.000Z</time>
      </trkpt>
      <trkpt lat="47.25616" lon="-2.33553">
        <ele>-4</ele>
        <time>2021-03-07T11:15:09.000Z</time>
      </trkpt>
      <trkpt lat="47.25611" lon="-2.33548">
        <ele>-3.5999999046326</ele>
        <time>2021-03-07T11:15:10.000Z</time>
      </trkpt>
      <trkpt lat="47.25606" lon="-2.33544">
        <ele>-3.2000000476837</ele>
        <time>2021-03-07T11:15:11.000Z</time>
      </trkpt>
      <trkpt lat="47.25601" lon="-2.33539">
        <ele>-2.7999999523163</ele>
        <time>2021-03-07T11:15:12.000Z</time>
      </trkpt>
      <trkpt lat="47.25596" lon="-2.33534">
        <ele>-2.2000000476837</ele>
        <time>2021-03-07T11:15:13.000Z</time>
      </trkpt>
      <trkpt lat="47.25587" lon="-2.33523">
        <ele>-2.2000000476837</ele>
        <time>2021-03-07T11:15:15.000Z</time>
      </trkpt>
      <trkpt lat="47.25557" lon="-2.3348">
        <ele>-2.2000000476837</ele>
        <time>2021-03-07T11:15:22.000Z</time>
      </trkpt>
      <trkpt lat="47.25538" lon="-2.33434">
        <ele>-2.2000000476837</ele>
        <time>2021-03-07T11:15:28.000Z</time>
      </trkpt>
      <trkpt lat="47.25529" lon="-2.33392">
        <ele>-2.2000000476837</ele>
        <time>2021-03-07T11:15:33.000Z</time>
      </trkpt>
      <trkpt lat="47.25523" lon="-2.33339">
        <ele>-2.2000000476837</ele>
        <time>2021-03-07T11:15:39.000Z</time>
      </trkpt>
      <trkpt lat="47.25516" lon="-2.33275">
        <ele>-2.2000000476837</ele>
        <time>2021-03-07T11:15:46.000Z</time>
      </trkpt>
      <trkpt lat="47.25512" lon="-2.33247">
        <ele>-2.2000000476837</ele>
        <time>2021-03-07T11:15:49.000Z</time>
      </trkpt>
      <trkpt lat="47.25509" lon="-2.33229">
        <ele>-2.2000000476837</ele>
        <time>2021-03-07T11:15:51.000Z</time>
      </trkpt>
      <trkpt lat="47.25507" lon="-2.3322">
        <ele>-2.2000000476837</ele>
        <time>2021-03-07T11:15:52.000Z</time>
      </trkpt>
      <trkpt lat="47.25497" lon="-2.33146">
        <ele>-2.2000000476837</ele>
        <time>2021-03-07T11:16:00.000Z</time>
      </trkpt>
      <trkpt lat="47.25488" lon="-2.33097">
        <ele>-2.2000000476837</ele>
        <time>2021-03-07T11:16:06.000Z</time>
      </trkpt>
      <trkpt lat="47.25479" lon="-2.33093">
        <ele>-2.2000000476837</ele>
        <time>2021-03-07T11:16:08.000Z</time>
      </trkpt>
      <trkpt lat="47.25461" lon="-2.33102">
        <ele>-2.2000000476837</ele>
        <time>2021-03-07T11:16:12.000Z</time>
      </trkpt>
      <trkpt lat="47.25451" lon="-2.33108">
        <ele>-2.2000000476837</ele>
        <time>2021-03-07T11:16:14.000Z</time>
      </trkpt>
      <trkpt lat="47.25418" lon="-2.3312">
        <ele>-2.2000000476837</ele>
        <time>2021-03-07T11:16:20.000Z</time>
      </trkpt>
      <trkpt lat="47.25389" lon="-2.33134">
        <ele>-2.2000000476837</ele>
        <time>2021-03-07T11:16:26.000Z</time>
      </trkpt>
      <trkpt lat="47.25385" lon="-2.33138">
        <ele>-2.2000000476837</ele>
        <time>2021-03-07T11:16:27.000Z</time>
      </trkpt>
      <trkpt lat="47.25381" lon="-2.33138">
        <ele>-2.2000000476837</ele>
        <time>2021-03-07T11:16:28.000Z</time>
      </trkpt>
      <trkpt lat="47.25377" lon="-2.33134">
        <ele>-2.2000000476837</ele>
        <time>2021-03-07T11:16:29.000Z</time>
      </trkpt>
      <trkpt lat="47.25373" lon="-2.3312">
        <ele>-2.2000000476837</ele>
        <time>2021-03-07T11:16:32.000Z</time>
      </trkpt>
      <trkpt lat="47.25369" lon="-2.33099">
        <ele>-2.2000000476837</ele>
        <time>2021-03-07T11:16:38.000Z</time>
      </trkpt>
      <trkpt lat="47.25368" lon="-2.33093">
        <ele>-2.2000000476837</ele>
        <time>2021-03-07T11:16:41.000Z</time>
      </trkpt>
      <trkpt lat="47.25366" lon="-2.33086">
        <ele>-2.2000000476837</ele>
        <time>2021-03-07T11:30:44.000Z</time>
      </trkpt>
      <trkpt lat="47.25365" lon="-2.33084">
        <ele>-2.2000000476837</ele>
        <time>2021-03-07T11:30:45.000Z</time>
      </trkpt>
      <trkpt lat="47.25358" lon="-2.33073">
        <ele>-2.2000000476837</ele>
        <time>2021-03-07T11:30:49.000Z</time>
      </trkpt>
      <trkpt lat="47.25356" lon="-2.33067">
        <ele>-2.2000000476837</ele>
        <time>2021-03-07T11:30:50.000Z</time>
      </trkpt>
      <trkpt lat="47.25344" lon="-2.33038">
        <ele>-2.2000000476837</ele>
        <time>2021-03-07T11:30:55.000Z</time>
      </trkpt>
      <trkpt lat="47.2533" lon="-2.33001">
        <ele>-2.2000000476837</ele>
        <time>2021-03-07T11:31:01.000Z</time>
      </trkpt>
      <trkpt lat="47.25324" lon="-2.32987">
        <ele>-2.2000000476837</ele>
        <time>2021-03-07T11:31:03.000Z</time>
      </trkpt>
      <trkpt lat="47.25312" lon="-2.32956">
        <ele>-1.7999999523163</ele>
        <time>2021-03-07T11:31:08.000Z</time>
      </trkpt>
      <trkpt lat="47.2531" lon="-2.3295">
        <ele>-1.3999999761581</ele>
        <time>2021-03-07T11:31:09.000Z</time>
      </trkpt>
      <trkpt lat="47.25308" lon="-2.32944">
        <ele>-1</ele>
        <time>2021-03-07T11:31:10.000Z</time>
      </trkpt>
      <trkpt lat="47.25306" lon="-2.32937">
        <ele>-0.60000002384186</ele>
        <time>2021-03-07T11:31:11.000Z</time>
      </trkpt>
      <trkpt lat="47.25307" lon="-2.3293">
        <ele>-0.20000000298023</ele>
        <time>2021-03-07T11:31:12.000Z</time>
      </trkpt>
      <trkpt lat="47.25312" lon="-2.32919">
        <ele>-0.20000000298023</ele>
        <time>2021-03-07T11:31:14.000Z</time>
      </trkpt>
      <trkpt lat="47.25324" lon="-2.32907">
        <ele>-0.20000000298023</ele>
        <time>2021-03-07T11:31:17.000Z</time>
      </trkpt>
      <trkpt lat="47.25327" lon="-2.32902">
        <ele>-0.20000000298023</ele>
        <time>2021-03-07T11:31:18.000Z</time>
      </trkpt>
      <trkpt lat="47.25347" lon="-2.32881">
        <ele>-0.20000000298023</ele>
        <time>2021-03-07T11:31:23.000Z</time>
      </trkpt>
      <trkpt lat="47.25368" lon="-2.32859">
        <ele>-0.20000000298023</ele>
        <time>2021-03-07T11:31:28.000Z</time>
      </trkpt>
      <trkpt lat="47.2538" lon="-2.32846">
        <ele>-0.20000000298023</ele>
        <time>2021-03-07T11:31:31.000Z</time>
      </trkpt>
      <trkpt lat="47.2541" lon="-2.32806">
        <ele>-0.20000000298023</ele>
        <time>2021-03-07T11:31:39.000Z</time>
      </trkpt>
      <trkpt lat="47.25424" lon="-2.32781">
        <ele>-0.20000000298023</ele>
        <time>2021-03-07T11:31:44.000Z</time>
      </trkpt>
      <trkpt lat="47.25426" lon="-2.3277">
        <ele>-0.20000000298023</ele>
        <time>2021-03-07T11:31:46.000Z</time>
      </trkpt>
      <trkpt lat="47.25429" lon="-2.32766">
        <ele>-0.20000000298023</ele>
        <time>2021-03-07T11:31:47.000Z</time>
      </trkpt>
      <trkpt lat="47.25437" lon="-2.32757">
        <ele>-0.20000000298023</ele>
        <time>2021-03-07T11:31:49.000Z</time>
      </trkpt>
      <trkpt lat="47.2544" lon="-2.32752">
        <ele>0.20000000298023</ele>
        <time>2021-03-07T11:31:50.000Z</time>
      </trkpt>
      <trkpt lat="47.25444" lon="-2.32747">
        <ele>0.60000002384186</ele>
        <time>2021-03-07T11:31:51.000Z</time>
      </trkpt>
      <trkpt lat="47.25447" lon="-2.32742">
        <ele>1</ele>
        <time>2021-03-07T11:31:52.000Z</time>
      </trkpt>
      <trkpt lat="47.25451" lon="-2.32736">
        <ele>1.3999999761581</ele>
        <time>2021-03-07T11:31:53.000Z</time>
      </trkpt>
      <trkpt lat="47.25454" lon="-2.32732">
        <ele>1.7999999523163</ele>
        <time>2021-03-07T11:31:54.000Z</time>
      </trkpt>
      <trkpt lat="47.25458" lon="-2.32727">
        <ele>1.7999999523163</ele>
        <time>2021-03-07T11:31:55.000Z</time>
      </trkpt>
      <trkpt lat="47.25465" lon="-2.32718">
        <ele>1.7999999523163</ele>
        <time>2021-03-07T11:31:57.000Z</time>
      </trkpt>
      <trkpt lat="47.25479" lon="-2.32698">
        <ele>1.7999999523163</ele>
        <time>2021-03-07T11:32:01.000Z</time>
      </trkpt>
      <trkpt lat="47.25484" lon="-2.32685">
        <ele>1.7999999523163</ele>
        <time>2021-03-07T11:32:03.000Z</time>
      </trkpt>
      <trkpt lat="47.25485" lon="-2.32658">
        <ele>1.7999999523163</ele>
        <time>2021-03-07T11:32:07.000Z</time>
      </trkpt>
      <trkpt lat="47.25482" lon="-2.32637">
        <ele>1.7999999523163</ele>
        <time>2021-03-07T11:32:10.000Z</time>
      </trkpt>
      <trkpt lat="47.2548" lon="-2.32624">
        <ele>1.7999999523163</ele>
        <time>2021-03-07T11:32:12.000Z</time>
      </trkpt>
      <trkpt lat="47.2548" lon="-2.32617">
        <ele>1.7999999523163</ele>
        <time>2021-03-07T11:32:13.000Z</time>
      </trkpt>
      <trkpt lat="47.25478" lon="-2.32584">
        <ele>1.7999999523163</ele>
        <time>2021-03-07T11:32:18.000Z</time>
      </trkpt>
      <trkpt lat="47.2548" lon="-2.32573">
        <ele>1.7999999523163</ele>
        <time>2021-03-07T11:32:20.000Z</time>
      </trkpt>
      <trkpt lat="47.25483" lon="-2.32562">
        <ele>1.7999999523163</ele>
        <time>2021-03-07T11:32:22.000Z</time>
      </trkpt>
      <trkpt lat="47.25493" lon="-2.32548">
        <ele>1.7999999523163</ele>
        <time>2021-03-07T11:32:25.000Z</time>
      </trkpt>
      <trkpt lat="47.25502" lon="-2.3254">
        <ele>1.7999999523163</ele>
        <time>2021-03-07T11:32:27.000Z</time>
      </trkpt>
      <trkpt lat="47.2551" lon="-2.32532">
        <ele>1.7999999523163</ele>
        <time>2021-03-07T11:32:29.000Z</time>
      </trkpt>
      <trkpt lat="47.25514" lon="-2.32527">
        <ele>1.7999999523163</ele>
        <time>2021-03-07T11:32:30.000Z</time>
      </trkpt>
      <trkpt lat="47.25518" lon="-2.32524">
        <ele>1.7999999523163</ele>
        <time>2021-03-07T11:32:31.000Z</time>
      </trkpt>
      <trkpt lat="47.25533" lon="-2.32512">
        <ele>1.7999999523163</ele>
        <time>2021-03-07T11:32:34.000Z</time>
      </trkpt>
      <trkpt lat="47.25538" lon="-2.32507">
        <ele>1.7999999523163</ele>
        <time>2021-03-07T11:32:35.000Z</time>
      </trkpt>
      <trkpt lat="47.25548" lon="-2.32498">
        <ele>1.7999999523163</ele>
        <time>2021-03-07T11:32:37.000Z</time>
      </trkpt>
      <trkpt lat="47.25565" lon="-2.32481">
        <ele>1.7999999523163</ele>
        <time>2021-03-07T11:32:40.000Z</time>
      </trkpt>
      <trkpt lat="47.25582" lon="-2.32465">
        <ele>1.3999999761581</ele>
        <time>2021-03-07T11:32:43.000Z</time>
      </trkpt>
      <trkpt lat="47.25587" lon="-2.3246">
        <ele>1</ele>
        <time>2021-03-07T11:32:44.000Z</time>
      </trkpt>
      <trkpt lat="47.25593" lon="-2.32453">
        <ele>0.40000000596046</ele>
        <time>2021-03-07T11:32:45.000Z</time>
      </trkpt>
      <trkpt lat="47.25598" lon="-2.32446">
        <ele>6.9</ele>
        <time>2021-03-07T11:32:46.000Z</time>
      </trkpt>
      <trkpt lat="47.25604" lon="-2.32439">
        <ele>-0.40000000596046</ele>
        <time>2021-03-07T11:32:47.000Z</time>
      </trkpt>
      <trkpt lat="47.25632" lon="-2.3241">
        <ele>-0.80000001192093</ele>
        <time>2021-03-07T11:32:52.000Z</time>
      </trkpt>
      <trkpt lat="47.25637" lon="-2.32405">
        <ele>-1.2000000476837</ele>
        <time>2021-03-07T11:32:53.000Z</time>
      </trkpt>
      <trkpt lat="47.25643" lon="-2.32402">
        <ele>-1.6000000238419</ele>
        <time>2021-03-07T11:32:54.000Z</time>
      </trkpt>
      <trkpt lat="47.25648" lon="-2.324">
        <ele>-2.2000000476837</ele>
        <time>2021-03-07T11:32:55.000Z</time>
      </trkpt>
      <trkpt lat="47.25653" lon="-2.32399">
        <ele>-2.5999999046326</ele>
        <time>2021-03-07T11:32:56.000Z</time>
      </trkpt>
      <trkpt lat="47.25659" lon="-2.324">
        <ele>-3</ele>
        <time>2021-03-07T11:32:57.000Z</time>
      </trkpt>
      <trkpt lat="47.25664" lon="-2.32403">
        <ele>-3.5999999046326</ele>
        <time>2021-03-07T11:32:58.000Z</time>
      </trkpt>
      <trkpt lat="47.25669" lon="-2.32408">
        <ele>-4</ele>
        <time>2021-03-07T11:32:59.000Z</time>
      </trkpt>
      <trkpt lat="47.25674" lon="-2.32414">
        <ele>-4.5999999046326</ele>
        <time>2021-03-07T11:33:00.000Z</time>
      </trkpt>
      <trkpt lat="47.25692" lon="-2.32419">
        <ele>-4.5999999046326</ele>
        <time>2021-03-07T11:33:03.000Z</time>
      </trkpt>
      <trkpt lat="47.25699" lon="-2.3242">
        <ele>-4.5999999046326</ele>
        <time>2021-03-07T11:33:04.000Z</time>
      </trkpt>
      <trkpt lat="47.25734" lon="-2.32421">
        <ele>-4.5999999046326</ele>
        <time>2021-03-07T11:33:10.000Z</time>
      </trkpt>
      <trkpt lat="47.25756" lon="-2.3242">
        <ele>-4.5999999046326</ele>
        <time>2021-03-07T11:33:14.000Z</time>
      </trkpt>
      <trkpt lat="47.25765" lon="-2.32416">
        <ele>-4.5999999046326</ele>
        <time>2021-03-07T11:33:16.000Z</time>
      </trkpt>
      <trkpt lat="47.25783" lon="-2.32416">
        <ele>-4.5999999046326</ele>
        <time>2021-03-07T11:33:20.000Z</time>
      </trkpt>
      <trkpt lat="47.25794" lon="-2.32438">
        <ele>-4.5999999046326</ele>
        <time>2021-03-07T11:33:23.000Z</time>
      </trkpt>
      <trkpt lat="47.25798" lon="-2.32446">
        <ele>-4.5999999046326</ele>
        <time>2021-03-07T11:33:24.000Z</time>
      </trkpt>
      <trkpt lat="47.25802" lon="-2.32452">
        <ele>-4.5999999046326</ele>
        <time>2021-03-07T11:33:25.000Z</time>
      </trkpt>
      <trkpt lat="47.25813" lon="-2.32459">
        <ele>-4.5999999046326</ele>
        <time>2021-03-07T11:33:27.000Z</time>
      </trkpt>
      <trkpt lat="47.2583" lon="-2.32469">
        <ele>-4.5999999046326</ele>
        <time>2021-03-07T11:33:30.000Z</time>
      </trkpt>
      <trkpt lat="47.25842" lon="-2.32474">
        <ele>-4.5999999046326</ele>
        <time>2021-03-07T11:33:32.000Z</time>
      </trkpt>
      <trkpt lat="47.25847" lon="-2.32475">
        <ele>-4.5999999046326</ele>
        <time>2021-03-07T11:33:33.000Z</time>
      </trkpt>
      <trkpt lat="47.25869" lon="-2.32472">
        <ele>-4.5999999046326</ele>
        <time>2021-03-07T11:33:37.000Z</time>
      </trkpt>
      <trkpt lat="47.25892" lon="-2.32463">
        <ele>-4.5999999046326</ele>
        <time>2021-03-07T11:33:41.000Z</time>
      </trkpt>
      <trkpt lat="47.25897" lon="-2.32458">
        <ele>-4.5999999046326</ele>
        <time>2021-03-07T11:33:42.000Z</time>
      </trkpt>
      <trkpt lat="47.25924" lon="-2.32425">
        <ele>-4.5999999046326</ele>
        <time>2021-03-07T11:33:48.000Z</time>
      </trkpt>
      <trkpt lat="47.25948" lon="-2.32391">
        <ele>-5</ele>
        <time>2021-03-07T11:33:54.000Z</time>
      </trkpt>
      <trkpt lat="47.25952" lon="-2.32385">
        <ele>-5.4000000953674</ele>
        <time>2021-03-07T11:33:55.000Z</time>
      </trkpt>
      <trkpt lat="47.25956" lon="-2.32379">
        <ele>-5.8000001907349</ele>
        <time>2021-03-07T11:33:56.000Z</time>
      </trkpt>
      <trkpt lat="47.2596" lon="-2.32373">
        <ele>-6.1999998092651</ele>
        <time>2021-03-07T11:33:57.000Z</time>
      </trkpt>
      <trkpt lat="47.25964" lon="-2.32367">
        <ele>-6.5999999046326</ele>
        <time>2021-03-07T11:33:58.000Z</time>
      </trkpt>
      <trkpt lat="47.25977" lon="-2.32351">
        <ele>-6.5999999046326</ele>
        <time>2021-03-07T11:34:01.000Z</time>
      </trkpt>
      <trkpt lat="47.26013" lon="-2.32307">
        <ele>-6.5999999046326</ele>
        <time>2021-03-07T11:34:09.000Z</time>
      </trkpt>
      <trkpt lat="47.26053" lon="-2.32261">
        <ele>-6.5999999046326</ele>
        <time>2021-03-07T11:34:18.000Z</time>
      </trkpt>
      <trkpt lat="47.26086" lon="-2.32219">
        <ele>-6.5999999046326</ele>
        <time>2021-03-07T11:34:26.000Z</time>
      </trkpt>
      <trkpt lat="47.261" lon="-2.32193">
        <ele>-6.5999999046326</ele>
        <time>2021-03-07T11:34:30.000Z</time>
      </trkpt>
      <trkpt lat="47.26106" lon="-2.3218">
        <ele>-6.5999999046326</ele>
        <time>2021-03-07T11:34:32.000Z</time>
      </trkpt>
      <trkpt lat="47.26126" lon="-2.3213">
        <ele>-6.5999999046326</ele>
        <time>2021-03-07T11:34:39.000Z</time>
      </trkpt>
      <trkpt lat="47.26138" lon="-2.32084">
        <ele>-6.5999999046326</ele>
        <time>2021-03-07T11:34:45.000Z</time>
      </trkpt>
      <trkpt lat="47.26155" lon="-2.32027">
        <ele>-6.5999999046326</ele>
        <time>2021-03-07T11:34:53.000Z</time>
      </trkpt>
      <trkpt lat="47.26158" lon="-2.32022">
        <ele>-6.5999999046326</ele>
        <time>2021-03-07T11:34:54.000Z</time>
      </trkpt>
      <trkpt lat="47.26162" lon="-2.32019">
        <ele>-7.1999998092651</ele>
        <time>2021-03-07T11:34:55.000Z</time>
      </trkpt>
      <trkpt lat="47.26165" lon="-2.32017">
        <ele>-7.5999999046326</ele>
        <time>2021-03-07T11:34:56.000Z</time>
      </trkpt>
      <trkpt lat="47.26169" lon="-2.32017">
        <ele>-8</ele>
        <time>2021-03-07T11:34:57.000Z</time>
      </trkpt>
      <trkpt lat="47.26173" lon="-2.32017">
        <ele>-8.3999996185303</ele>
        <time>2021-03-07T11:34:58.000Z</time>
      </trkpt>
      <trkpt lat="47.26177" lon="-2.32017">
        <ele>-8.8000001907349</ele>
        <time>2021-03-07T11:34:59.000Z</time>
      </trkpt>
      <trkpt lat="47.26187" lon="-2.32019">
        <ele>-8.8000001907349</ele>
        <time>2021-03-07T11:35:02.000Z</time>
      </trkpt>
      <trkpt lat="47.26195" lon="-2.3202">
        <ele>-8.8000001907349</ele>
        <time>2021-03-07T11:35:05.000Z</time>
      </trkpt>
      <trkpt lat="47.26198" lon="-2.32013">
        <ele>-8.8000001907349</ele>
        <time>2021-03-07T11:35:07.000Z</time>
      </trkpt>
      <trkpt lat="47.26203" lon="-2.32001">
        <ele>-8.8000001907349</ele>
        <time>2021-03-07T11:35:11.000Z</time>
      </trkpt>
      <trkpt lat="47.26211" lon="-2.31992">
        <ele>-8.8000001907349</ele>
        <time>2021-03-07T11:35:14.000Z</time>
      </trkpt>
      <trkpt lat="47.26216" lon="-2.31985">
        <ele>-8.8000001907349</ele>
        <time>2021-03-07T11:35:16.000Z</time>
      </trkpt>
      <trkpt lat="47.2623" lon="-2.31972">
        <ele>-8.8000001907349</ele>
        <time>2021-03-07T11:35:21.000Z</time>
      </trkpt>
      <trkpt lat="47.2624" lon="-2.31955">
        <ele>-8.8000001907349</ele>
        <time>2021-03-07T11:35:25.000Z</time>
      </trkpt>
      <trkpt lat="47.26252" lon="-2.31931">
        <ele>-8.8000001907349</ele>
        <time>2021-03-07T11:35:31.000Z</time>
      </trkpt>
      <trkpt lat="47.26268" lon="-2.31906">
        <ele>-8.8000001907349</ele>
        <time>2021-03-07T11:35:37.000Z</time>
      </trkpt>
      <trkpt lat="47.26288" lon="-2.31887">
        <ele>-8.8000001907349</ele>
        <time>2021-03-07T11:35:43.000Z</time>
      </trkpt>
      <trkpt lat="47.26291" lon="-2.31878">
        <ele>-8.8000001907349</ele>
        <time>2021-03-07T11:35:45.000Z</time>
      </trkpt>
      <trkpt lat="47.26292" lon="-2.31872">
        <ele>-8.8000001907349</ele>
        <time>2021-03-07T11:35:46.000Z</time>
      </trkpt>
      <trkpt lat="47.26292" lon="-2.3186">
        <ele>-8.8000001907349</ele>
        <time>2021-03-07T11:35:48.000Z</time>
      </trkpt>
      <trkpt lat="47.26295" lon="-2.31848">
        <ele>-8.8000001907349</ele>
        <time>2021-03-07T11:35:50.000Z</time>
      </trkpt>
      <trkpt lat="47.263" lon="-2.31818">
        <ele>-8.8000001907349</ele>
        <time>2021-03-07T11:35:55.000Z</time>
      </trkpt>
      <trkpt lat="47.26302" lon="-2.31798">
        <ele>-8.8000001907349</ele>
        <time>2021-03-07T11:35:58.000Z</time>
      </trkpt>
      <trkpt lat="47.26302" lon="-2.31785">
        <ele>-8.8000001907349</ele>
        <time>2021-03-07T11:36:00.000Z</time>
      </trkpt>
      <trkpt lat="47.26302" lon="-2.31772">
        <ele>-8.8000001907349</ele>
        <time>2021-03-07T11:36:02.000Z</time>
      </trkpt>
      <trkpt lat="47.26302" lon="-2.31759">
        <ele>-8.8000001907349</ele>
        <time>2021-03-07T11:36:04.000Z</time>
      </trkpt>
      <trkpt lat="47.26302" lon="-2.31752">
        <ele>-8.8000001907349</ele>
        <time>2021-03-07T11:36:05.000Z</time>
      </trkpt>
      <trkpt lat="47.26299" lon="-2.31732">
        <ele>-8.8000001907349</ele>
        <time>2021-03-07T11:36:08.000Z</time>
      </trkpt>
      <trkpt lat="47.26303" lon="-2.31719">
        <ele>-8.8000001907349</ele>
        <time>2021-03-07T11:36:10.000Z</time>
      </trkpt>
      <trkpt lat="47.26313" lon="-2.3171">
        <ele>-8.8000001907349</ele>
        <time>2021-03-07T11:36:13.000Z</time>
      </trkpt>
      <trkpt lat="47.26316" lon="-2.31708">
        <ele>-8.8000001907349</ele>
        <time>2021-03-07T11:36:14.000Z</time>
      </trkpt>
      <trkpt lat="47.2633" lon="-2.31692">
        <ele>-8.8000001907349</ele>
        <time>2021-03-07T11:36:19.000Z</time>
      </trkpt>
      <trkpt lat="47.26337" lon="-2.31687">
        <ele>-8.8000001907349</ele>
        <time>2021-03-07T11:36:21.000Z</time>
      </trkpt>
      <trkpt lat="47.26341" lon="-2.31685">
        <ele>-8.3999996185303</ele>
        <time>2021-03-07T11:36:22.000Z</time>
      </trkpt>
      <trkpt lat="47.26344" lon="-2.31684">
        <ele>-8</ele>
        <time>2021-03-07T11:36:23.000Z</time>
      </trkpt>
      <trkpt lat="47.26347" lon="-2.31682">
        <ele>-7.5999999046326</ele>
        <time>2021-03-07T11:36:24.000Z</time>
      </trkpt>
      <trkpt lat="47.26351" lon="-2.3168">
        <ele>-7</ele>
        <time>2021-03-07T11:36:25.000Z</time>
      </trkpt>
      <trkpt lat="47.26354" lon="-2.31678">
        <ele>-6.5999999046326</ele>
        <time>2021-03-07T11:36:26.000Z</time>
      </trkpt>
      <trkpt lat="47.26364" lon="-2.31673">
        <ele>-6.5999999046326</ele>
        <time>2021-03-07T11:36:29.000Z</time>
      </trkpt>
      <trkpt lat="47.26389" lon="-2.3166">
        <ele>-6.5999999046326</ele>
        <time>2021-03-07T11:36:36.000Z</time>
      </trkpt>
      <trkpt lat="47.26397" lon="-2.31657">
        <ele>-6.1999998092651</ele>
        <time>2021-03-07T11:36:39.000Z</time>
      </trkpt>
      <trkpt lat="47.264" lon="-2.31655">
        <ele>-5.8000001907349</ele>
        <time>2021-03-07T11:36:40.000Z</time>
      </trkpt>
      <trkpt lat="47.26404" lon="-2.31653">
        <ele>-5.4000000953674</ele>
        <time>2021-03-07T11:36:41.000Z</time>
      </trkpt>
      <trkpt lat="47.26407" lon="-2.3165">
        <ele>-5</ele>
        <time>2021-03-07T11:36:42.000Z</time>
      </trkpt>
      <trkpt lat="47.26409" lon="-2.31646">
        <ele>-4.5999999046326</ele>
        <time>2021-03-07T11:36:43.000Z</time>
      </trkpt>
      <trkpt lat="47.26408" lon="-2.31643">
        <ele>-4.5999999046326</ele>
        <time>2021-03-07T11:36:44.000Z</time>
      </trkpt>
      <trkpt lat="47.26408" lon="-2.31612">
        <ele>-4.5999999046326</ele>
        <time>2021-03-07T11:36:50.000Z</time>
      </trkpt>
      <trkpt lat="47.2641" lon="-2.31576">
        <ele>-4.5999999046326</ele>
        <time>2021-03-07T11:36:57.000Z</time>
      </trkpt>
      <trkpt lat="47.26411" lon="-2.31552">
        <ele>-4.5999999046326</ele>
        <time>2021-03-07T11:37:02.000Z</time>
      </trkpt>
      <trkpt lat="47.26416" lon="-2.31551">
        <ele>-4.5999999046326</ele>
        <time>2021-03-07T11:37:05.000Z</time>
      </trkpt>
      <trkpt lat="47.26417" lon="-2.31551">
        <ele>-4.5999999046326</ele>
        <time>2021-03-07T11:37:07.000Z</time>
      </trkpt>
    </trkseg>
  </trk>
</gpx>